ECMWFFLT1_250_spd_000.txt.gz
Wind_Speed
24 24 23 22 21 21 21 21 21 21 21 20 21 22 24 26 27 28 30 31 32 33 33 33 33 33 33 33 33 33 33 34 34 34 34 34 35 35 35 36 38 39 39 39 39 38 38 39 40 40 39 39 39 39 41 41 43 50 55 56 56 51 45
27 26 26 24 24 24 24 24 25 24 24 24 25 26 27 28 29 30 32 33 34 34 34 34 34 34 34 33 33 33 34 34 34 34 35 35 36 36 37 37 39 39 38 38 38 38 39 40 39 39 41 42 42 42 41 43 47 55 59 58 57 52 47
29 29 28 27 27 27 27 28 28 27 27 28 28 29 30 30 31 32 34 34 35 35 35 35 35 35 35 34 34 33 34 34 35 35 36 36 37 38 39 40 40 40 39 39 38 36 37 37 36 38 41 44 46 45 45 49 54 58 59 59 57 54 50
32 31 30 30 30 29 30 31 31 30 30 31 31 32 32 33 33 34 35 35 35 36 36 36 36 36 36 35 34 34 34 35 35 36 37 38 39 40 42 42 42 41 39 37 35 33 34 35 36 38 41 45 47 48 51 55 57 58 58 58 57 55 53
34 33 33 32 32 32 32 34 34 33 33 33 33 33 34 34 35 35 36 36 36 37 38 38 38 38 37 37 36 35 35 35 36 38 39 39 40 41 42 42 42 40 37 35 35 35 35 36 38 39 41 43 45 48 52 56 56 56 57 57 56 55 53
36 36 35 35 35 34 35 36 36 36 35 34 34 34 35 36 36 36 37 37 38 39 39 40 40 39 39 38 37 36 36 36 38 39 40 40 41 41 41 41 41 39 37 40 41 39 38 39 41 42 43 44 46 49 52 54 54 55 56 56 56 54 51
39 39 38 38 38 37 37 38 38 38 37 36 36 36 36 36 37 37 38 39 40 40 41 41 41 40 40 39 38 38 36 37 39 40 41 41 40 40 39 38 37 37 40 46 44 40 40 41 42 43 45 46 48 51 53 54 53 53 54 55 54 52 50
42 42 41 41 41 39 38 38 39 39 38 37 37 37 37 38 38 39 40 40 41 42 42 42 42 42 41 40 39 39 38 39 39 38 39 39 40 40 37 34 35 39 45 48 44 42 43 42 41 42 45 46 48 51 53 53 52 52 54 56 54 51 49
44 44 43 42 42 41 40 39 40 39 39 39 39 39 40 40 40 41 41 42 43 43 44 44 44 43 42 42 41 41 41 40 38 37 38 40 40 41 40 40 42 46 49 50 47 46 46 45 45 46 48 49 50 51 52 52 52 56 59 59 56 53 51
46 45 44 43 43 43 41 40 41 40 40 40 41 41 41 42 42 43 43 44 44 45 46 45 45 45 44 44 43 43 42 40 38 40 40 39 41 44 47 50 50 49 50 53 54 52 50 50 51 51 51 50 50 51 50 50 55 61 63 59 53 52 52
49 47 46 46 46 45 43 43 43 42 42 42 42 42 42 43 43 44 45 46 46 47 48 48 47 47 47 46 44 43 43 41 42 43 41 41 45 49 53 54 53 53 54 56 58 56 53 51 51 50 49 47 47 47 47 51 59 63 61 55 51 51 53
50 49 49 48 48 47 46 46 45 44 43 43 43 43 43 43 44 46 47 48 48 49 49 50 49 49 49 48 46 45 45 45 44 44 45 48 51 53 55 54 52 54 56 55 56 57 54 51 49 48 48 46 45 46 49 56 62 63 60 58 56 57 59
52 52 51 50 49 49 49 48 47 46 45 44 44 44 44 45 46 47 48 49 50 51 52 52 52 52 52 50 47 46 46 46 44 43 45 50 52 54 54 51 48 51 54 53 55 58 57 53 50 49 48 46 45 48 54 59 62 62 62 62 63 65 67
54 53 53 52 52 52 51 50 49 47 46 45 45 45 45 46 47 48 50 50 52 53 54 54 54 55 55 52 49 49 47 46 44 43 43 46 51 52 49 47 47 51 53 54 56 59 59 55 51 48 48 48 48 51 56 60 62 63 64 65 68 70 69
55 54 54 54 55 55 53 52 51 49 47 46 47 47 47 48 48 50 51 52 53 55 56 57 57 58 56 54 52 52 50 47 46 44 43 43 47 52 52 51 52 53 53 53 55 57 58 56 54 53 53 54 56 59 62 64 65 66 67 68 71 72 70
57 57 57 57 58 57 55 53 52 50 48 48 49 49 49 49 50 51 52 54 55 57 58 59 59 59 57 55 54 54 52 49 47 46 45 42 43 50 53 52 52 52 50 50 52 55 57 58 59 62 63 64 65 67 68 68 67 68 69 71 73 74 75
59 60 60 60 60 58 56 55 54 52 50 50 51 51 51 51 52 53 55 56 58 59 59 60 60 60 58 57 57 56 54 52 49 46 45 43 43 46 49 49 49 49 48 49 53 56 58 60 63 66 68 70 70 72 72 72 71 72 73 75 76 77 77
61 62 63 63 61 59 58 58 56 53 52 53 53 53 53 53 54 55 57 58 59 60 61 61 61 60 59 59 59 59 58 56 53 48 45 44 44 45 47 49 49 48 49 53 56 59 60 62 63 66 68 70 72 74 75 75 76 76 77 78 78 78 78
63 64 65 64 62 60 60 60 58 56 55 55 55 55 55 55 56 58 58 59 60 61 62 62 61 61 61 61 62 63 62 60 57 53 48 45 45 46 47 50 51 51 54 57 60 61 62 62 64 66 68 69 71 73 75 76 76 76 77 77 78 78 78
65 66 66 65 63 62 63 62 60 58 57 57 57 57 57 57 59 60 60 61 62 63 64 64 63 62 63 63 64 64 64 63 61 57 53 50 48 48 50 52 55 56 58 61 63 64 64 65 66 67 68 69 71 72 73 75 75 75 75 76 77 78 78
67 67 67 66 65 64 64 64 62 60 59 58 58 58 58 59 61 62 62 63 64 65 66 66 65 65 65 65 66 66 65 65 63 60 57 54 52 51 53 55 58 60 62 64 65 66 67 67 67 68 68 69 70 71 72 73 73 73 73 74 75 77 78
68 69 68 67 67 66 66 66 63 61 61 61 60 60 60 61 64 65 65 65 66 67 68 67 67 67 67 68 68 68 67 66 65 62 61 58 55 54 56 59 61 63 64 66 68 68 68 68 68 68 68 69 70 70 70 71 71 71 71 72 74 75 76
71 71 70 70 68 68 69 68 64 62 65 66 63 61 62 63 66 68 68 69 69 69 70 69 68 68 69 69 68 69 69 67 66 64 63 61 58 58 59 61 63 65 66 68 70 70 68 68 67 67 67 68 68 69 69 69 70 70 70 72 74 75 76
73 73 72 72 70 70 71 70 67 65 68 69 68 66 65 66 67 69 71 71 72 72 72 71 70 70 69 69 68 69 69 67 66 65 64 62 61 61 63 64 65 66 67 68 69 68 66 66 66 66 67 68 68 67 67 67 67 67 69 72 74 75 76
75 75 75 74 73 73 73 73 71 69 70 72 72 70 69 69 69 70 72 73 73 74 73 73 72 72 70 69 69 68 68 67 66 65 64 63 63 64 66 66 67 68 69 68 68 67 66 66 66 67 68 69 68 68 67 65 64 65 67 69 71 73 74
77 77 77 76 75 75 75 75 75 73 73 74 75 74 73 72 72 72 73 73 74 74 74 74 74 73 71 70 69 68 67 66 66 65 64 65 66 68 69 69 69 70 69 69 69 68 68 68 68 70 70 70 69 69 67 67 67 68 69 70 70 71 72
78 78 78 77 77 77 77 77 77 77 76 76 76 76 75 75 74 74 74 73 74 75 75 75 75 74 72 70 69 68 67 66 66 66 66 68 70 71 72 71 72 71 69 69 69 68 69 70 71 71 71 70 69 69 68 69 70 73 75 75 75 76 75
78 78 79 79 79 79 79 79 79 79 78 77 77 77 77 76 76 75 74 74 75 75 76 76 74 73 71 70 69 68 67 67 67 67 69 71 73 74 75 74 73 71 71 70 69 68 69 70 70 69 69 69 69 69 70 71 73 76 79 81 82 82 81
80 80 81 81 81 81 80 81 81 81 80 79 78 78 77 76 76 76 76 76 76 77 77 75 73 72 71 71 70 68 68 68 68 69 71 74 75 76 76 75 73 73 72 70 68 68 68 68 67 68 69 69 70 71 73 75 77 80 83 85 86 86 84
82 82 83 82 82 82 82 82 83 82 81 80 79 78 77 77 76 76 77 77 76 77 78 76 72 71 71 71 70 70 70 70 69 70 73 75 77 77 76 75 74 74 72 70 69 67 66 65 66 68 69 69 71 73 76 78 82 84 86 87 88 88 86
84 83 83 83 83 83 83 83 84 83 82 81 80 79 78 77 77 76 77 77 76 76 76 75 72 71 71 71 72 72 72 71 71 72 75 77 77 77 75 74 74 74 72 71 70 68 66 65 66 67 69 71 73 76 79 82 84 86 87 88 89 89 88
84 83 83 83 83 83 84 84 84 83 82 81 80 80 79 78 77 76 77 77 76 75 74 74 73 73 72 72 73 73 73 72 73 74 76 77 76 75 74 74 74 74 73 72 71 70 69 69 69 70 72 74 77 80 82 84 85 86 87 89 90 89 88
82 82 83 83 83 83 84 84 83 82 81 79 79 79 79 78 76 75 75 75 75 75 75 75 75 74 73 73 73 73 74 75 75 76 76 75 75 74 73 73 73 73 73 72 72 71 71 72 73 74 75 78 80 81 83 84 85 87 88 90 90 89 88
82 82 82 82 82 82 83 82 81 80 78 77 77 78 78 77 76 75 75 75 75 76 76 76 76 75 74 73 74 75 76 77 77 76 75 75 74 74 73 72 72 72 72 73 73 73 73 74 75 76 77 79 81 82 84 86 87 89 90 90 90 91 91
82 81 81 81 81 81 80 79 78 77 76 76 76 77 77 77 75 74 75 75 75 75 77 76 75 74 74 74 74 76 77 77 76 76 75 75 75 74 72 72 72 72 72 73 73 74 75 76 76 77 79 81 83 85 87 89 90 91 92 92 92 94 94
81 80 79 79 78 78 77 76 76 76 76 76 76 77 77 76 73 73 74 75 74 75 76 75 74 74 74 75 76 76 77 77 76 74 74 75 75 74 72 72 72 72 73 74 75 76 77 78 79 80 82 84 86 88 90 91 92 94 95 95 96 97 96
80 79 78 78 77 76 76 76 76 76 77 77 76 76 76 76 74 73 73 74 74 74 75 74 74 75 75 75 76 76 76 76 75 74 73 74 74 74 73 73 74 74 75 76 77 78 79 79 80 81 83 85 87 90 92 94 95 97 98 99 99 99 96
79 79 79 78 78 78 78 78 77 78 78 78 77 76 75 74 74 74 74 74 74 75 75 75 75 76 76 76 76 75 75 74 74 73 74 74 74 74 74 74 75 75 76 76 77 77 78 78 80 81 83 86 88 91 93 95 97 99 100 100 99 97 93

ECMWFFLT1_250_spd_003.txt.gz
Wind_Speed
26 27 27 26 26 27 27 26 26 26 25 24 23 23 23 23 23 23 23 24 24 24 25 26 27 27 27 27 27 27 27 27 26 26 26 27 28 28 28 28 28 29 29 29 30 31 30 28 28 33 35 33 32 32 32 32 31 31 31 33 36 39 40
27 27 28 27 28 29 27 25 26 27 26 26 25 25 26 26 26 26 26 26 26 27 27 28 29 29 29 28 28 28 28 28 27 27 27 28 29 30 30 30 30 31 31 31 31 32 31 30 33 37 38 34 32 32 34 35 33 31 32 34 38 40 40
29 29 29 28 29 30 28 27 28 28 28 28 28 28 28 28 28 28 28 28 28 29 29 30 31 31 30 30 29 29 29 29 29 28 29 30 30 31 32 31 32 32 33 33 32 33 33 36 38 39 36 32 31 32 34 36 37 36 36 37 39 39 40
31 31 31 31 31 32 31 30 30 31 31 31 30 31 31 31 31 31 30 30 30 31 31 31 32 32 32 32 31 31 31 30 29 29 30 31 32 33 33 32 33 34 34 35 33 33 37 40 40 36 34 34 34 34 36 39 42 43 42 41 39 38 39
34 33 33 32 34 34 34 33 33 33 34 33 33 33 33 33 33 33 32 32 32 32 32 32 32 32 33 33 33 33 32 31 30 30 31 31 32 32 31 32 35 36 36 36 34 36 41 43 41 38 39 42 39 37 38 41 44 45 44 42 40 38 39
37 35 34 34 35 36 37 37 36 37 36 36 35 36 36 35 35 35 35 35 34 33 33 33 33 34 34 35 35 35 34 32 31 31 32 32 32 31 31 34 37 38 40 40 39 42 45 46 46 44 45 46 44 40 41 43 45 46 44 41 40 40 40
40 38 35 34 36 40 41 40 40 40 39 38 38 38 38 37 37 37 36 36 35 34 34 34 35 36 37 37 38 37 36 34 34 33 33 33 33 33 34 37 40 41 43 44 45 47 47 48 48 45 45 46 45 45 45 46 48 48 45 43 42 43 45
42 40 37 35 36 41 43 43 42 42 41 40 40 39 39 39 38 38 37 37 36 36 35 36 37 38 39 40 40 40 38 36 36 36 35 35 35 35 37 39 41 42 45 47 50 49 48 48 47 43 44 46 46 48 51 50 50 49 47 46 45 46 47
45 43 39 36 38 42 45 45 45 44 43 42 41 41 40 40 39 39 38 38 38 38 37 37 38 40 42 43 42 42 42 40 39 39 38 37 38 38 37 38 40 41 46 51 53 51 49 47 43 40 42 46 49 54 54 52 51 51 50 49 48 48 50
47 45 41 39 40 44 46 47 46 45 45 44 42 41 41 40 40 40 40 40 40 39 39 38 39 41 44 45 45 45 45 44 43 42 41 41 41 41 40 39 40 42 47 52 53 52 50 46 44 44 45 47 51 54 53 51 52 52 53 53 53 55 57
48 45 43 43 43 46 47 48 47 46 45 44 43 42 42 41 42 42 42 42 41 41 40 40 41 43 45 46 46 47 49 48 47 44 43 43 43 44 44 43 43 44 47 52 53 52 51 49 50 50 50 50 50 50 49 50 51 53 55 57 59 61 62
51 48 47 46 46 47 48 48 47 46 45 45 44 43 43 43 44 44 44 44 43 43 42 42 44 46 47 47 47 49 51 51 49 48 47 46 45 46 46 46 46 46 48 51 53 53 53 53 52 51 50 49 47 48 50 52 53 55 57 60 62 63 64
55 52 49 49 48 47 47 47 47 47 47 47 46 45 45 46 46 46 46 46 45 45 44 45 48 50 50 49 50 51 52 51 50 49 48 47 46 47 49 49 49 49 50 52 52 52 54 54 53 52 50 49 48 50 53 55 57 59 61 63 64 65 66
59 55 51 50 49 47 47 47 48 49 49 48 48 48 48 47 47 48 48 48 47 47 46 47 51 53 52 51 53 55 55 53 52 51 50 49 48 48 50 51 52 51 52 53 51 51 51 52 53 53 51 51 51 53 56 59 61 63 64 65 67 67 68
60 55 53 52 51 49 48 48 48 49 49 48 49 50 50 50 49 50 50 50 50 50 50 50 52 54 53 53 55 57 57 56 56 55 53 53 51 49 49 51 53 53 54 53 52 51 51 51 51 52 52 53 55 57 59 61 63 65 66 67 68 69 70
60 58 56 56 55 52 50 50 50 50 50 49 50 51 52 52 51 52 52 52 53 54 54 53 54 54 54 54 57 58 57 58 59 59 58 56 54 52 51 52 54 55 55 55 54 53 53 52 52 52 54 55 57 59 60 61 64 66 67 68 69 70 71
63 63 60 59 56 52 52 53 54 54 53 53 52 52 53 53 54 54 54 55 56 56 56 56 56 55 54 56 58 58 58 59 60 61 61 60 58 57 55 55 55 56 56 54 54 53 54 53 53 53 54 56 58 60 61 63 65 67 68 69 70 71 71
67 65 62 61 58 54 53 55 56 57 56 56 56 55 56 56 56 56 57 58 58 59 59 58 57 57 56 58 59 58 59 61 62 62 62 61 61 60 58 58 57 57 56 54 53 53 53 53 53 53 55 56 58 60 62 64 66 67 68 69 70 71 71
71 66 63 63 60 55 54 57 59 60 59 59 58 57 58 58 58 59 60 60 60 61 61 60 59 58 58 60 60 59 61 62 64 64 62 61 61 61 60 59 59 58 57 56 55 54 54 54 54 55 56 57 59 60 62 65 66 67 68 69 70 71 71
72 68 66 65 61 57 58 60 61 61 62 62 60 58 59 60 61 62 62 62 62 63 63 62 61 60 61 62 62 62 63 63 64 65 65 63 63 63 63 62 61 60 60 59 58 57 57 56 56 57 59 59 60 62 64 66 66 67 68 69 69 70 70
74 70 67 66 63 61 63 64 63 62 63 65 63 60 61 62 63 64 64 63 63 64 64 63 62 62 63 64 64 65 65 64 64 66 67 66 66 66 66 65 64 63 63 62 61 60 60 59 59 60 62 62 63 65 66 67 67 68 69 69 69 69 70
75 71 70 69 67 66 67 68 66 64 65 68 66 63 63 64 65 65 65 65 65 65 66 65 64 64 64 65 66 66 66 66 66 67 68 68 68 68 68 67 66 66 65 63 62 61 61 61 62 63 64 65 65 67 68 67 68 69 70 70 70 70 69
75 72 69 70 70 71 71 70 68 67 68 70 68 65 65 66 66 67 67 66 66 67 67 67 67 66 66 67 67 68 68 68 68 69 69 69 69 69 70 69 69 68 67 65 64 63 62 63 64 66 67 68 68 70 70 69 69 71 71 71 70 70 69
79 76 73 72 73 74 74 73 71 70 71 72 70 67 67 67 67 68 69 68 68 69 69 69 69 69 68 69 70 70 70 70 71 71 71 71 71 71 71 71 71 69 68 67 65 63 63 64 66 68 69 70 70 72 72 71 71 72 72 71 71 70 69
84 81 79 77 76 76 77 75 73 73 74 74 71 69 68 68 68 70 70 70 70 70 71 71 71 71 71 71 71 72 72 73 73 73 73 72 71 71 72 72 71 69 68 67 66 65 66 67 68 70 71 72 73 73 73 72 72 73 73 72 72 71 70
88 84 81 80 79 79 79 78 76 76 76 76 73 71 70 70 71 71 71 71 72 71 72 72 73 72 72 73 74 74 75 75 75 75 75 74 72 72 72 73 71 69 69 68 68 69 69 69 69 71 72 73 74 75 75 74 73 73 73 73 72 71 71
91 86 83 82 81 81 81 81 80 78 77 77 76 74 73 73 73 73 73 73 73 73 73 74 74 74 74 74 75 76 76 77 78 77 76 75 74 73 73 73 71 69 69 70 71 72 71 70 71 73 74 75 76 76 76 75 74 74 73 74 73 73 73
93 89 86 85 84 84 84 84 82 79 78 78 79 78 76 74 75 75 75 75 75 74 74 75 76 76 76 76 77 78 78 78 78 77 77 77 76 74 73 73 72 70 71 72 73 74 74 74 74 74 75 76 76 76 76 75 75 74 74 74 74 74 75
94 91 89 87 87 86 85 84 82 81 81 81 81 80 79 77 76 76 76 76 75 75 75 76 77 77 78 78 78 78 78 78 78 78 78 77 76 74 73 74 73 71 72 74 74 75 75 75 75 76 77 77 77 76 76 76 75 75 75 75 75 76 76
94 92 91 89 87 86 85 84 84 84 83 82 82 82 81 79 77 77 77 76 76 76 76 77 78 79 79 78 77 77 78 79 79 76 74 74 74 73 73 74 73 72 73 75 75 76 76 76 77 78 78 78 78 78 78 77 76 76 77 77 77 78 79
93 91 90 88 86 86 86 86 86 86 85 84 83 82 81 80 79 79 78 77 76 76 76 77 78 79 78 78 77 78 77 76 74 72 71 72 73 72 72 73 73 74 75 75 76 77 77 78 78 79 79 80 80 80 79 78 77 77 78 79 79 80 81
92 90 89 88 89 89 88 88 87 86 85 84 83 82 81 81 81 80 79 78 77 77 77 77 77 77 76 76 76 75 73 72 72 72 72 73 73 72 73 74 74 74 75 75 76 77 78 79 80 81 81 82 81 80 79 78 77 78 79 80 81 82 82
93 91 90 90 90 90 88 87 86 85 85 84 82 81 81 81 81 80 79 78 77 77 76 75 73 72 72 72 72 71 71 71 71 73 74 74 74 74 74 74 74 74 75 76 77 79 80 81 82 82 82 82 81 80 79 78 78 78 79 80 81 82 82
95 93 92 91 91 90 88 87 86 85 84 83 82 81 81 81 80 80 79 78 77 77 77 74 71 70 71 72 72 73 74 73 74 75 75 75 75 75 74 74 75 76 77 78 79 80 81 82 83 83 82 82 81 80 79 78 78 79 80 81 82 83 83
97 95 93 92 91 89 88 87 86 85 84 83 82 82 82 82 81 80 79 77 76 77 77 75 73 72 72 73 74 75 75 75 76 77 76 75 75 75 76 77 78 79 80 81 81 82 83 83 82 82 81 80 80 80 80 79 79 81 81 82 83 84 84
95 95 94 92 90 89 87 86 85 85 84 83 83 82 82 82 81 80 78 75 74 76 77 76 74 74 74 74 75 76 76 76 76 77 76 76 77 77 78 79 80 81 82 82 81 82 83 82 81 81 80 79 80 81 81 80 81 82 83 83 85 86 86
90 91 91 91 89 88 86 85 84 84 83 83 83 82 82 82 81 80 79 77 76 77 78 77 77 77 77 78 78 78 79 79 78 78 78 78 79 79 80 81 82 83 82 81 81 82 82 81 81 80 81 81 82 82 82 81 82 84 85 86 87 87 88
87 87 88 88 88 87 86 84 83 82 82 82 81 81 81 81 80 79 78 77 75 75 77 79 79 79 79 79 79 80 81 81 80 80 80 80 80 81 82 83 83 82 81 81 81 81 81 81 81 82 82 83 84 84 84 85 86 87 88 88 89 89 89

ECMWFFLT1_250_spd_006.txt.gz
Wind_Speed
31 31 31 30 29 28 28 27 25 23 24 25 23 21 20 20 20 21 20 20 20 21 22 23 23 24 25 25 25 25 25 24 23 23 22 22 22 23 24 25 26 28 29 29 28 29 31 32 33 34 34 34 36 39 42 43 42 40 37 35 35 37 39
32 33 33 32 30 30 28 26 25 23 24 26 27 24 21 22 23 23 23 23 23 23 24 25 25 26 27 27 27 27 26 25 24 23 23 23 23 24 25 27 28 29 29 29 29 31 33 35 36 38 37 38 40 44 45 44 43 42 39 37 37 39 43
33 33 34 33 31 30 29 27 26 24 25 28 29 26 24 24 25 26 26 26 25 26 26 26 27 28 28 29 29 28 27 26 25 25 24 24 24 25 26 28 29 29 29 30 31 34 36 37 38 39 39 40 42 45 46 46 44 42 42 42 42 45 45
32 34 35 34 32 31 31 30 28 27 28 30 31 29 27 26 27 28 28 28 28 28 29 29 29 30 30 30 30 29 28 27 27 27 26 26 26 27 28 29 30 31 31 32 34 35 37 38 39 40 41 42 44 46 46 46 45 43 44 46 46 46 45
34 35 36 35 34 33 33 33 31 30 30 31 33 32 31 29 30 31 30 30 30 31 31 31 31 31 31 31 31 30 29 28 29 28 28 28 28 29 30 31 32 33 33 34 35 35 37 38 40 42 43 44 45 47 47 47 46 47 48 48 47 45 43
37 37 39 37 37 36 36 35 34 33 32 33 35 36 35 33 32 33 32 32 32 33 33 33 33 32 32 32 32 32 31 30 31 31 31 31 30 31 33 33 34 35 35 36 36 36 37 39 41 43 45 46 48 49 49 49 49 49 49 48 46 44 43
41 40 41 41 40 39 38 37 37 37 35 36 38 38 38 36 34 34 34 34 34 34 35 35 34 34 33 33 33 33 33 33 33 33 33 33 33 34 36 36 36 37 37 37 38 38 39 41 42 43 45 47 49 50 51 50 50 50 48 46 44 43 44
44 41 43 45 42 40 40 40 40 39 37 37 39 39 40 38 35 34 34 35 35 36 36 36 35 35 35 35 35 35 35 35 36 36 36 36 37 38 39 39 39 40 40 40 40 40 41 42 43 45 46 47 49 50 51 51 51 50 48 46 44 45 47
47 43 46 48 44 42 43 42 41 40 38 38 39 40 41 38 35 34 35 36 37 38 37 37 37 37 37 37 37 37 38 39 40 40 38 39 40 41 41 42 42 42 42 41 41 41 42 43 44 45 47 48 50 51 50 50 51 50 50 48 48 49 50
49 46 48 49 46 45 45 42 42 42 40 39 40 42 42 38 35 35 36 38 39 39 38 38 39 39 38 39 39 40 41 42 42 42 41 42 43 44 44 44 44 44 43 43 43 43 44 45 46 47 48 49 50 51 50 50 50 50 51 51 51 52 53
52 49 48 50 49 47 46 44 44 44 42 41 42 43 41 38 36 37 39 39 39 39 40 41 42 41 40 41 42 43 44 44 44 43 44 45 46 46 46 46 46 46 46 45 45 45 46 48 49 49 50 50 51 50 49 48 50 50 51 52 53 54 55
55 51 49 51 52 50 48 46 46 45 44 44 44 44 43 42 40 41 42 42 40 40 41 44 45 44 43 43 45 46 46 45 45 45 46 48 48 48 49 49 48 48 48 48 47 48 49 51 52 53 54 54 54 51 47 47 50 51 51 52 53 55 56
57 53 51 53 55 53 50 48 47 46 47 48 48 46 46 47 47 47 46 45 43 42 44 46 47 46 45 46 48 49 48 47 47 47 48 50 51 51 51 51 50 50 49 49 49 49 50 52 55 56 57 57 56 51 46 48 52 52 52 52 53 55 57
59 55 55 57 57 54 51 50 49 49 49 51 51 49 48 49 50 50 49 47 45 44 47 49 50 49 49 50 51 51 50 49 48 49 49 51 52 52 53 52 52 51 50 50 50 50 51 53 55 57 60 59 55 52 51 53 55 55 54 54 53 55 57
61 59 60 60 57 55 54 53 53 52 52 53 53 52 51 51 51 51 50 49 48 47 49 52 52 51 52 53 53 53 51 51 51 51 51 52 53 54 54 54 53 52 52 51 52 52 52 53 54 58 60 57 54 56 58 59 59 58 57 55 54 55 58
63 62 63 62 60 58 58 57 56 55 54 55 56 56 55 54 54 53 51 50 50 49 50 52 53 53 54 55 54 53 53 53 54 54 54 54 54 55 55 55 55 54 54 54 54 54 54 54 55 56 56 54 57 61 62 61 61 60 59 57 55 56 58
66 66 67 66 64 62 60 58 57 57 57 58 58 58 58 56 56 55 54 52 52 52 51 52 55 57 57 57 57 55 55 55 56 57 57 56 56 57 57 57 57 56 56 56 57 57 57 57 56 55 55 58 61 63 62 61 62 62 60 59 57 57 59
69 69 69 69 66 63 61 60 59 60 60 60 59 59 58 58 57 57 57 56 55 55 54 55 58 60 60 60 60 58 57 57 58 59 59 58 58 59 59 60 59 58 58 58 58 59 59 59 59 57 59 62 63 62 62 62 62 62 61 60 59 58 60
72 72 71 70 68 65 64 65 64 63 63 61 60 59 59 59 59 59 59 58 58 59 58 58 60 62 62 62 62 60 58 59 59 60 60 60 60 60 61 62 62 62 61 61 61 61 62 62 62 61 61 63 63 62 62 61 61 62 62 61 60 60 61
75 74 72 71 72 69 68 69 68 65 64 62 60 60 60 60 60 61 61 60 61 61 61 60 61 63 64 64 63 62 61 61 61 61 61 61 61 62 63 64 65 65 65 65 64 64 65 65 65 65 64 64 65 64 63 62 62 63 64 64 63 62 64
79 77 73 73 75 73 71 72 71 67 65 64 63 63 62 63 64 64 63 62 63 64 63 62 62 64 66 66 65 64 64 63 62 62 62 63 63 64 65 66 67 68 68 68 67 67 68 68 68 68 67 67 67 66 66 64 64 64 66 67 66 66 67
82 79 75 76 79 76 73 74 73 70 67 66 66 66 66 68 68 67 66 65 65 66 66 64 64 65 67 67 67 66 65 64 64 64 64 65 66 66 67 68 70 71 71 71 70 69 70 70 70 69 70 69 69 69 69 68 66 66 68 68 69 70 71
84 82 79 80 80 77 75 76 75 73 71 70 69 69 70 71 71 70 68 67 67 67 68 66 66 67 68 68 68 67 66 65 66 66 66 67 68 68 69 71 72 73 74 75 73 72 72 72 72 70 70 70 70 71 71 69 68 69 70 70 71 72 73
88 85 82 83 82 79 77 79 78 76 75 74 72 71 72 73 74 73 71 69 67 69 70 69 68 68 69 69 68 67 67 67 68 68 69 69 70 71 72 73 74 76 77 78 76 74 73 73 73 71 69 70 71 72 72 71 72 73 73 72 73 74 75
90 87 86 86 86 83 81 81 80 79 79 78 74 72 73 74 74 73 72 69 69 71 73 72 70 68 69 70 70 69 69 69 69 70 71 71 72 73 74 76 77 78 79 80 79 78 76 74 72 71 70 71 72 73 73 73 74 75 74 74 75 75 76
92 91 89 88 88 88 86 83 82 82 79 77 75 75 76 75 74 73 72 71 70 72 75 74 70 69 70 70 71 71 70 70 71 71 72 73 74 76 77 78 79 80 81 80 81 81 78 74 72 71 72 72 72 72 73 74 74 74 75 75 77 77 78
95 92 90 89 91 93 89 84 84 83 80 78 77 77 76 76 75 75 75 73 71 72 74 74 72 71 72 72 72 72 72 72 72 73 74 75 77 78 80 80 81 81 81 80 80 80 77 73 72 73 73 73 72 72 73 73 74 75 76 77 78 79 80
95 92 91 92 94 93 88 83 82 83 82 81 79 76 75 75 75 75 76 75 75 75 75 75 75 74 74 74 73 73 73 74 74 75 76 77 79 81 82 82 82 82 81 80 79 76 73 72 73 74 74 73 73 73 74 75 76 76 77 78 79 80 81
95 94 94 94 93 89 86 84 84 84 85 85 84 83 81 79 77 77 78 78 78 78 77 77 77 77 76 75 74 74 74 75 76 77 78 79 81 83 83 83 82 81 80 79 77 75 74 75 75 75 74 73 73 73 75 76 76 77 78 79 80 81 81
95 95 94 94 91 88 87 87 85 84 82 81 82 86 86 84 82 82 83 82 81 80 79 80 79 78 77 76 76 75 76 76 77 79 80 82 83 84 84 83 81 79 78 78 77 76 77 78 76 74 74 74 74 75 76 76 77 78 79 80 82 82 83
94 93 92 91 87 84 87 89 89 86 84 81 81 82 84 85 85 86 86 86 84 82 82 81 80 79 78 77 77 77 76 77 78 80 82 83 83 84 84 84 81 79 77 77 77 78 79 77 76 74 74 74 75 76 76 77 78 79 80 82 83 84 84
87 87 87 86 83 82 86 91 90 88 88 87 86 86 88 88 88 89 89 88 87 85 84 82 81 80 79 78 78 78 78 78 80 81 82 83 83 83 82 82 80 78 77 77 78 79 78 77 76 75 74 75 76 77 77 79 80 81 82 83 84 83 84
75 77 76 76 77 79 84 88 88 86 86 89 90 91 93 93 91 91 90 88 86 87 85 83 81 80 80 80 80 79 79 79 79 80 80 81 81 80 78 77 77 76 76 77 78 79 78 76 75 75 75 76 77 78 78 80 81 82 83 83 83 83 85
65 67 67 65 67 73 80 85 84 79 77 81 85 87 87 88 89 90 90 88 87 87 86 83 81 81 81 82 81 81 80 79 79 78 77 77 77 76 74 73 73 74 75 77 78 78 77 76 75 76 77 78 78 79 79 80 81 82 83 83 84 85 86
51 55 58 58 62 72 78 77 75 72 71 74 79 83 84 85 87 89 87 85 85 84 83 82 82 82 82 82 81 80 78 78 78 76 74 75 77 75 73 71 72 74 77 78 78 77 77 77 77 78 79 80 80 80 80 81 82 82 83 84 85 86 87
37 42 49 55 61 68 69 65 64 67 70 73 78 83 87 88 89 88 86 84 83 82 81 81 81 82 81 80 80 78 75 74 76 75 74 75 76 74 73 74 75 77 79 78 77 76 77 78 79 80 80 80 81 81 82 82 82 82 83 85 86 87 88
40 46 53 60 66 70 71 71 71 71 71 73 78 83 86 89 90 90 88 87 86 84 83 82 81 81 80 79 79 78 75 74 75 76 75 76 76 76 77 78 79 78 78 76 76 77 78 79 80 80 80 80 81 82 83 82 81 82 83 85 86 88 89
51 58 63 66 68 71 75 79 81 81 81 84 86 87 87 88 89 88 85 85 84 83 82 81 80 80 80 79 78 78 76 74 75 76 77 77 79 80 82 81 79 77 75 75 75 76 77 78 79 79 79 81 82 82 81 80 81 83 84 86 88 90 91

ECMWFFLT1_250_spd_009.txt.gz
Wind_Speed
29 30 32 32 32 31 30 28 27 26 26 26 26 25 25 23 20 17 16 17 16 14 13 15 16 18 19 20 20 19 20 21 21 20 21 22 22 22 22 23 23 24 24 26 27 28 29 31 32 33 33 34 36 37 39 40 41 43 44 45 45 45 45
30 32 34 34 34 32 30 29 27 27 27 28 28 28 28 26 22 19 18 19 18 16 15 15 17 19 21 22 22 22 22 23 23 23 23 24 24 23 23 23 23 24 25 27 28 29 30 32 33 33 33 35 36 37 38 40 41 42 43 44 45 46 46
31 34 34 34 35 33 31 30 29 29 29 28 28 28 27 25 22 22 22 20 19 18 17 17 18 21 23 24 25 25 25 25 25 25 25 26 25 24 24 24 24 25 26 28 29 30 31 33 34 35 35 35 35 37 38 39 40 41 43 44 45 45 46
33 36 36 35 36 34 32 32 32 32 32 30 29 27 26 24 23 26 26 23 20 20 20 20 20 22 24 26 27 27 27 28 28 28 28 27 27 26 25 25 25 26 27 29 30 31 33 35 36 37 37 37 38 38 39 40 41 43 44 46 47 47 46
36 39 39 38 39 37 34 34 35 35 33 31 30 28 27 26 26 28 29 27 24 22 23 23 23 24 26 27 29 29 30 31 30 30 29 28 28 28 27 27 27 28 29 31 32 32 34 36 38 39 40 40 41 41 41 42 43 44 46 48 49 48 45
37 39 41 40 41 39 37 37 37 35 34 33 31 30 30 29 29 30 30 29 27 25 25 26 26 27 27 28 30 31 32 33 33 32 31 30 30 30 29 29 30 30 31 32 33 34 35 36 38 40 41 42 43 44 44 45 45 46 48 50 51 48 44
40 40 42 43 43 42 39 39 37 36 36 35 34 33 32 32 31 31 30 30 29 28 28 28 29 29 29 30 31 32 34 35 35 34 32 32 32 32 32 32 32 33 34 34 35 36 36 37 39 40 42 43 44 45 46 47 48 48 51 53 51 47 45
44 43 44 45 46 44 41 39 38 37 37 37 36 35 34 33 33 32 32 33 32 31 31 30 31 31 31 31 32 34 36 37 37 35 34 34 34 34 34 34 35 35 36 36 37 38 38 39 41 42 43 44 46 47 48 49 50 50 53 54 49 47 50
47 45 47 47 48 48 43 40 39 39 39 39 39 37 36 35 34 33 34 34 34 34 34 33 33 32 32 33 34 36 38 39 38 38 37 37 36 37 37 37 38 38 38 39 39 40 41 42 43 44 45 46 47 48 49 50 50 51 53 52 49 51 56
49 46 49 50 49 50 47 43 42 41 41 42 41 39 39 38 36 36 35 34 34 34 34 35 35 34 33 34 36 38 40 40 40 40 39 39 39 39 39 40 40 40 41 41 41 42 43 44 45 46 47 48 49 50 50 51 51 52 54 53 53 56 58
52 49 50 51 49 50 49 47 45 44 44 44 43 41 41 41 40 39 37 36 35 35 35 37 38 36 34 35 38 40 42 42 42 42 42 42 41 41 42 42 43 43 42 42 43 44 45 46 47 48 49 49 50 51 52 52 53 54 55 56 56 58 58
56 54 53 52 50 51 51 49 48 49 48 47 45 43 43 44 43 42 40 38 37 37 37 37 38 37 36 36 40 43 44 45 45 45 45 44 43 43 43 44 44 44 44 44 45 45 47 48 48 50 51 51 52 53 53 54 54 56 57 57 59 60 58
57 57 57 56 53 53 54 52 51 53 52 49 47 47 47 47 46 44 43 41 40 40 40 39 40 42 42 42 44 47 47 47 47 47 47 47 46 45 45 45 45 45 46 46 47 47 48 49 50 51 52 53 54 54 55 56 56 57 58 59 61 59 58
59 59 59 59 57 56 55 54 54 55 54 51 50 50 50 50 49 47 45 45 44 43 43 44 46 47 47 47 48 50 50 50 50 50 49 49 48 47 47 47 46 47 48 48 49 50 50 51 52 53 53 54 55 55 56 57 58 59 59 59 60 59 60
64 63 62 61 61 59 58 57 57 56 56 55 54 53 52 51 51 49 47 47 47 46 46 47 49 50 49 50 51 51 51 51 51 51 51 50 50 50 49 49 49 49 49 50 50 51 53 53 54 54 55 57 57 57 57 58 59 60 61 61 61 62 63
68 67 65 63 63 62 61 60 59 58 59 58 56 54 53 52 52 51 49 49 49 49 48 49 51 52 51 52 53 53 53 53 52 51 52 52 52 53 52 52 51 51 52 52 52 53 55 56 57 57 57 57 59 59 59 59 59 61 63 64 65 65 64
71 71 68 66 65 65 63 62 61 61 60 59 58 56 55 54 55 53 51 51 52 51 51 51 52 54 54 54 55 55 55 55 54 53 53 55 55 55 55 54 54 54 54 55 55 56 57 58 60 59 59 62 62 60 58 59 60 62 63 65 66 64 63
74 74 72 69 68 67 66 64 63 61 60 60 60 58 57 57 57 56 54 53 53 53 52 52 54 56 57 57 58 59 58 57 55 55 55 56 57 57 56 56 56 56 56 57 57 58 59 61 62 63 65 63 57 54 57 61 62 62 61 61 62 62 62
79 77 74 72 72 72 69 67 66 63 62 62 62 60 59 59 59 58 56 54 53 53 53 54 56 58 59 60 61 61 61 59 57 56 57 58 58 58 58 58 58 58 58 58 59 60 61 62 63 65 62 56 53 59 67 68 66 63 60 57 56 58 61
83 80 75 72 73 74 70 68 69 68 65 64 64 63 61 61 60 58 56 55 54 54 55 56 58 60 62 62 63 64 63 61 59 58 59 60 60 60 60 60 60 60 60 61 62 62 63 63 64 66 63 61 65 72 74 71 69 67 63 57 53 54 61
85 84 81 77 77 76 73 71 72 72 69 66 66 65 63 62 61 58 56 55 55 56 57 58 60 62 64 65 66 66 65 63 61 61 62 62 63 63 63 63 62 62 62 63 64 65 65 65 65 67 68 69 71 73 72 72 72 70 66 61 56 56 62
87 87 88 86 83 80 77 75 75 75 73 70 69 67 65 64 62 60 58 58 58 59 59 60 61 63 66 67 68 68 67 66 65 65 65 65 66 66 66 65 65 64 64 65 66 68 68 68 68 69 70 71 72 72 73 74 73 72 70 67 63 61 62
91 90 90 89 86 83 81 79 78 79 76 74 72 70 67 66 64 62 61 61 60 61 61 61 61 63 66 68 69 70 70 70 69 68 68 69 69 68 68 68 67 67 66 66 68 70 71 71 72 73 73 74 74 74 74 74 75 75 74 72 70 67 66
91 92 92 90 89 88 86 84 82 81 79 78 77 75 71 69 67 64 63 63 62 62 62 60 59 62 66 69 70 71 72 73 73 72 72 72 71 71 71 70 69 68 68 69 70 71 73 74 75 76 76 76 77 76 76 76 76 76 75 73 72 70 71
88 92 93 93 92 92 91 88 85 83 81 80 80 78 74 72 70 68 66 65 64 63 62 61 61 63 67 69 71 73 75 76 76 76 76 76 75 75 74 73 72 71 71 71 72 73 75 77 77 78 78 79 79 79 78 77 77 76 74 73 71 71 72
84 89 91 93 94 95 94 91 88 86 83 81 81 80 78 74 72 70 68 67 65 64 63 63 63 65 68 71 74 76 78 80 81 82 82 81 80 79 79 78 76 75 74 73 75 77 78 79 79 79 80 81 81 81 79 78 77 75 73 72 71 71 72
80 83 87 90 93 95 95 93 90 87 84 81 81 82 81 77 74 71 69 67 65 63 64 65 66 67 70 73 76 79 81 83 86 87 86 86 85 84 83 81 78 76 74 75 77 79 81 81 80 80 81 82 82 81 80 79 77 75 73 72 71 71 72
74 78 82 86 90 93 94 94 92 89 85 82 83 84 84 80 75 72 70 67 64 64 66 67 68 70 72 75 78 81 83 86 88 89 88 87 87 86 83 80 77 75 75 77 79 81 83 82 82 82 82 83 82 82 81 80 77 75 74 73 72 72 73
68 71 76 80 85 89 91 92 93 91 88 85 84 85 85 81 76 72 70 67 64 64 67 68 69 71 74 76 79 80 83 86 89 89 88 87 87 86 83 79 76 75 76 77 80 82 83 83 84 83 83 82 82 82 80 78 77 75 74 73 73 73 74
65 67 71 75 79 82 84 87 89 89 89 87 85 84 84 80 75 72 71 69 68 68 68 67 67 70 73 76 78 81 84 88 90 89 89 89 89 87 83 79 77 76 76 77 80 83 84 85 86 85 83 82 80 78 77 77 76 74 74 74 74 74 75
61 63 67 71 74 75 78 81 84 86 87 85 83 82 80 76 74 73 72 70 71 71 67 63 64 68 71 73 75 78 79 81 81 81 81 80 81 82 81 78 76 74 74 76 79 82 84 85 86 85 82 80 77 75 76 76 75 74 75 75 75 75 77
58 58 62 67 71 73 74 75 77 80 81 80 78 77 75 74 77 78 75 71 71 70 66 60 58 60 63 66 67 66 64 63 62 62 62 63 67 68 67 66 67 70 72 76 79 82 83 84 84 84 81 78 76 77 77 76 75 75 76 76 76 77 79
56 55 57 62 67 70 70 69 70 72 72 71 69 68 68 73 78 78 73 70 70 72 70 63 55 52 54 58 59 58 55 53 51 53 57 61 62 61 60 63 68 72 75 77 80 81 81 80 82 83 82 80 79 78 77 76 76 76 76 76 77 79 79
51 49 51 56 62 64 64 64 63 62 62 62 62 62 67 72 74 71 66 63 64 71 76 71 62 58 57 58 61 63 62 59 60 63 66 67 67 67 69 73 75 76 76 78 78 79 79 79 81 83 83 81 79 77 77 78 78 77 77 78 79 79 78
45 43 45 50 55 57 57 57 57 55 55 56 57 58 62 65 64 62 60 56 57 65 71 68 65 66 65 64 69 74 73 72 74 76 77 77 78 78 78 78 78 78 79 78 78 79 80 82 84 85 84 81 79 77 78 81 80 79 79 79 79 78 77
43 41 41 44 47 48 48 48 48 48 49 50 51 52 54 54 53 55 54 50 51 58 62 60 61 65 68 70 76 81 82 83 84 85 86 87 86 82 80 79 79 80 81 80 80 82 83 83 85 85 83 81 80 79 80 82 82 80 79 79 79 77 78
42 39 37 36 35 34 34 35 36 37 38 41 43 46 49 51 53 54 52 48 50 56 61 63 65 66 69 74 77 79 82 84 85 84 84 84 81 79 79 78 78 80 82 81 81 82 83 84 85 84 83 82 81 80 81 82 82 80 78 77 77 77 78
41 38 35 33 31 30 28 28 28 27 28 34 39 41 44 49 53 55 53 51 52 58 66 72 73 73 74 76 75 73 73 76 77 76 75 74 75 78 80 80 79 80 82 81 81 82 84 84 84 83 83 83 81 80 80 79 79 78 77 76 76 77 78

ECMWFFLT1_250_spd_012.txt.gz
Wind_Speed
30 31 31 30 29 29 29 27 25 23 22 21 21 20 19 19 18 18 17 16 15 14 15 15 16 16 16 16 17 18 19 20 20 22 22 21 20 21 21 21 21 22 24 24 24 26 27 27 28 29 31 32 34 34 34 35 36 36 37 37 38 39 40
34 35 35 35 34 33 31 29 27 26 25 24 24 24 24 23 22 22 22 21 19 18 17 17 17 17 17 18 20 20 21 22 22 22 23 21 21 22 22 22 23 24 25 25 26 27 28 28 29 30 31 33 34 34 35 36 37 38 38 39 39 40 41
36 37 38 38 38 37 35 32 30 29 28 28 28 28 27 25 24 25 25 25 24 23 21 20 18 19 19 21 22 23 24 24 23 23 23 21 21 22 23 24 24 26 27 28 28 29 29 30 30 31 32 34 35 35 36 37 38 39 40 40 41 41 41
37 38 38 39 40 39 37 35 33 33 32 31 30 30 28 26 25 26 26 26 26 26 25 24 22 21 21 23 25 26 26 26 25 25 24 22 21 23 24 26 26 28 29 29 30 30 31 31 32 33 34 35 36 36 37 38 39 40 41 41 42 42 42
38 38 37 39 41 40 38 37 35 34 33 32 32 31 29 28 27 27 26 25 26 26 27 27 26 24 23 25 26 28 29 29 27 26 25 23 23 24 25 27 28 30 31 32 32 33 33 34 34 34 35 36 37 38 38 38 40 41 42 42 43 43 44
40 39 38 40 42 41 40 39 36 35 34 33 33 32 30 30 30 30 27 25 26 27 28 28 28 27 27 28 29 30 31 30 29 28 26 24 24 25 26 28 30 32 33 34 34 35 36 36 36 36 37 38 38 39 39 40 40 41 43 44 44 45 45
43 41 41 42 42 42 41 40 37 36 36 35 34 33 33 33 32 31 29 28 28 28 29 29 29 29 30 32 33 33 34 33 31 29 27 26 26 26 27 29 31 33 35 36 37 37 38 38 38 38 38 39 40 41 41 41 42 43 43 45 46 46 46
45 44 43 44 44 43 43 42 40 39 38 38 36 35 35 34 33 33 33 31 30 30 30 30 29 30 32 34 35 36 37 35 33 31 29 28 27 27 28 30 33 35 36 38 39 39 40 40 40 40 40 41 42 43 43 43 44 44 45 46 48 48 48
49 47 46 46 46 45 45 45 43 41 40 40 38 38 37 37 35 35 34 33 32 32 32 31 31 32 33 35 36 37 37 36 35 34 32 30 28 28 30 32 34 36 38 39 41 42 42 42 42 43 43 44 44 46 46 46 46 45 47 49 50 51 51
52 51 49 48 49 48 48 47 45 42 41 41 41 40 40 39 38 36 35 35 35 34 34 34 34 34 35 36 36 37 37 36 35 35 34 33 31 31 33 36 37 38 40 41 43 43 44 44 45 45 46 46 47 49 49 49 48 48 49 51 54 54 51
55 54 52 51 51 52 51 50 47 44 43 43 42 42 42 41 39 37 36 36 36 36 36 36 37 38 37 37 37 38 38 36 35 36 36 34 33 35 38 39 40 41 42 43 44 45 45 46 47 48 48 49 49 51 52 51 50 50 50 52 55 52 47
58 57 55 53 54 54 54 53 51 49 47 46 45 44 43 43 41 40 39 39 38 38 39 39 39 40 40 39 40 40 40 39 37 36 36 36 37 40 41 42 42 42 43 44 46 47 48 49 49 50 50 50 51 52 53 53 52 52 51 52 53 48 47
60 59 57 57 57 56 55 55 55 53 51 50 48 47 46 45 44 43 42 41 40 40 41 41 41 41 41 41 42 43 43 41 40 38 38 39 41 43 43 43 43 43 45 46 48 49 50 51 51 52 52 52 53 53 54 55 55 54 53 53 54 53 55
62 60 58 58 59 58 57 58 59 58 55 53 52 50 49 48 46 45 45 44 43 43 44 44 43 43 43 43 44 46 45 43 42 41 42 42 43 44 44 44 44 45 46 48 50 52 52 53 54 54 55 55 55 55 56 57 56 55 55 54 55 56 58
65 63 61 60 61 61 60 60 61 61 57 55 55 54 53 51 50 49 49 47 46 46 46 45 44 45 45 45 46 48 48 45 44 44 44 44 45 45 45 45 45 46 48 49 51 53 54 55 56 57 58 58 58 57 57 58 58 57 56 55 56 57 58
69 68 65 63 63 63 63 62 62 62 60 58 57 57 56 54 53 53 52 50 49 48 47 46 46 46 47 47 49 50 50 48 47 47 46 46 46 46 46 47 47 48 49 50 52 53 55 57 58 58 59 60 60 59 59 59 59 58 58 58 57 58 59
73 72 69 67 66 66 65 64 64 63 62 61 60 59 58 56 55 54 53 52 52 51 50 48 46 47 49 50 51 51 51 50 49 49 48 48 48 48 48 48 48 49 50 51 52 54 57 59 60 60 61 61 61 61 60 61 60 59 60 59 59 60 61
76 74 73 72 71 70 69 68 67 65 64 64 63 62 61 59 57 56 54 54 54 53 51 49 48 49 51 53 52 52 53 52 51 51 50 50 50 49 49 49 50 51 51 52 53 55 58 60 61 62 62 63 63 63 62 62 61 60 60 62 62 60 59
76 76 76 76 75 74 73 72 70 68 66 66 64 63 62 61 59 58 57 56 55 54 52 52 52 52 53 54 54 54 54 54 53 53 52 52 51 51 50 51 51 52 53 54 56 57 60 62 63 64 64 65 66 65 65 64 62 60 61 63 63 59 57
71 76 78 79 78 77 77 76 74 72 70 68 66 65 64 63 62 60 58 57 56 55 55 54 54 54 54 55 56 55 56 56 55 55 54 54 53 52 52 53 54 54 55 56 58 60 62 63 65 66 67 68 68 68 67 66 63 62 63 65 63 60 59
63 69 75 79 81 80 79 79 77 75 74 71 69 68 67 65 64 62 60 58 57 57 56 56 56 55 55 56 57 58 57 57 57 57 56 55 55 55 55 55 56 57 57 58 60 62 64 65 67 69 69 70 70 69 68 68 66 65 67 67 66 64 61
58 62 67 73 78 81 82 81 80 78 76 74 73 72 71 69 66 64 63 61 59 58 58 58 57 57 57 58 59 59 58 58 58 58 58 58 58 58 58 58 59 59 59 60 63 65 66 67 68 70 71 71 71 69 69 69 69 68 69 68 68 66 62
59 59 62 67 73 77 81 82 82 80 78 77 76 76 75 74 71 69 67 64 62 61 60 60 59 59 59 59 59 60 61 60 60 61 62 62 60 60 61 61 61 61 61 63 65 67 68 69 70 71 72 72 71 71 71 71 70 69 69 68 68 68 66
60 60 61 64 68 72 77 81 84 84 82 80 80 79 79 78 76 73 71 69 66 65 63 61 61 61 61 60 61 62 63 62 64 65 66 64 63 63 63 63 63 63 64 66 67 69 70 71 72 73 73 72 72 72 72 72 71 70 69 69 69 69 68
58 60 60 61 63 65 69 74 80 84 84 83 82 82 81 81 80 78 76 74 71 69 65 62 62 63 64 64 64 64 64 66 68 68 67 66 66 66 66 65 65 66 66 68 70 71 72 73 75 76 75 73 74 74 73 73 72 71 70 70 70 70 69
55 58 60 60 60 61 63 67 72 77 81 83 84 85 85 85 83 82 80 77 74 69 65 64 65 67 67 67 66 65 66 69 70 69 68 68 68 68 68 67 67 68 70 72 73 74 75 77 79 79 78 76 76 76 75 74 72 71 70 69 69 69 69
54 56 59 61 61 60 61 63 66 69 74 79 82 84 87 87 86 85 83 81 77 71 69 70 71 71 70 69 69 69 70 72 71 70 70 71 71 70 68 67 68 71 72 73 74 76 78 79 81 81 80 77 76 75 73 70 69 69 68 67 67 67 66
56 56 59 61 62 62 61 62 63 65 67 72 75 78 83 87 87 87 86 85 81 77 76 77 76 74 73 72 72 73 73 73 72 71 72 73 72 70 68 68 69 70 71 72 74 75 75 75 76 74 68 63 64 65 64 64 65 66 65 65 65 64 64
57 57 59 60 62 64 63 61 62 62 63 66 69 73 79 83 86 88 87 86 84 82 81 81 80 77 76 75 75 76 76 75 73 72 73 73 72 69 68 67 65 64 65 66 66 65 65 65 64 57 48 48 55 59 59 60 61 62 63 63 62 62 64
57 58 60 60 61 63 63 62 62 61 61 63 65 68 72 77 81 85 86 86 86 86 86 85 83 81 79 77 77 78 78 76 74 74 74 73 72 69 68 67 63 59 57 56 57 58 56 55 52 47 47 53 59 59 58 59 59 60 63 62 60 61 65
57 58 60 61 61 62 62 62 62 62 61 61 62 64 67 70 74 78 81 82 84 87 88 87 85 84 82 81 81 81 79 77 75 75 74 74 73 70 67 65 61 56 53 52 52 52 52 49 47 51 56 62 64 62 61 60 59 60 61 60 60 64 68
56 58 60 62 63 63 63 62 62 62 62 62 61 61 63 65 67 69 72 77 79 80 81 81 82 85 86 86 86 84 81 77 75 74 75 75 73 69 66 64 62 58 56 52 47 49 51 46 46 55 61 66 67 66 62 58 57 58 58 60 63 67 69
55 59 60 62 63 64 64 63 63 63 63 61 60 59 60 62 64 64 65 69 71 71 70 71 78 87 92 91 89 85 81 77 74 73 74 75 73 68 67 68 67 62 56 52 52 54 48 42 48 59 64 68 68 64 58 54 56 58 59 64 69 69 69
57 59 61 61 62 63 63 63 63 62 61 60 59 58 57 59 61 62 63 65 67 70 71 74 79 86 89 90 89 85 79 75 73 72 72 73 72 67 63 64 65 60 55 55 58 55 46 46 57 63 66 68 63 56 51 53 59 63 67 71 72 71 71
57 59 60 61 61 62 62 61 61 60 58 58 57 57 56 56 57 59 62 64 66 69 73 77 80 81 82 83 82 79 75 73 71 68 67 68 67 63 61 62 63 60 56 55 58 57 53 56 66 69 68 67 60 54 55 62 68 71 73 73 73 73 75
56 57 60 61 61 61 60 59 58 56 56 56 56 55 55 55 54 55 58 61 65 67 71 76 81 83 81 77 73 72 68 64 64 65 65 66 66 67 67 67 64 60 58 59 61 62 60 62 70 74 71 67 63 64 68 72 73 74 74 74 75 76 76
55 56 58 61 61 60 59 57 56 55 54 53 53 53 52 52 52 54 55 58 62 64 66 70 75 80 81 74 69 66 58 50 57 70 71 69 69 70 70 68 63 60 62 65 65 66 65 68 74 77 76 74 74 76 77 76 75 75 75 76 77 78 77
56 56 58 60 60 59 57 55 55 55 53 51 50 49 48 47 48 50 51 54 57 58 61 64 67 72 73 70 69 68 59 54 63 75 74 70 70 69 69 68 61 59 64 68 68 70 72 74 78 81 82 83 83 82 80 79 79 78 78 79 80 79 78

ECMWFFLT1_250_spd_015.txt.gz
Wind_Speed
27 27 27 28 27 27 27 26 25 24 23 22 21 21 19 17 16 15 15 14 14 15 15 15 16 17 18 20 21 21 20 18 18 16 15 14 13 12 12 13 15 16 16 16 18 19 20 21 23 24 25 26 28 29 29 30 31 32 33 34 35 35 36
30 30 30 31 31 31 29 28 27 26 25 24 22 22 22 21 19 17 17 17 18 18 18 17 17 18 19 21 22 23 22 20 19 17 16 15 15 15 15 16 17 18 17 17 19 20 21 23 24 25 26 27 28 29 30 31 32 33 34 35 36 36 36
34 33 33 33 33 34 33 31 30 29 28 27 26 26 25 24 22 21 21 21 22 22 22 21 22 22 23 23 24 24 24 23 21 19 17 17 17 17 18 18 19 20 19 19 20 21 22 24 25 26 27 29 29 29 30 32 33 34 35 37 38 37 37
37 36 35 35 35 35 35 34 32 32 32 31 30 29 28 26 25 25 24 24 24 24 24 24 25 26 26 27 27 26 26 25 24 21 19 18 18 20 21 21 22 22 21 20 22 22 24 25 26 27 28 30 30 30 31 33 35 35 36 38 38 38 38
38 39 38 37 36 37 38 37 36 35 34 33 33 31 30 28 28 28 27 26 26 25 25 25 27 27 28 29 29 29 29 28 26 24 22 20 20 22 24 24 24 25 23 22 23 24 25 27 28 28 29 30 31 31 32 34 36 37 37 38 39 39 39
39 39 40 40 39 39 40 39 39 38 36 36 36 35 33 32 31 31 29 28 28 27 27 27 28 28 29 31 31 31 30 29 28 27 25 23 23 25 26 27 27 27 25 25 25 26 28 29 30 30 30 31 31 32 33 35 37 38 39 40 41 41 41
41 40 40 41 40 40 41 41 40 40 39 39 39 38 37 35 35 34 32 31 30 29 29 29 29 30 31 32 32 32 31 30 30 29 28 25 25 27 28 29 30 29 29 29 28 30 31 32 32 32 32 32 32 33 34 36 38 39 41 42 43 43 44
43 42 42 42 42 42 43 42 42 42 42 42 42 41 40 38 37 36 36 34 31 31 31 31 31 31 32 33 33 33 32 31 30 30 29 27 27 28 29 30 32 31 32 32 32 33 35 35 34 34 34 34 34 34 35 37 39 40 42 44 45 46 46
46 45 45 45 44 44 44 44 44 43 42 42 43 42 41 40 39 39 38 36 34 33 33 33 32 33 34 34 33 33 33 32 31 30 29 29 29 29 29 31 32 33 34 34 35 36 37 37 36 36 36 36 36 36 37 38 39 41 44 46 47 48 49
48 48 48 48 47 46 46 46 45 44 43 43 43 43 42 42 41 40 39 38 37 36 35 35 34 35 35 36 35 35 34 33 32 31 31 31 30 30 30 31 33 34 35 36 37 38 39 38 38 38 38 38 38 38 38 39 40 42 45 47 48 50 51
51 51 51 51 51 50 48 48 47 46 45 44 44 44 44 44 43 42 41 40 39 39 37 37 36 36 37 38 38 37 36 34 33 33 33 33 33 32 32 33 34 35 36 37 38 40 40 40 39 39 40 40 40 40 40 40 42 44 46 48 49 51 52
55 54 54 53 54 53 52 50 49 48 47 47 46 45 46 46 45 44 43 43 42 41 40 39 37 38 39 39 39 39 37 36 35 35 35 35 35 34 35 36 37 37 38 39 40 41 41 41 40 41 42 43 42 42 42 42 43 45 47 49 50 51 53
58 57 57 56 55 54 54 53 52 51 50 49 48 48 48 47 47 46 45 45 45 43 42 40 39 39 40 40 41 40 39 38 37 37 37 38 38 37 38 39 40 40 40 41 42 42 42 42 42 43 44 45 45 44 44 45 46 47 48 50 51 52 53
61 60 59 58 57 56 55 55 55 55 54 53 52 51 50 49 48 48 47 47 46 45 44 43 41 42 42 42 42 42 41 40 40 40 40 41 41 40 42 43 43 42 42 43 44 44 44 44 44 45 47 47 47 47 47 48 49 49 50 51 53 53 55
63 63 62 61 60 59 59 58 58 58 58 57 56 54 52 51 50 50 50 49 48 47 47 45 44 44 44 45 45 44 44 43 43 43 44 44 44 44 45 45 45 44 44 45 46 46 46 46 46 47 48 49 50 50 51 51 52 52 52 53 53 54 56
63 65 65 64 63 63 62 62 61 61 60 59 58 56 55 54 54 53 53 52 50 50 49 48 47 47 47 48 48 48 47 47 47 47 47 48 48 48 48 48 47 46 46 47 48 48 48 48 48 49 50 51 52 53 53 54 55 55 55 55 55 56 57
57 62 66 67 66 65 65 64 64 63 62 61 60 59 58 57 58 57 56 55 54 54 52 51 50 50 50 51 52 51 50 50 51 51 51 52 51 51 50 49 49 47 48 49 51 51 50 50 50 51 52 53 54 56 57 57 58 59 59 59 58 57 59
47 53 59 64 66 67 67 67 66 65 65 64 64 62 61 61 61 61 60 60 59 58 56 54 54 54 53 54 55 53 53 54 55 55 55 55 55 53 52 51 50 49 50 52 53 53 52 52 53 53 54 55 56 58 58 60 61 63 62 61 60 59 60
42 45 49 54 59 64 67 69 69 68 68 68 67 66 65 64 63 63 63 63 62 61 59 58 58 58 57 57 58 57 57 57 57 58 59 59 58 56 54 52 51 51 52 54 55 55 54 54 54 55 55 56 58 59 60 62 64 65 64 63 61 61 61
41 43 44 47 50 55 61 67 70 72 73 72 71 70 70 68 66 66 65 65 64 63 62 61 62 61 61 61 61 61 61 60 60 61 62 62 60 58 56 54 53 53 54 55 57 57 55 55 56 57 57 58 59 60 61 64 66 66 66 65 63 63 58
42 45 46 47 47 50 55 61 67 72 75 75 75 74 73 71 70 69 68 67 66 65 63 63 64 63 64 64 64 64 65 64 64 64 65 64 62 60 58 55 54 55 56 58 59 58 56 56 57 58 58 59 60 61 63 65 67 68 67 66 65 60 50
42 45 48 50 49 50 52 57 62 67 72 75 76 76 75 74 74 72 71 70 69 67 66 66 65 65 66 66 67 67 67 68 67 67 67 66 64 62 59 57 57 56 57 59 61 59 56 57 60 60 59 59 61 62 64 66 67 68 67 67 61 49 38
41 44 48 50 51 52 52 54 58 61 65 69 73 76 77 78 77 76 75 74 73 71 70 69 68 67 68 69 69 69 69 70 70 69 68 68 66 63 60 59 59 58 59 62 62 60 58 60 62 61 60 61 61 62 64 66 67 67 67 64 51 36 29
42 44 47 49 51 52 53 54 56 57 60 62 64 68 73 77 79 79 78 77 76 76 74 72 70 70 71 71 72 72 72 72 71 70 70 68 67 65 62 61 61 60 63 65 63 61 61 62 63 61 60 62 62 62 63 64 66 67 65 57 42 27 27
44 45 48 50 50 51 53 54 54 55 57 58 59 61 65 70 75 78 79 80 80 80 78 76 75 75 75 75 76 76 74 74 73 72 71 69 68 67 65 64 64 64 66 67 65 63 64 64 64 62 61 62 62 61 60 62 66 66 58 48 40 32 30
46 47 49 51 51 51 52 54 55 55 56 57 58 60 61 63 65 69 73 77 81 82 81 80 79 80 80 80 80 79 78 77 76 75 74 71 69 69 69 68 67 67 69 70 68 66 67 66 65 64 62 63 62 58 57 61 64 59 52 49 48 42 36
50 49 50 50 51 50 51 53 54 56 57 58 58 59 61 62 62 62 65 70 75 78 81 83 84 84 84 84 83 82 81 81 80 79 78 76 73 71 71 71 71 71 72 73 71 69 69 68 67 66 65 64 60 55 57 60 57 53 55 57 53 44 39
54 53 52 51 51 51 52 51 52 53 55 57 59 60 61 61 61 61 63 64 67 70 75 81 84 86 87 87 86 85 85 84 83 82 82 80 77 74 72 72 74 76 77 76 74 71 71 70 68 69 69 65 59 56 57 55 52 55 60 58 52 45 39
59 57 55 54 53 53 53 53 53 53 54 55 57 60 61 62 61 61 62 61 62 65 69 74 79 83 86 88 89 88 88 86 85 84 84 82 79 76 74 73 75 78 79 80 78 75 73 72 70 71 70 65 60 58 56 53 54 61 60 50 46 47 43
63 61 58 57 57 56 55 55 55 55 55 55 56 58 60 62 62 61 61 60 60 62 65 68 72 77 82 85 88 89 89 89 87 87 85 83 80 78 76 76 77 78 80 82 82 80 76 73 72 73 71 66 62 59 56 54 57 62 57 44 42 49 54
66 64 61 60 59 58 57 56 56 57 56 56 56 57 58 60 61 61 60 60 61 61 63 65 69 72 75 79 83 86 88 89 89 88 87 84 83 82 81 80 80 80 82 85 85 82 78 74 74 74 71 68 66 63 60 57 56 56 54 47 43 50 58
69 67 65 63 62 60 58 57 58 58 57 57 57 58 59 60 60 60 60 59 59 60 61 63 65 67 70 73 77 81 84 86 87 87 87 86 86 86 85 85 85 85 85 85 84 81 77 75 75 73 69 68 68 66 64 61 56 53 54 52 49 52 59
71 70 69 66 64 62 60 58 58 58 58 58 58 59 59 60 60 60 59 58 58 58 59 61 62 64 66 69 72 75 79 82 83 83 85 86 87 87 88 89 90 89 87 84 81 79 77 76 74 70 67 66 65 64 64 64 61 59 59 60 58 56 59
73 72 71 69 67 65 62 59 59 59 59 58 57 57 57 59 59 59 59 58 57 57 57 59 60 62 65 67 70 73 75 78 79 80 82 83 83 84 86 87 88 87 85 80 75 74 76 76 71 66 66 66 63 61 62 65 66 65 64 64 61 57 60
76 74 73 72 70 68 64 61 61 61 60 58 57 57 57 57 58 59 59 58 57 56 56 57 59 61 63 65 68 70 72 73 74 76 78 79 79 80 81 81 79 77 73 68 66 69 73 72 65 63 66 69 69 67 66 67 68 66 64 63 60 57 63
78 76 73 73 71 68 64 62 62 62 62 60 59 59 58 58 59 60 59 58 57 55 54 55 57 59 61 63 65 67 69 70 71 73 74 75 75 76 76 74 72 69 65 64 65 68 68 64 59 59 61 63 67 71 71 69 69 67 66 66 63 62 69
77 74 73 72 70 66 63 63 64 63 63 62 60 59 59 59 60 60 59 58 56 55 53 54 55 56 57 59 59 61 63 66 68 70 70 71 73 75 74 72 69 66 64 63 61 62 65 65 63 65 65 63 66 73 73 69 67 67 68 69 69 68 72
73 71 70 69 67 65 64 65 65 65 64 63 61 59 59 59 60 60 59 57 56 55 53 52 51 51 52 53 55 58 60 62 64 65 66 68 68 68 69 69 67 64 60 55 51 54 61 65 67 71 73 71 72 76 75 70 68 69 69 70 72 74 76

ECMWFFLT1_250_spd_018.txt.gz
Wind_Speed
22 23 24 25 26 27 27 27 27 27 27 27 27 27 27 26 26 25 24 23 23 23 22 22 21 20 19 18 19 18 18 17 17 16 15 13 12 12 13 14 16 17 16 15 15 16 15 14 14 14 15 16 17 18 18 18 19 21 22 24 25 27 29
25 25 26 26 28 28 28 28 28 28 28 28 28 28 27 27 25 24 23 23 23 23 22 21 19 18 17 17 18 17 17 17 17 18 17 16 15 15 15 16 18 19 18 16 17 18 17 16 16 17 18 19 20 20 19 20 21 22 23 24 26 27 30
28 27 27 28 28 28 28 28 28 28 28 28 28 28 28 27 25 23 23 23 22 22 21 19 18 17 18 18 18 18 18 18 19 18 18 18 18 17 18 18 20 21 20 18 17 19 19 18 17 19 20 22 23 22 22 22 23 24 25 26 27 29 31
31 30 29 29 29 28 28 28 28 28 28 29 29 29 28 26 25 24 24 23 23 22 22 20 20 20 21 21 21 21 21 21 22 21 21 20 19 19 20 20 22 23 22 20 19 20 21 20 20 21 23 25 25 25 24 24 25 26 27 28 29 30 32
33 33 31 31 31 30 31 31 30 30 30 30 29 29 28 27 26 27 27 26 25 25 24 24 24 23 23 24 24 24 24 24 25 25 24 22 21 21 22 22 24 25 25 23 22 22 23 23 23 24 25 27 28 27 27 27 27 28 29 30 31 32 34
34 34 34 34 33 33 33 33 33 32 32 31 31 30 29 28 29 30 29 29 28 28 27 27 26 26 26 26 26 26 26 26 26 27 26 25 24 24 24 24 25 27 28 26 24 23 24 25 25 26 27 28 30 30 30 29 30 30 31 32 33 34 36
36 35 35 36 36 35 35 34 35 34 34 33 32 32 32 32 33 33 32 31 31 31 31 30 29 29 29 29 29 28 27 27 27 28 28 27 27 26 26 26 27 29 29 29 26 25 25 26 26 27 28 29 31 33 32 32 32 32 33 34 35 37 38
39 38 37 37 37 38 38 37 37 36 35 35 35 35 35 36 36 36 35 34 34 34 34 33 33 32 32 33 32 31 30 29 29 30 30 29 28 27 27 27 28 29 30 29 27 26 26 27 27 28 29 30 32 34 34 34 34 34 35 36 37 39 41
41 40 39 39 38 39 39 40 40 39 38 36 36 38 39 39 39 39 38 37 37 38 38 37 36 36 36 36 35 34 33 32 31 32 32 31 30 29 28 28 29 30 31 30 28 27 28 29 29 29 30 32 33 35 36 36 36 36 37 38 39 41 43
44 43 43 42 42 41 41 41 41 41 40 39 39 40 41 42 42 42 41 40 41 41 41 40 40 40 40 39 38 38 36 35 34 34 34 33 32 31 30 30 31 32 32 31 29 29 30 31 31 31 32 33 35 37 37 38 38 39 39 40 41 43 45
49 47 46 46 45 45 44 43 42 42 42 42 42 41 42 43 43 44 44 44 44 44 44 43 43 43 42 41 41 40 39 38 37 36 36 35 35 34 33 32 33 34 34 33 31 31 32 33 33 33 34 35 37 39 39 40 40 40 41 41 43 45 47
52 51 49 48 48 47 47 46 45 44 43 43 43 42 42 43 43 44 45 46 46 46 45 45 45 45 44 43 43 43 41 40 39 39 38 38 37 36 35 35 36 37 36 35 33 33 35 36 36 35 36 37 39 40 40 41 42 42 42 43 44 46 48
53 53 52 51 50 49 49 48 47 47 46 45 44 44 44 44 44 44 45 46 46 46 46 45 46 46 46 45 45 45 44 42 42 42 41 41 39 38 37 38 39 39 39 37 35 36 37 38 38 38 38 39 41 41 42 43 43 43 43 44 45 47 49
55 55 55 54 54 53 52 50 50 49 49 49 48 47 47 46 46 46 46 46 47 46 47 47 47 47 47 47 48 48 47 45 45 45 45 44 42 41 40 40 41 41 41 39 38 38 39 40 40 40 40 41 42 42 43 44 45 45 45 46 46 48 50
51 54 56 57 57 56 55 55 54 53 52 52 51 51 50 49 49 49 49 49 48 48 49 49 49 48 49 50 51 51 49 48 47 47 47 47 45 43 42 42 42 43 43 42 41 41 42 43 43 43 44 44 43 43 44 45 45 46 46 46 47 48 49
42 47 51 55 58 59 58 58 57 57 56 55 54 54 53 53 53 52 52 51 51 51 52 52 51 51 51 52 54 53 51 50 50 49 49 49 48 46 45 44 44 45 46 45 45 45 45 45 46 47 47 46 45 45 46 46 46 47 47 47 47 48 49
34 38 42 47 52 56 59 60 60 60 60 60 59 58 57 56 56 56 56 55 54 54 55 54 53 53 53 54 55 55 54 53 52 52 52 52 50 49 48 47 47 48 49 49 48 48 48 48 49 50 49 48 47 47 47 47 47 47 47 47 47 48 50
31 33 36 40 43 47 52 56 59 61 63 64 63 62 61 60 59 59 59 58 58 59 58 57 57 56 56 57 57 56 56 56 55 55 55 55 54 52 51 50 50 50 51 52 51 50 51 51 52 52 52 50 49 49 49 48 48 48 47 47 48 50 51
30 31 32 35 37 39 42 47 52 58 62 65 65 65 65 64 63 63 62 62 62 62 60 59 59 59 59 59 59 59 59 59 59 59 59 59 58 56 54 53 53 53 53 54 55 53 53 54 54 53 53 51 50 51 51 49 49 48 47 47 49 51 53
30 30 31 32 33 35 37 40 44 49 54 59 63 66 68 67 67 67 66 65 65 64 63 62 61 61 61 61 62 62 62 62 62 63 63 63 61 59 57 57 57 57 55 55 56 57 56 56 55 55 55 54 52 52 51 51 51 49 47 47 49 52 55
32 32 32 32 33 34 36 38 40 43 47 50 54 59 64 67 69 70 69 68 67 67 66 65 64 63 63 64 64 65 65 66 66 67 67 66 64 62 61 61 61 61 59 57 57 58 58 58 57 58 58 56 54 53 52 53 52 49 47 48 50 53 56
35 34 34 35 35 36 36 37 39 42 44 46 48 50 54 60 65 69 70 70 70 69 69 68 68 67 67 67 67 67 68 69 69 70 70 69 67 65 65 65 65 64 62 59 57 57 59 59 59 59 59 58 56 55 54 54 53 50 48 49 51 54 56
37 36 36 37 38 39 39 38 39 42 45 46 46 47 49 52 56 60 63 66 68 70 71 71 71 72 72 72 71 71 71 71 71 71 71 71 70 68 68 68 68 66 64 62 59 57 58 60 60 60 60 59 58 57 57 57 54 51 50 51 52 54 55
39 38 38 38 40 41 41 40 40 42 45 47 47 48 49 49 50 51 54 58 62 66 69 71 72 74 76 76 76 75 74 74 73 73 73 73 72 72 72 71 70 69 67 64 61 59 59 61 62 61 61 62 61 59 58 59 56 54 54 54 53 55 55
44 43 42 41 41 42 42 42 42 44 46 47 49 50 49 49 49 49 50 52 56 59 62 65 68 73 76 78 79 78 77 76 76 75 76 77 76 75 75 74 74 72 70 68 66 64 63 63 63 63 63 65 64 62 61 61 59 57 57 56 54 55 56
48 46 45 44 44 44 43 43 44 46 47 49 51 51 50 50 50 50 50 51 52 52 55 58 63 69 73 76 78 79 78 79 78 79 80 80 79 78 78 78 77 76 74 73 72 70 68 66 65 65 66 68 68 67 66 64 61 59 59 58 57 57 57
50 49 48 46 45 44 44 44 46 48 49 51 53 52 51 51 51 51 52 52 51 51 53 56 60 63 67 70 73 74 76 77 79 81 83 82 81 81 80 81 81 80 79 78 77 76 74 71 69 68 69 71 71 71 70 68 65 63 62 60 59 60 59
53 52 50 49 48 47 46 46 49 51 52 53 55 55 54 52 52 52 53 52 52 53 55 57 58 59 62 65 67 69 71 73 75 77 80 82 83 83 82 83 84 83 83 82 81 80 79 77 75 72 72 74 74 75 74 71 68 66 64 62 62 63 63
56 55 53 52 51 50 49 49 50 52 53 53 54 56 55 54 52 52 52 52 54 56 57 58 58 59 60 62 63 65 67 70 71 72 75 78 80 80 81 82 84 85 85 84 83 82 83 83 80 77 75 76 77 77 76 74 71 68 64 63 64 65 66
58 57 56 55 55 54 53 52 52 53 54 54 53 54 54 54 54 53 53 54 56 57 58 58 59 61 61 61 62 63 64 67 68 69 70 73 75 76 77 78 81 82 83 83 82 82 82 83 83 81 79 78 79 79 78 76 74 70 66 65 67 69 70
60 60 59 59 58 57 56 55 55 56 56 56 55 55 55 55 56 56 56 56 57 58 59 60 60 61 61 62 63 63 64 65 66 66 67 69 71 72 72 74 76 77 78 78 79 79 78 78 80 81 81 81 80 79 78 77 75 70 66 64 64 66 69
62 62 61 61 61 60 59 59 59 59 59 59 59 58 58 57 58 58 58 58 58 59 59 60 61 62 63 63 64 64 64 64 64 65 65 66 68 69 70 71 71 72 72 73 73 74 73 73 74 76 78 79 78 76 76 74 68 63 59 57 58 61 64
65 64 64 63 63 63 63 62 63 63 62 62 62 62 61 60 60 60 60 59 59 59 59 60 61 62 64 64 64 64 63 62 62 62 63 63 65 66 68 69 69 68 67 66 67 68 69 70 69 69 70 71 71 70 67 61 55 55 56 57 61 66 69
67 66 65 65 65 65 66 66 66 66 66 66 66 65 65 64 63 63 62 60 60 58 58 59 61 62 64 64 64 63 62 60 60 60 60 60 62 63 65 67 67 66 63 62 62 63 65 66 65 64 63 63 61 58 55 52 54 58 61 63 69 74 74
70 69 68 68 68 69 69 70 70 70 70 70 69 68 68 67 67 65 64 63 61 60 59 60 61 62 63 63 63 62 61 59 58 58 58 59 60 61 62 63 64 63 61 60 61 62 63 63 62 61 59 56 50 46 45 47 49 50 51 59 70 73 69
73 73 73 73 73 73 73 74 73 73 73 72 72 71 70 70 70 68 67 66 63 61 60 61 62 62 63 63 62 61 60 59 57 57 59 60 60 60 61 61 60 59 58 58 60 61 61 59 58 56 54 50 44 41 42 44 44 44 47 55 63 67 69
76 78 79 78 77 77 78 77 76 76 75 75 74 73 73 73 73 71 70 69 66 64 62 63 63 63 63 63 63 61 59 58 57 58 59 60 59 58 57 56 55 55 55 55 55 56 56 55 53 51 48 45 42 41 42 44 47 49 51 54 59 66 73
75 79 81 81 81 80 80 79 78 78 77 76 76 76 76 76 76 74 73 71 69 66 64 65 65 64 63 63 63 61 59 57 57 58 58 57 55 54 53 52 50 49 46 43 41 41 42 44 45 44 42 42 42 41 40 41 47 53 55 56 59 62 67

ECMWFFLT1_250_spd_021.txt.gz
Wind_Speed
19 21 24 27 30 31 30 27 27 27 28 30 30 31 32 32 31 30 29 27 25 24 23 23 21 19 18 19 19 18 16 15 13 13 13 12 12 12 12 14 14 14 14 12 10 9 10 11 11 12 13 14 15 17 17 17 17 18 18 19 21 22 23
21 22 25 27 30 31 30 29 28 28 29 30 30 31 31 32 32 31 30 30 28 26 25 24 22 20 20 20 20 19 18 16 15 15 15 14 14 14 15 15 15 15 16 14 12 10 11 13 13 14 15 17 19 20 20 20 20 20 21 21 23 24 25
23 23 25 27 28 28 29 29 29 29 29 29 30 30 30 30 30 30 31 31 30 28 27 25 23 21 21 21 20 19 18 18 17 16 16 15 15 15 16 16 16 16 17 17 15 13 12 14 16 17 18 20 21 22 23 23 22 22 23 24 25 26 27
27 25 25 26 27 27 28 29 30 30 30 30 30 30 29 28 28 28 29 30 29 28 26 24 23 22 21 21 20 19 18 18 18 17 17 16 16 17 17 17 17 18 19 19 18 16 15 15 18 19 20 22 23 24 25 25 25 25 25 25 26 27 29
30 28 27 27 28 28 29 30 31 31 31 31 30 29 28 27 27 28 29 29 28 27 25 24 23 22 21 20 20 19 19 19 19 19 18 18 19 19 19 19 20 20 21 21 22 20 18 17 18 21 22 22 24 25 26 26 27 26 26 27 28 29 30
31 30 29 29 29 29 30 30 31 31 30 30 29 29 28 27 28 29 29 30 29 28 26 25 24 22 22 21 21 21 21 21 21 21 21 21 22 22 21 21 22 23 24 24 24 24 21 19 19 21 22 23 24 26 27 27 28 28 28 29 29 30 31
33 32 31 31 31 31 31 31 31 30 30 29 29 28 28 29 30 31 32 32 31 30 29 27 26 25 24 24 23 23 23 22 23 23 24 24 23 23 22 22 23 24 25 27 27 25 23 21 20 21 23 24 25 26 28 28 29 29 30 30 31 32 32
35 34 33 33 33 33 33 32 31 31 31 30 29 29 29 30 31 32 33 34 33 32 32 31 30 28 27 27 26 26 25 25 25 26 26 26 25 24 23 23 24 24 25 28 28 26 25 23 22 22 25 26 26 28 29 30 31 31 32 32 33 33 33
40 38 37 36 35 35 34 34 34 33 32 32 31 31 31 32 33 34 35 34 34 34 36 35 34 32 32 31 30 29 28 28 28 28 28 29 28 27 27 26 26 26 28 29 29 28 27 25 24 25 27 28 28 29 30 31 32 33 34 34 35 35 35
44 43 42 40 38 37 36 35 35 35 35 35 35 35 35 35 36 37 36 35 36 37 38 37 36 36 36 36 34 33 32 31 31 31 31 31 31 31 30 30 29 30 30 31 31 30 30 28 27 28 29 30 30 31 32 33 34 35 36 37 37 38 37
46 45 43 42 41 40 39 38 37 37 37 38 39 38 38 39 39 39 38 38 38 39 39 38 38 39 40 40 39 38 37 35 34 34 34 33 33 33 33 33 33 32 33 33 33 33 33 31 30 31 32 33 33 33 34 35 36 37 38 39 40 40 39
48 46 44 44 44 43 42 42 41 40 39 40 40 40 41 41 41 41 41 41 41 41 41 40 41 42 42 43 42 42 41 40 39 38 37 36 36 35 35 35 35 35 35 36 36 35 35 34 33 33 34 34 35 36 36 37 38 39 39 40 41 41 40
49 48 48 47 46 45 44 44 44 43 43 42 42 42 43 43 44 44 44 44 44 43 42 43 43 44 45 45 45 45 45 44 42 41 40 39 39 38 38 37 37 37 37 37 38 37 37 36 35 35 36 36 37 38 38 39 40 41 41 41 42 42 42
50 50 50 50 49 48 47 46 46 45 45 45 45 45 45 45 45 46 46 46 46 45 45 45 45 45 46 47 47 47 47 46 44 43 42 41 41 41 40 39 39 39 39 39 39 39 38 37 37 37 38 39 39 40 40 41 42 43 42 42 43 43 43
46 50 51 52 52 51 51 50 49 48 48 47 47 47 47 47 47 47 47 47 47 47 47 46 46 46 47 47 48 48 48 46 45 44 43 43 43 43 42 41 41 42 42 42 41 41 40 39 39 40 41 41 41 41 42 44 45 44 43 43 44 44 43
38 43 47 51 52 53 53 52 52 51 50 50 50 50 50 50 50 49 49 49 48 48 48 47 46 47 48 48 49 49 48 47 46 46 45 45 45 45 44 43 43 44 44 44 44 44 42 41 42 43 43 44 44 44 45 46 47 47 45 44 45 45 44
32 36 40 45 48 51 53 54 54 54 54 54 53 53 53 53 53 53 52 52 51 51 50 49 49 49 50 50 50 50 50 49 48 48 48 48 47 47 46 46 46 46 46 47 47 47 46 45 45 45 45 46 46 46 47 48 49 49 47 47 47 46 45
29 31 34 38 41 44 48 51 53 54 56 57 57 56 56 56 55 55 55 55 54 54 52 51 51 52 52 53 52 52 53 52 51 51 51 51 50 49 48 48 48 49 49 49 49 49 50 49 48 48 48 49 49 49 50 51 51 51 50 49 49 48 47
27 28 30 32 35 38 41 44 47 50 53 56 57 58 58 58 58 58 58 57 56 55 54 54 54 55 55 56 55 55 56 56 55 55 55 55 53 52 51 51 51 52 52 51 51 52 53 53 52 51 51 52 52 52 52 53 54 54 53 52 52 50 48
28 28 29 30 31 33 36 38 41 44 48 51 55 57 58 59 60 60 60 59 59 58 57 58 58 58 58 58 58 58 58 58 59 60 59 58 56 55 55 55 55 56 55 55 55 54 55 56 55 55 55 55 55 54 55 55 56 56 56 55 54 52 50
30 30 30 30 31 32 33 35 37 40 43 46 49 52 55 57 59 59 60 61 61 61 61 61 61 61 61 61 61 61 61 61 62 63 62 61 59 58 58 58 59 59 58 58 57 57 57 58 58 58 58 58 58 58 58 58 58 58 58 58 57 54 52
33 33 32 32 33 33 34 34 35 37 39 41 44 46 49 52 54 56 57 59 60 61 62 63 63 64 65 65 65 65 64 64 64 65 65 64 62 61 61 62 62 62 61 60 59 59 59 59 59 60 60 60 60 60 60 60 61 61 61 61 60 58 55
35 35 35 34 34 35 35 35 36 36 37 38 40 41 43 45 47 49 52 54 55 57 59 60 62 65 66 67 68 68 67 67 67 67 68 67 66 65 65 66 66 65 65 64 62 61 61 61 61 61 61 61 62 62 62 62 63 64 65 65 64 62 60
38 37 37 36 36 36 36 36 37 38 39 39 39 39 39 40 42 43 46 48 50 51 52 54 58 62 63 65 65 66 66 67 68 69 70 70 69 69 69 70 70 69 69 68 67 66 65 65 64 64 63 63 63 64 64 64 65 67 68 68 68 67 65
41 39 39 38 38 37 37 37 37 38 40 41 41 40 40 40 40 41 43 44 45 46 48 51 54 57 58 59 60 60 61 63 64 66 67 69 69 70 71 71 71 72 72 71 71 71 70 69 68 68 68 67 66 66 66 66 68 70 71 71 71 71 70
45 43 41 40 40 40 39 38 38 39 40 42 42 41 41 41 42 42 43 43 43 44 46 49 51 52 52 53 54 55 56 58 59 61 62 63 65 66 67 68 68 70 71 71 71 72 72 72 72 72 72 72 70 69 69 70 71 73 74 74 74 74 74
49 47 45 43 42 42 42 41 41 40 41 43 43 43 43 44 44 44 44 45 45 46 47 47 48 48 48 49 50 50 52 54 56 57 57 59 60 61 62 63 64 66 67 68 69 70 70 71 71 72 73 73 72 71 71 72 74 75 77 77 77 77 76
51 50 49 47 46 45 45 45 44 43 43 44 45 45 46 46 46 46 46 46 47 48 48 48 48 48 48 49 49 49 50 52 54 54 54 56 57 58 59 60 60 61 62 64 65 66 67 67 68 68 69 70 70 70 70 71 72 74 75 77 78 78 76
54 53 52 51 50 49 48 47 47 47 46 46 46 47 47 48 48 48 48 48 49 50 51 51 51 50 50 50 51 50 51 52 53 53 53 54 56 57 57 58 58 59 59 59 60 61 63 64 64 64 64 65 66 66 66 67 67 68 70 72 72 73 73
56 56 55 55 54 53 52 51 50 50 49 49 49 49 49 49 50 50 50 50 51 52 54 54 54 53 52 52 52 51 52 52 52 53 54 55 56 57 57 57 57 57 56 57 57 57 58 60 62 62 62 62 62 62 63 63 62 62 63 65 66 67 67
59 58 57 57 57 56 55 54 53 53 52 52 51 51 51 51 52 52 52 52 53 54 56 57 57 56 55 54 53 53 52 52 52 54 55 56 57 58 59 59 58 56 55 55 55 55 56 57 59 60 60 60 59 59 60 59 58 58 60 60 60 60 60
62 61 60 59 59 58 58 57 56 56 55 55 54 54 54 54 53 54 55 55 55 56 57 59 59 59 57 56 55 55 54 54 54 55 56 58 59 60 61 61 60 58 56 55 54 55 55 56 57 57 57 57 58 58 57 56 55 56 56 55 54 53 52
65 64 63 62 61 60 60 59 59 58 58 58 57 57 56 56 56 56 57 57 57 58 59 60 61 61 60 59 57 57 56 56 55 56 57 59 60 61 62 63 62 61 58 56 55 55 55 55 55 55 55 55 56 56 54 51 51 53 54 51 50 48 44
68 67 66 65 64 63 62 61 61 60 60 60 60 59 59 59 58 59 59 60 60 60 60 61 62 62 63 62 61 59 58 57 57 57 57 58 60 61 63 64 64 62 60 58 57 56 54 53 53 53 53 53 54 53 51 49 49 52 52 49 47 43 40
70 69 68 67 66 65 64 64 63 62 62 62 63 63 63 63 62 62 62 62 62 63 63 63 63 64 64 64 64 62 61 60 59 58 58 58 60 61 63 64 65 63 61 59 58 57 55 54 53 52 52 51 51 50 49 47 47 48 48 46 44 40 38
72 71 69 68 67 66 66 66 65 65 65 65 66 66 67 67 67 66 66 66 65 65 65 65 66 66 66 66 66 65 64 63 61 60 59 59 59 61 62 64 64 63 61 60 58 56 55 55 55 54 52 49 48 47 45 44 43 42 41 40 36 30 28
74 73 72 70 69 69 68 68 68 68 68 68 69 70 70 70 70 70 69 69 69 69 68 69 69 69 69 69 68 67 66 65 64 62 61 60 60 60 61 63 64 63 62 60 57 56 54 54 55 54 51 49 45 40 37 36 36 35 33 29 22 18 21
75 74 74 73 72 71 71 71 71 71 71 72 72 73 73 73 73 73 73 72 72 73 73 73 72 72 72 72 71 70 68 67 66 65 63 62 61 61 62 64 64 64 62 59 56 55 54 54 53 51 49 45 38 32 30 31 30 27 22 13 7 9 23

ECMWFFLT1_250_spd_024.txt.gz
Wind_Speed
18 19 21 23 26 29 32 35 37 36 34 33 34 34 34 32 32 31 30 28 26 23 21 19 18 17 16 15 15 16 16 16 15 15 14 13 13 13 13 13 11 8 7 6 6 5 6 6 7 9 10 11 12 13 14 15 16 16 16 16 17 18 19
19 20 21 23 27 30 32 35 37 37 36 35 36 36 36 35 34 32 30 28 26 24 23 22 21 20 18 17 16 16 16 17 17 16 15 15 15 15 15 15 13 12 11 10 9 8 8 8 9 11 13 14 15 16 16 17 17 17 17 17 17 18 19
21 21 22 24 27 29 31 34 37 37 37 37 37 38 38 37 34 32 30 29 27 27 26 25 23 21 20 20 19 17 17 18 18 17 17 17 17 17 17 16 15 14 14 13 13 12 11 11 12 13 15 17 18 17 16 17 17 18 18 18 18 19 20
24 23 23 25 27 29 32 34 36 36 37 37 38 38 38 36 35 33 32 31 30 30 28 27 24 23 22 23 21 20 19 18 18 18 18 18 18 17 17 16 15 15 15 16 16 16 16 16 16 16 17 19 21 19 18 17 18 19 19 19 20 20 21
27 24 24 25 28 30 32 34 35 36 36 37 37 37 37 36 35 34 34 33 33 32 30 28 27 26 25 24 23 21 20 19 19 19 18 18 17 17 16 15 15 16 17 18 19 19 19 20 20 20 20 21 22 22 21 20 20 21 22 22 22 22 23
29 27 25 26 28 31 33 34 34 34 34 34 34 34 35 35 35 35 34 34 33 32 31 30 30 29 27 25 23 22 22 21 19 18 18 17 17 17 16 16 16 17 18 20 21 22 22 22 22 22 22 22 23 25 24 23 22 23 24 24 24 24 25
30 29 28 27 28 31 33 33 34 33 33 33 32 31 31 32 33 34 33 33 33 32 32 32 31 29 27 26 25 24 23 21 20 19 19 18 18 18 17 17 17 18 19 21 23 23 23 23 24 24 23 23 24 26 26 26 25 25 26 26 26 27 27
33 31 31 30 29 30 32 33 33 33 32 32 32 31 31 32 33 33 33 33 32 32 33 32 31 30 28 27 26 26 25 24 23 22 21 20 20 19 19 19 20 20 22 23 24 25 24 24 24 24 25 25 26 27 28 28 27 28 28 28 28 29 29
37 35 34 32 31 31 32 33 33 33 32 31 32 32 32 33 34 34 34 33 32 33 34 33 31 30 28 28 29 28 28 27 27 25 24 23 22 21 21 22 22 24 25 26 26 27 26 25 25 25 26 26 27 28 29 30 30 30 30 30 30 30 31
42 40 38 36 34 34 33 34 34 34 34 33 33 34 34 35 36 35 35 34 34 36 35 33 32 31 31 31 31 31 31 31 30 29 28 26 25 25 25 25 25 26 28 28 28 29 29 28 27 27 27 27 28 30 31 31 32 32 31 31 31 32 32
45 44 42 40 39 37 36 36 36 37 37 37 37 37 37 38 37 36 36 36 36 36 35 33 33 33 33 33 33 33 34 34 32 32 31 30 29 29 29 29 29 30 30 30 31 31 31 31 30 30 29 29 30 31 33 33 33 34 33 33 34 34 35
48 46 44 42 41 40 39 38 38 38 39 39 40 40 40 40 40 39 39 38 37 37 35 34 35 35 35 35 35 35 36 36 35 35 35 33 33 33 33 34 34 33 33 34 34 33 33 33 32 32 31 31 32 33 34 34 35 36 36 36 36 36 37
50 48 46 44 42 42 42 42 41 40 40 41 41 42 42 42 41 41 40 39 38 37 36 36 37 37 37 37 37 37 38 38 38 38 37 36 36 37 37 38 38 37 37 37 37 36 36 35 35 34 34 34 34 35 35 36 36 38 38 38 38 38 39
50 49 48 46 44 44 44 44 43 43 42 42 42 42 42 42 42 42 41 41 39 38 38 38 39 39 40 39 40 40 40 40 41 40 39 39 39 39 40 40 41 41 41 40 39 38 38 38 37 37 36 36 36 36 37 37 39 40 41 41 41 40 41
50 50 50 49 48 47 47 46 45 44 43 42 42 42 42 43 43 43 43 42 41 41 41 40 41 41 42 42 43 43 42 42 43 42 42 41 42 42 43 43 43 43 43 42 41 40 40 40 39 39 38 38 38 38 39 39 41 42 42 42 43 43 43
50 51 51 51 51 50 49 48 47 46 45 44 44 44 44 44 44 44 44 44 43 43 43 42 43 44 44 45 45 45 44 44 44 44 44 43 44 44 44 45 45 45 44 43 43 42 42 41 41 41 40 40 40 40 41 42 43 44 44 45 46 46 46
46 49 51 52 52 52 51 50 49 48 47 47 47 47 46 46 46 45 45 45 44 44 44 44 45 46 47 47 47 47 46 46 46 46 46 45 45 45 45 45 45 45 45 44 44 44 43 43 44 43 43 43 43 43 43 44 45 46 47 47 48 48 48
39 43 47 50 52 53 53 53 52 51 51 50 50 49 49 49 48 48 47 47 47 46 46 46 47 48 48 48 48 49 49 49 49 48 48 47 47 46 46 46 46 46 46 46 46 46 46 46 47 46 46 46 46 46 46 47 48 49 50 50 51 51 50
34 36 39 43 46 49 51 52 53 53 53 53 52 52 52 51 50 50 50 49 49 48 48 49 49 50 50 50 50 51 51 51 50 50 49 49 48 48 48 48 48 49 49 49 49 49 49 49 50 50 50 50 50 49 49 50 51 52 52 53 53 53 52
33 33 33 35 38 41 44 47 49 51 52 52 53 53 53 53 53 53 52 52 51 51 51 52 52 52 52 52 53 54 54 53 53 52 52 52 51 51 51 51 52 52 52 52 52 52 52 53 53 54 54 53 53 53 53 53 54 55 55 55 55 55 55
35 34 34 34 35 36 37 40 42 45 47 48 49 50 51 52 53 53 53 53 54 54 54 55 54 54 55 55 55 55 55 56 56 55 55 54 54 53 54 54 55 55 55 55 54 54 55 55 56 56 57 57 57 56 56 57 58 58 59 59 58 58 58
37 36 35 35 35 35 35 36 37 38 40 41 43 44 45 47 48 49 50 51 53 54 55 55 56 56 57 57 58 58 58 58 58 58 58 57 57 57 58 58 59 59 58 58 58 58 58 58 58 58 59 59 59 59 60 61 61 62 63 63 63 62 62
37 36 36 35 34 34 33 34 34 34 35 36 37 38 39 40 42 43 44 46 47 49 50 52 53 54 55 56 57 58 58 59 59 59 59 59 60 61 61 62 62 62 62 62 62 62 61 61 61 61 62 62 62 62 63 63 64 65 66 67 66 66 66
37 36 35 34 33 32 32 32 32 32 33 34 34 35 35 36 37 38 40 41 42 43 45 46 48 49 50 51 52 53 54 55 55 56 57 57 58 59 60 61 61 61 62 62 63 63 63 63 63 63 63 63 63 63 63 64 64 65 66 68 68 68 67
40 38 37 36 34 33 33 33 33 33 33 33 33 33 33 33 34 35 36 37 38 39 41 42 43 44 45 45 46 47 49 50 51 52 53 53 54 54 55 55 56 56 57 57 57 57 58 58 59 59 60 60 60 60 60 60 61 62 63 65 67 66 65
44 42 41 39 38 37 37 36 35 34 35 35 34 34 34 34 34 35 35 35 36 37 38 39 39 39 40 41 42 43 45 46 47 48 48 49 49 49 49 49 50 50 50 51 51 51 52 53 53 54 55 55 55 54 55 55 55 56 58 60 62 63 62
47 46 45 44 42 41 40 39 38 37 37 37 37 36 36 36 36 36 36 36 37 38 38 38 38 38 39 39 40 41 42 43 44 44 45 45 45 44 44 44 45 46 47 47 48 48 49 49 49 50 50 51 51 51 50 50 50 51 53 55 57 58 58
50 49 48 47 46 44 43 42 41 40 39 39 39 39 39 39 39 39 39 39 40 40 40 40 40 40 40 41 42 42 43 43 43 43 43 43 43 43 42 42 43 44 45 46 46 46 47 47 47 48 48 48 49 49 48 48 47 48 50 52 53 55 56
53 52 51 49 48 47 46 45 44 43 42 42 42 42 42 41 41 41 41 42 43 43 43 43 43 43 43 44 44 44 45 45 45 45 45 44 44 44 43 43 43 44 45 45 45 45 45 46 47 47 46 47 47 47 48 47 46 46 48 50 51 52 53
55 54 53 52 51 49 49 48 46 45 45 44 44 44 44 44 44 44 44 45 45 46 46 47 47 46 46 46 47 47 47 47 47 47 47 47 46 46 46 45 45 45 45 45 45 45 45 47 48 48 48 48 48 48 49 48 47 46 47 49 51 50 51
59 57 56 55 54 53 52 51 49 48 48 47 47 47 47 47 47 47 47 48 48 48 49 49 50 50 50 50 49 49 49 50 50 50 50 49 48 48 48 48 47 47 47 47 46 46 47 48 50 50 50 51 51 51 50 49 48 48 49 50 51 51 52
62 61 60 58 57 56 55 54 53 52 51 50 50 50 50 50 50 50 51 51 51 51 52 52 52 53 53 53 53 53 53 53 53 53 53 52 51 50 50 50 49 49 49 49 49 49 49 50 52 53 53 54 54 53 51 49 49 50 51 51 51 53 54
66 64 63 61 59 58 58 57 57 56 55 54 53 53 53 53 53 54 54 54 54 54 54 55 55 55 56 56 56 56 56 56 56 56 55 55 54 53 52 52 51 51 52 52 52 51 51 52 53 54 55 56 56 55 52 49 48 50 52 52 52 53 55
68 67 66 64 62 61 60 60 60 60 59 58 57 56 56 56 56 56 57 57 57 57 58 58 58 58 59 59 58 59 58 58 58 58 58 58 57 56 56 55 55 54 54 54 54 54 53 54 54 55 57 58 58 56 53 50 48 48 50 52 53 55 56
70 69 68 67 66 65 64 63 63 62 62 62 61 61 60 59 59 59 59 60 60 60 60 61 61 61 61 61 61 61 61 60 60 60 60 60 60 59 59 59 58 58 57 58 58 57 56 56 56 57 59 59 60 58 54 50 48 47 48 52 54 56 57
72 71 71 70 70 69 68 67 66 65 64 64 64 63 63 63 63 63 63 63 63 63 63 63 63 63 64 64 64 64 64 63 63 63 63 63 63 62 62 62 62 61 61 61 61 60 59 59 58 59 60 60 61 61 56 50 48 46 48 51 54 54 55
75 73 73 72 72 71 71 70 69 68 67 66 66 66 66 66 66 66 66 66 66 65 65 65 65 66 66 66 66 66 66 66 66 66 66 66 66 66 65 65 65 64 64 64 64 63 62 62 61 62 63 62 63 63 58 52 48 47 48 51 53 52 51
77 75 74 74 73 73 73 73 72 71 70 69 69 68 68 68 68 69 69 69 69 69 68 68 68 68 68 68 69 69 69 69 69 70 70 70 69 69 69 68 68 67 67 67 66 66 65 65 65 65 65 64 65 64 60 53 49 48 48 51 52 52 51

ECMWFFLT1_250_spd_027.txt.gz
Wind_Speed
25 24 23 25 29 31 32 32 33 34 33 34 37 39 38 36 36 35 33 31 29 29 28 26 23 21 20 19 17 16 15 13 13 12 11 11 10 9 10 9 8 8 7 8 7 7 7 6 6 7 7 7 8 10 11 13 13 13 13 14 15 16 17
26 26 23 22 25 28 30 31 32 36 36 37 39 41 40 39 38 37 35 33 31 31 30 28 25 23 21 20 20 19 18 17 16 15 14 13 13 13 12 11 10 10 10 10 10 9 9 9 9 10 10 11 12 13 13 14 14 14 14 14 15 16 18
29 28 24 21 24 28 27 28 31 36 38 39 42 43 42 41 39 38 37 34 32 31 31 29 26 23 22 22 21 19 18 18 18 18 17 16 16 16 15 13 13 13 13 13 13 12 11 11 12 12 12 13 14 15 15 16 16 16 16 16 16 17 19
31 30 26 23 26 27 26 27 31 35 39 41 44 44 43 42 40 38 36 33 31 31 30 28 25 24 23 23 21 19 18 17 17 18 18 18 18 17 16 15 15 15 14 14 14 14 14 14 14 15 15 16 16 17 17 17 18 18 18 18 17 18 19
33 31 28 25 26 27 27 28 31 35 39 42 43 44 43 42 41 39 36 33 32 32 30 28 27 26 25 24 23 21 19 17 17 17 18 19 19 18 17 17 17 16 14 14 14 15 15 16 16 16 17 17 18 18 18 18 18 19 20 20 19 19 20
35 32 29 26 24 25 28 29 30 33 38 41 43 43 43 42 41 39 37 35 34 33 32 31 30 28 27 25 24 22 19 18 18 18 19 20 20 20 19 18 17 16 15 16 16 16 16 16 16 16 18 19 19 19 19 19 20 21 21 22 22 21 21
37 33 31 27 25 26 29 30 30 32 36 39 40 40 41 41 41 40 38 37 37 36 35 35 34 31 29 27 26 24 22 21 20 21 21 21 22 21 20 19 18 17 18 18 18 17 17 16 16 17 19 20 20 20 20 21 22 22 23 23 23 23 23
39 36 32 28 26 26 28 29 30 31 34 37 37 37 39 40 40 40 40 40 39 38 38 37 35 33 31 30 29 28 27 25 24 24 23 23 23 22 21 21 20 21 21 21 20 19 19 18 18 19 20 22 23 23 23 23 24 25 25 25 25 25 25
43 39 35 31 29 27 25 27 30 31 33 37 37 36 37 38 40 41 41 41 40 39 39 38 36 34 32 31 31 30 30 29 28 27 26 26 26 25 24 24 25 25 25 23 22 22 22 21 21 21 21 23 24 26 26 27 27 28 28 27 27 27 27
46 42 39 35 33 32 28 27 31 33 35 37 38 37 37 37 39 40 41 41 40 40 39 37 36 34 33 33 32 32 32 32 32 30 29 29 28 27 28 28 28 28 27 26 25 25 25 24 24 24 24 24 26 28 29 29 30 31 31 30 29 29 30
48 46 44 40 39 38 34 31 32 35 37 38 39 39 38 38 38 39 39 39 39 39 38 36 35 34 34 34 33 34 35 35 34 33 32 31 30 30 30 30 31 30 29 29 28 28 28 28 27 27 27 27 28 30 31 32 32 33 34 33 32 32 32
51 50 47 45 43 42 39 36 35 37 40 42 42 41 40 40 39 39 39 39 39 38 37 36 36 36 35 35 35 36 37 36 35 35 33 32 31 32 32 33 33 32 31 31 32 32 31 31 31 31 31 31 32 33 33 34 35 36 36 36 35 34 34
54 52 49 48 46 43 41 40 38 39 41 43 44 44 44 43 43 42 41 41 40 40 39 38 38 37 37 36 36 38 38 38 37 36 34 33 33 34 35 35 35 34 34 34 34 35 34 35 34 34 34 35 35 36 36 37 37 38 38 38 37 37 36
55 54 52 50 48 45 44 42 40 39 40 42 44 45 46 45 45 44 44 43 42 41 41 40 39 39 39 38 38 40 40 38 37 36 35 35 36 36 37 37 37 37 37 37 37 37 37 37 37 37 38 38 38 38 38 39 39 40 40 40 39 39 39
56 56 53 50 48 47 45 44 42 40 38 39 41 43 44 45 44 44 44 43 42 42 41 40 39 40 39 38 39 40 39 37 36 36 36 35 36 37 37 38 39 39 39 40 40 40 40 40 40 40 40 40 40 40 40 40 41 41 42 42 41 41 41
57 57 54 50 49 49 48 45 42 40 39 39 40 41 43 43 44 44 43 42 42 42 41 41 41 41 40 39 40 40 38 36 36 36 36 37 37 38 38 39 40 41 41 42 42 42 42 41 42 42 42 42 42 42 42 42 42 43 44 44 44 44 44
56 56 55 54 52 52 50 48 45 43 42 42 41 41 42 43 43 44 44 44 44 43 43 43 42 42 42 41 41 40 39 38 38 38 38 39 39 40 40 41 42 43 43 44 44 43 43 43 44 44 44 43 43 43 44 44 44 45 46 46 46 47 47
54 55 56 57 56 55 53 51 49 47 47 46 45 45 44 43 44 44 45 45 45 44 44 44 44 43 43 42 42 41 41 41 41 41 41 42 42 43 43 43 44 44 45 46 46 45 45 46 46 46 45 45 45 45 46 47 48 48 49 49 49 49 50
52 54 55 56 57 57 55 54 51 50 50 49 48 48 47 46 46 46 46 45 44 44 44 44 44 43 43 43 43 43 43 43 43 43 44 44 44 44 44 45 45 46 47 47 47 47 47 47 47 47 47 47 48 48 49 50 51 51 51 52 52 52 53
49 52 55 56 57 57 56 55 54 53 52 51 50 49 49 48 48 47 46 45 45 45 45 44 44 44 44 44 45 45 44 44 44 44 44 44 44 45 46 46 47 47 48 48 48 48 49 49 49 49 50 50 50 51 52 53 54 54 55 55 55 55 56
47 50 53 55 56 56 56 56 56 55 53 53 52 51 50 50 49 48 47 47 47 47 46 46 46 46 46 46 46 46 46 46 46 46 45 45 46 47 48 49 49 49 49 50 50 51 51 51 52 52 52 53 54 55 56 57 57 58 59 59 59 59 58
44 45 48 52 54 55 56 56 56 55 55 54 54 53 52 51 50 49 49 49 49 49 48 48 48 48 48 49 49 48 48 48 48 48 48 48 49 50 51 52 52 51 51 52 52 53 53 54 54 55 55 56 57 58 59 60 60 61 61 61 61 60 59
39 40 42 46 50 52 54 55 56 56 55 55 55 55 54 53 52 51 51 50 51 50 50 50 50 50 51 51 50 50 50 50 50 51 51 52 53 54 54 54 54 54 54 55 55 56 57 57 57 57 58 58 58 59 59 59 59 59 59 59 59 58 56
38 39 40 42 44 47 49 52 54 55 55 55 55 55 55 54 53 52 52 52 52 52 52 52 53 53 53 53 53 53 53 53 54 54 54 55 56 57 57 56 56 57 57 57 57 57 57 57 57 56 56 56 56 55 55 54 54 55 55 56 56 55 53
39 39 39 39 39 41 43 46 48 49 50 51 52 52 52 52 52 51 51 51 51 51 52 53 53 53 53 53 53 54 54 54 54 54 54 55 55 55 55 55 55 55 55 54 54 54 53 53 52 52 52 51 51 50 50 50 50 50 51 52 52 53 52
40 39 38 38 38 39 40 40 40 41 41 42 42 42 43 43 43 44 44 44 44 45 45 45 45 45 46 46 47 47 48 48 48 49 49 49 49 49 49 49 49 49 49 48 48 48 48 48 47 47 47 47 47 47 47 48 48 47 48 49 50 50 50
42 40 39 38 39 40 39 38 38 36 35 35 34 33 32 32 33 34 34 35 36 36 36 36 36 37 38 38 39 40 41 41 41 42 42 43 43 43 44 44 44 44 44 44 44 44 45 45 44 44 45 45 45 45 46 46 47 47 48 48 48 48 48
45 44 42 41 41 41 40 40 39 37 36 34 32 31 30 31 31 31 32 33 33 33 33 33 34 34 35 36 36 37 38 39 39 39 39 39 40 41 41 42 42 42 42 43 43 43 43 43 43 43 43 43 44 44 45 45 45 46 47 49 48 48 47
49 48 46 45 44 44 43 42 41 40 38 36 34 34 33 33 33 34 34 35 35 35 35 35 35 36 36 37 37 37 38 38 38 39 39 39 40 40 41 41 42 42 42 42 42 41 41 42 43 42 42 43 43 43 44 44 45 45 48 51 52 52 50
53 52 51 49 48 47 46 45 43 42 41 39 39 38 37 36 37 37 37 38 39 38 38 38 38 39 39 39 38 38 39 39 40 40 41 41 41 41 42 43 43 42 42 42 42 41 41 41 42 42 43 43 43 44 44 45 45 46 48 52 55 55 55
56 55 54 53 51 50 48 46 45 45 44 44 43 42 41 40 40 40 40 41 41 40 40 41 41 41 41 41 41 41 41 41 41 42 43 43 43 43 44 45 44 44 44 44 43 43 43 43 43 43 43 44 45 46 46 46 47 48 50 53 56 57 58
59 57 56 55 55 53 51 49 49 48 48 48 47 46 45 45 44 44 44 44 43 43 43 43 43 44 44 44 44 44 44 44 45 45 46 46 46 46 47 47 47 46 47 47 46 46 46 46 46 46 46 47 47 48 49 49 50 50 52 54 57 59 60
63 61 59 58 58 57 55 53 53 53 52 52 51 50 50 49 48 48 47 47 47 46 46 46 46 46 47 47 47 47 47 48 49 49 49 49 49 49 50 50 50 49 50 50 50 50 50 50 49 49 49 50 50 50 51 51 52 53 54 55 57 59 61
66 65 63 61 61 61 59 57 56 55 55 55 54 54 53 52 52 51 51 50 50 50 49 50 50 50 50 50 50 50 51 51 52 53 53 53 52 52 52 53 53 52 53 53 54 54 53 53 53 52 52 52 52 53 53 53 54 55 56 56 57 60 61
69 68 66 65 64 64 63 61 59 57 57 57 57 57 56 55 55 54 54 54 53 53 53 53 53 53 53 53 53 54 54 55 55 56 56 56 56 56 55 55 56 55 56 56 56 56 56 56 56 57 56 55 56 56 55 55 56 57 58 58 59 61 63
72 70 69 68 68 67 66 64 62 60 59 59 59 59 58 58 57 56 56 56 56 56 56 56 56 56 56 56 57 57 58 58 58 59 59 59 59 59 58 58 58 58 58 59 59 59 59 59 60 60 60 59 59 59 59 59 59 60 61 61 61 63 65
75 73 72 71 71 70 69 68 66 64 63 62 61 61 61 60 60 59 59 59 59 59 59 60 60 60 60 60 60 61 61 61 61 62 62 62 61 61 61 61 61 61 61 61 61 61 61 62 62 63 63 62 62 62 62 63 63 63 64 65 66 66 67
77 77 76 75 74 73 73 71 70 69 67 66 64 64 64 63 63 63 62 62 63 63 63 63 63 63 63 63 63 64 64 64 64 64 65 64 64 64 64 64 64 64 64 64 64 63 63 63 64 65 65 65 65 66 65 65 66 67 68 69 70 70 70

ECMWFFLT1_250_spd_030.txt.gz
Wind_Speed
30 26 25 25 22 20 19 20 23 24 24 25 27 30 35 36 36 36 36 35 33 31 29 27 25 23 22 21 20 18 17 16 15 14 13 12 11 10 10 10 8 7 7 6 6 6 6 6 5 6 6 6 7 8 9 10 12 13 14 14 14 14 13
33 29 26 26 24 22 22 22 23 24 24 26 28 30 35 38 37 38 38 37 35 33 30 28 26 24 23 22 20 19 19 18 17 16 15 14 13 12 11 10 9 8 8 8 8 8 8 8 8 9 9 9 9 10 11 11 13 14 15 15 16 16 15
36 32 29 28 27 24 23 23 24 25 26 27 29 30 34 38 39 39 39 38 36 35 33 31 29 27 26 24 23 22 21 20 19 18 17 16 15 15 14 12 11 10 10 10 11 11 10 10 11 11 11 11 11 11 12 13 13 13 14 15 16 17 17
38 36 32 30 30 26 24 24 25 26 29 31 32 31 32 36 39 40 41 40 39 37 36 34 32 30 29 27 25 23 23 22 21 20 19 18 18 17 15 14 13 14 14 13 13 13 12 12 12 12 13 13 12 12 12 13 13 13 14 15 16 18 19
41 38 34 33 32 28 26 26 26 28 30 32 33 32 31 35 40 42 42 42 41 40 38 36 35 33 31 29 26 25 25 24 22 21 20 20 19 18 17 17 17 17 16 16 15 14 13 13 13 13 13 13 13 12 12 13 13 14 14 15 17 18 20
43 40 36 35 33 30 28 27 27 27 28 29 32 34 33 35 41 44 44 45 44 42 40 39 38 36 34 31 29 28 27 25 24 22 21 21 21 20 20 20 19 18 18 17 17 16 15 14 14 14 14 14 15 14 13 14 15 15 16 17 18 19 21
45 42 39 37 35 32 30 27 25 25 25 25 28 33 34 35 42 46 46 46 46 44 42 40 39 38 36 34 33 31 29 27 25 24 24 24 23 22 21 21 21 20 21 20 19 18 16 15 15 15 15 16 17 17 16 16 17 18 19 20 21 22 23
47 44 41 39 37 35 31 28 26 25 26 27 27 31 35 36 42 48 48 47 47 44 42 40 39 39 38 38 35 33 30 28 27 27 27 26 24 22 22 22 22 23 23 22 21 20 18 17 16 16 17 17 18 19 19 19 20 21 22 23 24 24 25
48 45 43 41 38 36 33 30 28 27 28 29 27 29 33 36 42 48 48 47 46 45 43 41 40 40 39 38 36 33 31 30 29 29 28 26 24 22 22 23 24 25 25 24 23 22 21 19 19 18 18 18 19 20 21 21 22 23 24 25 26 27 28
49 47 46 43 38 37 35 32 30 29 29 30 29 29 32 36 41 46 47 46 46 45 43 42 41 40 39 38 35 33 32 31 30 29 29 27 25 23 23 24 26 26 26 26 25 25 24 22 21 20 20 20 21 22 23 24 25 27 28 29 29 30 30
50 49 48 45 41 40 38 35 33 31 29 30 30 30 33 37 41 45 47 47 46 45 43 42 41 40 39 38 36 34 33 31 31 31 31 30 28 26 26 27 28 28 28 28 28 27 26 25 24 23 23 23 24 25 26 28 30 31 32 32 33 33 33
51 50 49 47 45 44 42 40 37 32 29 31 32 33 36 40 43 46 46 47 46 45 44 43 41 40 39 38 37 35 34 34 33 33 33 32 31 30 30 30 30 30 30 30 30 29 28 27 27 26 26 27 28 29 30 32 33 34 34 36 36 36 35
53 52 52 51 49 47 46 44 39 35 32 33 35 37 39 42 45 46 46 46 46 46 45 43 42 40 39 38 38 37 37 36 36 35 34 34 33 33 33 33 32 31 31 31 32 32 30 29 29 29 30 30 32 33 34 35 36 37 37 38 39 39 38
54 54 53 52 49 48 48 45 41 38 35 33 35 37 40 43 45 46 46 46 47 47 46 45 43 42 41 40 39 40 39 39 38 37 36 36 35 35 35 34 33 33 33 33 33 33 32 32 32 33 34 34 35 37 38 38 39 40 40 40 41 41 41
52 53 53 52 50 49 49 45 42 41 38 35 35 37 40 43 45 46 47 46 47 48 47 46 45 44 43 42 42 41 41 40 39 38 37 37 36 35 35 34 34 34 34 34 34 34 34 34 35 36 37 37 38 39 40 41 42 42 42 42 42 42 43
52 53 54 52 51 51 49 47 45 43 39 36 36 37 40 43 45 47 47 47 47 47 47 46 46 45 45 44 43 42 41 41 40 39 38 36 35 35 35 35 35 35 35 36 36 36 36 36 37 38 38 39 40 41 42 42 43 44 44 44 43 43 44
51 52 52 52 52 53 51 48 48 46 41 37 36 38 40 43 45 46 47 47 47 46 46 46 46 45 45 45 44 43 42 42 41 40 38 37 37 37 37 37 37 37 37 38 37 37 37 37 38 39 39 40 41 42 43 44 45 45 45 45 45 45 46
47 49 52 54 55 55 55 53 53 51 45 40 39 40 41 43 45 46 47 47 47 47 47 47 46 46 45 45 44 43 43 42 42 41 39 39 39 39 38 38 39 39 39 38 38 37 37 38 39 39 40 42 43 44 45 46 46 46 46 46 46 47 48
44 48 52 55 57 58 59 57 55 54 50 47 45 44 43 43 44 45 46 47 47 48 48 47 47 46 45 45 45 44 43 43 43 42 41 40 40 39 40 40 39 39 39 39 38 39 39 40 41 42 43 45 46 46 47 48 48 48 48 48 49 49 51
43 45 50 55 58 59 59 57 56 56 55 52 50 48 46 45 45 45 46 47 48 49 48 48 47 47 46 46 45 45 44 44 43 43 42 41 41 41 41 41 40 39 40 40 41 41 42 42 43 44 45 46 47 48 49 49 50 50 51 51 52 52 54
42 44 48 53 56 57 57 58 57 58 57 55 53 51 49 48 47 46 46 47 48 49 49 48 48 47 47 46 46 46 45 45 44 43 43 43 42 42 43 43 42 42 42 43 43 44 44 44 45 46 46 47 48 50 51 51 52 54 54 55 55 56 56
42 42 44 47 51 55 58 59 58 56 55 55 55 54 52 50 49 48 48 47 47 48 48 48 47 47 47 46 47 47 46 45 44 44 44 44 44 44 44 44 44 44 43 44 44 45 45 45 46 47 47 48 50 52 53 55 56 57 58 58 57 57 56
38 37 38 42 48 54 58 59 60 59 57 55 54 54 55 53 51 50 49 48 48 48 47 47 48 48 47 47 47 46 45 45 44 44 44 45 45 45 44 44 44 44 44 44 45 46 46 46 48 49 50 51 53 54 55 56 57 58 58 57 56 53 51
38 37 38 42 46 50 53 57 60 60 60 58 55 54 54 54 53 52 51 51 50 49 49 48 49 49 48 48 47 46 46 45 45 45 45 45 46 45 45 45 45 45 45 46 46 47 48 49 51 52 53 53 54 54 54 54 54 53 52 51 50 48 47
39 39 40 42 43 44 48 53 56 58 60 61 59 57 56 54 54 53 53 53 52 51 51 50 50 49 49 49 48 47 47 47 47 47 47 47 47 47 47 47 47 47 48 48 49 50 51 52 52 52 52 52 51 50 49 48 47 47 46 46 45 45 45
41 40 42 42 41 42 44 46 50 54 57 59 60 60 58 57 56 55 55 54 54 53 53 52 51 50 50 50 50 49 49 49 48 48 48 48 48 48 48 49 49 49 49 49 49 50 49 49 49 48 47 46 44 44 43 43 43 43 44 44 44 44 44
44 43 44 42 42 43 42 41 44 48 51 54 57 57 57 57 57 57 56 56 55 55 54 53 52 52 51 51 51 51 50 50 49 49 49 49 48 48 48 49 48 48 47 47 46 45 44 43 42 41 41 40 39 40 40 40 41 42 43 44 44 44 44
46 45 45 44 43 43 41 41 42 43 45 48 50 51 53 54 55 55 55 55 55 55 54 53 53 53 52 52 52 52 51 50 49 48 46 46 45 45 45 44 44 43 42 41 40 39 39 38 37 37 37 37 38 38 39 40 40 41 43 44 45 45 44
48 46 46 45 44 44 43 42 41 41 41 43 44 45 47 49 50 51 51 51 51 51 51 51 51 50 50 49 48 47 46 45 44 43 41 41 40 40 40 39 39 38 38 37 36 36 36 36 36 36 36 37 37 38 39 40 41 42 44 45 46 46 46
50 49 47 46 46 45 45 43 41 41 41 41 42 43 43 44 45 45 45 45 46 46 45 45 44 43 41 40 39 38 38 37 37 37 37 37 37 36 36 36 36 36 36 36 36 35 36 36 36 36 36 37 37 38 39 41 42 43 45 47 48 48 48
52 51 49 48 47 46 46 44 43 44 43 43 43 43 42 42 42 41 42 42 42 41 40 39 37 37 36 36 35 36 35 35 36 36 36 35 35 35 35 35 35 35 36 36 36 36 37 37 37 37 38 38 39 40 41 42 43 44 45 47 49 50 50
55 53 52 51 50 49 48 46 46 46 45 45 44 43 43 43 42 41 41 41 40 38 37 36 37 37 37 37 37 37 37 37 37 37 36 36 36 37 37 37 37 37 37 38 38 38 39 39 39 40 40 41 42 42 43 44 45 45 46 47 49 51 53
58 56 55 54 54 54 51 48 48 48 47 47 46 45 45 44 43 43 42 41 40 39 38 38 39 39 39 40 39 39 39 39 39 39 39 38 39 39 40 40 40 40 40 41 41 41 42 42 43 43 43 44 45 45 46 47 47 48 47 47 49 51 54
61 59 57 56 57 57 55 52 51 51 50 49 49 48 47 46 45 44 43 43 42 41 41 41 41 42 42 42 41 41 41 41 41 41 41 42 42 42 42 43 43 43 43 44 44 44 45 45 46 46 46 47 48 48 49 50 50 50 50 50 50 52 54
65 62 60 58 59 60 59 57 55 54 54 53 51 50 50 49 49 47 46 45 45 45 44 44 44 44 44 44 43 43 43 44 44 44 44 45 45 45 45 46 46 46 46 46 46 47 48 48 48 49 49 50 51 51 51 52 53 53 53 53 53 53 54
69 66 64 62 61 62 62 61 59 58 57 56 54 52 52 52 52 51 50 49 49 49 48 48 47 47 46 46 46 46 47 47 46 47 48 48 48 48 49 49 49 49 49 49 49 50 51 51 51 52 52 53 54 54 55 55 56 56 56 56 56 56 56
72 70 68 66 65 64 64 63 62 61 60 59 57 56 55 55 54 54 54 53 53 52 51 51 51 50 50 50 50 50 51 51 50 50 52 51 51 52 52 52 53 52 52 52 53 54 54 54 55 55 56 56 57 58 58 58 58 59 59 59 59 58 59
74 73 72 70 69 67 66 65 64 64 63 62 61 59 58 57 57 57 57 56 56 56 55 55 55 54 54 54 55 54 55 54 53 54 55 55 55 55 55 56 56 56 56 57 57 57 57 58 58 59 59 60 60 61 61 61 60 61 61 62 61 61 62

ECMWFFLT1_250_spd_033.txt.gz
Wind_Speed
33 32 33 31 28 27 25 21 19 21 23 25 25 26 25 26 28 30 30 31 31 32 31 30 28 27 26 26 25 24 23 22 21 21 20 19 18 17 16 15 14 13 12 11 10 10 9 8 8 8 7 7 6 6 6 7 9 10 11 12 11 10 9
35 36 37 35 32 30 27 24 21 20 22 23 25 27 27 26 28 30 31 31 32 33 33 32 29 27 27 27 26 25 24 23 23 21 20 19 19 18 17 16 14 13 12 12 11 11 11 10 10 9 9 9 8 8 8 8 10 11 12 13 13 13 12
37 40 40 37 35 33 28 26 23 20 21 23 27 27 26 26 27 28 30 31 34 35 35 34 32 30 29 29 28 27 26 25 23 22 21 20 20 18 17 16 15 14 14 13 13 12 12 11 11 11 11 11 10 10 10 10 11 11 12 13 14 14 14
41 43 43 40 38 34 30 27 26 24 23 25 28 27 26 26 26 27 30 33 35 37 37 36 35 33 32 32 30 28 27 25 24 23 22 21 20 19 17 16 16 16 15 15 14 13 13 13 13 14 14 13 12 11 11 12 12 11 12 12 14 15 15
44 46 46 43 40 36 33 31 30 28 25 25 27 27 26 26 27 27 29 34 37 38 39 39 37 35 34 34 32 30 28 26 25 24 23 23 21 19 18 18 18 17 16 15 15 15 15 15 15 15 15 15 14 13 12 12 12 12 12 13 14 16 17
46 48 48 47 43 40 37 34 31 28 25 23 24 26 27 28 28 27 29 34 38 39 41 41 40 39 38 36 34 31 29 28 26 26 25 24 22 21 20 20 19 18 18 17 17 18 17 17 17 16 16 15 15 14 13 12 12 13 13 14 15 17 18
47 49 51 51 47 43 41 36 31 28 26 24 24 27 30 31 31 29 30 35 39 41 43 44 42 41 40 37 34 32 30 29 28 28 27 25 24 23 22 22 21 21 20 20 20 20 19 19 18 18 16 16 15 15 14 14 14 14 15 16 16 18 19
47 48 52 53 48 45 43 38 34 31 29 28 28 29 32 34 35 33 32 35 40 43 45 45 44 43 41 38 35 33 32 31 31 30 28 27 25 24 24 23 23 22 22 22 22 21 21 20 20 19 17 17 16 16 16 16 16 16 16 17 19 20 22
48 47 51 52 49 46 44 41 39 35 32 30 28 27 30 34 37 36 34 35 41 44 46 46 46 45 42 39 36 34 34 34 33 31 29 28 26 25 24 23 22 22 22 22 22 22 22 22 21 20 19 19 18 18 17 17 18 18 18 20 22 24 25
49 48 50 50 49 47 44 43 42 38 33 31 28 27 28 31 35 37 36 37 40 45 47 48 48 46 44 40 38 37 36 35 33 31 30 28 26 25 25 24 23 23 23 23 22 23 23 23 23 22 21 21 21 20 20 19 20 20 21 22 24 27 28
49 49 49 49 51 49 45 44 43 39 35 32 29 27 27 29 32 36 38 39 40 44 48 49 49 48 45 42 41 40 39 37 35 33 30 29 27 27 26 26 25 25 24 23 23 23 24 24 25 24 24 23 23 23 23 22 22 24 25 26 27 29 31
49 49 49 51 53 52 47 45 44 41 38 35 32 29 28 28 31 35 40 41 41 44 48 50 50 50 47 45 44 43 41 39 37 34 32 30 29 29 29 28 28 27 26 25 24 24 25 25 26 26 27 26 26 26 26 26 26 27 29 29 30 32 33
49 49 50 53 55 53 50 49 46 43 41 38 35 32 30 30 33 36 41 44 44 45 48 51 51 50 49 48 46 45 43 41 39 37 35 33 32 32 31 30 29 29 29 28 27 26 26 27 28 28 29 29 29 29 29 29 30 31 32 32 33 34 35
48 48 49 53 55 55 53 51 48 45 44 41 38 35 32 33 36 38 41 45 47 45 47 50 51 51 50 49 47 46 44 42 40 39 38 36 35 34 33 31 30 30 31 31 30 30 29 29 30 30 31 31 32 32 32 32 33 33 33 34 35 36 37
46 47 49 53 56 56 54 52 49 48 46 43 40 38 35 35 38 39 41 45 47 46 46 49 51 51 51 50 49 47 44 42 42 41 40 39 38 36 34 32 31 31 32 32 33 32 32 32 31 32 32 33 34 34 34 34 35 35 35 36 37 38 40
45 47 49 52 54 53 52 51 51 50 47 44 42 40 38 37 37 39 40 43 47 47 46 48 51 52 52 51 50 48 45 43 43 43 42 41 39 37 35 34 33 34 34 34 34 34 34 34 33 33 34 35 36 36 36 36 36 37 37 38 39 40 42
43 45 46 50 52 51 50 51 51 50 49 46 44 42 40 38 36 37 39 42 45 47 48 48 50 52 52 52 51 49 47 45 44 44 43 42 40 38 37 36 36 37 37 36 35 35 35 35 35 35 35 36 37 37 37 37 38 38 39 39 40 42 44
42 43 44 47 51 52 52 53 53 52 50 49 46 43 41 39 36 35 37 41 44 46 48 49 50 51 51 51 51 50 47 45 44 44 43 42 41 39 38 38 38 39 38 37 36 36 36 36 36 36 36 37 37 38 38 38 39 39 39 40 41 43 45
40 41 41 44 48 52 53 53 54 53 52 51 49 46 43 41 39 36 36 39 42 46 48 49 50 50 51 51 50 49 47 45 45 45 44 43 42 40 39 40 40 40 38 37 37 36 36 36 37 38 38 38 38 39 39 39 39 40 40 41 42 43 46
37 37 38 40 44 48 51 52 54 53 52 51 50 49 46 44 42 40 38 38 41 44 47 49 49 50 50 50 50 49 48 47 46 46 46 44 43 41 41 41 41 40 38 37 37 37 37 37 37 39 39 39 39 40 40 40 40 41 42 42 43 44 46
36 35 36 38 40 44 46 50 53 53 53 52 50 50 48 46 44 42 39 39 40 42 45 48 49 50 50 50 50 50 50 49 48 48 47 45 44 42 42 41 40 39 38 38 38 38 38 38 38 39 40 41 41 41 41 41 42 42 43 43 44 46 48
35 35 35 36 38 40 43 48 52 54 54 53 51 50 49 47 44 42 39 38 38 39 41 45 48 50 50 50 50 50 50 49 48 47 46 45 43 42 42 41 41 40 39 39 39 39 39 39 40 40 41 42 43 42 42 42 43 44 45 45 47 49 50
35 35 35 36 37 39 42 46 50 53 54 54 52 51 50 49 47 45 42 39 37 37 38 41 45 48 49 49 49 48 48 47 46 46 45 44 43 43 42 42 41 40 40 40 40 40 40 41 41 41 42 42 43 44 44 44 45 46 47 48 49 50 50
36 37 37 37 38 39 40 43 46 49 52 53 53 53 53 52 51 49 47 45 41 39 39 40 42 45 47 48 48 47 47 47 46 45 45 45 44 43 43 42 42 41 41 41 41 41 41 41 42 42 43 43 44 45 46 47 48 49 50 50 50 49 46
38 38 38 38 38 38 38 40 43 46 50 53 54 55 54 54 53 51 50 49 46 44 43 42 42 42 43 45 46 47 47 47 46 46 45 45 45 44 43 43 42 42 41 42 42 42 42 42 43 43 44 45 46 47 48 49 50 50 50 48 45 42 39
39 39 39 39 39 38 37 38 41 44 47 52 54 55 55 54 54 53 51 51 49 47 47 46 45 43 43 43 44 45 46 46 46 46 45 45 45 44 44 43 43 43 42 42 42 43 43 44 44 45 46 47 48 49 49 49 48 46 44 41 38 36 34
41 41 40 41 40 39 37 37 39 41 44 48 52 54 55 55 54 54 53 53 52 51 51 49 48 47 46 45 45 45 45 45 45 44 44 44 44 44 44 44 44 43 43 43 43 44 45 46 46 47 47 48 48 48 47 45 43 40 37 35 33 33 33
45 44 43 42 42 41 38 37 38 40 42 45 48 52 54 55 55 55 54 53 52 52 52 52 51 51 49 48 48 47 46 45 45 45 44 44 44 45 45 44 45 45 45 45 46 46 47 47 48 48 48 48 46 44 42 39 37 35 34 33 32 33 33
50 47 45 44 44 42 40 38 38 38 39 42 44 47 50 52 54 55 54 53 53 52 51 50 51 52 51 51 50 49 48 47 47 47 46 46 46 46 46 46 46 46 46 47 47 48 48 47 47 47 45 44 42 39 37 35 34 33 33 33 33 34 35
53 50 47 46 45 45 42 39 38 38 38 40 41 42 44 46 49 51 53 54 55 54 53 52 51 51 51 50 50 50 49 49 49 49 48 48 47 47 46 46 46 47 47 47 47 47 46 45 44 42 41 39 37 36 35 34 33 33 34 34 36 37 38
54 52 50 48 48 47 44 41 40 40 39 39 39 39 39 41 43 45 48 50 52 53 54 54 53 53 52 52 51 51 51 51 50 50 50 49 48 48 47 46 46 46 47 47 46 45 43 42 40 38 37 36 35 35 34 33 34 34 35 37 38 40 40
56 54 52 50 50 50 47 45 43 43 42 41 41 40 39 39 39 40 42 44 46 49 50 51 52 53 54 53 53 52 52 52 51 51 50 49 48 47 47 46 46 46 46 45 43 42 40 39 37 37 36 35 35 35 35 35 35 35 36 38 40 42 43
58 57 55 53 52 52 51 49 47 46 45 44 44 42 41 40 40 39 40 40 41 43 45 46 48 50 51 52 52 52 51 50 50 49 49 48 46 46 46 46 45 45 43 42 40 39 38 37 36 36 35 36 36 37 37 37 36 37 38 39 41 43 44
60 59 57 56 54 54 54 53 51 50 49 47 46 45 44 42 42 41 40 40 40 40 41 42 43 45 47 48 49 49 49 48 46 46 45 44 44 44 44 44 43 42 41 39 39 38 38 37 37 37 37 37 38 38 39 39 39 39 39 40 42 44 46
63 61 60 59 57 56 55 54 54 54 52 50 48 47 46 45 44 43 42 42 41 41 41 41 42 43 44 45 46 46 46 45 44 43 42 42 43 43 43 43 42 40 40 39 39 39 39 39 39 39 39 40 40 41 41 41 41 42 42 42 44 45 47
66 64 63 61 60 59 57 56 55 56 55 52 50 50 49 48 46 46 45 45 44 44 43 43 43 43 43 44 44 44 44 44 43 42 42 42 42 42 42 41 40 39 39 40 40 40 41 41 42 42 42 43 43 44 44 44 44 44 45 45 47 48 49
68 67 65 64 63 62 60 58 57 57 56 54 52 52 51 51 49 49 49 49 48 48 47 46 45 44 44 44 44 44 44 44 43 43 43 43 43 43 42 42 41 41 41 42 43 43 44 44 44 45 45 46 46 46 46 47 47 47 48 49 50 51 52
70 69 68 66 66 65 63 61 60 58 57 56 55 53 53 53 52 51 51 52 52 51 50 48 46 45 46 46 45 45 45 45 44 44 45 45 45 45 44 44 44 43 44 44 45 45 46 46 47 47 48 48 49 49 49 50 51 51 52 53 53 55 56

ECMWFFLT1_250_spd_036.txt.gz
Wind_Speed
30 29 29 29 30 31 32 31 28 25 23 23 25 25 26 27 25 22 25 28 30 30 30 31 30 28 27 27 26 26 26 25 25 24 23 22 22 22 21 21 20 19 19 18 17 16 15 13 13 12 11 11 10 10 9 9 8 8 7 7 7 7 7
31 29 30 32 33 33 33 33 30 27 24 23 26 27 27 28 27 24 25 27 30 31 31 31 31 29 27 27 27 27 26 26 25 24 23 23 23 23 22 21 21 20 20 19 18 17 16 14 13 13 13 12 12 11 10 10 10 10 10 10 10 9 9
32 30 31 34 35 34 34 34 31 29 26 24 26 28 28 29 28 26 25 26 30 32 32 33 32 31 29 28 28 28 27 27 26 25 24 24 24 24 23 22 21 21 20 20 19 17 16 15 15 14 14 13 13 12 12 11 11 11 11 11 11 11 10
34 31 33 35 36 35 36 36 33 31 29 26 26 28 30 30 30 28 28 28 31 34 35 35 34 33 32 31 30 30 29 28 26 25 25 26 25 24 23 23 22 22 21 20 19 18 17 17 16 15 14 14 14 14 13 13 13 13 12 12 12 12 12
38 34 34 36 36 36 38 38 36 34 32 28 27 29 31 33 33 32 30 30 33 36 36 36 35 35 33 33 32 31 30 29 28 27 26 26 26 25 24 24 23 22 21 20 19 19 18 17 17 16 15 15 15 15 15 15 14 14 13 13 12 13 13
42 37 36 38 37 38 40 41 39 36 34 31 29 29 31 33 36 35 33 33 34 36 37 38 37 37 36 35 33 32 32 31 30 29 28 27 26 26 25 25 24 23 22 21 20 19 19 18 17 16 16 15 16 16 16 16 16 15 14 14 14 13 14
46 41 40 41 39 39 41 43 42 39 36 34 32 30 31 33 36 37 35 34 34 36 39 40 39 39 37 36 35 34 33 32 31 30 29 29 28 27 27 26 25 24 23 22 21 20 19 18 17 17 17 16 16 16 17 17 16 16 16 15 15 15 15
48 44 42 43 41 40 41 43 44 41 38 37 34 31 30 33 36 37 36 35 35 37 39 41 41 40 38 37 36 35 33 32 31 31 31 31 30 30 28 27 26 25 23 23 22 21 20 19 18 18 18 18 17 17 17 17 17 17 17 17 17 17 17
48 46 43 44 42 40 41 42 44 44 41 38 36 32 30 32 36 37 36 36 36 37 39 41 42 41 39 38 37 35 34 34 34 34 34 33 32 31 30 28 27 25 24 24 23 23 22 21 20 20 19 19 18 18 18 18 18 18 18 19 19 19 19
48 47 44 43 42 39 39 40 43 45 44 40 37 35 32 32 35 37 38 37 38 38 39 41 42 42 41 40 39 37 36 36 36 36 36 35 34 32 31 29 28 26 26 26 25 24 23 22 21 20 19 19 19 19 19 19 19 20 20 21 21 21 22
47 47 44 41 40 39 39 40 44 47 46 43 40 37 35 33 34 37 39 39 39 39 40 42 43 43 43 42 41 40 38 38 38 38 37 36 35 34 33 31 29 28 28 28 27 25 23 21 20 19 18 18 19 19 20 21 22 22 23 24 24 24 24
45 46 43 39 39 41 41 43 47 48 47 45 43 40 37 35 33 35 38 40 40 40 41 42 44 45 44 44 43 42 40 40 40 40 39 38 37 36 35 33 31 31 30 30 28 26 23 21 19 18 18 19 20 21 21 23 24 25 26 27 27 27 27
46 46 43 39 40 42 45 46 47 47 48 46 44 41 39 36 35 35 37 40 41 42 42 43 44 46 46 45 45 44 43 42 41 41 40 40 39 38 36 35 34 33 32 31 29 26 23 22 20 20 20 21 22 23 23 24 26 27 28 29 29 29 29
44 43 42 40 39 41 46 48 47 46 48 47 46 43 40 38 36 35 36 40 43 44 44 43 44 46 47 47 46 46 45 43 42 42 42 41 41 40 38 37 36 34 33 32 30 27 25 24 24 24 24 24 25 25 26 26 27 28 29 30 30 31 32
42 41 42 41 40 41 46 49 48 48 48 48 46 45 42 40 39 37 36 38 42 45 45 45 45 47 48 49 48 47 46 45 44 44 44 44 43 42 40 39 38 36 34 33 31 28 27 27 27 27 27 27 27 28 28 28 28 28 29 30 31 32 34
42 42 42 41 40 41 45 48 49 49 49 49 47 46 45 44 42 40 37 37 40 44 46 47 47 48 49 50 49 48 48 47 47 46 46 46 45 44 42 41 39 37 35 34 32 30 29 28 28 29 30 29 29 30 30 30 29 29 29 30 31 33 34
42 41 40 40 40 41 42 45 47 48 50 50 50 48 47 45 44 42 39 37 38 41 45 48 49 49 50 50 50 50 49 49 48 48 48 48 47 46 45 43 42 40 37 35 34 32 31 30 30 31 31 31 31 31 31 30 29 29 30 31 32 33 33
42 41 39 39 40 41 42 44 46 49 51 52 51 49 47 46 45 43 41 40 38 39 42 47 49 50 50 51 51 51 51 50 49 49 49 49 48 47 46 45 44 42 40 38 36 35 34 33 33 33 33 33 32 32 31 30 30 30 31 32 33 34 34
41 40 38 38 39 41 42 45 47 50 52 53 52 51 50 47 46 44 43 42 39 38 38 42 45 47 49 51 52 53 53 51 50 50 49 49 48 47 46 45 45 44 42 40 38 38 37 35 35 35 35 35 34 33 32 31 30 31 31 32 34 35 36
40 40 38 36 38 40 41 44 47 50 52 54 55 55 53 50 47 46 44 42 40 38 37 38 40 42 45 49 52 53 53 53 52 51 50 50 48 47 46 46 46 45 43 42 41 40 39 38 37 37 37 36 35 34 32 31 31 31 32 33 35 36 37
40 40 39 38 39 40 41 43 46 49 52 54 56 56 55 52 49 46 44 43 41 38 36 36 37 39 42 45 50 53 54 54 54 53 52 51 49 48 47 47 46 45 44 43 42 41 40 40 40 39 38 37 36 34 33 32 32 33 33 34 35 37 38
41 40 39 40 40 40 41 41 43 47 51 54 56 56 55 53 50 47 46 44 42 39 36 34 35 38 41 43 47 51 53 55 55 54 53 52 50 49 48 47 46 45 44 44 44 43 42 42 42 41 39 38 36 35 34 33 34 34 34 34 35 37 39
44 43 41 40 40 39 40 40 41 44 48 52 54 55 55 54 52 50 48 46 43 41 38 36 34 36 39 41 44 47 51 53 54 54 53 52 50 49 48 47 46 45 45 45 44 44 44 43 42 41 41 40 37 36 35 35 35 35 35 35 36 38 39
46 46 44 42 40 39 39 39 39 41 44 48 51 53 55 56 55 52 50 48 46 43 42 40 37 35 36 39 42 44 47 50 51 52 52 51 50 49 48 48 47 46 45 46 46 46 45 44 42 41 42 41 39 37 36 36 36 36 36 37 38 39 40
47 46 45 43 41 40 39 39 38 39 41 44 47 50 53 55 56 54 52 49 48 46 44 43 40 37 36 37 39 42 44 46 48 49 50 50 49 48 48 48 47 47 47 47 48 47 46 44 43 42 42 41 40 38 37 37 37 38 38 39 39 40 42
47 47 46 44 42 41 40 39 39 38 39 41 43 46 50 53 55 55 54 52 50 48 46 44 42 38 36 35 36 38 41 44 46 47 48 48 48 48 48 48 48 48 48 48 48 47 46 45 44 43 42 41 40 39 38 38 39 40 40 40 41 42 43
48 48 47 45 44 42 41 40 40 39 39 40 41 43 46 50 53 55 55 54 51 49 47 45 43 40 37 36 35 35 38 40 43 45 46 47 47 48 48 49 49 49 49 48 48 47 46 45 44 43 41 40 40 40 40 41 41 41 41 42 42 43 42
49 49 48 46 45 44 42 41 40 39 39 39 40 41 44 47 50 53 54 55 53 51 49 47 45 44 42 41 39 38 38 39 41 43 45 46 47 48 49 49 49 49 48 48 47 47 46 44 43 42 41 41 41 42 43 43 43 43 43 43 43 42 40
51 50 49 47 45 45 43 41 40 40 39 38 39 40 42 44 46 49 52 54 54 53 52 50 49 48 47 46 45 43 41 40 40 41 42 44 46 47 48 48 48 48 47 47 46 45 44 43 42 41 41 42 43 44 44 44 44 44 44 43 42 40 38
54 52 51 48 46 44 43 42 40 40 40 39 38 39 40 41 44 46 48 51 53 54 54 53 52 51 50 49 48 46 44 43 42 42 42 43 44 45 46 47 46 46 45 45 44 43 43 42 42 43 43 44 45 46 46 46 45 45 44 43 42 39 36
57 56 53 51 48 46 45 43 42 41 41 40 38 38 38 39 41 42 45 47 50 52 53 54 53 52 51 49 48 47 46 46 45 45 45 45 45 45 45 45 45 45 45 44 44 44 44 44 44 45 46 47 48 48 48 47 46 45 44 43 41 38 35
60 58 56 53 51 48 47 46 44 43 42 40 38 38 37 37 38 39 41 43 45 47 50 51 52 52 51 50 49 48 48 48 49 49 49 48 48 47 47 46 46 46 46 46 46 46 46 46 47 47 48 49 49 49 48 47 45 44 43 41 39 36 34
61 59 57 55 52 50 49 47 46 44 42 40 39 38 38 38 37 37 38 39 40 43 45 47 49 50 50 51 50 50 49 49 50 51 51 51 51 50 49 49 49 48 48 48 48 48 48 49 49 49 50 50 49 48 47 45 43 42 41 39 38 36 35
63 60 58 56 54 53 51 50 48 45 43 42 41 40 39 38 38 38 38 38 39 40 41 43 46 48 50 51 52 52 52 52 52 52 52 52 52 52 51 51 50 50 50 50 50 50 50 50 50 50 50 49 48 47 45 43 42 41 40 39 38 37 36
66 63 61 59 57 56 55 53 51 48 46 45 44 43 41 40 39 39 39 39 39 39 39 40 42 45 48 50 51 52 54 54 55 55 54 54 53 53 53 53 52 52 52 52 52 51 51 50 50 49 49 48 47 46 45 43 42 41 40 40 40 39 38
69 66 64 62 60 59 57 56 54 51 49 48 47 46 44 43 43 42 42 41 41 40 39 39 39 41 44 46 49 50 52 53 54 55 55 56 56 56 55 55 55 54 54 54 53 52 51 50 49 49 48 47 47 46 44 43 42 41 41 41 41 41 41
71 68 65 64 62 61 59 58 56 54 52 51 50 49 48 47 47 46 46 44 43 42 40 39 39 40 41 42 44 46 47 49 50 52 53 53 54 55 55 55 55 54 54 53 52 51 50 49 48 48 47 47 46 45 44 43 42 42 42 42 42 43 43
72 71 68 66 65 63 62 61 59 57 56 54 53 52 52 51 51 50 49 48 46 45 43 42 41 41 41 41 42 43 44 45 46 47 48 49 50 50 51 52 52 52 51 51 50 50 49 49 48 47 47 46 45 44 44 43 43 44 44 44 44 45 45

ECMWFFLT1_250_spd_039.txt.gz
Wind_Speed
27 27 26 26 26 25 24 23 23 23 24 24 22 22 24 25 26 27 25 23 23 26 29 30 29 28 27 26 25 24 24 24 23 22 20 19 19 19 19 19 19 19 20 19 18 17 16 16 15 14 14 13 13 11 10 10 9 7 5 5 6 6 7
29 28 28 28 28 27 26 25 24 24 25 25 24 24 25 26 28 30 29 26 25 27 30 31 30 29 28 27 26 26 26 25 24 23 22 21 21 20 20 20 20 21 21 20 19 18 17 16 16 15 15 14 13 11 10 10 9 9 7 7 8 8 8
31 30 30 29 29 29 27 27 26 25 26 27 27 26 27 28 30 30 31 29 26 27 30 32 32 31 30 29 28 27 27 27 26 24 23 22 22 21 21 21 21 22 22 21 20 18 18 17 17 17 16 14 13 12 11 10 10 10 9 10 10 11 10
34 32 32 31 31 30 29 28 27 26 28 29 29 28 29 30 31 31 31 31 28 27 29 32 33 33 33 32 30 28 28 28 28 25 24 24 24 24 23 23 22 22 22 21 20 19 19 19 18 18 16 15 13 12 12 11 11 11 12 12 13 13 12
37 35 33 32 32 31 31 30 29 29 29 30 31 31 31 31 32 33 33 33 31 29 28 30 32 33 33 33 32 30 30 30 29 27 26 26 26 26 25 24 23 23 22 21 21 20 20 19 19 18 16 15 14 13 12 12 13 13 14 15 15 15 14
40 37 35 34 34 34 34 33 32 31 30 32 33 33 32 32 33 34 34 34 34 31 29 29 32 34 35 34 33 32 32 31 30 28 28 28 28 27 26 25 25 24 23 22 22 21 21 20 19 17 16 16 15 14 13 13 13 14 15 16 16 16 15
42 39 37 36 36 37 37 35 34 32 32 34 35 35 34 33 33 34 35 34 34 33 31 31 34 37 37 36 35 34 34 33 31 29 29 29 29 28 28 27 27 25 24 24 23 22 22 21 19 18 17 17 16 15 14 14 14 14 15 15 15 15 15
44 42 40 39 39 39 38 36 35 34 34 36 37 37 37 35 34 35 35 35 34 35 34 34 36 38 37 36 35 35 35 34 32 30 30 30 30 30 30 29 28 26 26 25 24 24 23 22 20 19 18 18 17 16 15 15 15 15 15 15 15 15 16
46 46 43 41 41 40 38 37 37 36 36 38 40 39 38 37 36 35 34 35 35 36 36 36 36 37 37 36 35 35 35 35 33 32 31 31 31 32 31 30 29 28 27 26 25 25 24 22 21 20 19 19 18 18 17 17 16 16 16 16 16 16 17
49 48 45 43 43 41 39 37 36 37 38 40 40 40 39 39 38 35 34 36 38 38 38 37 37 37 37 37 36 35 36 36 35 34 33 33 33 33 32 31 30 29 27 27 26 26 25 23 22 21 20 20 19 19 19 19 18 17 17 17 17 18 18
52 50 47 44 43 41 38 36 36 38 40 41 41 41 41 40 39 37 36 37 38 39 39 40 39 38 38 38 37 37 38 38 37 36 35 35 35 34 34 32 31 29 28 28 27 27 26 25 23 23 22 21 20 20 20 19 19 18 18 18 18 19 20
53 51 48 45 42 40 38 36 37 39 41 41 41 42 43 42 41 40 37 36 37 39 41 42 41 40 40 39 39 39 39 39 40 39 37 37 36 36 35 33 32 30 30 29 29 28 27 26 25 24 23 22 21 20 20 19 19 19 19 19 20 20 21
54 52 48 44 42 40 38 37 39 41 41 41 42 43 44 43 42 41 39 37 37 39 41 42 42 42 41 41 41 41 41 41 41 40 39 38 38 38 37 35 33 32 31 30 30 29 28 27 26 25 24 23 22 21 21 20 20 20 21 21 22 22 22
53 51 48 44 41 39 37 38 40 41 41 41 43 44 45 45 44 43 41 38 37 39 41 42 43 43 43 43 43 43 42 41 41 41 40 40 40 40 39 38 36 34 33 32 31 30 29 28 27 26 25 24 23 23 23 22 22 22 22 23 23 23 23
53 50 47 44 40 38 38 39 40 41 41 41 44 45 46 46 46 45 43 40 39 39 41 43 44 44 44 45 45 44 43 42 41 41 42 42 42 42 41 40 38 37 35 34 33 31 30 29 28 27 27 26 25 25 25 25 25 24 24 24 25 25 24
51 49 46 43 40 38 39 40 41 41 41 42 44 46 47 47 48 48 46 43 41 40 41 43 45 45 45 46 46 45 44 42 41 42 43 45 45 44 43 41 40 39 38 36 34 33 32 31 30 28 28 28 27 27 26 26 26 26 26 26 26 26 25
50 47 45 43 41 39 39 41 41 41 41 42 45 46 48 49 49 49 48 46 43 41 41 42 44 46 46 46 45 45 44 44 43 43 45 46 46 45 44 43 42 41 39 38 36 36 34 33 31 30 29 30 30 29 28 28 27 27 27 28 28 27 27
49 47 45 44 42 40 39 40 42 42 42 44 45 46 48 49 49 48 48 48 45 43 41 41 42 44 45 45 44 45 46 46 46 46 46 46 46 46 45 44 43 43 41 40 38 37 35 34 33 31 31 31 32 31 31 30 29 29 29 30 30 29 29
49 47 46 44 42 40 39 40 43 44 44 44 45 46 47 49 50 50 49 49 47 45 43 41 40 41 42 43 45 46 47 47 47 47 47 47 46 45 45 45 45 45 43 42 40 38 37 36 35 34 33 33 33 33 33 32 31 31 31 31 31 31 30
48 47 45 43 41 39 38 40 42 44 44 44 45 47 47 49 50 51 50 48 47 46 44 42 40 39 40 42 45 47 47 47 48 48 47 47 46 45 46 47 47 46 45 43 41 41 40 38 36 37 36 36 36 36 35 34 33 33 33 33 33 33 32
47 45 43 42 40 38 38 40 42 42 43 44 45 46 47 48 49 49 49 48 47 47 46 44 42 39 38 39 42 45 47 48 48 48 48 47 47 46 47 48 48 48 46 45 43 42 41 39 38 39 39 39 39 38 37 36 35 35 35 35 35 34 33
47 45 42 41 39 38 38 40 41 42 42 43 43 45 47 48 48 49 49 49 48 48 47 46 44 41 39 38 38 40 43 46 48 48 49 49 48 49 49 49 48 48 48 46 45 44 42 40 39 39 39 40 40 40 39 38 37 37 37 36 36 36 35
48 44 42 40 39 38 39 40 41 42 42 42 43 45 47 49 50 51 51 52 51 50 49 48 46 44 41 39 37 37 39 43 46 48 49 50 50 50 50 50 50 49 48 47 47 45 44 42 40 39 40 41 41 41 40 39 38 38 38 37 37 37 37
48 45 42 41 40 39 40 40 41 42 42 42 43 45 47 49 51 52 52 53 52 51 50 49 48 46 43 40 38 37 37 40 43 45 47 48 50 51 52 52 51 50 49 48 48 47 45 43 41 41 42 42 42 42 41 39 39 39 39 37 37 38 38
50 46 44 42 41 41 41 42 42 42 42 42 42 43 44 46 48 50 51 52 53 53 52 50 49 47 45 42 39 38 38 39 41 43 44 45 47 49 51 53 53 52 51 50 50 49 47 45 43 43 44 44 43 42 41 40 40 41 40 38 38 39 39
52 49 46 45 44 44 43 43 43 43 42 42 41 40 40 41 44 46 49 51 52 52 52 50 48 47 45 43 41 40 38 38 39 40 40 41 43 45 48 51 53 53 54 53 52 51 49 47 46 46 46 45 44 43 42 42 42 41 41 39 39 39 39
54 51 49 47 46 45 44 44 44 43 42 40 39 38 38 38 40 42 46 48 50 51 51 50 49 48 46 45 43 41 39 37 36 36 37 39 40 42 45 48 51 53 55 55 54 52 50 49 48 48 47 46 45 45 44 43 43 43 42 40 39 39 39
56 53 51 49 47 46 45 45 45 43 42 40 38 37 37 37 38 40 42 45 47 49 50 50 50 49 48 46 45 44 42 40 38 37 37 38 39 41 43 45 48 51 53 54 54 53 52 50 49 48 47 47 47 47 46 45 44 44 42 41 40 40 40
57 55 53 51 49 47 46 46 46 45 43 42 40 38 38 38 38 39 40 43 46 48 50 52 52 52 50 49 47 46 45 44 42 40 39 38 39 40 42 44 46 48 50 52 52 52 52 51 50 49 48 48 48 49 48 46 45 43 42 42 41 41 41
58 56 54 53 52 50 48 48 48 47 45 44 43 41 40 39 39 39 40 42 45 47 50 52 53 52 52 51 50 49 48 46 44 42 40 39 39 41 42 44 45 47 48 49 51 51 51 51 50 49 49 49 49 49 48 46 45 43 43 43 43 43 43
59 57 56 56 54 52 50 50 49 49 47 45 43 42 41 40 39 40 41 42 43 46 48 50 51 52 52 51 51 50 50 48 46 44 41 40 39 40 41 42 44 45 47 48 49 49 50 50 50 50 50 50 49 49 48 46 45 44 45 45 45 45 44
61 59 58 58 56 54 52 51 51 50 48 46 44 42 40 40 40 40 41 42 42 44 45 47 49 50 51 51 51 52 51 50 48 46 44 42 41 40 40 40 41 43 44 46 47 48 49 50 50 50 50 50 49 48 47 46 46 46 46 46 46 46 45
63 61 60 59 58 56 54 53 52 51 50 48 45 43 41 41 41 41 42 42 42 43 44 46 48 49 51 51 52 52 52 51 51 50 49 47 45 43 43 42 42 43 43 44 45 46 47 48 48 49 49 49 48 47 47 47 47 47 48 47 47 46 46
64 62 61 61 60 58 57 55 53 52 51 49 47 45 44 43 42 42 42 43 43 43 43 44 46 48 50 51 52 53 53 53 53 52 52 51 50 49 48 47 46 46 45 45 45 46 47 47 48 48 48 48 48 47 47 47 48 48 48 48 48 48 47
66 63 61 61 62 60 58 56 54 52 51 50 49 47 46 45 43 43 42 42 41 41 42 42 43 45 47 49 51 53 53 54 54 54 54 54 54 53 52 51 50 49 48 48 48 48 48 48 49 49 49 49 49 49 49 49 49 50 50 50 50 50 49
67 65 62 61 61 61 59 57 56 54 53 52 51 49 48 46 45 43 42 41 41 40 40 40 41 42 43 45 48 50 51 53 53 54 55 55 55 55 54 54 53 52 51 51 51 51 51 51 52 52 52 52 52 52 51 51 51 51 51 52 52 51 50
67 67 65 63 62 61 60 59 58 58 57 55 53 52 51 49 47 45 44 43 42 41 40 40 40 40 41 42 44 45 47 49 50 52 53 54 55 55 55 55 54 53 53 53 53 53 53 54 54 55 55 54 54 54 53 53 53 53 53 53 53 52 51
69 69 67 66 65 63 62 61 61 61 60 58 56 54 52 51 49 47 46 45 44 44 43 42 42 41 41 41 41 42 43 44 46 48 50 51 53 53 54 54 54 54 54 54 54 54 54 55 55 56 56 56 55 56 55 54 54 54 54 54 53 52 51

ECMWFFLT1_250_spd_042.txt.gz
Wind_Speed
25 24 23 23 23 23 21 19 19 18 17 17 17 17 18 18 19 20 21 21 18 19 23 26 25 24 24 22 21 21 22 23 23 23 22 20 20 19 18 17 17 16 16 15 14 13 12 11 10 10 9 8 8 7 7 7 7 7 7 6 6 7 8
27 26 25 25 25 25 23 22 22 20 19 19 19 19 20 20 21 21 21 22 21 20 23 27 27 25 25 24 23 22 22 23 23 23 23 22 21 20 19 18 17 17 17 17 15 14 13 12 12 11 11 10 9 8 8 8 8 8 8 7 8 9 10
30 29 27 26 27 26 25 24 24 22 21 21 21 21 21 22 22 22 22 22 23 22 23 27 28 27 26 25 24 24 24 24 24 23 22 22 22 21 20 19 19 19 19 18 16 16 15 14 14 13 12 11 10 9 8 8 8 8 8 9 9 10 12
32 30 29 28 28 27 26 25 25 24 24 24 23 23 23 24 24 24 23 23 24 25 25 27 29 28 28 27 26 26 26 26 25 24 23 22 22 22 22 21 20 20 20 19 18 18 17 16 15 14 13 13 11 10 9 8 8 8 9 10 11 12 13
33 31 30 29 29 29 28 28 28 27 27 27 26 25 25 26 25 25 25 24 24 26 26 26 27 29 29 28 28 27 27 27 27 25 24 24 24 24 24 23 22 21 21 21 20 19 19 18 17 15 14 13 12 11 10 9 9 9 10 11 12 13 14
35 33 32 32 32 31 30 31 30 29 30 29 28 27 27 27 27 26 26 25 25 26 27 28 28 30 31 29 28 28 28 29 28 28 26 25 26 26 25 24 23 23 23 22 22 21 20 19 18 16 15 14 13 12 11 10 9 10 10 11 12 13 14
37 36 35 34 34 33 32 32 32 31 31 31 30 28 29 29 29 27 27 27 26 26 28 30 31 32 32 31 30 29 30 30 30 29 28 27 27 27 26 26 25 25 25 24 23 22 21 20 19 17 16 15 14 12 12 11 10 10 11 12 13 14 15
39 38 37 35 35 34 34 33 33 33 32 32 32 31 31 31 31 30 29 28 28 27 29 31 33 33 33 33 32 31 31 31 31 30 29 28 28 29 28 28 27 27 26 25 24 23 22 21 19 18 17 16 14 13 13 12 11 11 12 13 14 15 15
40 39 38 36 36 36 35 35 34 34 34 34 34 33 32 32 32 32 30 29 29 29 30 31 33 34 34 33 33 32 32 31 31 31 31 29 29 30 31 30 29 28 27 26 25 24 23 22 20 19 18 17 15 14 14 13 13 13 13 14 15 15 16
41 40 38 38 37 37 37 36 34 34 35 35 35 34 33 33 34 33 32 30 30 31 31 31 32 34 35 35 34 33 32 32 32 32 32 30 30 31 32 31 31 30 28 27 26 24 24 22 21 20 19 18 17 16 15 14 14 14 14 15 16 16 16
43 41 40 39 39 39 38 37 35 36 37 37 36 35 34 34 34 34 34 33 32 32 31 32 33 34 35 36 34 34 34 34 34 34 33 32 31 32 33 32 32 30 28 28 27 25 25 23 22 22 21 20 18 17 16 16 15 15 14 15 16 16 16
45 44 42 41 41 40 39 38 37 38 39 38 37 36 35 35 34 35 36 35 34 33 33 33 34 35 36 36 36 35 36 36 37 37 35 33 33 33 33 33 32 31 29 28 27 27 26 25 24 23 22 21 20 19 18 17 16 15 15 15 15 15 16
48 46 44 43 43 42 41 40 40 40 40 40 39 37 36 35 35 35 37 37 36 35 35 34 34 35 36 37 37 37 37 38 39 39 37 35 34 34 34 34 33 31 30 29 29 29 28 27 26 25 24 23 22 21 20 19 17 16 16 16 15 16 18
50 48 46 44 44 44 43 42 41 42 42 41 40 38 36 36 36 36 37 37 37 36 36 36 35 36 37 38 38 39 38 38 39 39 38 36 35 36 36 35 34 32 32 31 31 31 30 29 28 27 26 25 24 23 22 20 19 18 18 17 17 17 18
51 50 47 45 45 45 44 43 43 43 42 42 41 38 37 37 37 37 37 38 39 39 38 38 37 36 37 38 40 40 39 39 39 39 38 37 37 38 37 37 35 33 33 34 33 33 31 31 30 29 28 27 26 25 24 22 21 20 20 20 19 19 19
52 50 47 46 45 45 45 44 44 44 43 43 41 38 37 38 39 39 38 39 41 41 40 40 39 38 37 38 40 40 40 39 39 39 39 39 39 38 38 38 36 35 35 35 35 34 33 33 32 31 30 29 28 27 25 24 23 23 22 22 21 20 20
53 50 48 47 46 45 45 45 45 45 44 43 42 39 39 39 40 40 40 40 42 43 42 42 41 40 39 38 38 38 39 40 40 40 40 40 40 39 39 39 38 37 37 37 36 36 36 35 35 33 32 31 30 29 27 25 25 25 25 24 23 22 22
54 51 49 48 46 45 45 45 45 45 44 44 42 41 41 41 41 41 41 42 43 43 44 43 42 41 40 38 37 37 39 40 40 41 41 41 41 41 41 40 39 39 39 39 38 38 38 38 36 35 34 34 32 31 29 27 27 27 27 27 26 25 25
54 52 50 48 47 46 45 44 45 45 45 44 43 43 43 43 42 43 43 43 43 44 45 45 44 43 41 39 38 38 39 40 41 42 42 41 42 42 42 42 41 41 41 40 40 39 40 40 38 37 37 36 35 33 31 30 30 29 29 29 29 28 28
54 52 50 48 47 46 45 45 46 46 45 44 43 44 45 44 44 44 44 44 43 44 45 45 45 44 42 40 39 38 38 40 42 43 43 42 42 43 44 44 43 43 42 41 41 41 42 41 40 40 39 39 37 35 34 34 33 32 31 31 31 31 31
54 52 49 47 46 46 46 46 46 45 45 44 44 45 45 44 44 44 44 44 43 43 44 45 45 44 43 42 41 39 39 40 42 43 44 43 43 43 45 45 45 44 43 42 42 42 42 42 42 42 42 41 40 38 37 36 35 34 34 34 34 34 33
55 52 49 47 47 47 47 47 47 46 46 45 44 44 44 44 44 44 44 44 43 43 44 45 45 45 45 44 43 41 40 40 40 42 43 43 43 44 44 44 45 45 44 44 43 43 43 44 44 44 44 43 42 41 40 39 37 37 36 35 35 36 36
55 53 50 48 47 47 47 47 48 48 47 46 44 43 44 44 44 44 43 43 43 43 44 44 46 46 46 46 45 43 42 41 40 40 41 42 44 44 44 44 44 45 45 46 46 46 45 45 44 44 44 45 45 44 42 41 39 38 37 36 36 37 37
55 52 50 48 47 48 48 47 47 48 47 45 43 44 45 45 44 43 43 43 44 44 44 45 46 47 48 47 46 45 44 42 41 40 40 41 42 43 44 44 44 45 46 47 47 47 47 46 45 45 45 46 46 45 44 42 41 40 38 37 37 38 39
54 51 49 48 48 49 47 47 47 47 45 44 44 44 45 46 44 43 43 44 45 46 46 46 47 48 48 48 48 47 46 44 43 41 40 40 41 41 42 44 45 45 46 47 48 49 48 48 47 47 46 46 46 46 45 43 42 41 40 39 38 39 40
54 51 49 48 49 49 47 46 47 46 45 45 44 44 45 45 44 44 44 45 45 46 47 48 48 48 49 49 49 48 47 46 44 43 42 41 40 39 40 41 43 45 46 47 48 49 49 49 49 49 48 47 47 46 45 44 43 42 42 42 41 41 41
54 51 49 49 49 48 47 47 47 46 45 45 44 43 43 43 44 43 43 43 43 45 46 47 47 48 48 48 49 49 48 47 46 45 43 42 41 40 40 40 41 43 45 46 46 47 49 50 51 51 50 49 48 47 46 45 45 44 44 44 43 43 43
55 53 51 50 50 49 47 47 47 46 46 45 44 43 42 42 43 42 41 41 41 43 44 45 45 46 47 47 48 49 49 48 47 46 45 44 43 42 41 41 41 42 42 43 44 46 47 48 50 50 51 50 50 49 48 47 47 46 46 46 46 45 45
56 54 52 51 51 49 48 47 46 46 45 45 43 42 42 42 42 42 41 40 40 41 42 43 44 44 45 46 47 48 48 48 47 47 46 44 44 42 42 41 41 41 42 42 43 44 45 46 47 48 49 49 50 51 51 50 50 49 48 48 48 47 46
57 55 53 53 51 50 48 47 47 46 45 44 43 42 41 42 42 42 41 41 40 40 41 42 43 44 45 46 46 47 48 48 48 48 48 46 45 44 44 43 43 42 43 43 44 45 45 45 45 46 46 47 49 51 52 51 51 51 50 49 49 48 48
58 56 55 53 52 51 49 48 48 47 46 45 44 42 42 42 43 42 41 41 40 40 41 41 43 44 45 47 48 49 50 51 52 52 51 49 48 47 46 45 45 44 43 43 44 45 45 45 45 45 45 46 47 49 50 51 51 51 51 50 49 49 48
59 58 56 55 53 52 50 49 48 48 47 46 45 44 43 44 44 43 41 40 40 39 40 41 42 44 46 48 49 51 52 53 54 54 53 52 50 49 48 48 47 47 46 45 45 45 45 45 45 45 45 45 46 46 47 49 50 51 50 50 49 49 49
61 59 58 56 55 53 51 50 50 49 48 47 46 45 45 45 45 44 42 41 40 40 40 40 41 43 45 47 49 50 51 52 52 52 52 52 52 51 50 50 50 49 48 47 46 45 45 44 44 44 44 44 44 45 46 48 49 50 49 49 49 49 49
63 61 59 58 56 55 53 52 51 51 50 49 48 47 47 47 46 46 44 43 42 42 41 41 40 41 43 45 46 47 49 50 50 51 51 52 52 52 52 51 51 51 49 48 47 46 45 44 44 44 44 44 44 45 46 47 48 49 48 48 49 49 49
66 63 62 59 57 56 54 53 53 53 52 51 50 50 49 49 49 48 48 46 45 44 42 42 41 41 41 42 43 44 45 47 49 50 51 52 51 52 52 53 53 52 51 50 48 47 45 45 44 43 43 43 44 45 46 47 47 47 47 47 47 47 47
68 66 64 62 60 58 56 54 54 54 54 53 52 51 51 51 51 51 50 49 47 45 43 42 41 41 41 42 42 43 44 45 47 49 50 51 51 52 52 53 53 53 52 51 50 49 48 46 45 44 43 43 44 45 45 46 46 46 46 46 46 46 46
64 64 64 63 62 60 58 56 55 56 55 54 53 52 51 51 52 52 51 50 49 47 45 43 42 42 42 42 42 43 44 45 46 47 48 49 50 51 52 53 53 53 53 53 52 52 52 50 49 48 47 47 47 48 48 48 48 47 47 47 47 47 48
61 61 61 61 61 61 61 59 58 57 57 56 55 54 53 52 52 52 52 52 50 49 47 45 44 43 42 42 42 43 44 45 45 46 47 48 49 50 51 52 53 53 54 54 54 54 54 54 53 52 52 51 51 51 51 51 51 51 50 50 50 51 52

ECMWFFLT1_250_spd_045.txt.gz
Wind_Speed
25 23 21 20 19 18 17 16 15 14 13 14 13 13 12 12 13 13 13 13 14 15 16 18 20 20 19 19 20 22 24 25 25 25 24 22 20 18 17 17 17 17 16 15 14 12 11 10 9 8 7 6 6 5 5 5 5 5 5 5 6 7 8
28 26 25 24 24 23 21 19 18 17 16 16 15 15 14 14 14 14 14 13 14 16 17 18 19 20 20 20 20 21 23 24 24 25 24 24 22 19 18 18 18 18 17 17 15 14 13 12 11 10 9 8 8 7 6 6 5 5 5 6 6 7 9
31 29 28 28 28 27 24 22 21 19 18 17 16 16 15 15 16 15 15 14 14 15 18 19 19 19 21 21 21 21 22 23 24 24 24 24 22 21 20 19 19 19 19 18 17 15 15 14 13 12 11 10 9 9 7 6 6 6 6 6 7 8 9
33 32 31 31 30 28 25 24 23 21 20 19 18 17 17 17 17 17 17 17 16 16 18 21 20 19 21 23 23 22 22 23 23 23 23 23 24 23 22 21 20 20 20 19 18 18 17 16 15 14 12 12 11 10 9 8 7 7 6 6 7 8 9
36 35 34 33 31 29 27 26 26 24 23 21 20 19 19 18 17 18 19 19 18 18 18 20 20 19 20 23 25 24 24 24 23 23 23 23 24 25 24 22 22 21 21 20 20 19 18 17 16 15 14 13 12 12 11 10 9 7 7 7 7 7 8
38 37 36 35 33 31 29 29 28 27 25 23 21 20 19 19 18 19 20 20 20 20 18 20 22 22 22 23 26 26 26 26 26 25 24 24 25 25 24 23 23 23 22 22 21 21 20 19 17 16 15 14 14 14 12 11 10 9 8 7 7 7 9
40 38 37 36 34 33 32 30 30 29 27 24 22 21 21 21 19 19 20 21 22 21 21 21 23 25 25 25 26 28 29 28 27 27 26 26 25 25 24 24 24 24 24 23 23 22 21 20 19 18 16 16 16 15 13 12 11 9 9 9 9 9 10
40 39 38 37 36 35 33 32 32 30 28 25 24 23 23 21 20 19 19 21 23 23 23 23 24 26 27 27 26 28 30 30 29 28 28 27 26 25 25 26 25 25 25 24 23 23 22 21 21 19 18 17 17 16 15 13 12 10 10 10 10 11 11
42 40 39 38 37 37 35 34 33 31 28 27 25 24 23 22 21 20 20 21 23 24 25 25 26 26 27 28 27 27 29 31 31 30 30 29 28 27 27 26 26 26 26 25 25 24 23 23 22 21 19 19 18 18 16 15 13 12 11 11 12 13 13
43 41 40 40 39 38 37 35 33 31 29 28 27 25 24 23 22 22 21 22 24 25 26 26 27 26 27 28 28 27 28 31 32 32 32 30 29 27 27 27 27 28 27 26 26 25 25 24 24 22 21 20 20 20 18 16 14 13 13 13 13 14 14
44 43 42 41 40 39 38 35 33 32 31 31 29 27 26 25 24 23 23 23 24 25 26 27 28 28 27 28 28 28 29 31 33 34 33 32 29 28 27 27 28 28 28 27 27 26 26 26 25 24 22 22 22 21 20 18 16 15 15 14 15 15 14
44 43 42 41 40 39 37 35 34 34 34 32 31 29 27 26 25 24 24 24 24 25 26 28 29 29 29 29 28 29 30 32 34 35 35 33 31 29 28 28 29 29 28 27 27 27 27 27 26 25 24 24 24 23 22 20 19 17 16 16 16 15 14
44 43 43 41 40 39 38 36 36 36 35 34 32 30 29 27 26 25 25 25 25 25 27 29 30 31 31 31 30 30 31 32 34 35 35 34 32 31 30 29 30 30 29 28 27 28 28 28 27 26 26 26 26 25 23 22 21 20 18 18 17 16 16
45 44 44 43 41 40 39 38 38 37 36 34 32 31 30 28 27 26 26 26 26 26 28 30 31 32 33 33 32 32 32 32 33 34 34 34 33 33 32 32 31 30 30 29 29 29 29 29 28 28 28 28 27 26 25 24 23 22 21 20 19 18 18
46 45 45 43 42 41 40 39 38 38 36 34 33 32 31 29 28 28 28 28 28 29 30 31 32 33 34 34 34 34 33 32 32 33 34 34 34 35 35 34 34 32 31 31 31 31 30 30 30 30 30 29 28 28 27 26 25 24 23 22 21 20 21
48 46 45 43 42 41 41 39 38 38 36 35 34 34 32 31 30 30 30 30 30 31 32 33 34 34 35 36 36 36 34 32 32 33 33 34 35 36 36 37 36 34 33 33 33 32 32 32 32 32 31 30 30 30 29 28 27 26 25 24 23 23 23
48 47 45 44 43 42 41 40 39 38 37 36 35 35 34 32 32 32 33 32 33 33 34 35 35 36 37 37 37 36 35 33 32 32 33 34 35 36 37 38 38 37 36 35 34 34 34 34 34 33 32 32 32 32 31 30 29 28 28 26 25 25 25
50 49 48 45 43 42 41 41 40 39 38 38 37 36 35 34 33 34 34 35 35 35 35 36 37 37 38 38 37 37 36 35 34 33 34 34 35 36 37 39 40 40 39 38 36 35 35 36 35 34 34 34 34 33 33 32 31 31 30 29 28 27 27
52 50 49 46 44 43 42 42 42 41 40 39 38 37 36 35 35 36 37 37 37 37 37 37 38 38 38 38 38 38 38 38 36 35 34 34 35 35 37 39 41 42 42 41 38 37 37 37 36 35 35 35 35 35 35 34 34 33 32 32 31 30 29
52 51 49 47 45 44 43 43 43 42 41 40 39 38 38 37 37 37 38 37 37 37 38 39 39 39 39 38 39 39 40 40 39 37 36 35 34 35 36 39 41 43 44 43 41 40 40 39 38 37 37 37 36 36 37 37 36 36 35 34 34 33 33
53 52 50 48 46 45 44 44 43 42 41 40 40 39 38 38 38 38 38 38 38 38 39 40 40 40 40 39 39 40 41 41 41 40 38 36 35 35 36 39 40 41 43 44 43 43 42 41 40 39 39 38 38 38 39 38 38 38 38 37 37 37 37
54 52 50 49 48 47 46 45 44 43 42 41 40 40 39 40 40 39 40 40 40 40 40 40 40 40 40 40 40 41 42 43 43 42 40 38 36 36 37 38 39 39 40 42 44 45 44 43 42 41 41 40 39 40 41 40 39 40 40 40 40 40 40
55 53 51 50 49 48 47 46 45 43 42 42 41 41 41 41 41 41 41 41 40 40 40 40 41 41 41 42 42 43 43 44 44 44 42 40 39 38 37 37 38 38 38 40 41 43 44 44 43 43 42 41 42 43 42 41 41 42 42 42 42 43 43
56 54 52 51 50 49 48 47 45 44 43 43 43 42 42 42 42 42 42 41 39 40 40 41 42 42 42 44 44 44 44 44 44 45 44 43 41 40 39 38 38 38 39 40 40 40 42 43 44 44 44 45 45 45 44 43 42 43 43 43 44 45 45
57 55 54 52 51 50 49 48 46 46 45 44 43 42 42 43 43 43 42 40 40 40 41 42 43 43 44 45 45 45 45 45 45 46 46 45 44 41 40 38 37 38 39 40 40 40 40 42 44 46 47 48 48 47 47 45 44 44 44 44 44 45 46
59 57 56 54 53 51 50 49 47 46 46 45 44 44 44 44 44 43 42 41 41 42 43 44 45 45 45 45 45 46 46 46 46 46 47 47 46 43 42 40 39 38 39 39 40 41 42 42 43 45 46 48 48 49 49 48 46 46 46 45 45 46 46
61 59 58 56 55 53 51 50 48 47 46 45 44 44 44 44 43 43 42 42 43 44 45 45 46 46 45 46 46 46 47 47 47 47 47 47 47 45 44 42 41 40 40 40 40 42 43 43 44 44 45 46 48 49 49 48 47 47 47 47 46 46 47
63 61 60 58 56 54 53 50 49 47 45 44 44 45 44 44 43 43 43 44 45 46 45 45 46 46 46 46 46 46 47 47 48 48 48 47 47 46 45 44 43 41 41 40 41 41 42 43 44 45 46 46 47 48 48 48 47 47 48 48 48 47 48
64 62 61 59 57 55 53 51 49 47 45 45 45 45 44 44 44 44 45 46 46 45 44 44 45 45 45 45 44 45 46 47 47 47 47 48 47 47 46 45 43 43 42 41 41 41 41 42 43 44 45 46 47 47 47 47 46 46 47 48 48 49 49
65 63 62 60 58 56 54 52 49 47 46 46 46 45 44 44 44 45 46 46 45 43 43 44 44 44 43 43 43 43 44 45 46 47 47 48 48 47 46 45 44 44 44 43 43 42 42 42 42 43 43 43 44 45 45 46 46 46 47 47 48 49 50
66 65 63 61 59 57 55 53 50 48 47 47 47 46 45 44 45 45 46 45 44 42 42 43 43 43 42 41 41 42 43 44 44 45 46 47 47 48 47 46 46 46 46 46 46 45 45 45 44 44 43 43 43 43 44 44 45 46 46 46 47 48 49
69 66 65 62 60 59 57 55 52 50 49 49 48 47 46 45 44 44 44 43 42 42 42 42 43 42 41 40 40 41 42 43 44 44 44 45 46 48 48 48 48 49 49 49 49 49 49 48 47 47 45 44 44 43 43 44 45 45 45 46 46 47 47
71 68 66 64 62 60 58 56 54 52 51 51 50 48 47 45 44 43 43 42 42 42 42 42 42 42 40 39 40 41 42 43 44 44 44 45 46 47 49 51 52 53 53 53 52 52 51 50 49 48 46 45 44 43 42 42 43 44 45 45 45 45 46
72 70 67 65 63 60 59 57 54 52 52 51 50 49 47 46 44 43 43 43 43 41 40 41 41 41 40 39 39 40 41 43 44 45 46 47 48 49 51 53 54 55 55 54 53 52 51 49 48 47 46 45 44 43 42 42 42 43 43 44 44 45 45
72 71 68 66 63 60 58 58 55 53 53 52 50 49 47 46 44 43 44 43 42 40 40 40 41 42 41 39 38 38 39 41 42 44 46 48 50 51 52 54 55 55 55 54 54 53 52 50 49 48 47 47 46 46 45 44 44 44 44 44 44 44 44
72 71 69 66 63 61 59 57 56 54 53 52 50 49 48 46 44 44 44 43 41 40 41 41 42 42 42 40 38 38 38 38 39 40 43 46 49 51 53 54 54 54 54 54 54 54 53 52 51 51 50 49 49 48 47 47 46 45 45 45 44 43 43
71 70 69 66 63 61 59 57 56 55 54 53 51 50 49 47 46 45 45 43 42 42 43 43 43 43 43 42 41 40 39 38 38 39 40 43 45 48 50 51 52 53 53 54 54 54 54 54 53 53 52 51 51 50 49 48 47 46 45 45 44 43 42
70 69 68 66 63 61 59 58 56 56 55 54 52 51 50 49 47 46 45 44 43 44 45 45 45 45 44 44 43 43 42 41 40 40 40 41 43 44 45 47 49 51 52 53 54 54 54 54 54 53 53 53 52 51 51 50 49 48 47 47 46 44 44

ECMWFFLT1_250_spd_048.txt.gz
Wind_Speed
25 23 21 20 20 19 18 17 17 16 15 15 15 15 14 13 13 13 13 13 13 13 15 17 18 19 19 20 22 25 27 27 26 25 23 22 21 20 19 19 18 17 16 14 13 12 11 10 8 7 6 6 5 5 4 3 2 3 3 3 4 5 6
28 26 25 25 24 23 21 20 20 19 18 17 16 16 16 15 14 14 14 14 14 14 14 15 16 18 18 19 20 24 27 28 28 27 25 24 23 21 20 19 18 18 17 16 15 14 13 11 10 9 8 8 7 6 5 4 4 4 4 4 5 6 7
32 31 30 29 28 26 24 23 23 21 20 19 18 16 15 15 14 14 14 14 15 15 15 15 16 17 19 20 20 22 24 27 28 28 27 25 24 22 21 20 19 19 18 18 16 15 15 13 12 11 10 10 9 8 7 6 6 6 6 6 6 7 7
35 34 33 33 31 28 26 26 25 22 21 20 18 17 16 16 16 16 16 16 16 17 17 17 16 15 18 21 22 22 22 24 26 28 27 26 25 24 23 21 20 20 19 18 17 17 16 15 14 13 12 11 10 10 9 7 7 7 7 7 7 7 7
39 38 36 35 33 30 28 28 27 25 23 21 20 19 18 18 17 17 17 17 18 18 18 17 16 15 16 19 23 23 23 22 23 25 27 27 26 26 25 23 21 20 19 19 18 18 17 17 16 14 13 13 12 12 11 9 8 8 8 8 8 8 7
42 41 39 38 36 33 31 30 29 27 24 22 21 20 19 19 18 17 17 18 19 19 18 18 18 18 18 19 22 24 25 24 23 24 26 27 28 27 26 25 23 22 21 20 20 19 18 18 17 16 15 14 14 13 13 11 10 10 10 9 9 8 8
45 44 42 40 38 35 34 32 31 29 26 23 22 21 21 21 19 18 18 18 19 19 20 20 20 20 21 21 22 24 26 27 25 25 25 27 28 28 27 26 25 24 23 22 21 21 20 19 18 18 17 16 16 15 14 13 12 12 12 11 10 9 9
47 45 44 42 39 37 36 34 32 30 27 25 24 24 24 23 20 19 18 18 19 20 21 22 22 22 22 22 22 24 26 27 28 27 26 27 27 28 28 27 26 25 25 24 23 22 21 20 20 19 19 18 17 17 16 16 15 14 14 13 12 11 10
48 47 45 43 41 39 38 36 34 31 29 27 27 26 25 24 22 20 19 18 18 20 21 22 23 23 23 23 23 23 24 26 28 28 29 28 28 28 28 27 27 26 26 25 24 23 22 22 21 21 20 19 19 18 18 18 17 16 16 15 13 12 11
50 47 46 44 42 41 39 37 34 32 30 30 30 28 27 26 24 22 20 19 19 20 20 21 23 24 24 24 24 23 24 25 27 28 29 30 29 29 29 28 28 27 26 26 25 25 24 23 23 22 22 21 20 20 20 20 19 18 18 17 15 14 13
51 49 47 46 43 41 40 38 35 34 34 34 32 31 30 28 26 24 23 22 20 19 19 21 23 24 25 26 25 24 24 26 27 28 30 31 31 30 30 30 30 29 28 27 27 26 25 24 24 23 23 22 22 22 22 21 21 20 20 19 17 16 15
51 50 49 47 44 42 41 39 38 37 37 36 34 33 31 29 27 26 25 23 21 20 19 20 22 23 25 26 26 26 26 26 28 29 30 30 31 31 31 31 31 30 29 29 28 27 26 26 25 24 23 23 23 23 23 23 22 22 22 21 19 18 17
52 51 49 47 45 43 42 41 40 39 39 38 36 34 32 30 29 27 26 25 23 21 20 20 21 23 24 26 27 28 28 28 29 31 31 30 29 30 32 32 31 30 30 30 29 28 28 27 26 25 24 24 25 25 24 23 23 23 23 23 22 20 19
53 51 48 47 45 44 44 43 42 42 41 39 36 35 33 31 30 28 27 26 24 22 22 22 22 23 24 26 27 29 30 30 31 32 31 30 29 30 32 33 32 32 31 31 31 30 29 28 27 26 25 26 26 25 24 24 24 25 25 25 24 23 21
53 51 49 47 46 46 45 44 43 42 41 39 37 36 34 33 31 30 28 27 26 25 25 24 24 24 25 26 28 30 30 31 31 32 31 30 29 29 31 33 34 34 33 33 33 32 31 29 28 27 26 27 26 26 25 24 25 26 27 27 26 25 23
54 52 50 48 47 46 45 44 44 43 42 41 39 37 36 35 33 31 30 29 28 27 27 26 26 25 26 27 29 29 30 30 31 32 31 31 31 30 31 32 33 35 35 35 35 34 33 31 30 29 28 27 27 26 25 25 25 27 28 28 28 27 26
56 53 51 49 48 48 47 47 47 46 44 42 41 40 38 37 35 33 32 30 29 28 28 28 27 26 26 28 28 28 29 30 31 32 32 32 32 32 32 32 33 34 36 37 37 36 35 34 32 31 30 29 28 28 26 25 26 27 29 30 30 29 28
57 54 52 51 51 51 51 50 49 47 45 43 42 41 39 37 36 34 33 32 32 31 30 29 28 27 27 28 28 29 30 31 31 32 33 33 33 33 33 34 34 34 36 37 38 38 38 36 35 33 32 31 30 29 27 26 27 29 30 30 31 31 31
58 56 55 54 53 53 52 50 48 47 45 44 43 42 41 39 38 37 36 35 34 32 31 30 28 28 28 28 29 30 31 32 32 33 34 35 35 34 34 35 36 36 37 37 37 38 39 39 38 36 34 33 32 31 29 28 28 30 31 31 32 33 33
60 58 57 56 56 54 52 50 49 49 47 46 44 44 43 41 40 38 37 35 33 32 31 30 29 29 29 29 30 31 32 33 34 34 35 36 36 35 35 35 37 37 37 37 37 38 39 40 39 38 37 36 35 34 32 30 30 32 32 32 33 34 35
63 61 60 59 57 54 53 52 52 51 49 48 46 45 44 42 41 38 36 35 34 33 32 31 30 30 30 30 31 32 33 34 35 36 36 37 37 37 37 37 37 37 37 37 38 39 39 39 39 40 40 39 38 36 35 33 33 33 34 34 34 35 37
66 65 63 60 57 55 56 56 54 52 50 49 48 46 45 44 42 39 37 36 35 34 34 33 32 31 31 31 32 34 35 36 37 37 37 38 38 39 39 39 38 37 37 37 38 39 40 40 40 40 40 40 40 39 38 36 35 35 36 36 36 37 38
68 66 63 60 59 59 59 57 53 52 51 51 49 48 47 45 41 39 38 37 35 35 35 34 34 33 33 33 34 35 37 38 39 39 39 39 40 41 42 42 41 40 38 37 38 39 40 41 41 40 39 40 41 41 41 39 38 38 38 38 39 39 40
67 66 64 63 62 62 59 55 54 54 54 52 50 48 47 43 40 40 40 38 37 37 36 35 35 35 35 35 36 37 39 40 40 40 41 41 42 43 44 44 44 43 41 39 38 38 38 39 39 40 39 40 42 43 43 41 40 40 40 40 41 41 42
67 66 66 65 63 61 57 56 56 55 54 52 49 48 46 42 40 41 41 39 38 38 37 37 37 37 37 37 37 39 40 41 41 42 42 43 44 44 44 45 45 45 44 42 41 39 37 37 38 39 40 41 42 43 44 43 43 43 43 43 44 44 43
69 68 67 65 62 59 57 56 56 55 53 51 49 48 46 43 42 42 42 40 40 39 38 39 40 39 38 38 39 40 41 41 42 43 44 44 44 44 45 45 46 47 47 46 44 42 39 38 38 39 40 41 42 42 43 44 45 46 46 46 46 46 46
71 69 67 65 63 60 58 57 55 54 53 51 50 49 47 44 43 44 43 42 41 41 41 42 41 40 39 39 40 41 42 43 43 44 45 45 44 44 45 45 46 47 48 48 47 44 42 41 40 40 40 41 42 42 43 44 46 47 48 48 48 48 48
72 70 68 66 64 62 60 58 56 55 53 51 50 49 46 44 45 45 44 44 44 43 43 42 41 41 41 41 42 42 43 43 44 44 45 44 44 44 45 46 47 48 48 49 49 47 46 44 43 42 41 40 41 41 42 43 44 45 46 47 48 49 49
73 71 69 67 66 65 63 61 58 56 55 53 51 49 47 46 46 46 45 46 45 44 42 42 42 43 42 42 42 42 42 43 43 44 44 44 44 45 45 45 46 47 48 49 50 50 49 47 45 44 42 41 41 40 41 41 41 43 44 45 47 48 49
75 72 70 68 67 66 65 63 61 59 57 54 52 50 49 48 48 47 48 47 45 43 43 44 44 44 43 43 42 41 41 41 42 43 43 44 44 44 45 45 45 46 48 50 51 52 51 50 48 46 45 43 42 41 40 40 40 40 42 43 45 47 48
76 73 71 70 69 68 67 65 64 62 59 56 54 52 51 50 50 50 50 48 45 44 45 45 44 44 44 43 42 40 40 40 41 42 43 43 44 44 44 45 45 47 48 50 52 52 52 51 50 49 48 46 45 44 42 41 39 39 40 41 42 44 46
76 75 73 71 70 69 68 67 65 63 61 59 57 55 53 53 52 52 51 48 47 46 46 45 45 44 43 41 40 39 39 40 41 43 43 43 43 43 44 44 45 47 48 50 51 52 52 52 52 51 51 50 48 47 45 43 41 39 39 40 40 41 43
77 75 74 72 71 70 68 67 66 64 62 60 58 56 55 55 54 54 52 50 49 49 47 46 46 44 42 40 39 39 40 41 42 43 44 44 44 43 44 44 45 47 48 50 51 52 53 53 52 52 52 51 51 49 48 46 44 43 42 42 41 41 41
78 76 75 73 71 70 69 67 66 65 63 61 60 58 58 57 56 55 53 51 51 50 48 47 46 44 42 41 41 41 41 42 42 43 44 44 44 44 44 45 46 47 48 50 51 52 53 53 53 53 53 53 52 51 50 49 48 46 45 44 44 43 43
79 77 76 74 72 71 69 68 66 65 63 62 61 60 59 59 58 56 54 53 52 50 49 48 46 45 43 42 42 42 42 43 43 43 44 43 43 44 45 46 47 48 49 50 51 52 53 53 54 55 55 54 53 52 51 50 49 48 47 46 46 45 45
81 79 77 75 74 72 70 68 67 65 64 62 62 61 60 59 58 57 55 54 52 50 49 48 46 45 43 43 43 43 44 44 44 44 43 43 43 43 44 46 47 48 49 50 51 52 53 54 55 55 55 55 54 53 51 50 49 48 48 47 47 47 46
82 80 79 77 75 74 72 70 68 66 65 63 63 62 61 60 59 58 56 54 52 50 50 48 47 45 44 44 45 45 45 44 44 43 42 42 42 42 42 44 45 47 49 50 51 52 53 54 54 55 55 55 55 54 53 52 51 51 50 49 49 48 48
83 81 80 79 77 76 74 71 69 68 66 65 63 63 63 62 60 59 57 54 53 52 51 50 48 47 46 46 47 47 46 45 44 43 42 41 41 41 41 42 43 44 45 47 48 49 50 51 52 53 54 54 55 55 54 54 53 53 52 52 52 51 51

ECMWFFLT1_250_spd_051.txt.gz
Wind_Speed
29 29 28 27 27 27 27 24 21 20 18 17 16 15 15 17 19 19 18 16 15 16 18 19 19 20 20 21 22 23 24 24 24 23 22 21 21 20 19 17 16 15 13 12 11 10 9 9 8 7 7 6 6 6 5 5 5 5 5 5 5 6 7
33 31 30 30 31 30 28 26 24 22 20 19 18 16 14 14 17 19 19 18 17 17 17 17 18 18 17 17 18 20 22 24 25 25 24 23 22 21 20 19 18 17 15 14 14 13 11 10 10 9 8 8 7 7 6 6 6 6 6 6 6 6 7
35 34 34 34 35 33 29 27 26 24 22 21 19 17 15 13 14 17 19 19 18 18 17 18 18 18 17 17 17 17 20 23 25 26 25 24 22 21 19 19 18 18 17 16 15 15 14 13 12 11 10 9 9 8 8 7 7 7 7 7 7 7 7
38 38 37 36 36 33 29 28 28 26 24 23 21 18 16 15 15 16 19 20 20 19 19 19 18 18 18 18 18 17 18 21 24 25 26 25 24 22 21 20 19 19 17 17 16 16 16 15 14 13 12 11 11 10 10 9 9 9 9 8 8 8 8
41 40 39 37 35 32 30 29 29 28 26 24 22 20 19 18 17 17 18 20 22 22 21 19 17 17 18 19 19 19 19 20 22 24 25 26 27 26 25 23 22 20 18 18 18 17 17 16 15 14 13 12 12 12 12 11 11 10 10 10 9 9 9
43 41 40 38 35 34 34 34 32 30 27 25 23 21 20 20 18 18 18 19 20 21 22 21 20 19 19 20 22 22 22 22 22 23 24 26 28 28 27 26 24 23 21 20 19 18 17 16 16 15 14 14 14 14 13 13 12 12 12 12 11 11 10
45 43 41 39 37 36 36 36 35 33 29 26 24 22 22 22 20 20 19 19 19 20 22 23 23 23 22 22 23 24 25 25 24 23 23 24 26 28 28 28 27 26 24 23 21 20 19 17 17 16 16 15 15 15 15 14 14 14 14 14 13 13 12
47 45 43 41 38 37 37 38 38 38 33 28 26 25 25 24 22 21 20 19 18 19 21 22 23 24 24 24 24 24 25 26 26 26 25 24 25 26 27 29 29 28 27 25 24 22 21 19 19 18 17 17 16 16 16 16 16 16 16 16 15 15 15
50 48 46 44 42 39 39 40 39 38 35 30 28 28 27 25 24 22 20 19 19 19 20 21 21 22 24 24 24 24 24 25 26 27 27 27 26 26 26 27 28 28 28 26 25 25 23 22 21 20 19 18 17 17 17 17 18 18 18 18 17 17 17
53 51 49 48 46 43 42 40 38 37 36 33 31 31 29 27 26 24 22 21 21 20 20 20 20 21 23 24 25 24 24 24 26 27 28 28 28 27 26 26 26 27 28 27 27 26 25 24 23 22 20 19 18 18 18 19 19 20 19 19 19 19 18
56 54 53 51 49 47 45 43 39 37 38 37 35 33 31 30 29 26 25 24 22 20 20 21 21 21 22 23 24 24 24 25 25 26 27 29 29 29 28 27 27 27 27 27 27 27 27 26 25 23 22 20 20 20 20 20 20 21 21 21 21 20 20
57 56 55 54 52 50 47 45 41 38 39 40 37 34 33 32 31 29 27 26 23 21 21 22 22 22 22 22 23 25 26 26 26 27 28 28 28 29 29 29 29 28 27 26 27 27 27 26 25 24 23 22 21 21 21 21 21 21 22 22 22 22 22
58 58 57 55 53 51 47 45 42 40 41 41 38 36 35 34 32 30 29 27 24 23 23 23 23 23 23 22 23 24 26 27 28 28 29 28 27 27 28 30 30 30 29 28 28 28 27 27 26 24 24 23 23 23 23 23 22 22 23 23 24 24 24
63 63 63 60 57 54 49 47 46 45 45 43 41 38 37 35 34 32 29 27 25 24 24 24 25 25 24 23 24 24 26 27 28 29 29 28 27 27 27 29 30 31 30 30 29 29 28 28 26 25 25 25 25 25 25 24 23 22 23 24 25 25 25
67 66 65 61 56 53 50 49 48 48 46 44 42 40 39 38 36 34 31 29 28 27 27 26 26 26 26 25 26 26 25 26 27 28 29 29 28 28 28 29 30 30 31 31 31 30 29 29 28 27 27 27 27 27 27 26 25 24 24 25 25 26 26
68 67 62 58 55 52 51 50 49 48 47 45 43 42 41 40 38 36 34 32 31 30 29 28 28 27 27 27 27 26 25 24 25 26 28 29 29 30 29 30 30 30 31 32 32 31 31 30 29 29 28 28 28 29 28 28 27 25 26 26 26 26 26
69 66 62 59 56 54 52 52 51 50 49 47 46 45 44 43 41 39 37 35 34 33 31 30 30 29 29 28 28 27 25 25 25 25 27 28 30 30 30 30 30 30 31 32 32 32 33 32 32 31 30 29 30 30 30 29 28 27 28 28 28 27 27
68 66 62 59 57 55 54 54 53 53 52 50 49 48 47 45 43 41 39 37 36 35 34 33 33 32 31 29 29 28 26 26 25 25 26 28 30 31 31 31 31 31 31 32 32 33 33 34 34 34 32 32 32 32 32 31 30 29 29 30 29 29 29
67 64 62 59 58 57 56 55 55 55 54 53 52 50 49 48 45 43 42 40 39 38 37 36 35 33 32 30 30 29 28 27 27 26 26 28 30 31 31 32 33 34 34 33 33 33 33 34 35 35 34 34 34 34 33 33 32 31 31 31 31 30 30
69 66 64 62 60 58 57 57 58 58 57 56 54 53 52 50 47 45 43 41 39 38 37 37 35 34 33 32 32 31 30 29 28 28 28 29 30 31 32 34 35 36 36 35 34 35 35 35 36 36 36 36 37 37 35 35 34 33 33 33 32 32 31
71 68 67 65 62 61 60 60 59 59 59 58 57 55 54 51 49 46 44 42 41 39 39 38 37 36 35 34 34 33 31 31 31 30 30 30 31 31 33 35 36 37 37 37 37 37 37 37 37 37 37 38 38 38 37 37 37 36 35 35 34 34 34
75 70 68 67 64 63 62 61 60 60 61 60 59 57 54 53 51 48 45 44 43 41 40 39 38 38 37 36 36 35 34 33 33 33 32 32 32 33 34 35 37 38 38 38 38 38 38 37 37 38 39 39 39 38 38 39 39 38 38 37 37 37 37
78 73 69 68 67 66 64 62 61 62 62 62 60 58 56 55 52 49 47 45 44 42 41 40 40 40 39 39 38 37 36 36 36 35 35 34 34 35 36 36 37 38 38 39 39 40 40 39 38 37 37 38 38 39 39 39 40 40 40 40 40 40 40
79 76 72 69 68 67 67 65 63 65 65 63 61 59 57 55 52 50 48 47 45 44 43 42 43 42 42 41 40 39 39 39 38 37 37 36 36 36 37 37 38 38 38 39 39 40 41 41 40 38 36 35 35 36 38 39 40 41 42 42 43 43 43
75 75 73 71 69 67 67 66 67 68 67 65 62 60 58 55 52 51 50 48 47 46 45 45 45 45 45 44 43 42 41 41 40 39 38 38 38 37 37 38 38 38 38 39 39 41 42 42 42 41 40 37 35 34 35 37 40 42 43 44 44 45 45
77 76 74 72 70 68 68 68 69 70 69 67 64 62 59 56 54 53 52 50 49 48 48 48 48 48 47 46 44 43 43 43 42 41 39 39 39 38 38 38 38 39 39 39 40 41 42 43 43 43 43 41 38 36 35 35 38 41 43 44 45 46 46
82 79 76 74 72 70 70 70 71 71 70 68 65 62 59 56 55 55 54 52 51 51 51 51 50 49 48 48 47 46 46 45 43 42 40 40 39 39 39 39 39 39 40 40 40 41 42 42 43 44 44 43 42 40 38 36 37 40 42 43 45 46 47
83 82 80 77 74 73 72 72 72 72 71 68 65 62 59 57 57 58 57 54 53 55 54 52 51 50 51 50 50 48 47 46 44 43 41 41 40 40 40 40 40 40 41 41 41 41 42 42 42 43 45 45 45 44 43 40 39 39 41 43 46 47 48
84 83 82 79 77 75 74 73 73 73 71 68 65 62 60 60 61 60 59 56 56 57 55 53 52 52 53 52 51 49 47 46 45 43 42 41 41 40 40 40 40 41 42 41 41 41 41 41 42 44 45 46 47 47 47 46 44 43 42 43 45 47 49
85 84 83 82 79 77 76 75 75 74 71 69 66 65 64 64 63 63 61 58 57 57 56 54 53 53 53 53 51 49 47 46 45 44 42 41 41 40 40 41 41 41 42 41 41 41 41 41 42 44 45 47 48 49 49 49 49 48 47 45 44 45 46
87 85 84 82 80 79 78 77 76 74 72 69 68 67 67 66 65 65 63 59 58 59 58 56 54 54 54 54 52 50 48 47 45 44 43 42 41 41 41 41 41 42 42 42 42 42 42 42 42 43 45 47 49 50 51 51 51 50 50 49 47 45 45
88 86 84 82 81 81 80 78 76 74 71 70 69 69 68 68 67 66 63 60 59 60 60 57 55 55 55 54 53 51 49 47 45 44 43 42 42 41 42 42 42 43 43 42 42 42 42 43 43 44 45 47 48 50 51 52 52 52 51 51 49 48 48
90 87 85 83 82 82 81 79 76 73 72 71 71 70 69 68 67 66 63 61 61 62 60 58 57 57 57 55 54 52 49 47 46 45 44 43 42 42 42 43 43 44 44 43 43 43 43 43 44 44 45 46 47 49 50 52 53 53 53 52 51 50 49
91 88 86 83 82 82 81 79 76 75 73 72 70 70 70 69 68 67 65 63 63 63 61 60 59 58 57 56 54 52 50 48 47 46 45 44 44 43 43 44 44 44 45 44 44 44 44 44 44 45 46 46 47 48 50 52 53 54 53 53 53 52 50
92 89 86 85 83 82 81 79 78 76 74 73 71 71 71 71 69 68 67 66 65 64 63 62 61 60 58 56 54 52 50 48 47 46 46 45 45 45 45 45 46 46 45 45 45 45 45 45 45 46 47 47 48 48 50 52 53 54 54 53 53 52 50
92 90 87 85 84 83 81 79 78 77 75 74 74 72 71 70 70 69 67 66 65 65 64 63 63 61 59 57 54 52 51 49 48 48 47 47 47 47 47 47 47 46 46 45 45 45 46 45 46 47 48 48 49 50 51 52 53 53 53 52 52 51 50
92 90 88 86 83 82 81 79 78 77 76 75 74 73 72 71 70 69 68 67 66 65 65 65 64 62 60 57 55 53 51 50 49 49 49 48 48 48 48 48 47 46 45 45 45 46 46 46 47 48 49 49 51 51 51 51 51 52 52 52 51 51 51
93 90 88 87 83 79 78 78 77 76 77 76 75 74 73 72 71 70 68 68 67 67 67 66 65 63 61 58 56 53 51 51 51 51 51 50 49 50 49 48 47 46 45 46 46 46 46 46 47 48 49 50 51 52 51 50 50 50 51 51 51 52 53

ECMWFFLT1_250_spd_054.txt.gz
Wind_Speed
37 35 33 31 29 28 27 24 22 22 20 18 16 14 14 15 16 17 18 18 18 18 18 19 21 23 24 24 24 22 20 19 18 18 17 17 16 15 14 13 12 11 10 9 8 8 7 7 7 6 6 6 6 6 6 6 5 5 6 6 7 7 8
39 37 35 33 31 31 29 26 24 24 22 20 19 17 14 13 14 16 17 18 19 19 19 18 19 20 21 22 23 23 22 21 20 20 19 18 18 17 16 15 14 12 11 11 10 10 9 8 8 8 8 8 8 7 7 7 7 6 6 6 7 7 8
41 39 38 36 34 34 31 28 26 25 23 22 21 18 15 12 13 15 16 17 18 18 19 20 20 19 19 20 21 21 22 22 23 23 22 20 19 19 18 18 17 15 14 13 12 12 11 11 11 10 10 10 9 9 9 8 8 8 7 7 7 8 8
44 40 40 38 36 35 32 30 28 26 25 24 22 19 16 14 13 14 16 17 18 19 19 21 22 21 20 19 20 20 21 21 23 24 24 23 22 21 21 20 19 18 16 15 15 14 14 13 13 13 12 11 11 11 10 10 10 10 9 9 8 8 9
45 43 41 39 37 36 34 32 31 30 29 26 23 21 19 17 15 14 16 16 17 18 19 19 21 22 22 21 21 21 21 21 22 23 25 25 25 24 23 22 21 19 17 16 17 16 16 16 16 15 14 13 13 12 12 11 11 11 11 10 10 10 10
47 46 44 41 40 39 36 35 35 34 31 28 26 24 22 20 17 15 16 16 17 18 18 19 21 23 24 25 24 24 23 23 23 24 25 26 26 26 25 23 23 21 19 18 18 18 18 17 17 16 15 15 14 14 13 13 13 13 12 12 12 11 11
48 48 45 43 41 40 38 38 37 35 32 29 28 26 24 23 21 18 17 17 16 17 18 19 21 23 24 25 26 26 26 26 26 25 25 26 26 26 26 25 25 24 22 21 21 21 20 19 18 17 17 16 16 15 15 15 15 14 14 14 13 12 12
51 49 46 43 42 40 40 39 38 36 33 31 30 29 27 25 24 22 19 18 17 16 16 18 19 21 22 24 25 26 27 27 27 27 27 27 27 26 26 27 27 27 26 24 24 23 22 21 19 19 19 18 17 17 17 16 16 16 15 15 15 14 14
52 51 48 45 43 42 42 40 39 37 34 33 32 32 30 27 25 25 23 21 19 17 16 17 18 19 21 23 24 24 25 26 27 28 28 28 28 28 28 27 28 28 27 26 26 26 25 24 22 21 21 20 19 18 18 18 18 18 17 17 16 16 16
54 52 51 49 45 44 44 41 39 38 36 35 34 34 32 29 27 26 25 24 21 19 18 17 17 18 20 22 23 23 24 25 27 27 28 28 28 28 28 27 28 28 27 27 27 27 27 27 25 24 23 21 21 20 19 19 19 19 18 18 18 18 18
57 54 52 51 49 48 46 43 41 40 39 38 38 37 34 31 29 28 27 26 24 21 20 19 18 18 19 20 22 22 24 25 26 27 28 28 28 27 27 27 27 27 27 26 27 27 28 28 27 26 25 24 23 22 21 21 21 20 20 20 19 19 19
59 56 54 54 53 51 49 48 45 43 42 42 41 39 35 32 30 29 28 27 25 24 23 22 21 19 18 19 20 22 24 25 26 27 28 28 27 27 27 27 27 27 26 26 26 26 27 28 27 26 26 26 25 24 24 24 23 22 21 21 20 21 21
60 59 57 56 56 53 52 51 48 44 44 43 41 39 36 34 32 31 30 28 27 26 25 24 23 21 20 19 20 21 23 25 27 27 28 27 26 25 26 27 27 27 26 26 26 26 26 27 27 26 26 26 27 26 26 26 25 24 23 22 21 22 22
64 63 61 60 60 57 55 54 50 45 44 42 40 39 38 37 35 33 31 30 28 27 27 26 25 23 22 21 22 22 22 24 26 26 26 27 26 25 26 27 28 28 28 27 28 27 27 27 27 26 25 26 26 27 27 27 26 25 24 23 23 23 24
70 69 66 63 61 57 55 53 49 46 44 43 41 40 39 39 38 36 33 31 29 29 29 28 28 27 25 25 24 24 23 23 24 25 26 26 26 26 26 27 28 28 28 29 29 28 28 28 28 27 27 26 27 27 27 27 27 26 25 24 25 25 26
74 71 67 64 61 58 55 54 52 50 48 46 44 41 39 38 37 38 36 33 31 31 31 30 30 29 28 28 27 25 23 23 24 24 25 26 26 26 26 28 29 29 29 29 29 29 29 29 30 30 29 28 28 28 29 29 28 27 26 26 27 27 27
76 72 69 68 67 65 62 58 56 53 49 46 43 41 39 38 37 38 38 36 33 33 33 33 32 32 31 30 29 27 25 25 25 24 25 25 26 26 26 27 29 30 30 30 30 30 30 30 31 31 31 30 30 30 31 31 30 29 28 28 29 29 29
79 75 73 73 71 68 64 60 57 53 48 44 42 41 41 41 41 42 41 39 37 36 36 36 34 34 34 32 30 30 28 27 27 26 25 25 26 26 27 27 28 30 31 32 31 31 31 32 32 33 33 32 32 33 33 33 32 31 30 29 30 31 31
82 78 76 75 72 69 65 61 58 55 51 47 46 46 46 45 46 47 45 43 41 39 38 38 37 36 35 33 32 33 32 30 29 28 27 27 26 27 27 27 28 29 31 32 32 31 32 33 33 34 34 35 35 35 35 35 34 33 32 31 32 33 33
81 80 78 76 74 71 67 64 62 60 56 53 52 51 51 49 47 49 49 45 43 42 40 40 39 37 37 36 35 36 35 33 32 30 29 29 28 28 28 29 29 29 30 31 31 31 33 34 34 34 35 36 36 36 37 37 37 36 34 33 34 35 35
80 80 80 79 76 72 70 67 65 64 62 60 58 54 53 53 49 49 51 48 45 45 44 43 42 40 39 39 39 39 38 36 34 33 32 32 31 30 30 30 31 30 30 31 31 32 32 33 34 35 35 36 37 37 37 38 38 38 37 36 36 37 38
80 80 80 81 78 74 73 71 67 66 65 64 62 58 56 56 54 53 53 51 49 50 48 46 45 44 42 42 42 41 40 38 36 35 34 34 34 33 32 32 32 32 31 31 31 31 32 33 34 35 35 36 37 38 38 39 39 39 38 37 38 39 40
77 79 79 81 80 76 75 73 70 68 66 65 64 61 58 57 56 55 54 52 52 53 51 48 48 47 45 44 45 44 41 39 38 38 37 36 36 35 34 33 33 33 32 32 32 32 32 32 33 34 34 36 38 39 40 40 41 41 39 39 40 41 42
76 77 78 81 82 80 77 75 72 70 68 68 66 63 62 60 58 57 56 54 53 53 52 50 50 49 48 47 47 46 43 41 41 40 39 38 37 37 36 35 34 34 34 33 33 33 33 33 33 33 34 35 37 40 41 41 41 40 39 39 41 43 44
81 79 78 79 81 81 79 77 75 72 70 69 68 67 67 65 60 58 58 58 58 56 54 53 52 50 50 49 48 47 44 42 42 42 42 40 39 38 37 36 36 35 34 34 34 34 34 34 34 34 35 36 37 39 40 41 41 41 39 37 39 42 44
88 84 82 79 78 81 82 78 76 74 71 70 71 71 71 70 66 63 63 63 62 58 55 55 54 53 51 50 49 47 45 44 44 45 44 43 41 40 39 38 37 36 36 35 34 34 35 35 35 35 36 37 37 38 39 40 41 42 42 40 39 40 42
94 90 87 83 79 80 81 79 76 75 73 72 73 74 74 74 72 70 68 66 63 59 57 57 56 54 53 51 50 49 47 47 46 47 46 44 42 41 41 40 39 37 36 36 35 35 36 36 36 36 36 37 37 37 38 38 40 42 43 42 42 42 42
96 90 87 85 82 80 79 78 76 75 74 74 75 76 76 75 73 71 70 67 64 63 61 58 56 55 54 52 51 50 50 49 49 49 48 46 44 43 42 41 39 38 37 37 36 36 37 37 37 37 37 37 37 38 38 38 39 41 43 43 43 44 45
99 92 85 83 83 82 80 79 76 74 74 74 75 76 76 74 72 70 68 66 66 65 62 58 56 56 55 54 52 51 52 51 51 50 50 48 46 45 44 42 40 39 39 38 38 38 38 38 38 38 38 38 39 39 39 39 39 41 43 44 43 44 46
102 99 91 83 80 81 81 80 78 77 76 75 76 76 75 73 71 69 67 67 66 64 60 58 58 57 56 55 53 53 54 54 53 53 52 50 48 46 44 43 41 40 40 40 39 39 39 39 39 39 39 40 40 40 40 40 40 41 43 43 43 45 47
102 102 98 90 83 82 82 80 79 80 79 78 77 76 75 74 71 68 67 67 65 62 58 58 58 59 59 57 55 54 56 56 55 54 53 50 48 47 45 44 43 42 42 41 41 41 41 41 40 40 40 41 41 41 41 41 41 42 43 43 43 45 47
101 101 100 94 86 83 84 81 79 79 79 78 77 76 77 75 71 68 68 67 64 60 58 58 59 61 61 59 57 57 57 57 57 56 53 51 49 48 46 45 44 44 44 43 42 42 43 42 42 42 42 42 43 43 43 43 43 43 43 43 44 45 46
101 101 101 97 88 83 84 84 81 79 79 79 77 76 76 75 71 68 68 67 64 61 59 59 61 62 61 59 58 58 58 59 59 57 54 52 50 49 49 48 47 46 46 45 45 44 44 44 43 43 43 43 44 44 44 44 44 44 44 44 45 46 47
103 102 101 99 91 82 80 82 82 80 81 80 78 76 76 74 71 68 67 65 63 62 61 60 61 62 62 61 60 59 59 60 60 58 55 53 52 51 51 50 50 49 48 48 47 46 46 46 45 44 44 44 44 45 46 46 46 46 47 47 46 46 47
105 103 102 101 97 88 82 80 79 78 79 81 79 77 77 75 70 67 66 65 64 63 61 59 60 62 62 62 61 60 61 61 60 59 57 55 54 54 54 53 52 51 51 50 49 48 48 47 46 45 44 44 45 46 46 47 48 48 48 48 48 48 48
106 104 102 101 99 94 88 83 78 75 76 77 76 75 74 72 69 66 65 64 63 60 57 57 59 61 61 62 62 62 62 63 62 60 59 58 57 57 57 56 55 54 53 52 51 50 48 47 46 45 44 44 45 46 47 48 49 49 49 49 50 49 48
107 105 103 100 96 93 89 84 78 76 76 75 72 71 71 69 67 65 63 62 60 57 52 51 57 62 63 64 65 65 65 65 64 63 61 60 60 60 60 58 57 56 55 54 52 51 49 48 47 46 45 45 46 47 48 49 49 49 49 49 49 48 47
108 105 102 99 94 90 87 85 81 78 78 78 75 72 71 70 66 63 61 60 59 55 50 49 54 61 66 68 69 69 68 68 67 66 64 62 62 63 62 60 59 58 57 56 54 52 50 49 48 47 46 47 48 49 49 50 50 50 50 49 49 48 46

ECMWFFLT1_250_spd_057.txt.gz
Wind_Speed
42 41 37 34 36 36 34 31 28 26 24 21 21 21 18 17 16 17 18 19 19 19 21 23 25 26 25 23 22 22 21 21 21 20 19 18 17 16 15 13 11 9 7 6 5 4 3 3 2 3 3 4 4 4 5 5 6 6 7 8 9 9 9
45 43 40 38 38 37 35 32 31 28 25 23 23 22 19 17 16 16 17 19 20 20 20 21 23 25 25 24 23 22 21 21 21 20 20 19 18 17 15 14 12 11 9 8 7 6 6 5 4 4 5 5 5 6 6 6 6 6 7 7 8 8 8
47 45 43 41 39 37 35 33 32 29 27 26 25 23 19 17 16 15 16 18 20 20 20 20 22 23 25 25 25 23 22 21 21 20 19 18 18 17 16 15 14 13 11 10 9 9 8 8 7 7 7 7 7 7 7 7 7 7 7 7 8 8 8
48 47 45 42 39 38 36 34 32 30 29 28 26 24 21 18 17 17 17 18 19 20 20 20 20 21 24 25 26 25 24 23 21 20 19 19 19 19 18 17 16 15 14 13 12 11 11 10 10 10 10 9 9 9 9 9 9 9 8 8 8 8 8
50 48 47 44 40 39 39 36 34 32 31 30 28 25 23 20 19 18 18 19 19 18 18 19 19 20 22 24 25 26 26 25 24 22 21 20 20 20 20 19 18 17 17 16 15 14 14 13 13 12 12 12 12 12 11 11 11 11 10 10 10 9 9
52 49 48 46 43 41 40 38 36 35 33 31 29 26 24 22 21 19 19 19 19 18 16 17 19 20 22 23 24 26 27 27 27 25 24 23 23 22 21 20 20 19 19 19 18 17 16 16 15 15 14 14 14 14 14 14 13 13 13 12 12 11 10
55 52 48 47 45 43 41 40 39 37 34 32 29 26 26 25 22 20 19 20 20 18 15 15 17 19 20 21 23 25 28 29 29 28 27 26 25 24 23 23 22 21 20 20 20 19 19 18 18 17 17 16 16 16 16 16 15 15 14 14 14 13 13
59 55 50 48 47 45 43 42 40 39 36 33 30 29 28 26 24 22 21 20 21 20 16 13 14 16 18 20 21 23 26 28 29 29 29 28 28 27 26 25 24 23 22 22 21 21 20 20 19 19 19 18 18 18 18 18 18 17 16 16 16 15 15
63 59 55 53 50 46 44 43 42 39 37 34 33 31 29 27 26 24 23 22 22 21 18 15 14 14 16 17 19 22 24 26 27 28 29 29 29 29 28 27 26 25 25 24 24 24 23 22 21 21 21 20 20 20 20 20 20 19 18 18 18 17 17
65 62 59 57 53 49 47 46 43 40 38 37 36 33 31 30 28 26 25 24 22 20 19 17 15 15 15 16 17 19 23 25 27 27 27 27 27 27 28 28 28 27 27 26 26 26 25 25 24 23 23 22 22 22 23 23 22 21 20 20 20 20 19
63 60 58 58 55 52 50 48 45 42 41 39 38 36 32 31 29 27 27 25 21 19 19 18 16 15 15 15 16 18 21 23 25 26 26 25 24 24 25 26 26 27 27 27 28 27 27 27 27 25 24 24 24 24 25 25 24 24 23 22 22 22 22
59 58 58 59 57 54 52 51 47 44 43 42 40 38 35 32 31 29 27 25 22 21 20 19 16 15 15 16 16 17 19 21 23 25 25 24 23 22 23 24 24 25 26 26 27 27 28 28 28 26 25 25 25 26 27 27 26 25 25 24 24 24 23
60 59 59 59 57 54 54 52 48 46 45 43 41 39 37 34 31 29 27 25 24 22 21 20 18 17 17 16 17 17 18 20 22 22 23 22 21 21 22 23 24 24 25 25 26 26 26 27 27 26 25 26 26 27 27 28 27 27 26 25 25 25 25
63 60 60 59 56 54 54 52 49 47 45 43 41 39 37 35 32 30 29 26 24 24 22 22 21 20 19 18 18 18 18 19 20 21 21 21 20 20 21 22 24 25 25 26 26 26 26 26 26 26 25 26 27 28 28 29 28 27 26 26 26 26 26
65 62 61 61 58 56 56 55 52 49 46 44 42 40 38 36 33 32 30 28 26 25 24 23 23 22 21 20 19 19 19 20 21 21 21 20 20 20 20 20 22 23 25 26 26 27 26 26 26 26 26 27 27 28 29 29 29 27 26 26 26 27 27
69 67 65 64 62 59 59 58 55 51 48 46 44 41 39 38 36 34 32 29 27 26 25 24 23 22 22 22 21 21 21 22 22 22 21 20 20 19 19 19 20 22 24 25 26 27 27 27 27 28 29 29 29 29 30 30 30 29 28 28 28 29 29
73 71 69 66 65 62 61 60 58 55 52 49 46 43 41 40 37 35 32 29 27 27 26 26 24 23 23 24 24 25 24 24 24 24 23 22 21 20 20 19 19 20 22 24 26 27 27 27 27 28 30 30 31 31 32 32 32 31 30 30 31 32 32
76 74 71 69 67 64 62 61 60 58 55 52 50 47 44 42 39 36 34 31 30 29 28 27 27 26 25 26 27 28 28 27 27 26 25 24 23 22 21 21 21 21 22 23 24 25 27 27 27 28 29 31 32 33 34 33 33 33 33 32 33 34 34
80 77 74 71 68 65 64 63 61 59 56 54 52 50 46 43 41 40 38 36 35 35 32 30 31 32 30 29 30 31 31 30 29 29 28 27 26 25 24 23 23 23 23 23 22 23 25 27 27 27 28 30 32 33 34 34 34 34 34 34 34 35 36
85 81 77 74 71 68 67 65 61 56 55 54 52 50 48 46 43 41 39 37 38 40 39 35 34 36 37 35 34 33 33 33 32 32 31 30 29 28 27 26 25 24 24 23 22 22 24 26 26 27 28 29 31 33 34 35 35 34 34 35 35 36 37
89 85 81 78 74 72 71 69 62 55 52 54 53 52 51 48 45 41 39 38 39 41 41 39 39 40 40 38 37 36 36 36 36 34 33 33 32 30 30 29 27 26 25 24 23 23 23 25 26 26 27 28 30 32 33 34 34 34 34 35 35 36 38
92 89 85 81 79 77 74 73 69 62 56 54 54 54 52 50 46 43 42 42 42 42 42 42 43 43 41 38 38 38 39 39 38 37 36 35 34 32 31 30 29 27 26 26 26 24 24 25 26 27 27 27 28 30 32 33 34 34 34 34 34 36 38
95 92 89 85 82 81 78 76 75 71 66 60 56 54 53 53 52 49 48 48 45 43 43 43 44 45 43 41 40 39 40 41 41 39 38 36 35 33 31 30 30 29 28 28 27 27 25 25 26 27 27 28 29 30 31 32 33 34 34 34 34 35 37
98 96 93 89 85 84 82 80 77 76 73 68 63 58 55 56 56 54 53 52 49 47 46 46 46 48 48 47 45 41 40 41 42 41 39 38 36 34 32 31 31 31 30 29 29 29 28 26 26 27 28 28 29 30 31 32 34 35 35 34 34 35 36
102 101 98 93 89 87 85 83 80 78 76 73 71 67 61 58 57 56 56 57 53 51 50 50 51 53 53 51 50 47 44 43 43 42 40 39 37 36 34 33 33 32 32 31 31 30 30 28 28 28 29 29 29 30 32 33 34 35 36 36 35 35 36
106 105 101 97 93 89 87 86 84 82 80 77 75 72 68 63 59 56 57 59 57 53 53 55 56 57 56 53 52 50 46 44 43 42 41 40 39 37 35 34 35 34 34 33 32 32 31 31 30 30 30 30 30 31 32 33 34 35 35 36 36 36 36
109 107 104 101 97 92 89 88 86 85 83 81 78 75 72 69 66 61 58 60 60 57 58 61 61 59 57 53 50 48 46 44 44 43 42 41 40 39 37 36 36 36 36 35 35 34 33 33 32 31 31 31 31 32 32 34 35 35 35 36 36 37 38
109 108 106 104 101 97 93 90 88 87 86 83 81 78 75 72 72 69 64 62 63 62 63 64 63 60 58 55 51 48 46 45 44 43 42 42 41 40 39 38 38 38 38 38 37 36 35 34 34 33 33 33 33 33 33 34 36 37 36 37 37 38 39
108 109 108 106 104 101 97 93 89 88 88 86 83 81 79 76 75 74 69 66 66 67 67 65 63 61 60 58 55 51 47 45 44 42 42 42 42 42 41 40 40 40 40 40 39 37 37 36 36 35 35 35 35 35 36 36 37 37 38 38 38 39 40
109 110 111 109 107 104 101 96 92 89 88 87 86 84 81 79 77 75 73 71 71 71 69 67 64 62 60 58 57 53 49 46 44 43 43 43 44 45 44 43 42 42 42 40 39 39 38 38 38 38 37 37 38 38 38 38 38 38 39 39 39 40 41
110 111 111 110 108 106 104 100 94 90 88 88 88 86 84 82 80 77 76 75 74 73 70 68 66 64 61 58 56 54 51 49 46 45 45 46 46 47 47 45 44 43 42 41 40 40 40 40 40 40 40 40 40 40 40 40 40 39 39 40 40 41 42
112 112 111 110 108 107 105 102 96 91 88 88 87 87 86 84 82 80 79 78 77 74 71 69 67 65 63 61 57 54 51 49 47 47 48 49 49 48 48 46 45 44 43 42 42 43 43 42 42 42 43 42 42 42 42 41 41 41 41 41 41 42 42
115 113 111 110 109 107 105 102 98 92 89 87 86 85 85 85 84 82 81 80 78 76 73 70 68 66 65 63 61 57 54 52 51 51 51 52 51 48 47 46 45 45 45 45 46 46 45 44 44 44 44 44 43 43 42 42 43 43 42 42 42 42 43
116 115 112 111 111 109 105 102 99 95 90 86 84 83 83 85 85 84 82 80 79 77 75 71 68 67 66 64 63 61 58 56 55 54 53 52 50 48 47 48 48 48 48 48 49 48 47 46 46 46 45 45 44 43 43 43 44 44 43 42 42 43 44
117 117 115 114 112 110 107 103 100 97 93 88 85 83 83 84 85 84 82 81 80 78 75 71 68 68 67 65 64 63 60 58 56 53 50 48 48 49 50 52 52 51 51 51 50 50 49 48 48 47 46 46 45 44 43 43 43 44 43 43 43 44 45
119 119 118 117 113 110 108 105 100 98 95 90 87 85 82 81 83 84 83 82 81 79 76 71 69 68 66 65 63 63 60 57 53 49 47 48 50 52 54 55 54 54 53 53 53 52 51 51 50 49 48 47 46 45 44 43 42 43 44 43 43 43 44
120 121 121 119 114 109 107 105 101 98 96 92 88 84 81 78 79 82 83 83 81 79 76 73 70 68 67 65 64 62 58 53 49 48 48 51 54 55 56 56 56 56 56 55 55 55 54 53 52 51 49 47 46 46 45 43 42 43 44 43 43 43 43
122 122 122 119 114 109 106 104 101 99 98 96 90 85 81 78 77 78 80 82 82 80 76 73 70 68 67 66 63 59 55 51 48 48 49 52 54 58 60 60 59 59 59 58 58 57 56 55 54 52 50 48 47 46 45 44 43 43 44 43 43 42 42

ECMWFFLT1_250_spd_060.txt.gz
Wind_Speed
40 40 38 37 37 38 37 34 32 31 28 25 23 21 20 20 18 17 17 19 19 20 22 25 25 23 21 22 23 23 24 23 22 22 21 20 20 19 18 16 14 13 12 10 8 7 5 4 3 1 0 1 2 3 4 4 5 6 6 7 7 8 8
44 43 41 39 39 39 38 36 33 32 30 27 25 23 22 21 20 18 19 20 21 20 22 24 25 24 22 22 22 22 22 23 23 22 22 21 21 20 19 17 16 14 13 11 10 8 7 6 4 3 2 2 3 4 4 5 5 6 6 7 7 7 7
46 45 42 40 39 39 39 37 33 32 31 29 27 25 23 22 20 20 20 21 22 22 22 24 25 26 25 23 22 22 22 22 22 22 22 21 21 20 19 18 17 15 14 13 12 10 9 8 7 6 5 5 5 5 6 6 6 6 7 7 7 7 7
48 47 43 40 39 39 39 38 35 34 33 31 28 26 25 23 21 21 21 21 23 23 23 23 24 26 27 25 23 23 22 22 21 21 21 22 21 21 20 19 18 16 15 14 13 12 11 10 9 8 8 8 8 8 8 8 8 7 8 8 8 7 7
47 47 44 41 40 40 40 38 36 35 34 32 30 28 27 25 22 21 21 22 23 23 23 23 24 26 27 27 26 24 23 22 22 22 22 21 21 21 20 19 18 18 17 16 15 14 13 12 11 11 11 10 10 10 10 10 9 9 9 9 8 8 8
46 47 44 43 42 42 41 38 36 36 35 34 32 29 28 26 23 22 22 22 23 24 24 24 24 25 26 28 29 28 26 25 24 23 23 22 22 21 20 20 19 19 19 18 17 16 15 14 14 13 13 13 13 12 12 11 11 10 10 10 9 9 9
45 46 45 45 44 44 42 39 37 36 36 36 33 31 29 27 24 23 23 23 24 24 25 25 25 24 24 26 29 30 30 28 27 25 24 23 22 21 21 21 21 21 20 20 19 18 18 17 17 16 16 15 15 14 14 13 13 12 12 11 11 11 10
45 46 46 46 46 46 44 42 40 39 38 37 35 33 31 29 26 24 23 24 25 26 25 25 25 25 24 24 26 29 31 30 29 28 26 25 24 23 23 23 23 22 22 22 20 20 20 19 19 18 18 17 17 16 16 16 15 14 14 14 13 13 13
46 46 48 49 49 47 46 44 43 41 39 37 36 34 32 30 28 26 25 26 26 27 27 26 26 25 24 24 25 27 29 30 30 30 29 28 27 26 26 26 25 25 25 24 23 22 21 21 21 20 20 19 19 19 19 18 18 17 16 16 16 16 15
49 48 50 51 51 49 48 46 44 43 41 39 37 35 33 32 31 29 28 27 27 27 27 27 26 25 25 24 24 26 28 29 30 30 30 29 28 28 28 28 28 27 27 26 25 24 23 23 23 22 22 22 22 22 22 21 21 20 19 18 18 18 17
54 52 52 53 53 52 51 49 47 45 43 41 39 37 35 34 33 32 31 29 27 28 27 26 25 25 24 23 23 25 27 28 29 29 28 27 27 27 27 28 28 27 27 27 26 26 25 25 25 24 24 24 25 25 24 24 23 22 21 20 20 19 19
58 55 53 53 53 54 53 52 51 49 45 43 42 40 38 36 35 35 33 30 28 28 27 26 24 24 24 24 24 25 26 26 27 26 25 23 23 23 24 25 25 25 25 25 25 25 26 26 26 25 24 25 25 26 25 25 25 24 22 22 21 21 21
60 57 55 54 53 54 54 54 55 53 48 45 44 43 40 39 38 37 34 32 30 29 28 26 24 24 24 24 24 24 24 25 25 23 21 20 19 19 21 22 22 22 22 23 23 24 24 25 24 24 23 23 24 24 24 24 24 24 23 22 23 23 23
62 60 59 58 56 55 56 56 56 55 51 47 46 44 43 41 40 38 36 33 32 31 29 27 25 24 23 23 24 24 24 24 23 21 20 19 18 18 19 19 20 20 20 21 22 23 23 23 23 23 22 22 22 23 23 23 23 23 23 23 23 24 24
64 63 62 61 57 56 57 58 58 55 52 49 46 45 43 42 41 40 37 35 34 33 31 29 27 25 24 23 23 22 22 22 21 21 20 19 19 19 19 18 18 18 18 20 21 21 21 21 22 22 23 23 22 22 23 23 23 23 23 23 24 25 25
67 65 64 63 60 57 58 59 60 57 54 51 48 46 44 43 42 41 38 36 35 35 33 31 28 26 25 23 21 20 20 20 20 20 20 20 19 18 17 17 17 17 18 19 19 20 20 20 21 21 22 23 23 23 23 23 23 23 24 24 25 26 27
70 69 67 65 63 59 58 60 62 60 56 54 52 49 47 45 44 42 40 38 36 35 33 31 28 27 25 22 20 19 19 19 19 19 19 19 18 17 17 16 17 17 18 18 19 19 19 19 19 20 20 22 23 23 23 23 23 23 24 25 26 27 28
75 73 70 67 66 63 59 60 63 62 59 57 54 52 50 48 46 45 42 40 38 37 35 32 30 29 27 25 24 23 22 21 20 20 20 20 19 19 18 17 17 17 18 18 19 18 18 18 18 18 18 20 21 22 22 21 21 22 23 24 25 26 28
80 76 75 71 68 66 62 60 62 63 61 60 56 53 53 50 49 47 44 41 40 40 39 38 36 34 33 32 31 29 27 25 24 23 22 22 21 21 20 19 18 17 17 17 17 17 18 18 17 17 17 18 20 20 21 20 20 21 22 23 24 25 27
86 81 79 76 72 69 65 62 62 62 62 61 58 56 55 53 51 50 47 44 44 44 44 42 40 38 37 37 36 33 30 29 28 27 25 24 24 24 23 22 20 18 17 17 17 18 18 17 17 17 17 18 18 19 20 20 20 20 21 22 23 24 25
90 86 83 81 77 74 69 63 60 61 63 62 59 58 57 56 53 53 52 50 49 48 47 45 43 41 39 39 38 35 32 31 30 28 28 27 26 26 25 23 21 20 19 18 18 19 18 18 17 17 17 18 18 19 19 20 19 20 20 21 22 23 25
90 91 88 85 82 80 76 67 61 60 61 60 60 61 60 59 57 56 56 54 52 50 49 47 46 44 41 39 38 36 35 34 31 29 28 28 27 27 26 24 22 21 20 20 20 19 19 19 19 18 17 18 19 19 19 19 19 20 20 21 22 23 24
89 91 92 90 87 84 82 77 70 64 60 60 64 64 60 60 62 61 59 57 54 52 50 49 48 46 44 42 40 39 38 36 33 31 30 28 27 27 26 24 23 22 22 21 21 21 20 20 20 19 18 19 20 21 20 19 20 20 20 20 21 22 24
93 92 93 93 91 88 85 82 79 74 67 63 67 67 62 62 65 64 61 58 55 53 52 51 50 48 46 44 42 41 40 38 34 33 32 31 28 27 25 25 23 22 22 22 22 22 22 22 22 22 21 20 21 21 21 21 21 21 21 20 21 22 23
96 93 93 94 93 91 88 86 83 80 75 70 70 70 67 65 65 64 62 60 57 55 54 53 52 50 49 47 44 42 41 39 36 35 34 33 31 28 26 25 24 23 23 24 24 24 24 24 24 25 24 23 22 22 22 22 22 22 22 21 21 22 23
99 94 95 97 96 92 90 88 86 84 81 77 75 74 72 69 67 66 63 61 59 57 56 55 53 51 50 48 44 41 40 39 38 36 34 34 33 30 27 26 24 24 25 25 26 25 25 26 27 27 27 26 25 24 24 24 24 24 23 23 22 23 23
103 98 97 99 99 96 94 92 90 88 85 82 81 79 75 72 70 68 65 60 58 58 59 58 55 52 51 48 43 41 41 41 42 41 37 36 34 31 27 26 26 27 27 27 28 28 28 28 28 29 29 29 28 27 26 26 26 25 25 24 24 24 23
107 105 101 99 99 99 98 96 94 91 87 85 84 81 78 74 72 70 67 63 59 58 59 60 58 55 53 50 45 43 43 43 44 44 41 39 35 32 30 30 29 29 29 29 30 30 30 31 31 31 31 31 30 30 28 27 27 27 27 27 26 25 25
110 110 108 104 100 99 100 99 97 94 91 88 86 83 80 76 73 71 70 67 64 62 61 60 60 57 55 52 48 46 46 46 45 44 42 41 39 37 35 33 31 31 32 33 33 32 32 33 33 33 33 33 33 32 31 30 29 29 29 28 28 27 26
111 111 112 110 105 102 101 101 99 97 95 91 88 85 83 80 75 73 73 71 68 66 65 63 61 58 56 55 52 51 50 49 47 45 43 43 42 40 37 35 33 34 35 36 35 34 34 35 36 36 36 35 34 34 33 32 32 32 31 30 29 28 28
114 113 113 113 110 105 103 103 101 100 98 96 91 88 86 84 79 77 76 74 70 68 68 67 63 61 59 57 56 55 54 53 50 47 45 44 42 39 37 36 36 36 37 37 37 36 37 38 38 39 39 37 36 36 35 34 34 34 34 32 30 29 28
118 116 114 114 113 109 107 105 103 101 100 98 95 91 89 87 84 80 78 77 73 71 69 68 65 63 63 61 59 58 57 55 51 48 48 47 44 42 40 39 37 37 38 38 38 39 39 40 42 43 42 40 38 38 37 36 36 36 36 34 32 30 28
120 119 117 115 115 113 111 108 106 104 101 99 97 95 92 90 88 85 81 79 76 72 69 67 65 64 65 64 61 60 58 57 54 52 50 49 48 47 46 43 41 41 40 40 41 41 42 44 46 45 43 42 41 40 39 38 38 38 37 35 32 30 28
122 122 120 118 116 116 115 112 109 108 105 101 99 97 95 93 92 90 87 83 79 75 70 67 65 64 64 64 62 60 59 59 57 55 53 52 52 51 50 48 46 45 44 43 43 43 45 47 47 46 45 45 44 43 42 41 41 41 39 35 32 30 29
124 124 123 121 118 117 117 115 112 111 109 106 102 100 98 97 95 94 93 90 86 81 77 73 70 67 66 65 63 61 60 59 59 58 56 55 55 54 52 51 48 46 45 45 45 46 48 49 49 48 49 49 48 46 46 45 44 42 39 35 32 31 30
125 126 125 123 120 118 117 117 115 113 111 108 105 102 101 100 98 97 96 94 91 87 83 81 78 74 72 70 67 65 62 60 60 61 60 59 58 58 56 53 49 46 45 47 49 51 50 50 51 52 52 52 52 51 50 49 47 44 40 36 33 31 30
126 127 127 125 122 120 118 117 116 115 113 110 107 104 103 102 101 99 97 96 94 90 87 85 83 81 79 76 73 71 68 65 63 63 63 63 62 61 59 55 52 50 50 52 54 54 52 52 53 54 55 55 56 55 54 52 49 46 42 38 34 32 30
127 128 128 127 124 122 120 118 116 117 116 114 111 108 106 104 102 100 99 98 96 93 91 88 86 84 82 80 77 75 74 71 69 67 66 65 64 63 60 57 54 54 55 56 57 56 54 54 56 57 57 57 58 59 58 56 54 50 45 41 36 33 31

ECMWFFLT1_250_spd_063.txt.gz
Wind_Speed
32 32 31 31 31 32 32 32 31 30 30 29 27 24 23 22 20 19 18 19 21 23 24 26 28 30 31 32 33 33 32 31 29 26 24 21 18 16 16 16 14 12 11 10 8 7 6 5 4 3 1 1 2 3 4 5 5 6 6 7 7 8 8
33 31 31 30 31 33 34 33 32 32 31 31 29 26 23 22 21 20 20 21 23 23 23 25 27 28 29 29 30 31 32 32 30 28 26 23 20 19 18 18 17 15 13 11 10 9 8 6 5 4 3 1 1 2 3 4 4 5 6 6 7 8 8
32 31 31 31 33 35 36 35 34 33 32 31 29 27 24 23 22 22 22 22 24 25 24 24 26 28 29 29 28 28 30 31 30 29 26 24 21 20 20 20 19 17 15 13 12 11 9 8 7 6 5 4 3 3 3 4 5 5 6 6 7 7 8
33 32 32 32 33 35 36 36 36 36 34 32 30 28 26 25 24 24 23 23 24 25 25 24 25 28 29 29 27 27 28 28 28 28 26 25 23 22 22 21 20 19 17 16 14 13 11 10 10 9 8 7 6 5 5 6 6 6 7 7 7 8 8
34 33 33 34 36 37 38 37 38 39 37 33 30 30 29 28 26 25 24 24 25 25 25 24 25 27 29 29 27 26 26 27 27 27 27 27 26 24 24 22 21 20 19 18 16 14 13 12 12 11 10 9 8 8 7 7 7 8 8 8 8 9 9
38 35 35 37 38 39 40 39 39 40 39 36 32 31 31 30 27 25 25 25 26 26 26 26 26 27 29 30 29 27 26 27 27 28 28 28 27 26 25 23 23 22 21 19 18 16 15 14 13 13 12 11 11 10 9 9 9 9 9 9 9 10 10
41 39 38 39 40 41 41 41 41 41 41 38 34 32 33 32 29 27 26 26 27 27 27 27 26 25 27 30 30 29 28 28 28 28 29 29 28 27 26 25 25 24 22 21 19 17 16 15 15 14 14 14 13 12 12 11 10 10 10 10 10 10 10
45 44 41 41 42 43 43 44 43 43 42 40 38 36 35 33 31 29 28 27 28 28 28 27 26 24 25 29 31 30 29 28 29 29 30 29 29 28 27 26 26 25 24 22 20 19 17 17 17 16 16 16 15 15 14 13 12 12 12 12 12 11 11
49 47 44 42 42 43 45 46 45 44 43 42 40 39 36 34 33 31 28 27 28 29 28 27 26 25 25 27 31 32 31 30 29 30 30 30 30 29 28 27 26 26 25 23 21 20 19 18 18 18 17 17 17 17 16 15 14 14 14 14 13 13 12
54 50 46 43 42 43 44 46 45 45 44 43 42 41 38 35 34 32 29 29 29 29 29 28 27 26 25 27 29 32 33 33 32 31 31 31 30 30 29 28 27 27 25 24 23 21 21 20 19 19 19 19 19 19 19 18 17 17 17 16 15 14 13
58 54 49 46 44 43 43 45 45 45 44 43 42 42 39 36 35 34 32 31 30 30 30 28 27 27 26 25 26 29 33 34 33 33 32 31 30 30 29 29 28 27 26 25 24 23 22 22 21 21 21 21 21 21 21 19 18 18 18 17 16 15 14
61 58 54 50 47 45 44 45 45 44 43 43 42 41 39 37 36 35 34 32 31 30 30 29 28 27 26 25 25 28 30 32 33 33 32 31 30 29 29 29 28 28 27 26 25 24 23 22 22 21 21 22 23 22 21 20 18 18 17 16 15 15 14
64 62 59 54 50 48 47 46 46 44 43 43 42 41 38 36 35 36 34 33 32 31 30 28 28 27 26 26 26 27 28 30 31 30 29 29 30 29 29 29 28 28 27 26 25 25 24 22 21 20 21 22 22 21 20 19 18 17 16 16 15 15 14
66 65 63 59 53 50 49 49 49 48 46 45 44 43 40 37 36 36 35 34 32 31 30 28 27 26 26 26 26 26 27 28 28 26 25 25 26 28 29 28 28 27 26 26 25 24 23 21 19 19 20 20 20 19 19 18 17 17 16 16 16 16 15
68 66 66 64 58 53 52 52 51 50 49 49 48 46 44 41 40 39 37 35 34 32 31 29 27 26 25 26 26 26 26 26 26 25 24 24 24 26 27 27 26 25 24 25 24 22 20 19 18 18 18 18 17 17 17 17 17 16 16 16 17 17 16
71 69 68 67 64 58 54 54 53 52 52 52 51 49 47 45 44 43 41 38 36 35 32 31 29 27 26 26 26 26 26 26 27 27 26 26 27 27 27 26 25 24 24 23 22 20 19 18 18 18 18 17 16 16 16 16 15 15 16 16 16 16 16
75 72 70 69 68 64 58 56 55 54 53 54 53 51 49 47 46 46 44 41 40 38 35 33 32 30 28 27 27 27 28 29 29 29 28 28 28 28 27 26 25 24 23 23 22 21 20 19 19 19 17 16 15 15 15 14 13 14 15 15 15 15 15
78 76 73 72 71 69 64 59 57 56 55 55 54 53 51 50 49 48 46 44 42 41 38 36 35 33 31 29 29 29 30 30 29 30 29 28 27 26 25 25 24 24 24 24 23 22 21 20 19 18 17 16 16 15 13 12 12 13 14 14 14 14 14
80 78 76 75 74 72 70 64 60 58 57 56 56 55 54 52 52 50 48 47 45 43 42 40 39 37 35 32 32 31 31 30 30 30 30 29 28 26 25 25 25 25 24 23 21 21 20 20 18 17 16 16 15 13 11 10 11 12 12 12 12 12 13
83 81 80 79 77 75 73 70 64 61 59 58 57 57 56 55 54 53 51 49 48 46 45 44 43 42 40 38 36 35 33 32 31 31 30 30 29 27 27 27 26 24 22 20 20 20 20 18 16 15 15 15 14 12 11 10 10 10 11 12 12 12 12
84 84 83 83 80 78 76 75 71 65 61 59 59 59 58 57 56 56 54 52 51 50 48 47 46 45 43 42 41 39 37 36 35 33 32 31 30 29 28 26 24 22 20 19 20 20 18 16 15 15 15 14 12 12 12 10 9 10 11 12 12 12 13
87 87 86 86 83 81 79 79 76 69 64 62 60 60 60 60 59 58 57 55 54 53 52 50 49 47 45 44 43 42 41 40 38 36 34 32 31 30 28 26 24 22 20 19 19 19 17 16 16 15 14 13 12 13 13 11 10 11 11 12 12 13 14
90 90 89 87 86 84 82 82 80 74 68 65 63 61 61 62 62 61 60 58 57 56 55 54 52 50 47 45 45 44 43 42 40 38 36 34 33 32 30 27 25 23 22 21 20 19 18 17 16 15 14 14 15 16 15 13 12 12 13 13 14 14 15
92 92 91 89 88 87 86 84 83 79 73 68 66 65 64 64 64 64 62 61 60 59 58 56 55 53 50 48 46 45 44 42 41 39 38 36 35 34 32 29 27 25 24 23 22 21 19 18 18 17 17 17 18 18 17 15 15 15 15 15 15 16 16
95 95 94 92 90 90 89 87 85 83 78 71 67 66 64 63 63 65 65 64 64 62 60 58 57 55 54 51 49 48 46 44 43 42 40 39 37 35 33 32 29 27 26 25 25 23 22 20 20 20 19 19 19 19 19 18 18 18 18 17 17 18 19
97 97 96 94 93 92 92 91 88 86 83 78 72 67 64 61 61 65 67 67 67 66 63 61 60 59 57 55 52 50 48 46 45 44 42 41 40 37 35 33 31 29 29 28 27 26 24 23 23 22 21 20 20 21 21 21 20 20 20 19 19 20 21
99 100 99 97 95 95 95 94 92 90 87 85 80 74 69 65 63 65 68 68 67 67 66 63 63 62 60 57 54 52 50 50 49 47 45 43 42 40 38 36 33 32 32 30 28 28 27 26 25 24 23 23 22 23 23 23 22 21 21 21 21 22 22
102 101 101 100 98 97 97 96 95 93 91 89 86 79 74 71 69 69 72 70 67 67 68 66 65 64 62 59 56 53 53 53 53 51 48 46 45 42 40 39 37 35 34 32 30 29 29 28 27 26 26 25 25 26 25 24 23 22 22 22 22 23 24
105 104 103 103 101 99 98 98 97 96 94 93 90 84 79 76 75 76 77 75 69 67 68 68 67 66 63 60 57 55 54 54 54 52 49 48 47 44 43 41 40 38 37 34 32 30 29 29 29 28 28 28 29 28 27 25 24 24 24 23 24 24 25
109 107 105 105 103 101 101 101 99 98 97 96 94 89 84 81 77 76 78 77 72 68 69 69 69 68 66 63 60 58 57 56 56 54 51 50 49 47 45 44 43 40 38 36 34 32 30 30 31 31 30 31 32 31 29 27 25 25 25 24 25 26 27
112 110 108 107 106 104 104 104 102 99 98 99 98 94 90 86 80 76 77 79 76 71 69 70 69 68 68 66 63 61 59 59 58 56 54 52 51 50 48 47 46 43 40 37 37 35 34 33 33 33 33 33 34 33 31 29 27 26 26 26 26 27 28
114 113 112 110 108 107 107 107 105 101 98 99 101 98 94 90 85 79 78 81 80 75 70 70 70 69 69 69 67 64 62 61 60 59 56 55 54 53 51 49 48 47 44 41 39 39 38 36 35 35 34 34 35 35 32 29 28 27 27 27 27 28 30
116 115 115 114 112 111 110 110 107 103 99 99 102 102 99 95 91 85 81 82 83 79 73 71 72 71 71 71 69 67 65 63 62 61 59 57 56 55 54 52 50 49 47 45 43 42 42 40 38 36 35 35 36 35 32 30 30 30 30 30 29 28 29
118 117 117 117 116 114 113 112 108 105 102 100 102 105 104 99 96 93 87 85 86 84 78 75 74 74 72 72 70 68 66 64 63 63 62 60 58 57 56 53 51 49 49 48 47 46 45 42 39 36 36 36 37 35 33 32 32 33 34 34 31 29 29
120 119 118 120 119 118 116 113 110 108 106 103 102 105 106 104 100 98 93 89 88 87 84 80 78 76 75 74 71 69 68 67 66 66 65 64 61 59 58 55 52 50 50 50 49 48 46 43 41 39 38 38 39 38 36 35 35 37 37 35 33 31 31
122 121 120 121 122 121 119 116 113 111 110 108 104 104 107 107 104 101 97 93 90 88 86 85 83 80 78 76 73 71 70 69 68 68 68 67 64 62 60 58 55 53 51 51 51 50 48 46 45 43 41 40 41 41 40 38 38 39 39 38 38 37 37
124 123 123 122 123 123 122 119 116 114 113 112 109 105 105 107 106 103 100 96 92 89 87 88 87 84 81 79 76 73 72 71 70 69 68 68 67 65 63 61 59 56 54 53 52 51 50 49 48 46 43 41 42 43 42 40 40 40 41 41 40 40 42
125 125 125 124 124 124 125 123 120 117 116 116 114 109 105 105 106 104 102 101 97 93 90 90 89 87 84 82 79 76 75 74 73 71 69 69 69 67 66 64 61 58 57 56 55 53 52 52 51 48 45 43 44 44 43 42 43 44 44 43 40 39 42

ECMWFFLT1_250_spd_066.txt.gz
Wind_Speed
32 31 30 29 30 30 30 29 28 29 31 33 33 31 29 26 24 22 20 19 21 21 22 26 31 33 33 31 30 28 26 23 21 19 17 15 13 11 9 9 9 9 8 7 6 5 4 3 2 1 1 2 4 6 7 8 8 9 10 10 10 10 10
33 31 29 29 28 28 29 29 28 30 32 34 34 32 29 27 25 23 20 20 22 22 22 24 30 34 35 34 33 31 29 27 24 23 21 19 17 14 12 11 11 11 11 10 8 7 5 4 4 3 1 1 3 5 6 7 8 8 9 9 9 10 10
35 32 31 29 28 26 26 26 27 29 33 35 35 33 29 27 25 24 22 21 22 24 23 23 27 33 36 37 36 35 32 30 28 26 24 22 20 18 15 14 14 14 13 12 11 9 8 6 6 5 3 2 3 4 6 7 7 8 8 9 9 9 9
37 35 33 30 29 26 26 26 26 29 34 36 35 33 30 28 27 26 24 22 23 25 24 22 24 29 34 36 37 37 35 33 31 29 27 26 25 22 20 17 16 16 16 15 14 12 10 9 8 7 5 4 3 4 6 7 8 8 9 9 9 9 9
38 37 35 32 31 30 29 28 27 29 34 36 35 33 31 30 29 27 25 23 24 25 24 23 23 26 31 34 36 37 36 35 34 32 31 30 28 26 23 20 18 18 18 18 17 15 13 11 10 9 7 5 4 4 6 7 8 8 9 9 9 9 9
40 40 38 35 34 34 31 28 27 28 32 36 36 33 32 32 31 28 25 24 24 26 26 25 25 25 28 31 34 35 35 34 33 33 33 32 31 29 26 23 21 21 20 20 19 18 16 14 12 10 8 6 5 5 6 7 7 8 8 9 9 10 10
43 42 40 38 36 35 32 28 26 27 30 34 35 34 34 34 32 29 27 25 25 27 28 27 25 24 25 28 32 34 34 32 31 32 32 33 32 30 28 25 24 23 22 21 20 19 18 16 14 11 10 8 7 7 7 8 8 8 8 9 10 11 11
46 44 42 40 38 36 33 29 27 27 30 33 35 36 35 34 32 31 29 27 27 28 29 28 26 24 24 26 29 32 33 31 30 31 32 33 32 31 29 27 26 25 24 23 22 20 19 18 16 14 12 10 9 9 9 9 9 9 9 10 11 12 12
50 47 45 43 41 38 35 32 30 30 32 33 33 35 35 34 32 30 28 27 27 28 29 28 27 25 24 25 27 30 32 32 31 30 32 33 33 32 31 29 27 26 25 24 23 22 21 20 18 16 14 13 11 11 11 11 11 11 11 12 13 13 14
53 51 49 46 44 42 39 36 33 32 34 35 34 34 35 34 32 29 28 28 29 29 29 29 27 25 25 25 27 29 32 33 32 31 31 32 32 32 31 30 29 27 26 25 24 23 22 21 20 18 16 15 14 13 13 13 13 13 13 13 13 14 14
57 55 53 50 48 45 42 39 36 34 35 37 38 36 35 35 33 30 29 29 30 30 30 30 28 26 25 25 26 28 31 33 33 33 32 31 31 32 31 30 29 28 27 26 25 24 23 22 21 20 18 17 17 16 16 16 15 15 14 14 14 14 14
61 59 57 54 51 49 46 43 40 37 37 38 40 39 37 36 35 33 32 32 31 30 31 31 29 26 24 25 26 28 30 32 34 34 32 31 31 31 31 30 29 28 27 27 26 25 24 23 22 21 20 19 19 19 18 18 17 16 15 14 13 13 13
65 63 60 58 55 52 50 47 43 40 39 40 41 42 40 39 38 37 36 35 33 32 31 31 30 28 25 24 26 27 28 30 31 32 32 31 30 30 30 31 30 29 28 27 26 26 24 23 22 21 21 21 21 20 19 18 17 16 15 14 13 12 12
68 66 64 61 59 56 53 51 48 44 42 41 42 43 43 41 41 40 39 37 35 34 33 32 31 30 27 25 26 27 28 28 28 28 29 30 30 30 31 31 31 30 29 28 27 26 25 23 22 21 22 22 22 20 19 18 16 14 14 13 13 12 12
71 69 68 65 63 60 57 55 52 49 45 43 43 44 45 44 43 42 41 39 37 37 36 34 33 32 30 28 27 27 27 27 26 25 26 28 30 31 32 31 31 30 29 29 28 27 25 24 22 22 23 23 22 20 19 16 14 13 13 12 13 13 13
74 72 71 69 67 64 61 58 56 53 50 47 44 45 46 47 46 44 43 41 39 39 38 36 34 34 33 31 29 28 27 27 26 25 25 26 29 31 33 32 32 31 31 31 30 28 26 25 23 23 23 23 22 20 19 16 14 12 12 12 13 13 13
77 75 74 72 70 68 65 62 59 57 54 51 47 46 47 48 48 47 45 43 40 39 39 38 37 36 36 34 31 29 28 28 27 27 26 27 28 30 32 32 32 32 32 31 30 28 26 25 24 24 23 22 21 20 19 16 14 13 13 13 13 13 13
79 78 77 75 74 71 69 66 63 60 58 55 51 48 48 49 50 49 48 46 42 40 40 41 40 39 38 36 32 30 30 30 30 29 29 29 29 29 30 31 31 31 31 31 29 28 26 26 25 24 23 22 21 19 17 15 13 13 14 13 13 13 12
81 80 79 78 77 75 72 70 67 64 61 58 54 51 50 50 51 51 50 48 45 42 42 42 42 41 40 37 33 31 31 32 32 32 32 31 31 30 30 30 31 31 30 30 29 28 27 27 26 24 22 21 19 17 15 13 13 14 14 13 12 12 11
84 83 82 81 79 78 76 74 71 68 64 61 57 54 52 52 52 52 51 50 48 45 44 44 43 42 41 39 36 34 33 34 34 34 33 32 31 30 30 31 32 31 31 30 29 29 28 27 25 22 21 19 18 15 13 12 12 13 13 12 11 10 10
86 85 84 83 82 81 79 77 74 72 68 64 60 57 55 54 54 54 53 52 51 48 46 45 44 43 42 41 39 37 36 36 36 35 34 33 31 30 31 31 31 31 31 30 30 29 27 25 23 21 20 18 16 15 14 12 11 12 12 11 10 10 11
88 87 86 85 84 83 82 80 78 75 72 68 64 61 58 56 56 56 55 54 53 50 46 45 45 45 44 43 42 41 39 38 37 37 36 34 33 32 32 32 31 30 29 29 28 27 26 25 24 21 19 17 17 17 16 13 11 12 12 11 10 11 12
90 89 87 86 86 85 84 83 81 79 76 73 68 64 62 60 58 58 57 57 55 51 48 48 49 48 47 46 45 44 42 40 39 38 37 36 36 35 35 33 31 29 28 27 27 26 26 25 24 21 19 19 19 19 18 15 13 13 13 12 12 12 13
91 90 89 88 87 87 87 85 84 82 80 77 73 68 65 63 61 60 59 59 58 55 54 54 52 51 50 49 47 47 45 43 42 40 39 38 38 38 36 34 32 29 28 27 27 27 26 26 24 22 21 21 21 21 20 18 15 15 14 14 13 13 14
92 92 90 89 89 89 88 87 86 85 83 81 78 74 69 66 65 63 62 61 61 60 60 57 53 53 53 52 50 49 48 46 44 43 41 40 40 39 36 34 31 29 29 29 29 29 28 26 25 24 23 23 23 22 22 20 17 16 16 15 14 14 15
94 93 92 91 90 90 90 89 88 88 86 84 82 79 74 70 68 66 65 63 62 63 64 62 57 54 54 54 54 52 50 48 47 46 45 43 42 40 38 35 33 31 30 30 30 29 28 28 27 27 26 25 25 24 24 22 19 18 18 17 15 16 16
96 95 94 93 92 91 91 91 90 90 89 88 85 84 80 75 71 69 68 66 65 65 67 67 63 58 56 55 55 54 51 49 48 48 48 47 45 42 40 39 37 34 32 31 29 28 28 28 28 28 27 27 27 27 26 24 21 19 19 18 17 16 16
100 97 96 94 94 93 92 93 93 92 92 90 88 87 85 80 75 72 70 69 68 68 68 69 67 64 61 58 55 53 50 47 47 48 50 50 48 46 44 42 40 38 36 33 31 30 29 29 28 27 27 28 28 28 28 25 22 20 19 19 18 17 18
104 101 99 97 96 95 94 94 94 94 94 93 91 89 88 85 81 76 74 72 72 70 69 69 69 68 66 63 59 54 48 46 49 53 55 54 52 50 48 46 43 41 40 37 34 32 31 31 29 28 28 28 29 29 27 25 22 20 19 19 18 18 19
108 105 103 100 98 96 96 95 96 96 95 94 93 91 90 88 85 81 78 76 75 73 70 69 69 70 69 67 64 59 54 53 56 59 60 59 57 54 52 49 47 45 43 40 38 36 35 34 32 31 30 30 30 30 28 25 22 21 20 19 19 19 20
111 109 107 104 101 99 97 97 97 97 97 96 95 94 92 91 89 86 83 79 77 75 72 70 69 70 71 70 67 63 60 58 60 61 62 61 59 56 54 52 49 47 46 44 41 39 38 37 35 34 34 33 32 32 29 26 24 23 22 22 21 21 21
115 112 110 108 105 102 100 99 99 99 99 98 97 96 95 94 92 90 87 84 80 77 75 72 70 71 73 74 72 69 65 61 61 62 62 61 60 58 57 54 51 49 48 46 44 42 42 40 38 38 37 36 35 34 30 27 26 26 26 25 24 23 21
118 116 113 111 109 106 104 102 101 101 101 100 99 98 97 96 95 93 91 88 85 81 78 76 75 74 75 77 76 74 70 66 64 63 62 61 61 61 60 57 54 51 49 48 47 46 44 43 41 40 40 40 39 36 32 29 29 29 29 28 26 24 22
120 118 116 113 111 109 107 105 104 102 102 102 102 100 99 98 97 96 94 92 89 86 82 81 81 81 80 78 79 78 76 71 68 67 65 62 62 63 62 59 56 54 53 52 51 49 47 46 44 43 43 43 41 39 36 33 32 32 31 29 26 24 24
123 121 119 116 114 112 110 109 108 105 104 104 104 103 101 100 99 98 97 95 93 90 87 84 84 86 85 82 80 80 80 78 73 70 68 66 64 64 64 62 59 57 55 54 53 52 50 48 46 45 46 45 43 41 39 36 36 35 32 28 26 27 27
125 123 121 119 117 114 112 112 112 110 107 106 106 105 104 103 101 100 99 98 96 94 91 88 87 87 88 85 81 80 82 82 80 75 71 68 67 66 65 63 61 58 56 56 55 54 53 51 49 48 49 48 46 44 41 40 40 38 34 31 29 28 28
126 126 124 122 120 117 114 114 114 113 111 109 108 107 106 105 104 103 102 100 99 97 95 93 91 89 88 86 82 79 80 82 83 80 75 71 70 69 68 65 62 60 58 58 57 56 55 54 52 51 51 51 50 48 45 44 44 42 39 36 33 31 30
126 127 126 125 123 120 117 116 116 116 115 113 111 109 108 107 107 105 104 103 102 100 99 97 95 93 91 88 84 81 80 82 82 82 79 76 73 72 70 67 64 62 62 61 60 59 58 56 55 53 53 52 52 50 48 47 46 44 42 40 38 36 34

ECMWFFLT1_250_spd_069.txt.gz
Wind_Speed
41 39 37 35 33 30 28 25 22 21 23 25 26 27 28 27 27 26 24 23 22 20 19 21 23 25 27 27 27 25 22 20 18 16 14 13 11 10 8 7 7 7 7 6 5 4 3 2 3 3 4 4 5 6 7 9 10 10 11 11 11 11 11
40 38 36 35 33 30 29 27 25 23 22 24 26 27 27 27 26 26 24 24 23 21 20 21 24 26 28 29 29 28 26 24 22 19 17 16 14 13 11 10 9 9 9 8 7 6 4 2 2 2 3 3 4 5 6 8 9 9 9 10 10 10 10
40 37 35 33 32 31 30 29 27 25 24 24 25 25 26 26 27 26 25 24 24 22 21 21 23 26 29 30 31 31 29 27 25 23 20 19 18 17 15 14 13 11 10 10 10 8 6 4 2 1 1 1 3 4 5 6 7 8 8 9 9 9 9
40 38 36 33 31 31 30 29 28 27 25 25 25 24 25 27 28 28 26 25 25 23 22 22 23 26 28 30 32 32 32 31 28 26 24 23 22 20 19 18 16 14 13 13 12 11 8 6 4 2 1 1 2 3 4 5 6 7 7 8 8 8 8
42 40 38 35 33 31 30 29 27 25 24 24 24 23 24 28 30 29 27 26 25 24 22 22 24 26 27 30 32 33 33 33 32 30 28 27 26 24 23 21 19 17 16 15 14 13 11 8 6 4 3 2 2 2 3 4 5 6 6 7 8 8 9
43 41 39 36 35 33 30 28 26 25 23 22 23 24 25 29 30 29 27 25 24 23 23 23 24 25 25 28 31 33 34 34 34 33 32 31 30 28 26 24 22 21 19 17 16 15 13 10 8 6 4 3 3 3 4 4 5 6 6 6 7 9 10
45 43 41 38 37 35 32 29 27 25 23 23 24 26 28 30 30 29 26 23 22 23 23 23 23 24 24 25 27 31 33 34 35 34 34 33 32 31 29 28 26 24 22 20 18 16 14 13 10 8 6 5 4 4 4 5 5 6 6 7 8 9 10
48 45 43 40 38 37 34 31 29 27 25 24 25 28 30 33 32 28 24 22 21 22 22 23 24 23 23 24 24 26 29 32 35 35 34 34 33 32 31 30 28 26 24 22 19 17 16 15 13 10 9 8 7 6 5 5 6 7 7 8 9 10 10
50 48 46 43 41 39 36 34 32 29 27 26 26 28 32 34 33 29 24 22 23 23 22 24 25 24 24 24 23 24 26 29 33 35 35 34 33 32 31 30 29 28 25 23 21 19 18 16 15 13 11 10 9 8 7 7 7 8 8 9 10 11 11
53 51 49 47 44 41 39 37 34 32 29 27 27 29 33 36 35 33 30 30 30 28 26 26 26 25 25 25 24 24 25 27 30 33 34 34 32 31 31 30 29 28 26 25 23 21 19 18 17 15 13 12 11 10 10 9 9 9 9 10 11 11 12
57 54 52 50 47 45 42 40 37 34 32 30 28 29 33 37 38 38 37 36 35 34 32 29 28 27 26 26 26 26 26 26 28 30 32 32 32 30 30 29 29 28 27 26 24 22 21 20 18 17 16 14 13 13 12 12 11 11 11 12 12 12 12
61 58 55 53 51 48 45 43 41 38 35 33 31 30 34 38 41 41 40 37 35 35 34 30 28 28 28 27 28 28 27 27 27 28 28 30 31 30 29 28 28 28 27 27 25 24 23 21 19 18 17 16 16 15 14 14 14 13 13 12 12 12 13
65 62 59 56 54 52 49 47 44 42 39 37 34 32 34 38 42 43 42 38 36 36 35 31 29 30 30 29 29 29 29 28 28 27 26 27 29 30 29 28 28 27 27 27 26 26 24 22 20 18 18 18 17 16 16 15 15 14 13 13 13 13 13
68 66 63 60 58 55 53 50 48 46 43 40 38 36 35 38 42 44 44 41 38 37 36 34 33 33 34 32 30 30 30 29 28 26 25 26 28 30 30 29 28 27 26 26 27 26 25 22 20 19 19 19 17 17 16 16 15 15 14 13 13 13 14
71 69 67 64 61 59 56 54 51 49 47 44 41 39 38 39 41 44 46 44 41 39 37 36 36 36 36 35 33 32 31 30 28 27 26 25 27 30 31 30 28 27 26 27 26 26 25 23 22 21 21 20 18 18 18 17 16 15 14 13 13 14 14
74 72 70 67 65 63 60 57 55 52 50 47 45 43 41 41 41 44 46 46 44 41 39 38 38 39 38 37 35 32 31 30 29 28 27 27 28 30 31 30 29 28 28 27 26 26 25 25 23 23 22 21 20 20 19 18 17 16 15 14 14 15 15
76 75 73 70 68 66 64 61 58 56 54 51 48 46 44 43 43 44 46 47 47 45 41 39 39 40 39 38 36 33 31 30 30 29 29 29 29 29 30 31 30 30 29 28 27 27 26 26 25 24 23 23 22 22 21 19 18 17 16 16 16 16 16
79 77 75 73 71 69 67 64 62 60 57 55 52 50 48 47 46 45 45 47 48 47 44 42 41 41 40 39 37 35 33 32 31 30 30 30 29 30 30 31 31 31 31 31 30 28 28 27 27 26 25 24 24 24 22 20 18 17 17 17 16 17 16
82 80 78 76 74 72 70 68 66 63 61 59 56 53 51 50 49 47 46 47 48 49 47 45 44 43 41 39 38 37 36 34 32 31 31 31 31 30 30 31 31 32 33 33 31 30 30 30 29 27 26 25 25 24 23 21 19 19 18 17 17 17 16
85 83 81 79 78 76 73 71 69 67 65 63 60 57 55 53 51 50 48 47 48 50 49 47 46 45 43 41 40 39 38 35 33 32 32 33 33 32 32 32 33 33 33 33 32 32 32 32 30 28 27 26 25 24 24 23 21 20 19 18 17 16 15
87 85 84 82 81 79 77 75 72 71 69 66 64 62 59 56 54 53 51 49 49 50 51 50 48 47 45 43 41 41 40 38 36 34 34 34 34 34 34 35 34 34 33 33 32 33 32 31 30 29 27 26 25 24 25 24 22 20 19 18 17 16 15
89 88 86 85 83 82 80 78 76 74 72 70 68 66 63 60 57 56 54 52 51 51 51 51 51 49 47 45 43 42 42 40 38 36 35 35 35 35 36 36 36 35 34 33 32 32 32 31 31 30 28 27 26 26 26 25 22 20 19 19 17 16 15
91 89 88 87 86 84 83 81 79 77 75 73 71 69 67 64 61 59 57 55 54 53 52 53 53 51 49 48 45 44 43 43 41 38 36 36 36 37 37 37 36 35 33 33 32 31 31 31 31 30 29 28 28 28 28 25 22 20 19 19 18 17 17
93 92 90 89 88 87 85 83 81 80 78 76 74 72 71 69 66 63 60 58 57 55 54 54 54 53 52 51 49 46 45 45 43 41 38 36 37 38 37 36 35 34 33 32 32 31 31 31 30 30 30 30 30 29 27 24 21 20 20 19 18 18 17
95 94 93 91 90 89 88 86 84 82 81 79 77 76 74 72 70 67 64 61 59 58 56 55 56 56 55 53 51 49 47 46 45 43 40 38 37 37 37 35 34 33 32 32 32 32 31 30 30 30 30 30 30 28 27 24 22 21 21 20 19 18 18
97 96 94 93 92 91 90 89 87 85 83 82 80 79 77 75 74 71 68 65 62 61 60 58 58 57 57 55 54 52 49 47 47 45 42 39 37 36 35 34 34 33 32 32 32 32 31 31 30 30 30 29 28 28 27 25 23 22 22 20 19 19 19
99 97 96 95 94 93 92 91 90 88 86 84 83 81 80 78 77 75 73 70 66 64 63 61 60 59 59 58 56 54 53 50 48 47 44 39 35 33 33 33 34 34 34 33 32 32 32 31 31 31 30 29 29 28 28 27 24 23 22 21 20 20 20
101 100 98 97 96 95 94 94 92 91 89 87 85 84 82 80 79 77 76 74 71 68 66 65 63 62 62 60 57 55 54 53 50 48 44 39 35 35 36 37 40 41 38 36 34 34 33 33 33 33 33 32 31 31 31 29 26 24 23 23 22 21 21
105 103 101 99 97 96 95 95 95 93 92 90 88 86 85 83 81 80 78 77 75 73 70 68 66 65 64 63 61 58 55 55 53 51 47 44 44 46 47 47 48 47 43 40 38 37 36 36 35 35 35 34 33 33 32 30 27 24 23 23 23 23 22
109 107 105 102 100 98 96 96 96 95 94 93 91 89 88 86 84 82 81 80 78 76 74 71 69 67 66 66 65 62 59 56 55 54 52 51 52 52 53 53 52 49 46 44 42 40 39 38 37 37 36 36 35 35 34 32 29 26 24 24 24 24 23
113 111 109 107 104 101 99 97 97 96 96 95 93 92 90 89 87 85 83 82 80 79 78 75 73 71 69 68 67 66 63 60 58 57 56 56 56 54 53 54 53 50 49 47 45 44 43 41 39 39 38 37 37 37 36 33 30 28 26 26 25 25 24
117 115 113 111 108 106 102 100 98 98 97 96 95 94 93 91 90 89 87 85 83 81 80 78 76 74 72 71 69 68 67 65 62 61 60 60 59 57 55 54 54 52 51 50 48 47 46 44 43 42 41 40 39 39 37 34 31 30 29 28 27 27 25
120 119 117 115 112 110 107 103 101 100 99 98 97 96 95 94 93 92 90 88 86 84 82 81 80 78 76 74 72 70 70 68 67 66 65 62 61 61 58 56 56 55 53 52 51 51 50 48 46 45 44 43 41 40 38 34 32 31 31 30 30 29 25
123 121 120 118 116 114 111 108 105 103 102 100 99 98 97 96 96 95 94 91 89 87 85 83 82 81 79 77 75 73 72 71 71 71 70 66 63 63 62 60 59 58 56 54 54 53 52 51 50 48 47 45 43 41 39 36 34 34 34 33 31 28 25
124 123 122 121 119 117 115 112 109 107 105 103 102 100 98 98 98 98 97 95 93 90 89 87 85 83 82 80 78 76 75 74 74 74 74 72 67 65 64 63 62 61 59 57 56 55 54 54 53 51 50 48 46 43 41 39 38 38 36 34 33 31 29
125 125 124 124 122 121 118 116 114 111 109 107 105 103 100 99 100 100 99 98 96 94 92 90 88 86 84 83 82 80 78 77 77 77 77 77 73 70 67 66 64 63 62 60 59 57 56 56 55 55 54 52 50 48 45 44 43 42 39 38 37 36 34
126 126 125 125 125 123 121 119 117 115 113 111 109 107 104 101 101 101 101 100 99 97 95 94 92 90 87 86 86 85 82 80 80 80 80 80 79 76 73 70 67 65 64 63 62 60 59 59 59 58 57 55 53 52 50 49 48 46 43 41 40 39 38
125 126 126 126 126 126 124 123 121 118 116 115 113 111 107 104 103 103 103 102 101 100 98 97 96 94 91 89 88 88 86 84 83 82 82 82 82 81 79 75 72 70 68 66 64 62 61 61 61 61 59 58 56 55 54 53 52 49 46 44 43 42 41

ECMWFFLT1_250_spd_072.txt.gz
Wind_Speed
46 45 44 42 39 37 35 35 33 30 28 27 26 25 24 23 24 25 26 26 26 24 23 22 21 21 23 24 25 24 23 20 18 16 14 12 9 8 7 5 4 3 3 2 1 0 1 3 5 5 5 5 5 6 7 9 9 9 9 10 10 10 11
47 46 45 43 41 39 35 32 31 30 29 29 28 27 27 25 24 25 26 27 27 25 24 23 23 22 23 25 26 26 25 23 21 19 16 14 12 10 8 6 5 4 3 3 2 1 0 1 3 4 4 4 4 5 6 7 8 8 8 9 9 9 9
49 47 46 44 42 40 36 32 30 29 29 28 28 28 28 27 25 24 26 27 27 26 24 24 23 23 24 24 26 27 27 26 24 21 19 17 15 13 11 8 7 5 5 5 4 3 2 1 1 2 3 3 3 3 4 5 6 7 7 8 8 8 9
50 48 46 44 42 39 37 35 32 30 28 28 28 29 29 28 26 25 27 29 28 27 25 24 24 24 23 24 25 27 28 28 26 24 22 20 19 17 14 11 9 8 7 8 7 5 4 3 2 2 2 2 2 2 3 4 5 6 7 7 8 8 9
51 49 46 44 42 39 37 35 33 30 29 30 30 29 29 29 28 27 29 30 30 28 26 25 25 24 23 24 25 26 27 29 28 27 25 24 22 19 17 15 12 11 10 10 9 8 6 5 4 4 3 3 2 2 1 2 3 4 5 5 6 7 8
52 49 46 44 42 40 38 36 33 32 31 32 31 29 29 30 29 29 29 30 30 28 27 26 25 25 24 23 24 26 27 28 29 29 28 27 25 22 20 18 16 15 13 12 12 11 9 7 6 6 5 4 4 4 2 1 0 1 2 3 4 5 7
52 49 47 45 43 41 39 36 34 33 32 32 31 30 30 29 29 29 29 30 30 29 28 27 26 25 24 24 24 25 27 28 29 30 30 29 28 25 23 21 20 18 17 16 14 14 12 11 9 8 7 6 5 5 4 3 2 2 1 2 3 4 5
53 50 48 46 44 42 40 37 35 34 33 33 32 31 30 30 29 30 30 32 34 34 32 30 28 27 26 25 25 25 26 29 30 31 31 31 30 28 26 24 22 21 20 19 17 16 15 14 12 10 10 9 8 7 6 6 5 5 4 4 4 5 6
55 52 49 47 45 43 40 38 36 35 34 34 33 33 32 30 31 33 34 35 36 35 34 32 31 30 29 28 27 27 27 30 32 33 33 33 32 31 29 27 25 24 22 21 20 19 18 17 15 13 12 11 10 9 8 8 8 7 7 7 7 7 7
56 54 51 49 47 44 42 39 37 36 35 35 35 35 33 31 31 35 36 36 35 34 32 30 30 29 28 27 27 28 28 30 32 34 35 35 34 33 32 30 29 27 25 23 22 21 20 19 18 16 14 13 12 11 11 10 9 9 9 9 9 9 9
59 56 54 51 49 46 43 41 39 38 37 36 36 36 34 32 32 36 38 38 37 34 31 29 28 28 27 27 27 28 29 29 30 32 33 35 35 35 34 33 32 30 28 26 25 24 23 21 20 18 16 14 14 13 13 12 11 11 11 11 11 11 11
61 59 57 54 51 49 46 44 42 40 39 38 37 36 35 33 33 37 41 41 39 37 34 32 31 29 28 28 28 29 30 29 30 30 30 31 32 33 34 34 33 32 31 29 27 26 24 23 22 20 18 17 16 15 15 14 13 12 11 11 12 12 12
64 62 60 57 55 52 49 47 45 43 42 41 39 38 36 35 34 37 42 44 42 40 38 36 34 32 30 30 30 30 31 30 30 30 29 29 29 30 31 32 32 32 31 30 28 27 25 24 23 21 20 19 18 17 17 15 14 13 12 11 12 13 14
66 64 62 60 58 55 53 50 48 46 45 43 42 40 38 37 36 37 41 44 44 43 41 39 37 34 32 31 31 31 30 30 29 29 29 29 28 28 29 29 30 30 30 29 28 27 25 25 23 23 22 21 20 19 18 16 15 13 12 11 12 13 14
69 67 65 63 60 58 56 53 51 49 47 46 44 43 41 39 38 37 40 44 46 46 44 41 38 36 34 34 34 32 30 29 28 28 28 29 29 29 29 29 29 29 29 29 28 27 26 25 24 24 23 22 21 20 19 17 16 14 12 12 12 13 13
72 70 68 66 63 61 59 57 54 52 50 48 47 46 44 42 41 39 40 43 48 49 47 44 41 38 37 37 36 34 32 30 30 29 29 29 29 29 29 29 29 29 30 30 28 27 26 26 26 25 25 24 23 22 21 19 17 15 14 13 13 13 14
75 73 72 70 67 65 62 60 58 56 54 51 49 48 47 45 44 42 40 42 48 51 50 46 43 40 39 38 37 35 34 34 32 30 29 29 29 29 29 29 29 29 30 30 29 28 27 27 27 27 26 25 24 23 22 20 18 16 15 14 14 14 14
79 77 75 74 72 69 66 63 61 59 57 55 53 51 50 48 47 45 43 42 46 52 53 49 46 42 40 38 38 37 36 36 34 32 30 30 30 30 30 29 29 29 30 30 30 28 27 28 28 27 26 26 25 25 24 22 19 18 17 16 15 15 15
83 81 79 78 75 72 70 67 64 63 61 59 57 55 53 51 49 48 46 44 44 49 54 53 49 45 42 39 38 38 38 37 36 35 32 31 30 30 30 30 30 30 31 31 30 29 28 29 29 28 27 27 27 27 26 24 21 20 19 18 17 17 16
86 84 82 81 79 76 74 70 68 66 64 63 61 59 57 55 53 51 49 47 45 47 52 55 53 48 45 42 39 38 39 38 38 37 35 32 30 30 30 31 32 32 31 31 31 31 31 31 30 29 28 28 28 27 27 25 23 22 21 20 19 18 18
89 87 85 83 82 80 77 74 71 69 67 66 65 63 61 59 57 54 52 51 49 47 49 54 56 53 48 46 44 42 40 40 39 38 36 33 31 31 31 32 32 32 31 31 32 32 32 32 31 31 30 29 29 28 28 27 25 23 22 22 21 20 20
91 89 88 86 84 83 80 78 75 73 71 70 68 67 65 63 61 58 56 54 53 51 49 51 55 55 53 51 48 46 44 42 41 39 37 34 32 31 31 31 31 31 30 30 31 32 32 32 32 32 31 30 29 28 29 29 26 24 23 23 22 21 22
93 92 90 89 87 85 83 81 78 76 74 73 72 70 68 67 65 63 60 58 56 55 52 51 52 54 55 54 52 49 46 45 43 41 39 35 33 32 31 30 29 29 29 29 30 30 31 31 31 31 30 30 30 30 30 29 28 26 25 23 22 22 23
95 94 93 91 90 88 86 84 82 79 78 76 75 73 71 70 69 67 65 63 60 58 56 54 53 53 54 56 55 53 50 46 44 43 42 38 35 33 30 27 25 24 26 27 29 30 31 31 30 30 30 30 30 31 31 30 28 26 25 24 22 22 24
97 96 95 94 92 91 89 87 85 82 81 79 77 76 75 73 72 71 69 67 65 62 60 58 56 54 53 54 56 56 54 50 47 46 45 42 38 34 31 29 29 28 27 27 28 30 31 32 32 32 31 31 31 31 30 29 28 26 25 23 22 23 24
99 98 97 96 94 93 91 89 87 85 83 81 80 79 77 76 75 74 72 71 69 66 63 61 59 57 55 55 56 57 56 55 53 50 48 46 42 36 32 33 35 37 37 36 36 35 34 33 34 35 33 32 32 31 31 29 27 26 25 23 23 24 25
100 100 99 98 96 95 93 92 90 88 86 84 82 81 80 78 77 76 75 74 72 70 68 65 63 61 59 58 57 56 56 56 56 54 52 49 45 39 38 40 43 46 48 47 45 42 38 36 36 35 34 34 33 32 31 30 28 27 26 24 24 26 26
103 102 101 100 99 97 96 94 92 91 89 87 85 83 82 81 80 78 77 76 75 73 71 69 66 65 63 61 59 57 56 56 57 57 55 53 49 45 45 48 52 53 52 50 46 42 39 38 37 36 35 35 35 34 32 31 29 28 27 27 27 27 28
105 104 103 102 101 100 98 97 95 93 91 90 88 86 84 83 82 81 79 78 77 76 74 72 70 68 67 65 63 60 58 57 58 59 59 57 54 51 49 50 53 53 51 49 47 44 41 38 36 36 35 35 34 34 33 32 31 30 29 29 29 29 30
108 107 106 105 104 102 100 99 98 96 95 93 91 89 87 85 84 83 82 81 79 78 77 75 73 71 70 68 66 64 61 59 58 60 61 60 59 56 53 52 53 53 51 50 49 48 47 44 40 38 37 36 34 34 33 32 32 31 30 30 30 30 31
112 111 109 108 106 105 103 102 100 99 98 96 94 92 90 88 86 85 84 83 82 80 80 78 76 75 73 71 69 67 65 63 60 60 61 62 62 60 57 55 54 53 53 53 52 50 51 50 45 42 40 38 36 35 34 33 32 31 30 31 31 31 31
116 114 113 111 110 108 107 105 103 102 101 99 97 95 93 91 89 88 86 85 84 83 82 81 79 78 76 74 72 70 69 67 64 62 61 63 64 62 60 58 57 55 54 55 54 52 51 50 47 44 41 39 38 37 35 33 31 31 32 32 32 32 32
118 118 116 115 114 112 110 109 107 105 104 103 101 99 96 94 92 91 89 88 87 85 84 83 82 81 79 77 76 74 72 70 68 65 63 62 64 65 63 61 60 58 56 56 56 55 53 50 47 43 39 38 37 37 36 35 35 35 34 33 34 34 33
120 120 119 118 117 116 114 112 111 109 108 106 104 102 100 97 95 94 92 91 89 88 87 86 85 84 83 81 79 78 75 73 72 69 66 64 64 66 66 64 62 61 59 58 57 56 55 52 47 43 43 42 40 39 40 41 41 40 37 34 35 36 35
121 121 121 120 120 119 118 116 115 113 111 110 108 106 103 101 99 97 95 94 92 91 89 88 88 87 86 84 83 81 79 77 75 73 71 67 66 67 68 67 65 64 63 61 59 58 57 55 51 50 52 52 49 47 47 48 47 45 41 37 36 37 38
123 122 122 122 121 121 121 120 119 117 115 114 112 110 107 104 102 101 99 97 95 94 92 91 90 89 89 87 86 84 83 81 79 77 75 72 69 69 70 69 68 67 66 64 61 60 60 58 56 56 56 56 55 54 53 52 52 50 46 43 41 41 43
125 124 124 123 123 122 122 122 121 120 119 118 116 114 111 108 106 104 102 100 98 96 95 94 93 92 91 90 89 88 86 85 82 80 78 77 74 72 72 72 71 69 69 67 65 63 62 62 61 60 58 58 58 58 56 55 54 52 49 46 45 44 45
126 126 125 125 124 124 123 123 123 122 122 121 120 118 116 113 110 108 106 104 102 100 98 97 96 95 94 93 92 91 89 88 86 84 82 81 78 76 75 75 74 73 71 70 67 66 65 65 65 63 61 60 60 60 58 56 56 54 51 49 46 45 45

ECMWFFLT1_250_spd_075.txt.gz
Wind_Speed
48 44 43 43 43 43 42 37 34 31 27 24 24 23 22 22 21 20 18 17 19 20 18 17 17 18 18 16 17 18 18 17 15 13 10 8 8 7 6 5 5 4 4 5 5 4 3 2 2 3 4 4 4 5 5 5 6 6 7 8 8 9 10
52 47 45 47 46 44 41 35 31 29 26 24 24 23 22 22 21 20 19 19 20 21 20 20 19 19 20 18 18 19 20 19 18 16 13 11 10 9 7 5 4 3 3 4 5 4 3 2 2 2 3 3 3 3 3 3 4 5 6 7 7 8 8
55 52 49 48 46 43 40 35 27 23 23 23 23 23 22 22 22 21 21 21 21 21 23 22 21 21 22 20 19 20 21 21 20 18 16 14 13 11 9 7 5 3 2 2 3 3 2 1 1 1 1 2 3 3 2 2 2 3 4 6 6 7 7
57 55 53 50 48 44 41 35 27 23 27 28 25 24 23 22 20 20 21 22 21 24 25 24 23 23 23 22 22 21 22 22 22 21 20 18 16 14 11 9 7 5 4 2 1 2 1 0 1 2 2 1 1 1 1 1 2 2 3 4 5 6 6
58 57 56 53 49 46 42 40 37 36 37 34 28 24 22 21 21 21 21 19 19 21 23 24 25 26 25 25 25 24 24 24 25 24 23 21 19 17 14 12 10 8 7 4 2 1 0 1 2 3 3 3 2 1 2 2 3 3 3 4 4 5 6
58 58 57 54 50 47 45 43 43 42 40 37 33 28 25 23 22 21 18 17 18 20 23 26 28 28 28 28 27 26 26 26 27 27 26 25 23 20 18 16 14 12 10 8 6 4 3 2 3 4 4 4 4 4 4 5 5 5 6 6 6 7 8
59 59 57 55 52 49 47 45 44 42 40 37 34 31 27 23 21 19 17 18 22 25 28 32 32 30 30 30 29 28 27 26 27 28 29 28 26 24 22 20 17 16 14 11 9 8 7 5 5 5 5 6 5 5 6 6 7 7 7 8 8 8 9
61 60 59 56 53 50 49 48 46 44 41 37 33 30 27 25 22 18 17 21 26 29 32 34 33 31 31 31 31 29 27 27 27 28 29 29 29 28 26 23 21 19 17 15 12 11 10 8 7 7 7 7 7 7 8 8 9 9 9 9 9 9 9
62 62 60 57 54 52 50 49 47 45 43 40 35 31 27 27 27 23 21 25 28 31 35 36 34 33 33 33 32 31 29 27 27 27 28 29 29 29 28 26 24 22 20 17 16 14 13 12 10 9 9 9 9 9 10 11 11 11 11 11 10 9 9
63 63 61 59 56 53 51 50 48 46 44 42 38 34 30 29 31 30 28 28 26 27 31 36 37 35 34 34 34 33 31 29 28 28 28 29 29 30 30 29 27 25 23 21 19 18 16 15 13 12 11 11 10 11 12 13 13 13 13 13 12 10 10
65 63 62 59 57 55 53 51 49 47 45 43 40 38 35 33 32 29 28 28 28 27 29 36 39 37 35 35 35 34 33 30 29 28 28 29 30 30 30 30 30 29 27 25 24 22 21 19 17 15 14 13 13 13 14 14 14 14 14 14 14 12 10
66 65 63 61 58 56 54 52 50 48 46 45 43 42 42 44 42 37 34 33 32 34 37 40 41 38 36 36 35 34 32 30 29 28 27 27 29 30 31 32 32 31 30 29 28 26 25 23 21 19 17 16 16 15 15 15 15 15 15 15 15 13 11
68 67 65 62 60 58 56 54 52 50 48 46 45 45 47 50 50 49 47 46 44 45 45 43 42 41 39 37 34 32 31 30 28 28 26 26 27 28 30 32 32 32 32 31 31 29 28 27 24 22 21 19 19 18 18 17 17 17 16 16 15 14 12
69 68 66 64 62 59 57 56 54 52 50 48 47 47 47 49 50 51 52 53 54 54 52 48 45 42 40 38 34 32 31 29 27 26 25 26 26 26 27 28 30 31 32 32 32 31 30 29 27 25 24 23 22 21 20 19 19 18 17 17 16 15 13
70 69 67 65 63 61 59 58 56 54 52 50 48 48 48 48 49 50 51 52 54 55 55 54 52 47 43 39 36 34 31 28 26 25 25 25 26 25 25 25 26 27 29 30 31 31 31 30 29 28 26 25 24 23 23 22 21 20 19 18 17 16 14
72 71 69 67 65 63 61 59 57 55 53 52 50 49 48 48 48 49 50 51 51 52 53 54 53 52 49 44 40 36 32 29 28 26 26 26 26 25 24 23 23 24 25 27 28 29 30 30 29 29 27 26 26 25 25 24 22 21 20 19 18 17 16
74 73 72 70 68 66 63 61 59 57 55 53 51 50 49 49 48 49 49 50 50 50 50 50 50 52 52 49 44 40 35 33 31 28 27 26 25 25 23 22 22 22 24 25 26 28 29 29 29 28 28 28 28 27 27 26 24 23 22 21 20 19 17
77 76 74 72 71 69 67 64 62 59 57 55 54 52 50 49 49 49 49 50 49 49 48 48 48 50 53 50 46 43 40 37 34 31 30 28 26 24 22 20 20 22 23 25 26 28 29 29 29 28 28 29 29 29 28 27 26 24 23 23 22 21 19
80 79 77 75 74 72 70 68 66 63 61 59 57 55 53 52 51 50 50 50 50 49 48 47 46 50 53 51 47 45 43 40 36 34 34 31 28 26 26 25 23 22 23 24 26 28 29 31 31 30 29 29 30 30 30 29 27 26 25 25 24 22 21
84 83 81 79 78 76 74 72 70 68 65 63 61 58 57 55 53 52 52 51 51 50 49 47 46 48 52 52 49 46 44 42 39 37 35 33 31 29 30 30 29 27 24 22 25 29 30 31 33 32 31 31 31 31 31 30 29 28 27 27 25 24 22
89 87 85 83 81 80 78 76 74 72 70 67 65 62 60 59 57 55 54 53 52 51 50 48 46 47 50 53 51 47 45 45 43 39 35 34 34 33 32 31 30 30 31 29 27 28 29 30 33 35 35 34 33 32 32 31 30 29 28 27 26 25 23
93 91 89 87 85 83 82 80 78 76 74 71 68 66 64 62 60 58 56 55 54 53 51 49 48 46 47 51 53 49 45 45 45 42 37 36 37 36 35 34 33 32 34 36 36 33 30 29 32 35 38 37 36 34 33 32 31 30 28 27 26 25 25
96 95 93 91 89 87 85 84 82 80 78 75 73 70 68 66 64 62 60 58 56 55 53 51 49 46 45 48 52 51 46 44 44 44 42 41 40 38 36 35 36 37 37 40 42 42 40 38 38 38 38 38 38 37 36 34 33 31 29 28 27 26 26
99 98 96 94 93 90 88 87 85 83 81 79 76 74 71 69 67 65 63 61 59 57 55 53 51 50 48 48 51 53 50 46 44 44 45 46 44 41 38 38 40 41 42 44 45 45 45 43 40 38 36 36 37 38 38 37 34 33 31 30 28 27 28
101 100 99 97 95 93 92 90 88 86 84 82 80 77 74 72 70 68 67 65 62 60 59 57 54 53 52 52 53 53 52 49 47 46 47 48 47 44 41 41 43 45 45 45 46 47 45 42 39 35 33 32 33 34 35 36 35 34 33 32 30 29 29
102 102 101 99 98 97 95 93 91 89 87 85 83 81 78 75 73 71 70 68 66 64 62 60 58 57 56 55 55 55 55 54 51 50 49 49 48 47 45 44 45 46 47 47 48 48 47 45 41 37 34 31 30 30 31 32 33 34 34 32 31 31 31
104 103 103 101 100 99 98 96 94 92 90 88 86 84 81 79 77 74 73 71 70 68 66 64 62 61 59 59 57 57 58 59 57 55 54 52 50 47 46 45 47 47 47 48 48 47 47 45 42 39 36 33 30 29 29 30 31 32 33 31 30 31 30
106 105 104 103 102 101 100 98 97 95 93 91 90 87 85 82 80 78 76 74 73 72 70 68 66 64 63 62 61 59 59 61 61 59 58 57 54 50 48 47 47 47 48 49 49 48 47 46 44 43 40 35 32 30 28 29 30 31 31 30 29 29 30
108 107 106 105 104 103 102 101 100 98 96 95 93 91 89 86 84 81 79 77 75 74 73 72 70 69 67 65 64 63 61 62 63 63 62 60 57 54 52 51 50 49 49 50 50 49 48 47 47 46 42 37 34 32 28 27 29 30 30 29 28 29 30
111 110 108 107 106 105 104 103 102 101 99 97 96 94 92 90 87 85 82 80 78 77 76 75 74 72 71 69 67 66 65 63 63 64 66 66 63 59 57 55 55 55 55 54 51 49 49 48 47 46 44 40 35 31 27 26 26 27 29 29 29 29 31
114 112 111 110 109 107 106 105 104 103 102 100 98 97 95 93 91 88 86 84 81 79 78 78 77 75 74 73 71 70 69 68 66 65 66 67 67 65 62 59 59 60 61 59 56 51 49 47 46 47 46 41 34 28 25 25 25 29 33 34 32 32 33
117 115 114 113 111 110 109 108 107 106 104 103 101 99 97 95 93 92 90 87 85 83 81 80 79 78 78 77 75 74 72 71 70 69 67 67 67 67 66 65 63 63 63 62 60 56 52 48 47 47 46 43 39 38 38 37 39 44 47 42 37 35 35
119 118 117 116 115 113 112 111 110 108 107 106 104 102 100 98 97 95 93 91 88 86 84 83 81 81 80 80 79 78 76 75 74 73 71 69 68 67 68 68 68 67 67 65 63 60 56 52 49 48 48 47 47 50 52 51 52 56 54 45 39 38 37
121 121 120 120 118 117 115 114 112 111 110 109 107 105 103 101 100 98 96 95 92 89 88 86 84 83 83 83 82 81 80 79 78 77 75 74 72 70 69 69 70 70 70 69 67 63 60 58 53 51 51 52 53 55 56 54 54 56 53 46 41 40 39
123 123 123 122 121 120 119 117 116 115 113 112 110 108 106 105 103 102 100 98 96 93 90 89 88 86 85 85 85 84 84 83 82 80 79 78 76 74 72 70 70 71 72 72 71 68 65 63 59 55 54 55 56 58 59 56 55 56 54 49 45 43 42
124 124 124 124 124 123 122 121 120 118 117 115 114 112 110 108 107 105 104 102 99 97 94 92 90 89 88 87 87 87 86 86 85 84 83 81 80 78 76 74 72 72 72 74 74 73 70 68 64 61 59 58 58 60 61 58 57 58 56 53 50 47 45
124 125 125 126 126 125 125 124 123 122 120 119 118 116 114 113 111 109 107 105 103 101 98 95 93 92 91 90 89 89 89 88 88 87 86 85 84 82 80 78 76 74 73 74 76 76 74 72 69 66 64 62 61 61 61 61 60 59 58 56 52 49 46
125 126 126 127 127 127 127 127 126 125 124 123 122 120 118 117 115 113 111 109 107 105 102 99 97 95 94 93 92 91 91 90 90 90 89 88 87 85 83 82 80 78 76 75 76 77 77 75 73 71 69 66 64 63 63 63 63 62 59 57 55 52 48

ECMWFFLT1_250_spd_078.txt.gz
Wind_Speed
48 46 44 43 39 36 34 33 33 31 28 25 21 20 19 17 15 16 18 18 17 17 18 17 15 13 12 13 13 13 14 14 12 11 9 7 6 5 6 7 7 6 4 3 3 4 4 4 4 4 5 6 6 7 7 8 8 9 10 11 12 13 13
49 47 45 43 42 39 37 37 37 35 30 27 22 20 19 17 14 17 19 18 18 17 18 19 18 16 15 14 14 15 15 15 15 14 12 11 9 8 7 7 7 7 6 4 2 2 3 3 3 3 4 5 6 7 7 8 8 9 10 12 14 15 15
49 47 45 42 40 39 38 39 38 35 31 28 23 20 19 15 13 18 20 18 18 17 18 20 19 17 16 16 15 16 17 16 16 16 15 14 13 11 9 9 8 8 7 6 4 2 1 2 2 2 3 4 5 6 8 8 9 9 9 11 13 15 16
52 49 45 38 36 39 40 40 38 35 31 27 23 22 20 17 18 23 23 18 18 19 19 22 22 18 17 17 16 16 17 17 17 18 18 17 15 13 12 11 10 9 8 7 6 3 1 0 1 2 2 2 3 5 7 8 9 9 10 11 13 14 15
55 52 45 36 36 42 45 43 40 36 33 29 24 21 21 22 23 25 25 23 23 23 22 22 22 20 19 18 17 16 18 18 17 17 18 18 17 15 14 13 12 10 9 8 7 6 3 1 0 1 1 2 2 4 5 7 8 9 9 10 11 13 14
59 56 51 46 46 48 49 46 42 39 37 32 27 21 21 28 29 26 28 30 27 24 24 23 22 21 19 17 16 17 18 18 18 18 19 20 19 18 17 15 13 12 10 9 9 7 6 4 2 1 1 2 2 3 4 5 7 8 9 9 10 11 12
63 61 58 57 57 54 53 51 46 45 42 37 33 28 27 33 34 29 29 31 29 27 27 26 24 20 18 17 17 17 18 19 19 19 20 21 21 21 19 18 16 15 13 11 10 9 8 6 4 3 2 2 3 3 4 5 5 6 7 8 9 11 12
66 65 62 61 61 59 59 56 52 50 46 42 40 36 33 36 35 32 31 30 31 31 29 27 24 21 19 19 19 17 18 19 20 20 20 22 23 23 23 21 20 18 17 15 13 11 10 9 7 6 4 4 4 4 5 5 5 5 6 7 8 10 11
68 67 65 64 64 62 61 58 55 52 48 46 45 40 37 39 38 35 33 31 32 32 31 30 27 23 21 20 19 17 17 19 20 19 19 21 23 24 25 24 23 22 20 19 17 15 14 12 10 9 7 6 6 6 6 6 6 6 6 6 7 9 10
71 69 67 66 66 64 63 60 57 54 51 50 49 45 42 42 40 35 32 33 32 31 31 31 29 26 22 18 16 16 17 19 20 20 20 22 24 25 26 26 26 25 24 23 22 20 18 15 13 11 10 9 9 9 9 8 8 7 6 6 7 8 9
71 70 69 68 67 66 64 62 59 57 54 53 54 53 50 48 43 37 33 33 32 30 31 31 28 25 20 15 15 17 20 21 22 23 24 24 25 26 27 28 28 28 27 26 25 24 22 20 17 15 13 13 12 12 11 11 10 9 7 7 7 8 9
72 71 70 69 68 67 65 64 61 58 56 55 54 54 53 51 48 43 38 35 33 33 33 32 29 24 18 13 13 15 19 21 22 24 26 26 26 26 28 28 28 29 30 30 29 28 26 25 22 20 18 17 16 15 14 14 13 11 10 9 9 9 10
73 72 71 70 69 68 66 64 62 60 57 56 53 51 50 49 48 45 41 38 37 37 36 34 30 25 19 14 10 11 17 22 24 26 27 28 28 27 29 29 28 29 30 31 31 31 30 28 27 25 24 22 21 19 18 17 16 15 13 12 11 11 11
74 73 73 72 70 69 67 65 64 61 59 57 54 51 50 50 49 47 43 41 41 40 40 39 34 28 25 18 12 12 17 23 27 28 28 29 30 29 29 29 29 29 29 30 32 32 32 31 30 29 28 27 26 24 22 21 19 18 16 15 14 13 13
76 75 74 73 72 71 69 67 65 63 61 60 57 55 53 52 51 49 45 43 44 44 44 44 39 34 31 25 18 18 20 23 28 29 28 29 30 30 29 29 29 28 28 29 31 32 32 32 31 31 30 29 28 27 26 24 22 21 19 18 17 16 16
77 76 75 74 73 71 70 69 67 65 63 62 60 58 57 55 54 52 48 45 46 47 46 45 41 38 36 30 25 25 26 27 30 31 29 29 29 29 31 31 30 29 28 29 29 31 32 32 32 31 31 30 29 29 28 27 25 23 22 21 20 19 18
78 77 76 75 74 73 71 70 68 67 65 63 62 60 59 57 56 54 51 48 48 49 49 46 43 43 42 38 35 34 33 33 35 35 33 33 33 33 35 34 30 28 28 27 27 28 30 31 31 30 30 30 30 30 30 29 27 25 24 23 22 21 20
80 79 78 76 75 74 73 72 70 68 66 64 63 62 60 58 56 55 53 51 51 52 52 51 47 45 44 43 42 41 37 35 37 38 36 34 34 37 37 34 30 28 28 28 28 29 30 30 29 28 28 29 29 30 31 30 28 26 25 25 24 23 22
82 81 79 78 77 76 74 73 72 70 68 66 64 63 61 59 57 55 54 53 52 54 56 57 55 53 51 48 45 43 41 40 38 38 39 37 36 38 37 34 31 30 30 31 31 31 31 30 28 27 26 27 28 29 30 30 29 27 27 26 26 25 24
84 83 82 80 79 77 76 75 73 72 70 68 67 65 63 61 59 57 55 54 54 54 56 58 59 59 58 56 52 49 48 47 44 41 41 40 39 40 39 35 33 33 32 34 34 34 33 31 29 28 26 25 27 28 29 30 30 28 28 27 27 26 25
88 86 84 82 81 79 78 77 76 74 72 71 69 67 65 63 61 59 58 56 55 55 55 56 57 58 58 57 56 54 52 52 51 49 47 44 42 41 40 38 39 39 37 37 37 37 35 33 30 29 28 25 24 26 28 30 30 30 28 28 28 28 27
91 89 87 85 84 82 81 80 78 76 75 73 72 70 68 66 64 62 60 58 57 56 56 55 56 57 57 56 55 54 53 52 52 53 52 50 46 42 40 41 43 43 41 40 40 39 39 37 34 33 30 27 25 25 26 28 29 30 29 28 28 28 28
93 91 90 88 86 85 84 82 81 79 77 76 74 72 70 68 66 64 63 61 59 57 57 56 56 56 57 57 55 55 54 52 50 52 54 55 51 45 43 44 46 44 42 42 42 42 41 41 40 38 35 32 30 28 27 26 27 28 29 29 29 29 30
95 93 92 91 89 88 87 86 84 82 80 79 77 76 74 71 69 67 65 63 62 60 58 58 57 56 56 56 56 56 55 53 51 52 54 57 55 50 46 46 46 45 44 45 44 44 43 42 43 42 39 37 34 31 28 26 26 26 27 27 27 29 31
97 97 96 94 93 92 91 89 87 85 84 82 81 79 77 75 73 70 69 67 64 63 61 60 59 57 57 57 56 56 55 55 54 53 54 57 59 56 51 49 47 46 47 47 47 46 45 43 43 43 42 40 37 34 31 29 27 27 27 26 26 28 31
100 100 99 98 96 96 95 92 90 89 87 86 84 83 80 79 77 75 73 70 68 66 64 63 61 59 58 58 57 56 56 56 56 55 55 58 62 61 57 54 51 48 47 47 47 47 45 43 43 44 44 42 40 39 36 32 28 26 26 25 25 27 29
103 103 102 101 100 99 97 95 94 93 91 90 88 86 84 82 81 79 77 74 72 70 68 66 65 63 61 60 59 58 57 57 57 56 56 59 62 62 61 60 57 53 51 49 47 46 45 43 43 45 45 43 42 41 37 30 25 25 27 27 27 28 29
106 105 104 103 102 102 100 98 98 97 95 94 92 90 88 86 85 83 81 78 75 73 71 70 68 66 64 62 61 60 59 59 58 58 57 59 62 63 62 61 60 58 57 54 51 48 46 44 44 45 46 45 44 42 37 31 29 33 37 38 36 34 33
109 107 106 105 104 103 103 102 101 100 98 97 95 93 92 90 88 87 85 82 80 77 75 73 72 70 68 66 64 63 62 61 61 60 60 60 62 64 63 62 61 59 60 59 56 51 48 47 46 45 45 46 45 43 41 41 43 46 48 46 41 37 34
111 110 109 108 107 106 105 105 104 103 101 100 98 97 95 94 92 91 89 86 84 82 80 77 75 73 71 70 68 66 66 65 64 64 63 62 62 65 66 66 63 60 59 60 59 54 50 48 47 45 44 46 46 45 46 49 51 50 49 46 41 37 34
114 113 112 111 110 109 108 107 106 105 104 102 101 100 99 98 96 94 93 91 89 86 84 81 79 77 75 73 72 70 69 68 67 67 66 66 65 66 67 69 67 64 61 60 60 58 54 51 48 44 43 45 47 47 48 51 53 53 51 48 44 41 38
117 116 115 114 113 112 111 110 109 108 107 105 104 103 102 101 100 98 96 95 93 90 88 85 83 81 78 77 75 74 73 72 71 70 69 69 68 68 68 69 69 68 65 63 63 61 59 55 52 47 45 45 47 49 50 52 54 54 53 52 50 48 44
118 118 118 117 116 116 115 114 112 111 110 109 107 106 104 104 103 101 100 98 96 94 92 90 87 85 83 80 79 78 77 76 75 74 73 72 72 72 71 71 71 70 69 67 66 65 62 59 57 54 52 51 49 50 51 53 55 55 55 55 54 52 49
120 120 121 120 120 119 118 117 116 115 114 112 110 109 107 106 106 104 103 101 99 97 95 94 91 89 87 85 82 81 80 80 79 78 77 76 75 75 75 75 74 73 72 70 69 68 67 64 61 60 59 57 55 54 53 54 54 55 56 57 56 54 52
123 123 122 122 122 121 121 120 119 118 117 116 115 113 111 109 108 108 106 104 102 100 98 97 95 93 91 89 87 84 83 82 82 82 81 80 79 78 78 78 77 77 76 75 73 72 71 70 66 64 64 63 61 60 58 57 56 55 55 56 56 55 55
125 125 124 124 124 124 123 123 122 121 120 119 118 117 115 113 112 111 109 108 106 104 102 100 98 96 95 93 90 88 86 85 84 84 84 83 83 82 81 81 80 79 79 79 78 76 75 75 73 70 69 68 67 66 64 63 62 58 56 55 54 54 56
126 126 126 126 126 126 126 125 125 124 123 122 122 121 119 118 116 114 113 111 109 107 105 103 101 100 98 96 94 92 89 87 87 86 87 87 86 86 85 84 83 82 81 81 81 80 79 78 78 77 75 73 72 71 69 68 67 64 60 58 55 53 55
127 127 128 128 128 128 128 128 127 126 126 125 125 124 123 121 120 118 116 115 113 111 109 107 105 103 101 100 97 95 93 91 89 88 89 89 89 89 88 87 86 85 84 83 83 83 82 81 81 81 80 78 76 75 74 73 72 69 66 64 60 56 55

ECMWFFLT1_250_spd_081.txt.gz
Wind_Speed
44 37 34 31 30 30 29 27 23 21 20 19 15 14 15 18 17 17 17 15 13 12 12 11 9 8 9 11 11 12 11 11 11 10 7 6 5 6 7 7 6 5 5 5 5 4 4 4 4 5 6 6 7 7 8 9 10 12 14 15 15 16 16
50 45 44 41 37 35 33 30 27 25 24 22 20 19 20 21 19 19 21 20 16 12 12 11 10 10 9 9 11 12 12 11 11 11 10 8 6 6 7 8 7 6 6 5 5 4 4 3 3 3 4 5 5 6 7 8 10 11 12 13 14 15 15
55 53 52 50 46 43 39 33 29 29 30 28 27 26 24 21 19 19 21 22 20 15 13 11 11 10 10 9 9 11 12 13 12 12 12 11 9 7 8 9 8 7 6 5 5 4 4 3 2 2 2 3 4 5 6 7 8 10 11 12 13 14 14
58 57 56 54 50 46 43 37 32 31 32 31 31 30 27 22 20 20 20 21 21 18 14 12 11 11 11 10 9 10 12 13 13 13 13 13 12 10 10 10 9 8 7 6 5 5 4 4 3 2 1 2 2 3 4 6 7 8 9 11 12 13 14
62 60 59 56 53 49 46 38 32 30 29 30 32 30 25 23 21 19 18 19 20 20 18 15 14 12 13 13 12 11 12 14 14 14 14 14 14 14 12 12 11 10 8 7 6 6 6 5 4 3 2 1 0 1 2 3 4 6 7 9 10 12 13
64 63 60 58 55 53 49 40 33 32 32 33 36 33 28 26 23 20 19 19 21 22 21 19 17 16 15 15 15 15 14 14 14 15 15 15 15 16 15 14 13 12 10 9 8 8 7 6 5 4 3 2 2 1 0 1 2 4 5 7 9 10 12
65 64 61 60 58 55 51 44 37 38 40 41 41 37 32 29 27 23 21 20 21 23 23 20 19 19 19 18 16 16 15 14 14 15 15 15 16 17 17 17 16 15 14 12 11 10 9 8 7 6 5 4 3 3 2 2 2 3 4 5 7 9 10
67 64 62 62 61 57 54 49 44 43 43 42 41 39 36 32 30 28 26 23 21 22 22 20 19 20 21 21 18 16 15 14 15 15 15 15 16 17 18 19 19 18 17 15 14 13 12 11 9 7 6 5 5 4 4 4 4 4 4 5 6 8 9
68 66 65 65 63 60 56 53 49 47 46 43 40 39 38 36 33 32 30 26 23 22 21 20 20 21 22 20 17 15 16 17 17 17 16 15 16 16 17 19 20 21 20 19 18 16 15 14 12 10 8 7 6 6 6 6 6 6 6 6 7 7 9
69 68 68 68 65 62 59 56 53 52 51 49 45 40 39 38 35 34 33 29 26 24 21 19 20 21 20 17 13 14 18 20 19 17 15 15 16 17 17 17 19 21 22 22 21 20 19 17 15 13 12 10 9 9 8 8 9 8 8 8 8 9 9
70 69 70 70 67 64 61 59 56 55 53 54 52 46 41 39 39 38 37 34 31 27 23 20 21 22 21 17 16 18 21 22 18 15 14 16 20 22 21 19 18 20 22 23 24 23 22 21 19 17 15 14 13 12 11 11 11 11 11 11 11 11 11
71 71 70 70 69 67 64 61 60 58 55 56 55 50 44 42 43 42 40 38 33 30 26 23 22 23 23 22 24 25 25 23 20 20 21 24 29 31 28 23 20 19 20 22 24 25 25 24 22 21 20 18 17 16 15 15 15 14 14 14 14 14 14
73 73 71 71 70 69 67 65 64 62 60 61 60 57 53 50 48 45 44 42 37 33 30 27 24 24 26 27 28 28 28 26 23 23 26 29 32 33 31 27 23 20 20 21 24 26 27 27 26 25 24 23 22 21 20 19 18 17 16 16 16 17 17
77 76 74 72 72 70 69 68 67 65 63 61 61 61 59 57 54 50 48 47 44 40 37 34 31 29 29 29 29 28 27 25 25 27 29 28 30 31 31 30 26 21 21 22 23 25 26 28 29 29 28 28 26 25 25 24 22 20 19 18 18 18 19
80 79 77 75 74 72 71 70 69 67 64 61 61 59 55 55 56 55 52 51 50 47 43 41 41 40 37 34 31 29 27 24 26 29 29 28 29 30 32 33 29 25 24 23 23 25 26 27 29 30 31 31 30 29 28 27 25 23 22 20 20 19 20
83 82 80 78 76 75 74 72 71 69 65 64 65 63 58 55 54 54 54 53 52 50 47 44 44 44 43 40 37 34 30 27 26 28 29 29 29 31 33 33 29 27 28 26 25 26 26 27 28 29 30 31 31 30 30 28 27 26 25 23 22 21 21
82 83 83 81 79 78 76 75 74 72 70 68 69 68 66 62 57 55 55 55 53 52 50 46 44 43 42 41 41 38 34 30 29 31 32 31 31 31 33 33 31 31 31 30 30 29 28 27 27 28 29 31 31 31 30 29 29 28 28 26 25 24 23
82 82 82 83 82 80 79 77 77 76 74 73 71 69 68 65 61 59 59 57 55 54 51 49 47 45 43 42 42 42 39 35 34 36 35 33 32 32 33 34 35 35 35 34 34 32 30 28 27 27 28 29 30 30 30 30 29 30 30 29 28 27 25
85 83 82 82 82 82 81 79 78 78 77 75 73 71 69 67 65 63 61 59 57 55 53 51 50 48 46 45 44 45 44 40 40 41 38 35 33 32 34 37 38 37 37 37 35 33 31 29 27 28 28 27 28 29 29 29 29 29 30 30 29 28 27
90 88 85 83 82 81 81 80 79 79 78 77 75 73 71 69 67 65 63 61 59 57 55 54 52 50 48 47 46 47 47 45 45 47 44 38 34 30 29 35 41 41 39 38 37 34 33 31 29 29 29 28 27 28 29 29 28 28 29 29 28 28 27
92 91 89 86 84 82 81 80 80 79 79 78 77 75 73 71 69 67 66 64 62 59 57 55 54 53 51 50 49 49 50 48 48 49 46 41 38 33 29 33 40 43 42 41 39 37 35 33 31 31 31 30 28 28 28 28 27 27 27 27 27 27 27
94 92 90 88 87 85 83 82 81 80 79 78 77 76 74 72 70 69 67 66 65 63 60 58 56 55 54 53 52 51 51 52 52 52 48 45 44 42 39 39 42 44 45 44 41 38 37 36 34 33 33 32 32 31 29 27 25 24 23 23 25 26 27
96 94 92 90 89 88 86 84 83 81 80 79 78 77 75 74 72 71 69 69 67 66 64 61 59 57 56 56 55 54 54 54 56 57 57 56 54 51 49 48 45 44 45 45 42 39 38 37 36 35 35 35 36 35 32 29 26 23 22 22 23 26 28
96 95 94 93 92 91 88 86 85 84 83 81 80 78 77 75 74 73 72 71 69 69 67 65 63 61 60 58 58 58 58 58 59 61 62 63 61 58 55 52 49 47 46 46 44 42 41 41 39 38 38 39 39 39 37 34 30 27 28 27 26 26 27
97 97 96 96 95 93 90 88 87 86 85 84 81 80 79 78 77 76 74 73 72 71 70 68 66 65 63 61 60 61 61 62 64 65 65 64 64 62 60 57 55 54 52 51 50 47 45 45 44 42 42 43 44 43 40 38 37 37 36 34 30 27 26
100 99 98 99 97 94 92 91 90 89 88 86 83 82 81 80 79 78 77 75 75 74 73 71 69 68 66 64 63 64 65 66 68 69 70 70 69 68 67 64 62 59 57 56 56 54 51 49 48 46 45 46 47 45 41 41 42 42 41 38 34 29 26
102 102 102 101 100 97 95 94 93 92 90 88 86 85 84 83 82 81 79 78 77 76 75 73 72 70 68 67 66 66 67 68 69 70 71 72 71 70 68 65 62 60 58 57 57 57 56 54 52 50 48 48 48 46 43 43 44 43 41 38 35 31 29
104 104 104 103 102 99 98 97 95 94 93 91 89 88 88 86 84 83 82 80 79 79 77 75 73 72 70 69 68 68 68 68 69 70 70 70 69 68 66 64 62 62 61 58 57 57 56 56 56 54 51 50 50 47 46 45 45 44 42 39 36 34 33
107 106 105 104 103 102 101 100 98 96 95 94 93 92 91 89 88 86 85 84 82 81 80 78 76 74 73 71 70 70 69 69 70 70 70 69 68 66 65 64 63 63 62 61 59 58 55 53 54 55 53 52 50 49 48 47 46 45 43 41 40 39 37
109 108 107 105 104 104 104 103 101 99 98 97 96 95 94 92 91 90 88 87 86 84 83 81 80 78 76 74 73 72 71 71 71 71 71 70 69 67 66 65 65 64 63 62 62 61 58 54 53 54 54 53 52 50 49 48 48 47 45 43 42 43 42
111 110 109 107 107 107 106 105 104 103 101 100 99 99 98 96 95 93 92 90 89 88 86 85 83 81 80 78 76 75 74 73 73 72 72 72 71 69 68 67 66 66 65 64 64 64 64 62 59 57 57 57 56 54 51 49 48 47 46 44 43 43 43
113 112 111 110 109 109 109 108 107 105 104 103 103 102 101 100 98 97 95 94 92 91 90 89 87 86 84 82 81 79 77 76 75 75 74 74 73 72 70 69 69 68 67 67 66 65 66 67 68 67 65 63 62 59 56 52 50 48 47 46 45 45 45
113 114 114 113 112 111 111 111 110 109 108 106 105 105 104 103 101 100 99 97 96 95 94 93 91 90 89 87 86 84 82 80 79 78 77 76 75 74 73 72 71 70 69 69 68 68 68 68 69 71 71 69 67 65 62 59 56 53 50 48 47 46 46
114 115 116 116 115 114 113 113 113 112 111 110 108 107 107 106 105 104 102 101 99 98 98 97 96 94 93 92 90 88 86 84 83 81 80 79 78 77 76 74 73 72 72 71 70 70 70 70 70 70 71 71 71 70 68 64 61 58 55 53 50 49 47
116 116 117 118 117 117 116 116 115 115 114 113 112 111 110 110 108 107 106 105 103 102 101 101 100 98 97 95 94 92 90 88 87 85 83 82 82 81 79 78 76 75 74 74 73 72 72 72 72 71 71 71 72 71 70 67 64 61 59 57 55 52 51
117 118 118 119 119 119 119 119 118 118 117 116 116 115 114 113 112 111 110 109 107 106 105 104 103 102 101 99 97 96 94 92 91 89 87 85 84 83 83 82 80 78 77 76 75 75 74 74 74 73 73 73 73 73 71 69 66 64 62 61 59 56 55
118 119 119 120 120 120 121 120 120 120 120 119 119 119 118 117 116 115 114 113 111 110 109 108 107 105 104 103 101 99 98 96 94 92 91 89 87 86 85 85 83 82 81 79 78 77 77 77 77 76 75 75 76 76 74 72 70 67 65 65 64 61 59
119 119 120 121 121 122 122 122 122 122 122 122 122 121 121 120 120 119 117 116 115 114 113 111 110 109 108 106 105 103 101 99 97 96 94 92 91 89 88 87 86 85 85 84 82 81 80 79 79 79 79 78 79 80 79 76 74 72 69 68 67 66 64

ECMWFFLT1_250_spd_087.txt.gz
Wind_Speed
35 32 28 28 30 31 28 26 26 24 21 18 17 17 15 12 10 9 10 10 11 12 12 10 6 6 9 8 9 10 9 6 4 4 5 7 8 9 10 10 10 10 10 10 10 10 10 10 11 12 11 11 12 13 13 14 15 17 18 19 21 21 21
34 29 27 29 32 33 31 30 30 29 27 23 20 20 19 17 15 12 12 13 13 14 13 9 4 3 6 7 8 10 9 7 4 3 4 5 7 8 10 10 10 10 10 9 9 9 9 10 10 11 12 12 12 13 13 14 14 15 17 18 20 21 22
35 32 32 34 35 34 33 32 33 32 29 25 22 22 23 21 19 16 14 14 14 14 12 8 4 1 3 4 5 8 8 6 4 2 2 3 4 7 9 10 11 10 9 9 8 8 8 9 9 10 10 11 12 13 13 14 14 15 16 18 19 21 22
40 40 41 39 35 35 35 34 34 31 27 24 24 24 24 23 22 21 17 13 13 13 11 8 6 6 5 4 5 5 5 5 3 2 2 2 3 6 8 10 11 10 10 9 8 8 7 8 8 9 9 10 10 12 13 14 14 15 16 17 18 20 22
47 48 48 43 38 37 38 38 36 32 28 26 25 25 24 23 23 22 18 14 13 14 11 8 7 7 8 8 7 7 5 4 3 2 3 3 3 6 8 10 11 11 10 10 10 9 8 8 8 8 8 8 9 10 11 12 14 15 16 17 18 19 21
53 54 52 48 45 43 42 40 36 34 32 29 26 25 24 23 22 21 17 14 16 16 13 12 12 11 11 11 10 10 10 9 5 3 4 5 5 8 11 11 12 13 12 11 11 11 10 10 10 9 8 8 9 10 10 11 13 14 16 17 18 19 20
57 59 57 52 50 49 46 42 38 34 32 30 28 26 25 23 22 21 18 16 18 18 16 16 16 16 16 14 11 11 13 12 9 7 6 6 6 9 11 12 13 14 13 13 13 13 13 13 13 13 12 10 10 11 11 12 12 14 15 16 18 19 20
60 62 61 57 53 52 49 45 41 37 33 31 30 29 29 28 26 24 21 19 19 20 19 19 19 19 19 17 16 15 14 13 12 11 10 7 6 7 8 10 12 13 13 14 14 14 15 15 15 15 16 14 13 13 13 13 13 14 14 16 17 18 20
64 64 64 61 56 54 51 46 43 40 37 34 33 32 33 33 31 27 23 21 21 22 22 23 24 23 21 20 19 19 17 15 14 13 13 11 9 8 7 8 10 11 12 14 15 16 15 15 15 15 17 17 16 16 15 15 15 14 14 15 16 17 18
67 66 66 64 60 56 53 50 46 43 40 38 37 38 39 37 34 31 26 22 22 24 26 27 26 25 24 22 21 21 20 18 16 14 15 16 13 11 9 9 9 10 12 15 17 17 16 16 16 16 16 17 17 17 17 16 16 16 16 15 15 16 17
70 69 68 67 64 60 57 54 51 47 43 39 37 40 44 42 38 34 27 22 24 28 29 28 27 26 26 25 23 23 22 19 17 16 17 17 16 14 13 12 12 12 13 15 17 18 17 17 17 16 16 16 17 17 18 18 17 17 17 17 17 17 17
73 72 71 70 68 64 60 57 54 50 45 40 37 41 45 45 42 38 31 27 30 33 31 30 29 30 30 29 27 26 24 21 19 18 18 18 17 16 15 15 15 15 15 15 17 18 18 18 18 17 16 16 16 16 17 18 18 18 18 18 18 18 18
76 75 74 73 71 68 63 58 52 47 44 41 39 43 47 45 43 41 37 36 37 36 34 32 30 31 32 31 30 29 27 24 21 20 19 19 19 17 16 17 18 17 16 16 17 18 19 19 19 19 18 16 16 16 17 17 18 19 19 19 19 19 19
79 78 77 76 75 72 69 64 57 53 51 47 43 46 49 47 45 43 40 40 38 37 37 35 32 33 32 30 32 33 31 27 24 22 20 20 21 21 20 21 21 20 19 19 18 18 18 19 19 20 20 19 17 17 16 16 17 19 19 19 20 20 20
82 82 80 78 77 75 73 71 67 64 64 60 56 53 52 50 49 48 44 40 36 35 36 36 35 35 33 31 31 32 31 29 28 25 22 22 23 24 24 24 24 23 21 22 21 20 20 20 19 19 20 21 21 19 17 15 15 17 19 19 20 20 21
85 85 84 82 80 78 75 74 74 73 73 73 70 65 59 56 55 53 50 44 39 37 36 35 36 36 35 34 32 29 28 29 31 31 28 26 27 27 27 27 26 24 22 22 23 23 22 22 19 18 18 20 22 22 19 17 16 16 17 18 19 20 20
88 87 87 86 84 81 78 76 75 76 76 76 75 71 67 65 63 60 57 52 48 44 41 39 36 34 35 36 33 31 29 27 30 34 34 31 30 28 27 27 27 25 23 23 24 25 25 24 21 18 18 19 20 22 21 19 18 18 17 18 18 20 19
88 89 88 87 86 84 81 78 77 76 77 77 76 73 70 70 69 66 63 61 56 51 49 46 42 38 37 37 36 36 35 31 31 35 35 34 32 30 29 28 28 26 24 24 24 25 27 27 24 20 19 20 21 21 21 20 20 20 20 19 19 20 20
87 88 89 88 87 85 84 82 79 76 76 77 78 76 73 71 70 69 69 67 64 60 57 53 50 48 46 42 39 38 36 33 33 35 36 36 35 33 33 33 32 30 29 29 29 29 30 30 28 25 23 22 23 23 23 22 22 22 22 21 20 20 21
88 88 89 89 89 88 87 87 85 81 78 77 77 78 76 74 72 72 72 70 68 67 64 60 58 57 56 52 50 47 43 38 39 41 42 42 40 37 37 38 39 37 34 33 34 34 33 33 32 30 27 26 26 26 25 25 24 23 23 22 21 21 21
91 90 90 90 90 90 90 90 90 89 85 81 78 77 77 77 77 76 75 74 71 70 69 68 67 66 64 63 62 62 60 58 57 57 55 53 52 50 48 46 45 42 36 32 31 32 33 35 36 35 33 31 29 29 28 27 26 25 24 24 23 23 22
93 93 92 92 91 92 92 92 92 92 91 89 85 81 79 78 78 78 78 77 75 73 72 72 72 71 69 68 67 68 69 69 69 67 65 62 61 61 58 53 50 47 39 30 25 27 31 34 35 37 37 35 34 32 31 30 29 28 27 26 25 25 24
96 96 95 95 94 94 94 94 93 93 92 92 91 88 85 82 80 78 78 77 77 76 76 76 75 74 73 72 70 70 70 70 71 70 68 65 63 61 58 53 49 47 43 36 30 31 35 35 32 32 34 36 36 35 34 33 32 31 31 31 29 27 26
98 99 99 98 98 98 97 96 95 94 93 92 92 92 91 89 86 84 82 80 79 78 78 78 77 77 77 75 73 72 72 71 71 70 69 67 64 62 58 54 50 47 46 44 41 38 40 41 36 31 29 31 34 36 37 37 35 33 32 32 32 31 29
100 101 102 102 101 101 100 99 98 96 94 94 93 93 92 92 91 89 88 86 84 82 81 80 80 79 79 78 76 75 74 73 72 72 70 69 67 64 62 60 57 52 49 49 48 45 46 47 46 42 39 37 38 38 39 39 36 32 29 29 31 32 31
101 103 104 104 104 104 102 101 100 99 97 96 95 94 94 93 92 91 90 89 87 85 84 83 82 81 80 80 79 78 77 75 74 73 72 70 69 67 66 65 63 60 57 55 54 52 52 52 53 53 51 50 48 45 43 41 38 34 30 30 30 31 32
102 104 105 105 106 105 105 103 102 101 100 99 97 96 95 95 94 93 91 90 89 87 86 85 84 83 82 82 81 80 80 79 77 75 74 73 72 71 70 69 67 65 64 62 59 57 55 55 55 56 55 54 54 52 48 45 42 38 35 34 31 30 32
104 104 105 106 107 106 106 105 104 103 102 101 100 99 98 97 95 94 93 92 91 90 89 87 86 86 85 84 83 82 81 81 80 78 77 76 75 74 73 72 71 69 67 66 64 61 59 58 58 58 57 56 55 55 53 50 47 44 41 38 35 32 33
106 106 106 107 107 108 108 107 106 105 104 103 102 101 100 99 98 96 95 94 93 93 92 91 90 89 88 86 85 85 84 83 83 81 80 78 78 77 76 75 73 72 70 69 66 64 63 62 61 60 59 58 57 57 56 55 53 50 47 44 40 37 36
108 107 108 108 108 109 109 109 109 108 106 106 105 104 103 101 100 99 98 97 96 95 95 94 93 92 91 90 89 88 86 86 85 83 82 81 80 79 79 77 76 74 73 71 69 67 65 64 63 63 62 61 60 59 58 58 58 56 54 52 49 44 42
110 110 111 111 110 110 109 109 109 109 108 107 106 105 105 104 103 102 100 100 99 99 98 97 97 96 95 94 93 91 90 89 87 86 85 85 84 82 81 80 78 76 75 73 71 70 68 67 66 66 66 65 63 62 62 61 61 60 59 59 58 55 52
113 114 115 114 112 111 110 109 108 108 108 108 107 107 106 105 105 104 103 102 102 101 101 100 99 98 97 97 96 95 94 92 91 90 89 88 87 85 84 82 81 79 77 76 74 73 72 71 69 69 69 68 67 66 65 65 64 62 61 63 66 65 63
116 117 118 116 114 112 111 110 109 108 108 108 108 108 107 107 106 106 105 104 103 103 103 102 102 101 100 99 98 98 97 96 95 94 92 90 89 88 86 85 83 82 80 79 77 76 75 74 73 72 72 71 71 70 69 68 67 65 64 65 69 70 69
118 118 118 117 115 114 113 112 111 111 110 110 109 109 108 108 107 107 106 106 105 105 104 104 104 103 102 102 101 100 99 98 97 96 94 93 91 90 89 87 86 85 84 82 81 80 79 78 77 76 75 75 74 73 72 71 70 69 67 68 71 73 74
119 118 117 117 116 115 115 115 114 114 113 113 112 111 110 108 108 107 106 106 106 106 105 105 105 104 104 103 103 102 101 99 98 96 95 94 93 92 92 91 90 89 88 86 85 83 83 82 81 79 79 78 77 77 76 75 74 72 71 71 73 75 77
120 119 118 117 117 116 116 116 116 117 117 116 115 114 112 111 110 108 107 106 106 106 106 106 106 106 106 105 104 103 101 100 98 97 96 95 94 94 94 93 93 92 91 90 89 87 87 86 85 84 83 82 81 81 80 80 79 77 76 76 76 77 79
121 121 119 119 119 118 118 117 116 117 118 118 117 116 115 114 113 111 110 109 108 108 107 107 107 107 107 107 106 105 104 102 101 100 99 98 97 97 96 95 95 94 93 93 92 91 90 89 89 88 87 86 85 85 84 84 83 82 80 79 80 80 81
123 123 122 121 120 120 120 120 119 117 117 118 118 118 117 116 115 114 113 112 112 111 111 110 109 109 109 108 108 107 107 107 106 105 105 104 103 101 100 99 97 96 96 95 94 93 93 92 92 92 91 90 89 88 88 88 88 87 85 84 83 82 83

ECMWFFLT1_250_spd_090.txt.gz
Wind_Speed
35 35 34 33 34 32 29 28 27 26 23 20 18 16 15 12 9 7 7 7 8 10 11 9 5 4 7 7 7 8 9 8 7 6 6 7 8 9 10 10 11 11 12 12 12 13 13 15 15 16 16 17 17 18 19 19 21 23 24 26 27 28 29
38 37 36 35 36 35 33 31 29 28 25 23 20 18 17 15 13 11 10 9 9 10 9 7 4 2 3 4 5 7 7 7 7 6 5 6 8 9 10 10 11 11 12 12 12 12 13 14 15 16 17 17 18 19 20 20 21 22 23 25 26 27 28
39 39 38 38 38 38 35 32 32 29 25 24 23 21 19 17 16 15 14 12 10 9 8 7 5 4 4 3 4 5 6 7 7 7 7 7 10 12 11 11 12 12 13 13 13 13 13 14 14 15 16 18 18 19 20 21 21 22 22 23 25 26 27
40 40 42 42 40 39 37 35 34 31 27 26 26 25 23 21 20 19 18 16 14 12 9 8 7 5 6 6 5 6 6 7 8 9 9 9 11 13 12 11 11 12 13 13 14 14 14 14 14 14 16 17 18 19 20 21 22 22 22 23 23 24 25
43 42 43 44 43 42 40 38 36 34 30 29 29 29 28 26 24 23 22 20 18 15 11 8 6 5 5 5 6 5 5 7 7 8 9 9 10 12 11 10 10 10 12 13 13 13 14 14 14 14 15 15 16 18 18 19 20 21 22 22 23 23 24
46 45 43 45 46 46 44 40 37 35 33 32 33 32 30 27 25 25 24 22 19 17 13 9 7 6 6 7 8 7 5 6 6 5 6 7 9 11 11 10 9 9 10 12 13 13 13 13 14 14 14 14 15 16 17 18 19 19 20 21 21 22 22
50 49 46 44 46 48 46 42 37 35 35 35 34 33 31 27 25 25 24 22 20 19 15 12 11 10 8 7 9 10 7 6 7 8 9 6 5 9 11 9 9 8 8 11 13 12 12 12 13 13 13 13 14 15 16 17 18 18 19 19 20 20 21
55 53 51 47 46 47 47 44 39 37 38 37 35 33 32 28 26 26 24 22 20 19 17 15 14 13 11 9 9 10 8 8 8 9 12 11 6 7 11 10 8 7 7 10 12 12 12 12 12 12 12 13 13 13 14 16 17 18 18 18 19 19 19
59 58 55 52 49 48 47 45 42 40 40 39 36 36 35 32 30 28 25 23 22 19 18 19 18 17 15 13 11 9 9 11 11 10 10 11 9 7 10 11 9 7 7 10 12 12 12 12 12 12 11 11 12 13 13 14 15 16 17 18 18 19 18
62 61 59 57 54 51 49 46 45 44 44 41 38 38 36 32 30 29 28 27 25 21 20 20 21 20 18 17 14 10 9 12 13 12 11 10 9 8 10 12 12 10 8 9 10 11 10 11 12 13 12 11 11 11 12 12 13 14 15 16 18 18 18
65 63 62 61 59 56 53 51 50 49 48 46 43 41 38 33 30 30 30 29 28 25 22 21 21 22 21 20 17 14 12 14 15 15 13 12 11 11 11 11 12 13 12 9 9 10 10 10 11 12 13 12 10 10 10 11 12 13 14 14 16 17 18
70 67 65 63 62 59 57 56 54 52 51 51 48 44 40 37 34 33 32 31 30 28 26 25 24 23 23 23 22 18 17 17 18 19 18 15 14 14 14 13 12 12 13 11 10 10 10 10 10 11 12 13 12 10 10 10 11 12 13 14 14 15 16
75 71 68 65 64 62 59 58 56 53 54 55 53 48 43 41 39 38 37 35 33 32 32 30 29 27 26 26 24 22 22 22 22 23 23 21 18 17 17 17 15 12 12 12 12 11 11 10 10 11 11 12 12 12 11 11 11 12 13 14 14 14 15
79 76 72 69 67 65 62 60 57 55 56 56 55 52 49 47 45 42 40 38 36 36 36 34 33 31 29 26 25 25 25 27 27 27 26 23 21 19 18 18 17 15 14 14 14 14 13 12 12 12 12 12 11 11 11 11 11 12 13 14 15 15 15
83 81 78 75 72 69 66 63 62 62 62 59 56 54 54 53 48 42 39 40 39 37 36 35 35 34 31 28 26 28 28 29 30 29 25 23 21 19 18 18 18 17 16 16 17 16 15 14 14 14 14 13 12 11 11 11 11 12 13 13 14 15 16
86 85 83 80 77 73 70 67 66 68 68 65 60 55 53 53 49 43 41 42 41 39 37 37 38 38 36 33 32 32 30 30 31 30 27 25 23 21 20 20 19 19 18 18 18 18 17 15 15 15 15 15 14 12 12 12 12 12 12 13 14 14 15
86 86 85 83 81 78 74 72 71 71 71 71 67 60 54 51 48 45 45 45 43 40 38 38 39 39 38 37 37 35 32 32 33 33 30 27 25 23 23 22 21 20 21 21 20 19 18 17 16 16 16 17 16 15 14 13 14 14 14 14 14 15 15
85 86 86 85 84 82 79 77 75 74 74 74 73 68 62 58 51 45 45 46 41 36 36 38 39 39 38 38 38 36 35 35 34 33 31 30 28 28 27 25 22 22 23 23 21 20 18 17 16 16 17 18 19 19 18 17 16 17 17 16 16 16 16
85 85 85 86 86 85 83 82 79 78 78 77 77 74 70 67 61 52 49 49 41 36 38 41 42 42 39 37 37 38 38 37 35 35 34 33 32 32 30 28 27 28 28 26 23 21 20 19 18 19 20 22 23 23 22 20 19 19 19 19 19 18 17
88 87 86 86 87 87 86 85 84 83 82 81 81 79 75 73 71 64 58 55 50 47 46 44 44 45 42 39 38 40 41 39 38 40 39 37 37 36 32 30 30 32 33 31 27 24 22 22 22 23 23 25 26 27 26 24 23 22 22 22 22 21 20
91 90 88 87 88 88 89 88 88 86 86 85 84 82 80 78 76 73 69 64 60 59 57 54 51 48 47 47 45 44 45 45 44 44 43 39 40 41 37 32 30 31 33 34 32 29 26 25 26 27 28 29 29 28 27 27 25 25 25 25 24 23 22
93 93 92 91 90 90 90 91 91 90 89 88 87 86 84 82 80 78 76 73 70 69 69 69 65 59 54 52 50 50 51 50 48 47 45 42 40 40 39 36 34 35 36 36 35 33 32 34 36 37 37 37 34 30 27 26 26 26 28 29 28 26 25
95 95 95 95 93 92 92 92 93 93 92 91 90 89 88 87 84 82 80 78 77 78 78 79 77 72 66 60 57 57 56 53 51 50 49 47 44 40 39 40 41 43 43 41 39 39 41 44 45 43 42 41 38 33 29 26 25 25 28 30 31 29 28
96 97 97 97 96 95 95 94 94 94 94 93 92 92 91 90 89 86 84 82 82 83 84 83 81 79 76 73 71 69 67 63 61 59 56 55 53 49 46 47 47 48 48 47 47 49 52 54 50 46 43 40 38 35 33 31 28 25 26 28 31 31 30
96 97 98 98 98 97 97 96 95 95 95 94 94 94 93 93 92 91 89 87 86 85 85 85 84 83 80 78 77 76 74 71 69 69 67 65 64 62 59 56 54 53 53 56 59 59 60 59 55 49 44 41 40 39 38 37 33 28 27 30 31 31 31
95 96 97 97 98 98 97 97 97 96 95 95 95 95 94 94 94 93 92 91 90 89 87 86 85 85 84 82 80 78 77 75 73 74 74 74 74 73 71 68 67 67 67 67 67 65 64 63 59 53 48 46 45 43 41 40 38 33 32 34 34 33 31
95 95 95 96 97 97 98 98 98 97 97 96 96 95 95 95 95 94 94 93 92 92 91 89 87 86 85 85 84 82 81 80 79 77 76 76 77 77 76 76 76 75 73 71 70 68 67 66 63 58 54 52 52 50 46 44 43 40 38 39 40 38 33
95 95 95 95 96 97 97 98 98 98 98 98 98 97 97 96 96 95 95 95 94 93 92 91 90 88 87 85 84 83 83 82 82 80 79 79 78 78 78 77 77 76 74 73 72 71 70 69 66 63 60 58 58 57 53 50 48 45 45 48 48 45 42
98 97 97 97 97 97 98 98 99 99 99 99 99 99 99 98 98 97 96 95 95 94 93 93 92 91 90 89 88 87 85 84 83 82 81 81 81 80 79 78 78 77 76 74 73 72 72 71 69 67 65 62 62 62 60 57 54 51 52 56 54 51 51
102 101 100 100 100 100 100 100 101 101 101 102 101 101 101 100 100 99 98 97 97 96 96 95 94 93 93 93 92 92 91 89 88 86 85 84 83 82 81 80 79 79 78 77 76 75 74 73 72 70 69 67 66 66 66 64 61 58 58 59 57 55 56
105 105 104 104 103 103 103 102 102 102 103 104 104 104 103 103 102 101 101 100 99 98 98 97 97 96 95 95 94 94 93 93 92 91 89 88 87 87 86 85 84 83 82 81 80 79 77 76 75 74 72 71 70 70 69 69 66 64 63 62 61 59 58
107 108 108 108 107 106 106 105 104 104 104 104 105 105 105 105 104 104 103 103 102 101 100 100 99 98 98 97 97 96 95 95 94 94 93 92 91 91 90 89 88 87 85 84 83 81 80 79 78 77 76 74 73 73 72 72 71 69 68 67 65 63 61
108 110 110 111 110 110 110 109 108 107 106 106 105 105 106 106 106 106 106 106 105 104 104 103 102 102 101 100 100 99 98 97 97 96 96 95 94 93 92 91 90 88 87 86 85 84 83 82 81 80 79 78 77 76 76 75 74 73 72 71 70 68 66
105 108 111 113 114 115 115 113 111 110 109 108 107 106 106 106 107 107 108 108 108 107 106 106 105 104 104 103 103 102 101 100 99 98 98 97 96 95 94 93 92 90 89 88 87 87 86 86 84 83 83 82 81 80 79 78 77 76 75 74 73 72 70
107 109 112 115 116 117 118 117 115 113 111 110 109 108 107 106 107 107 108 109 109 109 109 108 108 107 106 105 105 104 103 103 102 101 100 100 99 98 97 95 94 93 92 91 91 90 89 88 87 86 86 85 84 83 82 81 80 79 78 77 76 75 73
114 115 116 116 115 114 116 118 118 116 114 112 111 110 109 108 108 107 108 108 109 110 110 110 110 109 108 108 107 106 106 105 104 104 103 102 101 101 100 99 98 97 96 95 94 93 92 92 91 90 89 89 88 87 86 85 84 82 81 81 80 79 77
118 118 119 120 118 115 114 116 118 118 117 116 114 113 113 112 111 110 109 109 109 109 110 110 110 110 110 110 109 109 108 107 107 106 105 104 104 103 102 102 101 100 99 98 97 96 96 95 94 94 93 93 92 91 90 89 88 87 85 84 83 82 81
121 121 122 123 123 121 119 117 116 116 117 118 118 117 116 115 114 113 112 111 111 110 110 110 110 111 111 111 111 110 110 110 109 109 108 107 106 105 105 104 103 103 102 101 100 100 99 98 98 97 97 96 96 95 94 93 92 91 89 88 86 86 84

ECMWFFLT1_250_spd_093.txt.gz
Wind_Speed
33 31 31 32 34 32 30 29 27 25 23 21 18 15 13 12 10 8 6 4 2 5 7 5 4 4 4 5 6 8 10 12 14 14 15 15 14 13 13 12 13 14 14 14 14 15 17 18 20 22 23 23 23 24 25 25 26 26 27 28 28 29 29
35 34 34 35 35 34 32 31 29 27 24 22 21 18 16 16 15 13 11 8 3 2 5 6 3 1 2 3 5 7 8 11 13 13 14 15 15 14 13 13 13 13 13 13 13 13 14 16 17 18 20 22 22 23 24 25 25 25 25 25 26 26 27
38 38 39 38 37 36 34 32 31 29 26 25 23 21 20 20 19 17 16 13 8 4 3 5 4 2 2 2 2 4 5 7 10 10 12 14 15 15 14 14 13 12 12 12 12 12 13 14 14 15 17 18 20 21 22 24 24 24 24 23 23 24 24
39 40 41 41 39 37 36 34 33 31 29 28 26 24 24 24 23 21 19 17 13 8 5 4 3 1 1 2 2 2 1 4 6 7 9 12 13 14 14 14 13 12 12 11 11 12 12 12 12 12 13 15 16 18 19 21 22 23 23 23 22 22 22
39 40 41 41 41 39 37 36 35 34 33 31 29 27 27 28 26 23 22 21 17 12 9 8 7 5 3 3 3 3 2 2 2 1 5 10 13 13 13 13 13 13 13 12 11 10 11 11 11 11 11 12 13 14 15 17 19 20 21 21 21 21 21
39 38 38 39 41 41 40 39 38 37 36 33 31 30 31 32 29 26 25 24 21 17 14 12 11 9 7 5 4 3 2 2 5 6 2 5 9 12 12 11 12 13 14 13 12 10 10 10 10 10 9 10 10 11 12 13 15 17 18 19 20 20 20
40 38 39 40 40 41 42 43 42 40 37 35 34 33 34 34 32 29 27 27 26 22 18 16 15 13 11 9 6 3 0 1 2 4 4 3 2 6 9 9 8 10 12 12 11 11 10 9 9 9 9 9 8 8 9 10 11 13 14 16 17 18 18
43 39 40 41 43 43 44 44 44 41 39 38 38 37 37 37 35 32 29 29 29 26 22 19 18 17 15 13 10 6 3 4 4 4 4 4 4 1 4 5 3 5 8 10 10 9 9 9 9 9 8 8 8 7 8 8 9 10 11 13 14 15 16
46 41 40 40 42 45 46 46 45 44 43 42 41 41 41 40 37 33 32 31 30 28 23 20 20 19 18 16 13 10 7 7 6 5 7 7 6 5 2 1 1 1 5 7 8 7 7 8 8 9 8 8 7 7 7 8 8 9 10 11 12 13 14
50 45 43 42 42 43 45 47 48 47 46 45 44 43 43 43 39 35 34 33 31 28 23 21 20 20 20 18 16 13 10 9 8 5 7 10 9 8 7 6 4 3 2 4 5 5 5 6 6 7 7 8 7 7 7 7 8 9 10 11 11 12 13
57 51 49 49 48 45 45 47 48 48 48 48 46 44 44 43 41 39 38 35 31 28 24 22 21 21 21 20 19 18 14 12 10 8 8 11 11 10 9 8 8 8 7 5 4 4 5 5 5 6 6 6 7 7 7 7 7 8 9 10 11 12 12
64 58 56 56 55 53 50 50 48 47 48 49 49 48 47 45 42 41 39 36 34 31 27 25 25 23 21 20 20 20 19 17 15 13 12 13 13 13 12 12 12 12 12 11 8 6 7 7 6 6 6 5 5 5 6 7 7 7 7 8 9 10 11
69 66 62 61 60 59 55 51 48 47 49 50 49 50 49 47 44 42 41 39 37 35 31 30 29 26 24 22 21 20 21 20 20 18 17 16 16 17 17 16 16 15 15 13 11 10 10 9 8 7 6 5 5 5 4 5 6 6 6 7 7 8 9
73 71 68 65 63 61 56 53 52 51 51 52 52 52 52 50 47 45 44 42 40 39 36 33 31 29 27 26 25 23 22 22 23 23 22 20 20 20 20 20 19 19 17 15 15 14 13 12 11 10 9 7 6 5 5 5 5 5 5 5 6 6 7
79 75 73 70 67 62 58 58 60 57 54 53 53 53 54 54 52 49 47 44 42 41 38 35 32 29 28 28 28 28 26 24 26 26 24 23 22 21 21 21 21 21 19 17 17 18 17 15 14 13 12 10 8 6 6 7 7 8 8 7 7 6 7
85 82 78 75 72 69 65 65 66 63 60 59 57 55 55 54 51 49 49 47 46 44 42 40 37 34 32 32 31 31 28 27 28 28 27 26 25 23 23 22 21 22 21 19 19 20 19 18 17 16 15 13 10 8 7 8 9 11 12 12 12 11 9
90 88 85 81 77 75 73 72 71 69 66 65 64 61 59 56 52 49 49 50 49 47 45 44 42 40 38 36 34 32 30 29 31 32 31 29 27 27 28 25 23 23 23 23 22 21 21 20 19 18 17 15 13 10 8 8 10 12 14 14 15 15 13
91 91 89 87 84 80 78 77 76 74 72 69 66 64 62 62 60 57 55 54 52 49 47 46 45 43 41 40 37 35 33 32 32 34 34 31 30 30 31 28 26 26 26 26 24 23 24 24 22 21 20 18 15 13 11 10 10 11 13 15 15 15 15
91 91 91 90 89 87 83 81 79 78 77 75 71 67 64 62 62 62 62 61 57 53 50 47 45 43 43 44 42 39 37 36 35 35 34 32 31 33 34 32 30 29 29 29 27 25 25 26 26 24 23 21 18 15 13 11 11 11 13 14 15 15 15
92 91 91 91 91 91 89 87 84 82 80 79 77 74 71 67 64 62 62 62 61 58 54 50 47 45 44 45 45 43 41 39 39 40 39 35 32 34 36 36 33 31 30 31 31 28 27 28 27 26 25 24 22 19 16 14 13 13 15 16 16 15 15
94 93 92 91 91 92 92 91 89 87 84 82 81 79 77 74 72 69 65 63 63 62 60 56 51 47 46 45 45 45 44 43 43 45 46 44 39 38 39 40 37 35 34 35 35 33 31 31 31 30 29 28 26 23 20 18 17 19 21 21 20 20 20
96 96 95 94 93 92 92 93 93 92 90 87 85 83 81 79 76 74 72 69 66 65 64 61 55 51 48 47 47 47 46 46 47 47 49 51 50 47 46 46 44 41 39 38 37 37 37 36 36 35 33 31 29 27 24 22 21 24 26 25 25 25 25
95 97 98 97 96 94 93 94 95 95 95 93 90 88 85 83 80 78 76 74 72 70 68 66 62 57 52 50 50 49 48 49 51 51 51 52 52 50 51 54 52 48 46 43 39 39 41 41 40 39 37 35 33 31 28 26 26 28 29 29 28 28 28
92 95 97 99 98 97 96 95 95 95 96 96 95 93 90 88 85 82 80 78 76 74 73 72 69 64 58 54 52 51 50 51 54 54 54 54 53 51 53 56 55 52 51 49 46 43 44 44 44 45 43 41 39 37 35 32 31 32 34 35 33 30 30
89 91 94 97 98 99 98 97 96 95 95 96 97 97 95 93 91 88 85 83 80 78 76 75 74 72 68 62 57 55 54 54 56 57 57 56 57 58 58 58 56 54 54 53 50 48 47 46 47 49 49 47 44 43 42 38 36 36 38 39 35 32 32
87 89 90 93 96 98 99 99 98 96 95 96 96 97 97 97 96 93 91 89 86 82 80 78 76 77 77 73 67 63 60 58 58 59 59 58 58 60 60 59 57 56 55 54 52 51 49 48 49 50 51 50 48 48 48 44 41 40 41 41 39 36 37
91 92 91 91 92 95 97 100 100 99 98 96 96 96 97 97 97 97 95 94 91 88 86 83 81 81 82 80 77 74 71 67 65 64 62 60 60 60 60 59 58 58 58 56 55 53 51 51 52 52 52 51 51 51 52 50 47 46 45 46 45 44 42
94 95 94 93 93 93 94 97 100 101 101 100 98 97 96 96 96 96 96 96 95 93 91 89 87 86 85 84 83 83 80 78 75 73 71 69 66 64 63 62 62 62 61 60 58 57 57 58 60 59 58 58 57 55 55 56 56 55 55 54 52 51 49
97 98 97 95 95 95 94 95 97 99 101 103 102 101 100 98 96 95 95 95 95 95 95 94 93 92 90 88 88 88 86 84 83 82 81 79 77 75 73 72 71 71 70 69 67 67 67 69 69 69 68 68 67 65 63 64 64 65 64 62 59 57 55
99 100 102 100 97 97 96 96 97 98 99 100 102 103 103 102 101 99 98 96 95 95 95 96 96 96 95 94 93 92 91 90 88 87 87 85 85 84 83 83 82 82 81 80 80 79 78 78 77 76 75 75 75 73 71 70 70 70 69 67 65 62 59
100 102 104 104 102 100 99 99 99 99 98 99 99 101 102 103 103 103 102 100 99 97 96 96 97 97 97 97 97 96 96 95 94 93 91 90 88 88 88 88 88 87 87 87 86 85 83 81 80 79 79 79 79 78 76 75 74 73 71 70 69 66 62
103 104 105 105 104 103 103 102 101 101 100 100 99 99 100 101 102 103 104 103 102 101 100 99 98 98 98 98 98 99 98 98 98 97 96 95 93 92 91 91 91 90 89 88 87 86 84 83 83 83 83 82 82 80 79 78 76 75 74 72 70 69 67
101 102 103 105 105 105 105 104 103 103 102 101 101 100 100 100 100 101 103 104 104 104 103 103 102 101 101 100 100 100 100 100 99 99 99 98 97 96 95 94 94 94 93 92 90 88 87 86 86 86 86 85 84 82 81 79 78 77 76 74 73 73 73
103 100 100 102 105 106 105 105 105 105 104 104 103 103 102 101 101 100 101 102 103 104 105 105 104 104 103 103 103 102 102 101 101 100 100 100 99 98 97 97 96 96 96 95 94 92 91 90 89 88 87 86 85 84 83 82 81 80 79 78 78 78 78
110 108 105 104 104 105 105 105 106 106 106 106 105 104 103 103 102 101 101 101 101 102 103 105 105 106 106 105 105 105 104 104 103 103 102 102 101 100 100 99 98 98 97 97 96 95 95 93 92 91 90 89 88 88 88 87 86 85 84 84 84 83 82
114 114 112 110 109 108 107 106 107 107 107 108 107 105 105 104 104 104 103 103 102 102 102 103 104 106 107 107 107 107 107 107 106 106 105 105 104 103 102 101 101 100 99 99 98 98 97 96 96 96 95 94 94 93 93 92 91 90 90 89 88 87 85
115 116 116 115 114 113 112 111 110 109 108 108 109 108 108 108 108 108 107 106 105 105 104 104 104 105 106 108 109 109 109 109 109 109 108 108 107 106 105 104 103 102 102 101 101 100 100 99 99 99 99 98 98 97 96 95 94 94 93 92 91 90 88
117 117 117 117 117 117 117 117 116 114 112 111 110 110 110 111 111 111 111 111 110 109 108 107 106 106 106 106 107 109 110 111 111 111 111 111 110 110 109 108 107 106 105 104 104 103 103 102 102 101 101 100 100 99 99 98 97 96 95 95 94 92 91

ECMWFFLT1_250_spd_096.txt.gz
Wind_Speed
37 35 33 32 31 29 28 27 25 24 22 20 18 16 14 12 11 9 7 4 4 4 5 3 3 3 5 7 10 11 12 12 12 13 14 14 13 13 13 13 13 14 15 15 16 17 18 18 19 18 19 19 19 19 20 20 21 22 23 24 24 25 25
39 37 35 34 33 31 30 29 28 27 25 23 21 19 17 15 14 13 11 8 5 2 3 3 3 3 2 4 7 9 10 11 12 13 14 14 14 13 12 12 12 11 12 13 14 14 15 16 17 17 17 18 18 19 19 19 20 20 20 22 23 24 25
42 40 38 37 36 34 32 32 31 30 28 26 24 22 21 20 18 16 14 12 9 6 4 3 3 3 3 2 4 6 8 8 9 10 13 14 15 14 13 12 12 11 11 11 11 12 13 13 14 15 15 16 17 17 18 18 18 19 19 20 21 22 23
44 42 41 40 39 35 33 33 33 32 31 29 27 26 25 24 22 19 17 16 14 12 9 6 3 3 3 2 3 5 6 6 6 7 10 12 14 15 15 13 12 12 11 10 10 10 10 11 12 12 12 13 14 15 16 17 17 18 19 19 19 20 21
46 45 44 43 40 37 35 33 34 35 34 33 31 30 30 28 26 23 20 19 18 16 14 10 7 5 4 4 4 5 6 4 2 3 6 9 11 13 14 13 12 12 12 11 10 9 9 9 10 10 10 10 11 11 12 14 15 16 17 18 18 19 20
49 49 48 45 43 40 38 35 36 37 37 36 35 34 33 31 29 27 24 22 21 19 17 15 12 9 8 7 6 6 4 3 1 1 4 6 8 11 11 11 10 10 10 11 11 10 10 9 8 8 9 9 8 9 9 10 11 13 14 15 16 17 18
51 51 50 47 45 44 42 40 39 39 40 39 38 37 36 34 31 29 27 25 24 22 20 19 15 13 12 11 10 7 3 4 5 3 5 4 4 6 8 9 8 7 8 9 9 9 9 9 9 8 8 8 8 8 7 8 9 10 11 12 14 15 15
53 52 50 47 45 44 44 43 41 41 41 41 40 39 37 36 34 32 30 28 28 26 24 22 20 17 16 16 15 10 6 6 7 7 6 4 1 2 3 5 6 6 7 8 8 7 7 8 8 8 7 7 7 7 7 7 7 8 9 10 11 13 13
53 53 51 47 45 44 45 46 45 44 43 41 40 39 38 38 36 34 33 32 31 29 27 26 25 22 19 19 19 16 11 9 10 10 10 8 4 3 3 2 2 3 4 6 6 6 5 6 7 7 7 6 6 6 6 6 6 6 7 7 9 10 11
54 55 53 49 48 47 47 48 47 46 44 41 41 41 40 40 39 36 35 35 34 32 30 29 28 26 23 21 22 21 17 14 13 12 12 12 9 6 7 7 6 5 3 3 3 4 5 5 5 6 6 5 5 5 5 6 6 6 6 6 6 7 8
56 57 55 51 51 50 48 47 48 46 43 41 42 44 44 43 41 38 39 40 37 34 33 32 30 28 26 24 25 25 22 19 16 15 15 14 11 10 10 10 10 10 8 5 3 2 3 4 5 5 5 5 4 4 5 5 6 6 6 6 6 6 6
59 58 57 53 52 51 47 46 46 46 45 42 42 45 46 46 44 42 42 42 41 38 36 35 33 31 29 27 26 27 26 23 20 18 17 16 15 14 13 12 10 10 9 9 9 8 6 6 7 6 6 5 5 4 4 4 5 6 6 7 7 7 7
63 60 59 56 53 51 47 45 46 46 48 48 46 45 44 45 46 46 45 44 43 42 40 38 36 34 31 28 28 29 28 26 25 23 20 19 18 18 17 15 13 12 11 11 13 12 11 11 10 9 8 7 7 6 6 5 5 6 7 8 8 8 9
67 63 61 58 54 52 49 47 49 49 50 52 53 51 48 46 47 47 47 46 46 45 44 42 40 37 34 31 30 30 31 29 27 26 25 22 21 20 19 18 17 15 14 14 15 15 15 14 13 12 11 10 9 8 7 7 6 6 7 8 8 8 9
71 66 63 59 55 53 53 53 54 54 54 54 56 57 55 52 50 48 48 48 47 47 46 45 43 41 38 36 34 33 33 32 29 28 27 25 23 22 22 20 19 17 16 17 17 17 16 16 15 13 12 12 12 10 9 8 7 6 5 6 7 7 8
75 68 64 60 57 58 59 59 58 58 57 56 56 57 56 54 53 51 50 50 49 49 49 47 46 44 42 40 38 36 36 35 33 31 29 27 25 24 23 23 22 20 18 18 19 19 18 18 17 15 14 14 14 13 11 10 8 7 6 5 5 5 7
78 73 69 63 62 64 64 61 59 58 59 58 57 56 55 55 55 55 53 52 52 53 52 50 49 48 46 44 42 40 38 37 36 35 33 31 28 26 25 25 26 25 22 20 20 21 21 20 19 17 16 16 16 15 14 13 10 8 7 5 3 2 3
81 78 74 68 67 69 68 64 60 58 59 60 59 58 56 55 57 57 56 56 56 55 54 53 52 51 49 47 45 42 40 38 38 38 37 34 31 29 27 27 28 28 27 24 23 24 24 24 22 20 19 18 18 18 17 16 14 11 8 6 3 1 1
87 84 79 73 72 73 72 68 64 60 60 60 60 60 58 57 57 58 58 58 58 56 53 52 52 52 50 49 47 45 43 41 40 40 38 35 32 30 30 30 31 31 31 29 27 27 28 27 25 23 22 20 20 20 20 19 18 16 12 8 4 2 1
94 93 88 80 76 76 76 74 70 66 64 62 61 61 61 59 59 59 59 59 59 57 54 52 51 51 49 47 47 46 44 43 43 43 41 38 35 33 33 32 32 32 33 33 30 29 29 29 28 26 25 23 23 24 24 23 22 20 18 15 10 6 5
97 98 97 90 83 80 80 79 75 73 71 69 67 65 63 62 61 61 62 63 62 59 57 55 54 53 50 47 47 47 45 43 44 45 45 43 40 38 37 34 32 32 33 33 32 31 32 31 30 29 27 26 27 28 28 26 25 25 24 22 19 14 10
97 99 101 99 93 88 86 85 82 79 77 75 73 71 69 67 65 63 61 64 66 65 61 57 56 56 55 54 53 52 50 49 49 49 48 47 46 44 43 40 36 35 34 34 35 36 37 37 34 32 30 29 30 31 31 30 30 29 28 27 26 22 17
98 99 101 102 101 97 94 92 90 86 83 80 78 76 74 74 73 68 63 64 67 68 65 61 59 57 56 56 56 55 54 53 52 51 50 50 49 48 47 45 43 39 38 38 38 38 39 40 39 36 33 33 33 34 34 34 34 33 31 31 31 29 26
98 99 100 101 102 102 100 99 97 95 91 87 84 81 78 78 78 76 74 72 71 71 69 67 64 62 60 59 58 57 56 55 54 53 52 51 51 51 50 49 48 44 43 44 44 43 42 42 40 38 36 37 38 39 40 39 38 36 35 34 35 35 33
96 98 100 102 102 102 102 101 101 100 98 95 93 89 85 83 81 81 81 80 77 75 73 72 72 70 67 66 66 65 64 61 59 56 54 51 52 52 52 52 51 49 50 50 50 50 50 49 47 45 43 43 43 43 43 43 41 40 39 38 38 39 39
95 96 97 100 102 103 103 103 102 102 101 100 99 97 94 90 88 86 85 83 83 81 78 77 76 74 70 69 71 71 70 68 64 62 58 55 53 53 54 54 52 53 55 55 54 54 53 54 57 57 54 50 47 47 47 46 45 44 44 43 43 43 43
95 96 97 98 100 102 104 105 104 104 104 103 103 102 100 98 96 94 91 88 88 87 84 82 81 78 74 73 73 72 70 69 67 66 66 62 58 56 56 56 54 55 59 60 59 58 55 56 61 63 60 56 53 51 51 50 49 48 49 49 49 48 48
97 97 97 99 100 101 103 105 106 106 106 106 105 104 103 103 102 101 99 97 95 93 90 87 85 83 81 80 78 77 75 72 69 68 69 68 65 62 61 59 56 57 61 63 63 61 60 62 65 65 63 61 58 55 54 54 53 52 53 53 53 52 51
99 99 99 100 101 102 102 103 105 107 108 108 108 107 106 105 104 103 103 102 101 100 98 95 92 89 88 86 85 83 82 80 77 74 73 73 71 69 67 63 59 59 63 66 65 64 63 64 66 67 66 65 62 59 58 57 56 55 55 55 56 55 53
96 98 100 101 101 102 103 104 105 107 108 109 110 109 108 107 107 106 105 103 103 102 101 100 98 96 95 93 91 89 87 84 82 81 81 79 78 77 75 71 67 65 66 67 68 69 68 65 63 62 64 66 66 64 62 60 59 58 57 56 56 56 56
97 97 98 100 101 101 103 105 107 108 108 109 109 110 110 109 109 108 107 106 105 104 102 102 101 100 99 99 98 96 93 90 87 86 86 85 84 83 82 80 77 74 72 71 71 71 72 70 67 64 63 65 67 67 65 63 63 62 61 60 58 58 58
99 99 99 101 102 102 103 105 107 108 108 108 109 109 109 110 110 110 109 108 108 106 105 103 102 101 101 101 101 101 99 97 95 92 91 90 89 88 87 86 85 82 79 78 76 74 73 73 73 72 70 69 69 68 67 66 66 65 65 64 63 62 63
97 98 99 100 100 102 105 107 109 110 109 108 108 108 108 108 109 109 110 110 109 109 108 106 105 104 103 102 102 103 103 102 101 100 98 96 94 93 92 91 90 87 85 84 82 81 79 77 75 75 75 74 72 71 71 70 69 69 68 68 69 69 70
99 99 101 102 101 101 103 106 108 109 109 108 108 108 107 107 108 108 108 109 109 109 109 108 107 107 106 105 104 104 104 104 104 104 103 102 101 100 98 97 95 93 91 90 88 87 87 85 83 80 79 78 77 76 76 76 76 76 77 78 79 79 80
102 101 102 104 105 106 107 107 107 107 107 108 109 109 108 108 107 107 107 107 108 108 108 109 109 109 108 107 107 106 106 105 105 105 105 106 105 105 105 103 102 99 98 96 95 94 93 92 91 90 88 87 87 86 86 86 87 88 89 89 89 88 88
108 105 103 104 105 107 109 110 110 108 107 107 107 108 109 110 109 108 108 107 107 107 108 108 109 109 110 110 109 109 108 108 107 107 107 106 107 107 108 108 107 106 104 103 102 101 100 99 98 98 97 95 95 94 94 94 95 95 95 95 94 93 93
113 112 110 110 109 109 110 110 111 110 109 109 109 108 108 109 110 110 110 110 109 108 108 108 108 109 110 110 111 111 111 110 109 109 108 108 107 107 108 108 108 108 108 108 107 106 106 105 105 104 103 102 101 100 99 99 99 99 99 99 98 98 98
115 115 115 115 115 115 114 114 113 112 111 112 112 112 110 110 110 110 111 111 111 110 110 110 110 109 109 110 110 111 112 112 112 112 111 111 110 109 108 108 108 108 108 108 108 108 108 108 108 108 108 108 107 106 105 105 105 104 104 103 103 103 102

ECMWFFLT1_250_spd_099.txt.gz
Wind_Speed
39 36 37 36 35 34 29 26 25 24 23 21 17 15 14 12 9 7 5 4 4 3 3 3 4 5 6 7 7 7 7 7 8 10 11 12 13 13 13 13 13 13 13 13 14 15 16 17 17 18 19 19 20 22 23 24 25 26 28 28 29 29 28
42 39 38 38 38 37 33 29 28 26 26 24 21 18 17 15 13 10 8 6 4 3 3 3 3 3 4 5 6 6 5 5 6 7 9 10 12 13 12 12 12 12 11 11 11 12 13 15 16 16 17 18 19 20 21 22 24 24 25 26 27 27 27
44 42 40 41 42 40 36 32 31 29 28 27 24 22 20 19 17 15 12 10 7 5 4 3 3 3 3 3 4 4 4 4 4 5 6 8 10 12 12 11 11 11 10 10 10 10 10 11 13 14 15 16 17 18 19 20 21 22 23 24 25 25 25
45 44 42 42 42 41 37 34 33 31 31 30 28 25 24 22 21 18 17 15 12 10 8 5 3 3 3 3 3 3 4 3 3 3 4 6 8 10 11 12 11 11 10 10 9 9 9 9 10 12 13 15 16 17 18 18 19 19 20 21 22 23 24
46 45 45 44 43 41 38 36 35 34 34 33 31 29 28 26 24 22 21 19 17 15 13 11 8 5 4 3 3 3 3 3 1 1 2 4 5 7 8 10 10 11 11 11 10 9 9 9 9 9 11 13 14 15 16 17 17 17 17 19 19 19 20
50 49 47 47 47 44 40 39 37 36 36 35 34 33 31 30 27 25 24 23 20 18 16 15 13 10 8 6 5 4 3 3 1 1 3 4 3 3 5 7 8 9 10 11 11 10 9 9 8 9 10 11 13 14 14 15 15 15 16 17 17 17 17
52 51 50 51 51 47 43 40 38 37 37 37 36 35 34 33 30 28 27 25 24 22 19 18 17 15 13 11 9 6 4 3 3 3 4 6 5 4 3 3 5 6 8 10 11 11 10 10 9 9 9 10 11 12 13 14 14 15 15 15 16 16 15
54 52 53 55 53 49 46 43 41 39 39 38 37 38 37 35 33 31 29 27 26 25 23 21 20 19 16 15 13 10 7 6 6 6 6 7 4 3 4 2 2 2 3 7 9 9 9 10 10 9 9 10 10 10 11 13 14 14 14 15 15 15 15
55 54 55 56 55 53 50 47 43 40 40 40 39 38 38 37 35 34 32 30 28 26 25 24 23 21 19 18 18 15 11 10 9 9 9 9 5 2 4 4 2 1 1 3 6 7 8 8 9 9 10 10 10 10 10 11 12 14 14 14 15 16 16
56 56 55 55 55 55 54 50 44 40 40 42 41 38 38 39 38 37 35 33 31 29 28 27 26 25 23 21 21 19 17 14 13 13 13 13 11 8 7 6 5 6 5 1 3 6 8 8 8 8 9 9 10 10 10 10 11 12 14 14 15 16 17
57 58 57 55 55 55 55 52 47 45 44 45 44 42 42 43 41 39 38 37 35 33 32 31 29 28 26 25 24 23 22 20 18 17 17 16 15 13 11 9 9 10 9 6 2 4 7 9 9 9 9 9 9 9 9 9 10 11 12 13 14 14 15
60 60 59 57 56 55 55 55 53 51 50 50 51 49 46 45 43 42 42 40 39 37 35 35 33 31 30 29 27 26 25 24 22 21 21 20 18 16 15 14 12 11 11 10 7 5 7 8 10 10 10 9 9 9 9 8 8 9 10 11 12 12 13
65 63 61 58 56 53 54 58 57 55 56 56 54 50 48 45 44 44 44 42 41 40 39 37 36 34 34 32 30 29 28 26 25 24 23 23 22 20 18 17 15 13 12 11 11 10 9 9 10 11 11 10 9 9 10 10 8 7 7 8 9 10 10
68 66 64 60 58 53 51 57 60 59 59 58 53 50 49 48 47 45 44 44 43 43 41 40 39 38 37 35 33 31 30 29 27 27 26 26 25 23 21 20 19 16 15 14 14 13 12 11 11 11 11 11 10 10 10 11 10 8 6 6 6 7 8
69 68 66 63 61 56 51 56 62 62 60 57 54 52 51 50 49 46 44 46 46 45 44 43 43 42 40 38 36 34 32 31 30 28 29 29 28 26 24 23 21 19 19 18 17 14 14 14 13 13 12 12 11 11 11 11 12 10 7 5 4 5 5
70 69 68 66 65 61 54 55 62 63 61 59 57 55 54 54 52 47 46 49 49 49 49 49 47 46 44 42 40 37 35 35 33 31 30 30 30 30 28 27 24 22 22 21 20 18 16 15 15 15 14 14 13 12 12 12 12 12 10 7 4 2 3
72 70 68 67 69 66 59 57 61 64 63 62 62 59 56 57 57 52 51 52 52 52 54 54 52 49 48 45 42 40 39 38 36 34 33 32 32 32 31 29 28 27 25 23 22 22 21 19 18 18 17 17 16 15 14 14 14 13 12 9 6 4 1
73 71 68 69 72 71 65 59 59 63 65 64 63 61 57 57 59 59 57 56 54 53 55 56 54 51 50 48 45 44 44 43 40 38 36 35 34 33 33 31 31 30 27 25 23 22 23 22 22 21 20 20 20 18 17 17 15 14 13 11 8 6 3
71 73 73 73 73 71 69 65 62 62 66 67 65 62 58 57 58 60 61 59 56 55 56 56 54 52 51 49 45 45 46 46 44 42 40 38 37 36 35 35 34 33 30 28 26 24 24 24 24 24 23 24 24 23 22 19 17 17 16 13 11 9 6
78 81 82 79 76 73 70 69 67 64 64 67 67 65 61 58 57 56 58 58 58 57 57 56 55 55 54 52 48 47 47 47 46 45 43 42 41 40 39 38 38 37 35 33 30 28 26 26 27 27 27 28 28 28 27 22 20 20 19 16 14 13 11
85 88 89 86 83 81 75 71 70 67 65 65 67 67 65 62 59 57 56 56 56 57 57 58 58 58 57 56 55 53 51 49 48 48 47 45 44 43 41 41 41 40 40 38 35 31 29 29 29 29 30 32 32 32 31 26 24 24 23 20 18 17 17
80 81 89 92 90 88 86 80 75 71 68 67 66 66 66 65 63 60 58 56 55 56 57 59 60 59 57 56 56 57 55 51 49 50 51 50 49 47 43 42 42 42 42 40 37 33 31 31 31 31 32 33 33 34 34 30 28 28 26 24 22 21 22
76 69 77 88 92 93 93 91 85 77 72 70 68 66 65 65 65 64 62 60 58 57 57 58 58 58 57 57 58 59 57 53 51 52 52 52 52 51 47 44 42 42 42 42 40 36 34 35 34 32 33 34 34 35 35 32 30 30 29 28 27 26 26
84 72 70 79 88 93 96 96 94 88 80 75 72 70 66 65 65 65 65 64 63 60 59 57 56 56 58 59 60 60 57 56 56 55 53 53 53 53 51 49 46 44 43 43 42 40 39 39 38 35 35 37 38 39 38 36 34 33 32 31 31 30 30
88 79 74 79 86 91 96 98 98 96 91 84 79 75 71 68 66 66 67 68 67 64 63 63 61 60 62 62 61 61 61 61 60 57 54 53 53 52 52 52 51 49 46 43 42 42 42 43 44 44 42 41 41 43 44 42 40 39 38 36 35 34 34
90 83 80 85 91 93 95 97 98 99 99 95 88 81 76 73 70 68 68 70 70 67 66 67 67 67 65 63 63 66 67 67 64 61 58 56 53 51 51 52 51 51 50 47 46 47 48 48 49 51 50 47 44 45 46 44 42 42 41 40 39 38 38
97 93 90 92 95 96 97 98 99 100 100 100 96 88 81 79 77 72 71 72 73 72 69 67 69 69 66 64 65 70 73 72 68 65 64 63 60 57 55 54 54 54 54 54 54 55 56 56 55 55 54 54 51 50 49 47 43 42 43 43 43 43 42
100 100 100 101 100 99 99 100 101 102 101 102 102 97 89 85 83 79 76 76 76 76 73 69 69 70 69 67 67 70 74 75 70 68 70 71 69 67 65 63 63 61 59 59 59 59 59 61 61 60 60 60 59 57 56 53 49 47 46 46 47 47 46
100 101 102 104 105 102 100 100 102 104 105 105 106 105 100 94 90 86 84 82 81 81 79 75 73 73 72 71 70 71 74 74 71 72 75 76 74 72 72 71 69 66 64 63 62 61 60 62 63 63 63 64 64 63 61 59 58 56 55 54 53 53 53
100 101 102 104 106 105 103 102 102 104 107 109 109 109 107 103 98 94 91 89 87 86 85 82 81 79 78 76 74 73 74 73 72 74 78 80 79 77 76 75 72 68 67 67 67 65 64 65 65 65 64 64 65 66 66 66 67 66 64 63 61 60 60
100 101 102 104 105 105 105 104 103 105 108 110 111 111 111 110 107 102 99 97 94 92 90 88 87 87 87 85 82 80 77 75 73 75 78 81 83 82 80 79 76 72 71 71 72 71 69 68 67 67 66 65 64 65 65 66 66 67 67 66 66 65 64
99 100 101 103 105 106 105 105 105 105 108 110 111 111 113 114 114 111 109 107 104 100 97 95 93 92 92 92 91 90 88 84 80 79 79 80 82 83 83 82 81 79 78 77 78 78 77 75 73 71 70 68 66 65 64 63 64 65 65 65 66 66 66
101 100 100 101 103 106 107 107 107 106 106 109 111 112 113 114 116 117 116 115 114 111 108 105 102 100 98 98 97 97 96 95 92 90 87 85 83 84 85 86 86 85 84 83 82 82 82 81 79 77 76 74 72 70 67 66 66 66 65 64 65 66 67
104 103 102 101 101 103 105 107 109 108 107 108 110 113 114 115 116 118 119 120 119 119 117 115 113 110 109 107 106 104 103 102 100 99 97 94 91 88 88 88 90 90 89 88 87 86 85 84 81 79 77 77 76 75 74 72 71 69 67 66 66 67 68
105 106 106 105 104 103 103 104 106 108 109 109 110 111 113 114 116 117 119 121 122 122 121 121 120 118 117 116 115 113 111 110 108 107 105 103 101 98 95 94 94 95 94 94 94 93 92 90 87 85 83 82 81 81 80 80 79 76 73 72 71 71 72
106 106 107 108 108 107 106 105 105 105 106 107 110 112 114 115 115 116 118 120 121 122 123 123 122 122 121 120 119 118 116 115 115 114 113 111 109 107 105 103 102 101 101 100 100 100 99 97 95 92 91 90 89 88 87 87 86 85 84 83 81 79 78
109 108 109 109 110 110 109 108 107 107 106 105 106 109 113 115 116 117 118 119 120 121 122 123 123 123 123 122 122 120 119 118 118 117 117 116 115 114 113 112 110 110 109 108 107 107 106 105 102 100 98 97 96 95 94 93 92 91 91 91 91 89 87
112 112 111 111 112 113 113 111 109 109 109 109 108 108 110 112 114 116 118 119 119 120 121 122 122 123 123 123 123 123 122 121 120 120 119 119 119 118 118 117 116 115 115 115 114 114 113 113 111 109 108 106 105 103 102 100 99 97 97 96 97 97 96

ECMWFFLT1_250_spd_102.txt.gz
Wind_Speed
28 26 26 27 27 24 23 23 23 21 19 17 16 14 12 8 6 5 4 4 4 5 5 4 4 4 3 3 4 4 5 5 6 6 6 9 13 15 17 19 20 19 19 19 19 21 22 24 24 23 23 23 23 23 23 23 23 24 25 24 24 23 22
33 28 28 29 28 27 25 25 26 23 21 20 19 18 15 13 9 7 6 4 3 4 4 4 3 3 3 2 2 2 3 4 5 6 6 8 11 14 15 17 19 19 20 20 19 20 21 22 23 23 23 23 23 23 22 21 21 22 24 24 24 24 23
37 33 30 30 30 29 27 27 27 26 24 23 22 21 19 17 14 11 9 7 5 4 4 3 4 3 2 2 2 0 1 3 4 5 6 7 8 11 13 15 17 19 20 20 20 20 21 21 21 22 23 23 23 23 23 21 20 20 21 22 23 23 24
39 36 32 31 32 31 29 28 29 29 28 26 25 23 23 21 18 15 13 11 9 7 5 4 3 3 3 3 3 2 1 0 2 2 3 6 7 8 10 12 15 18 19 19 19 20 21 21 21 21 21 22 22 23 23 22 22 21 21 21 21 23 24
40 37 34 34 36 35 32 30 31 32 32 30 28 26 26 25 23 20 18 16 14 11 9 8 6 5 4 4 3 3 4 4 2 1 1 2 5 6 7 9 12 15 17 18 18 18 19 20 21 21 21 20 20 21 22 22 22 22 22 21 21 22 22
42 40 37 37 39 38 35 33 33 34 35 34 32 30 29 28 26 24 22 20 19 16 14 13 12 10 8 7 5 4 4 4 1 2 2 2 3 4 5 6 8 11 14 16 17 17 17 18 19 20 21 21 20 20 21 21 20 20 21 21 21 21 21
42 41 38 38 38 37 34 35 36 36 38 38 36 33 32 30 29 27 26 24 22 20 19 18 16 15 14 12 10 7 5 3 1 1 2 3 3 4 4 4 5 8 10 12 15 16 16 16 17 18 19 20 20 20 19 20 19 18 18 19 19 19 19
40 41 40 38 38 38 35 36 38 39 39 40 39 37 34 32 31 30 29 28 26 24 22 22 21 20 19 17 14 12 7 4 2 3 3 3 3 3 4 4 2 4 6 8 11 13 14 14 15 15 16 17 18 19 18 18 18 17 17 17 17 18 18
42 41 39 39 41 42 41 40 40 41 42 41 40 39 35 32 33 33 32 32 30 27 26 25 25 23 22 21 19 16 12 9 7 5 5 5 5 4 5 5 3 1 2 3 6 8 11 12 12 13 13 13 14 16 16 16 16 16 16 16 16 16 17
47 45 42 42 45 46 46 44 41 41 44 43 40 39 36 32 34 36 36 35 33 31 30 29 28 26 24 24 23 20 17 14 12 10 9 9 9 9 10 9 7 5 4 3 2 4 7 9 10 11 11 11 11 12 13 14 14 14 14 14 15 15 16
47 49 46 45 49 50 49 48 43 40 44 47 44 40 37 34 36 38 38 37 35 33 32 31 30 28 27 27 26 24 21 19 17 16 14 13 13 13 13 13 11 10 10 9 7 4 5 8 8 9 10 10 9 9 9 10 11 11 11 12 13 14 15
45 48 46 44 48 50 50 51 49 44 43 46 46 42 39 38 39 38 38 39 38 35 34 32 30 28 28 29 29 28 26 24 21 20 19 19 18 17 16 15 15 14 13 12 10 8 6 7 8 8 8 8 9 8 8 8 8 9 9 9 10 11 13
46 45 43 41 45 50 51 50 51 50 48 47 45 42 41 41 41 39 38 39 38 37 37 36 33 31 31 31 31 31 30 28 26 24 22 22 21 20 19 18 17 16 14 13 12 11 9 9 9 9 7 7 7 8 8 7 7 7 7 7 7 8 10
49 46 44 43 45 50 53 51 48 47 49 52 52 48 45 44 42 40 40 41 41 40 40 39 37 36 34 34 34 34 33 32 30 28 26 25 24 23 22 21 20 19 18 16 14 14 13 12 12 12 10 8 7 7 7 8 7 7 6 5 4 4 7
58 55 53 53 52 53 56 57 54 49 47 50 53 51 48 46 43 40 40 41 42 42 40 40 41 40 39 37 37 36 35 34 34 32 29 27 26 25 24 23 23 22 21 20 19 18 17 15 15 15 14 11 9 8 8 9 9 8 7 6 4 3 3
64 62 61 62 62 61 61 62 63 62 59 57 56 54 52 50 47 45 43 41 41 43 43 43 44 43 42 41 40 39 38 38 37 36 34 31 29 27 26 25 25 25 24 23 22 22 21 19 18 18 17 15 13 12 10 10 10 9 9 8 6 5 2
66 64 64 66 66 66 66 67 67 67 68 66 64 62 60 58 54 52 51 50 49 50 48 47 46 45 44 44 43 42 42 42 41 40 37 34 31 30 30 28 27 26 26 26 26 26 25 23 22 21 19 17 16 15 14 14 12 11 11 11 10 8 7
62 62 64 66 68 69 68 70 70 68 67 68 67 66 65 63 61 59 58 58 59 58 54 51 50 48 46 44 44 45 46 46 46 43 40 38 36 34 33 32 31 29 28 29 30 30 30 28 26 24 21 19 19 18 19 18 15 13 14 14 13 12 10
58 63 67 69 71 72 70 71 72 69 66 65 65 66 66 66 65 65 63 61 62 61 58 55 54 52 49 48 48 49 50 50 48 45 43 42 40 39 38 36 35 33 32 32 33 33 33 32 30 26 23 22 21 21 23 21 18 17 17 16 16 15 14
64 69 74 74 74 73 71 72 73 72 68 65 62 62 65 67 68 68 67 64 64 64 61 59 57 55 53 52 54 54 53 51 49 47 46 46 45 44 43 40 39 38 36 36 36 36 35 34 32 29 26 25 24 24 25 24 22 21 22 21 19 18 18
76 77 78 78 77 76 73 73 75 75 72 69 66 63 63 67 70 71 71 69 68 66 63 61 59 58 57 56 56 57 56 52 49 48 48 47 46 46 45 43 42 41 41 41 40 39 39 37 36 34 31 30 29 27 27 27 26 25 25 25 23 21 21
86 84 83 82 81 81 77 75 77 79 77 74 73 69 65 65 69 72 74 74 71 68 65 62 60 60 61 60 58 59 59 55 51 50 49 46 45 46 45 43 41 41 42 43 43 42 42 41 40 39 37 35 34 32 31 30 29 28 28 29 28 26 25
89 87 86 84 83 85 83 77 78 83 83 80 79 76 71 68 67 69 73 76 75 70 66 64 63 62 62 61 61 61 61 59 55 54 53 50 48 48 47 47 46 45 46 47 46 45 44 42 41 41 40 39 38 37 35 33 33 33 32 31 31 30 29
91 90 89 87 86 88 87 81 79 84 87 86 84 81 77 73 70 68 69 72 75 72 69 68 67 65 63 62 62 63 63 62 59 57 56 55 53 52 52 52 51 51 50 49 47 46 45 43 42 42 41 41 40 40 38 36 35 35 34 33 32 32 32
92 92 93 92 91 92 92 88 84 84 86 86 86 86 84 79 75 72 70 70 72 73 72 71 70 68 66 64 63 64 64 64 62 60 58 57 56 56 56 56 53 50 49 47 46 44 44 44 44 44 43 42 42 42 40 38 37 36 35 34 34 33 33
95 93 94 95 96 96 97 96 93 90 89 87 86 87 90 88 82 77 74 72 71 71 72 72 70 70 69 68 67 67 67 67 66 64 61 58 57 57 58 58 57 54 53 52 49 47 45 45 47 47 46 44 44 44 44 43 42 40 37 35 35 36 36
101 99 98 98 97 96 97 99 99 98 97 95 91 88 90 93 90 84 78 76 74 72 71 72 72 71 70 70 69 69 69 69 68 66 63 61 60 61 62 62 61 60 59 58 55 52 50 48 50 52 50 46 44 46 47 47 46 46 43 40 39 39 39
100 102 101 100 99 97 96 99 101 102 102 102 100 94 90 92 95 92 85 80 77 75 73 72 72 72 72 72 71 69 68 69 69 69 67 64 62 64 65 66 66 64 62 61 58 56 54 53 53 55 55 50 47 49 50 50 48 49 49 48 46 44 43
99 100 100 100 100 98 97 98 101 103 103 103 103 101 95 92 94 96 93 87 81 78 76 74 73 72 71 72 73 73 71 70 71 71 70 68 68 69 69 69 70 69 66 65 62 58 58 58 57 60 62 60 58 56 54 52 50 49 51 51 51 51 50
101 102 101 100 100 100 99 99 100 102 103 103 104 105 102 97 95 96 98 95 89 84 80 77 75 73 72 71 72 74 75 75 73 73 73 72 73 74 73 72 73 73 71 69 66 62 62 62 61 63 66 66 66 65 62 58 55 54 55 56 56 55 55
100 103 104 103 102 101 101 101 101 101 102 102 103 105 106 104 101 99 98 99 98 94 90 86 82 78 75 74 73 75 77 78 78 77 76 76 76 77 75 74 75 76 75 73 70 66 65 65 65 65 65 66 66 68 68 66 63 62 63 64 63 62 60
97 100 102 103 103 102 103 104 104 104 104 103 103 104 106 106 106 104 102 100 101 101 101 98 94 88 84 80 77 76 78 80 81 81 80 79 79 79 78 78 78 78 78 77 74 70 68 70 70 69 68 68 68 68 69 69 68 68 68 69 69 68 66
96 97 100 102 102 102 102 104 106 107 107 106 105 104 105 107 108 108 107 105 104 104 105 105 103 99 96 92 86 82 80 81 81 82 83 82 82 82 81 81 81 80 80 80 78 74 71 73 75 74 73 74 74 73 73 74 74 73 72 72 73 73 71
95 95 98 101 103 103 102 103 104 106 108 109 108 107 107 107 108 108 108 108 108 107 107 109 109 108 106 105 100 92 87 86 84 83 83 83 84 84 84 84 84 83 82 82 83 80 76 75 77 78 78 79 81 81 81 81 81 79 78 77 77 77 76
96 97 98 101 103 104 104 104 104 105 107 109 110 109 108 109 110 110 109 109 110 110 109 109 112 113 113 113 110 104 97 93 91 89 87 85 83 83 84 85 86 86 84 83 84 84 82 80 80 81 83 84 86 87 88 89 88 86 85 84 83 81 80
98 98 99 101 103 104 105 106 106 106 107 108 110 110 109 109 110 112 112 111 111 111 111 110 110 113 114 116 116 113 108 102 98 96 93 91 88 85 84 84 86 87 87 86 85 85 85 85 84 85 87 88 90 91 94 96 94 91 88 87 86 84 83
102 102 102 101 102 103 104 105 106 107 108 109 110 111 110 110 110 111 113 114 113 113 113 112 111 111 113 115 118 118 116 112 107 103 100 98 96 93 90 88 87 87 87 88 87 86 86 87 88 88 90 92 93 95 97 99 98 95 91 89 89 88 86
106 106 106 105 104 104 104 104 105 107 108 109 111 112 112 112 112 112 113 114 115 115 115 115 113 112 112 113 116 119 121 119 116 112 108 105 103 101 99 97 95 93 91 89 88 87 87 88 89 90 92 93 95 96 97 100 101 100 97 94 93 93 92

ECMWFFLT1_250_spd_105.txt.gz
Wind_Speed
30 29 27 26 25 23 20 18 17 16 14 12 11 10 8 5 4 4 3 2 2 3 2 1 2 3 4 5 6 6 6 7 9 11 12 13 14 14 15 18 20 21 21 21 22 22 22 23 24 24 24 24 24 24 24 24 25 24 23 23 23 23 23
32 30 27 26 26 25 23 21 20 19 17 16 14 13 11 9 7 6 4 3 3 4 4 3 2 1 1 2 3 4 5 6 8 9 11 12 12 13 13 15 18 20 21 21 21 21 21 21 22 23 23 24 24 24 24 24 24 24 24 24 24 23 23
36 33 29 26 26 27 25 24 23 22 20 19 17 16 14 12 11 9 7 5 3 4 5 5 4 3 2 1 1 2 3 4 6 7 8 9 10 11 12 13 16 19 21 21 21 21 20 20 21 22 22 22 22 23 23 23 23 23 23 24 24 24 23
38 37 33 29 28 28 28 27 26 25 24 22 21 19 17 16 14 12 11 9 7 5 5 5 6 5 4 3 3 2 1 2 4 4 4 6 8 9 10 11 14 17 20 21 21 21 20 20 21 22 22 22 21 21 21 21 22 22 22 22 22 23 23
38 39 36 32 29 29 30 29 28 27 27 26 24 22 20 18 18 16 14 13 12 11 9 7 6 6 5 4 3 2 2 3 3 2 0 3 6 7 8 8 11 15 18 19 19 19 19 19 19 20 21 21 21 21 20 20 19 20 20 20 20 21 21
39 40 38 33 31 30 30 30 30 29 30 29 28 25 23 21 20 20 18 17 17 16 15 12 10 8 7 5 4 1 2 2 1 1 1 0 3 5 5 5 8 12 15 16 17 17 18 18 18 19 19 20 20 20 20 19 19 18 18 19 18 18 18
42 42 39 36 34 34 32 32 32 32 32 32 31 28 26 25 24 23 22 21 21 21 20 18 15 13 12 10 8 5 4 4 0 1 1 1 2 3 3 3 4 8 11 13 14 15 16 16 17 17 17 17 18 19 19 19 18 18 18 17 17 16 16
41 42 42 40 38 37 35 33 32 33 34 33 34 32 29 28 28 27 26 25 25 25 24 22 19 18 16 14 13 11 10 8 5 2 2 2 1 1 3 3 3 4 6 9 11 12 13 15 15 15 15 15 15 16 17 17 17 17 16 16 16 15 15
39 40 42 41 39 37 36 34 33 34 34 34 36 35 32 31 31 30 29 28 27 27 27 25 23 21 19 18 17 16 14 13 11 8 6 4 4 4 5 4 4 3 2 4 7 9 11 12 13 13 13 13 13 14 15 15 15 15 15 14 14 15 14
40 40 41 40 40 39 38 36 35 36 36 36 38 37 34 34 33 32 32 31 31 30 29 28 26 24 22 21 21 20 19 17 16 14 12 10 8 8 7 7 8 7 5 5 5 6 8 9 11 12 12 11 11 12 13 13 14 14 13 13 13 13 14
39 39 40 39 40 41 40 38 37 38 38 39 40 39 37 36 34 34 34 34 33 32 31 30 28 26 25 23 23 22 22 21 20 18 16 15 14 12 11 11 10 10 9 9 8 6 5 7 9 11 11 10 9 9 10 11 12 12 12 12 11 12 13
40 39 39 40 41 41 41 41 39 40 42 42 42 41 38 36 35 36 36 36 35 34 34 34 32 29 27 25 24 24 24 25 23 21 20 19 18 17 16 15 14 13 13 13 12 10 7 6 7 10 10 10 9 8 8 7 8 9 9 10 10 10 10
42 42 39 40 42 43 44 45 44 43 45 44 44 44 40 36 37 38 38 38 37 37 36 35 34 32 29 27 26 24 25 25 26 25 24 23 22 21 20 19 18 17 16 15 15 14 11 10 9 10 10 10 10 8 8 6 5 5 6 7 8 8 8
38 45 45 42 42 44 46 47 47 47 47 45 45 45 42 40 40 40 40 40 39 37 36 34 32 32 30 30 29 27 26 26 27 28 27 26 26 25 24 23 21 20 19 18 17 17 16 14 13 13 12 12 11 11 10 8 6 4 3 3 4 5 6
33 41 48 46 43 45 47 48 48 47 47 48 48 46 45 45 45 42 42 44 42 38 37 36 34 32 31 30 30 30 31 31 30 30 30 29 29 28 27 25 24 23 21 20 19 19 19 19 18 16 15 14 13 13 12 11 9 7 5 4 3 3 3
35 39 47 48 44 46 49 50 51 49 48 49 49 49 49 48 45 42 41 45 46 42 39 39 37 33 31 29 30 33 35 36 36 35 34 33 33 32 31 29 28 26 23 22 22 22 21 21 21 20 18 17 16 16 15 14 13 12 10 8 7 5 4
42 44 49 51 45 44 48 49 49 50 51 52 51 50 51 50 49 47 45 46 47 43 40 40 39 36 33 32 33 35 38 38 38 37 36 35 34 33 33 32 31 30 27 25 24 24 23 23 23 23 22 21 20 18 17 17 17 16 14 13 12 10 9
50 48 53 59 55 47 47 48 47 47 49 53 55 54 52 52 53 51 50 52 53 48 43 41 40 37 36 35 35 35 37 40 41 40 37 36 34 34 34 33 32 32 31 29 27 26 26 25 25 26 25 25 24 23 21 19 20 19 17 16 16 16 14
56 51 51 61 66 58 51 50 51 50 49 51 55 56 54 54 55 54 54 56 57 55 52 45 41 38 38 38 38 38 39 41 42 42 40 38 37 37 37 36 36 36 34 33 31 30 29 28 28 28 28 28 28 28 25 23 22 22 21 20 20 20 19
61 57 52 56 66 67 61 56 57 57 55 54 55 57 58 58 58 60 61 60 58 59 59 53 48 46 45 46 46 47 47 46 45 44 43 41 40 41 41 41 40 38 36 35 35 34 33 32 31 31 31 31 31 31 30 28 26 25 24 24 24 24 24
59 60 56 54 59 65 65 62 61 62 60 58 57 58 61 62 62 63 65 63 61 62 62 58 54 52 52 52 53 53 53 52 51 51 51 49 48 47 47 45 43 41 39 38 39 38 37 36 35 34 34 34 34 33 33 32 31 30 29 28 28 27 27
58 60 59 55 55 60 65 66 64 64 64 61 57 56 60 65 66 66 66 65 63 62 62 60 58 56 56 57 58 58 59 58 58 57 56 56 54 53 53 52 50 49 46 44 43 42 40 39 37 36 36 37 36 37 37 36 36 37 36 34 32 31 30
62 62 63 61 56 57 66 71 69 66 65 62 58 55 58 64 67 67 67 65 63 63 63 64 64 63 62 63 63 64 65 65 64 62 61 60 59 58 57 57 56 54 51 48 46 44 41 39 37 35 34 35 37 39 40 39 39 41 41 40 38 37 35
72 68 70 73 68 64 68 74 76 73 70 67 64 60 60 64 67 68 68 67 66 66 67 69 71 70 68 68 68 69 69 69 68 66 64 63 63 62 62 61 59 56 53 51 49 47 45 42 40 36 33 36 40 42 42 41 41 42 42 43 43 41 40
81 76 78 83 81 74 72 74 79 81 79 75 73 70 67 67 69 69 70 71 71 70 69 70 73 74 74 72 72 72 72 72 72 70 68 67 66 66 65 64 62 59 57 54 53 51 49 47 44 40 36 39 43 45 44 44 44 43 42 42 44 45 43
85 80 82 88 87 82 77 75 77 82 84 82 81 79 76 74 73 73 72 72 74 75 73 71 71 74 76 76 75 76 76 76 74 73 72 71 70 69 68 67 66 63 60 58 57 55 54 52 50 47 43 43 45 46 45 44 45 45 44 44 46 47 46
90 87 87 89 90 87 85 83 79 78 80 82 84 84 84 81 79 79 77 74 75 77 78 75 72 72 73 76 77 77 78 78 76 74 74 73 73 73 72 70 69 67 64 62 60 59 57 56 54 52 49 48 48 47 46 45 45 46 47 49 50 50 49
93 95 94 93 93 92 91 91 89 84 81 79 80 82 84 84 84 84 83 80 77 77 79 80 78 75 73 74 76 78 79 80 78 75 73 72 72 72 72 70 69 68 67 65 64 63 61 59 58 56 53 52 51 49 46 44 44 45 49 55 55 53 52
97 99 100 100 100 99 97 95 94 93 90 86 84 83 83 84 84 85 86 85 83 81 80 80 82 81 77 74 74 76 78 80 80 79 76 75 74 73 72 72 71 69 69 68 67 66 65 63 61 59 57 56 56 53 49 48 47 44 47 56 60 57 54
103 102 103 104 105 106 106 104 101 100 99 97 94 91 89 88 88 87 88 88 89 87 85 83 83 83 82 78 75 74 75 77 79 81 81 81 80 78 76 75 74 73 72 72 71 70 68 67 65 64 62 61 60 59 56 57 57 53 54 61 66 62 59
102 103 104 105 106 107 109 110 110 108 107 106 104 103 99 97 95 94 93 92 92 93 92 90 87 85 85 84 81 78 74 73 75 78 80 81 82 82 80 79 78 77 76 75 74 73 72 71 69 68 67 66 65 64 62 63 67 69 68 70 71 68 65
98 102 104 105 105 106 106 108 110 111 110 109 109 110 109 106 103 102 100 98 97 97 96 96 94 91 89 88 88 86 81 76 74 76 77 77 78 80 81 82 82 81 80 78 77 77 76 75 73 71 71 71 71 70 68 68 71 74 73 73 74 72 69
95 98 101 103 105 107 107 106 107 108 109 110 110 111 112 111 109 108 106 103 102 101 100 100 100 98 95 93 92 92 90 86 81 78 78 77 76 76 79 82 84 85 83 81 80 80 79 77 76 74 74 74 75 75 74 74 75 76 75 75 76 75 74
96 96 98 99 102 106 109 110 109 108 108 108 108 110 111 112 112 111 109 107 104 103 103 102 103 103 102 99 97 96 96 95 92 88 84 81 79 77 78 81 84 86 86 85 83 82 80 79 78 76 75 76 77 77 77 77 78 78 78 79 78 78 79
100 98 98 99 100 102 105 109 112 113 112 110 109 109 109 110 111 112 112 111 109 108 106 105 105 106 106 106 104 103 101 99 99 98 95 90 87 84 82 82 83 85 86 86 86 84 83 82 81 79 78 79 80 81 81 81 81 81 82 82 82 82 82
104 102 101 101 102 103 104 106 108 111 113 113 113 112 112 111 111 113 114 114 113 112 110 109 108 108 108 108 108 108 107 104 102 103 102 100 98 95 92 88 86 85 84 85 85 86 86 85 84 83 82 83 83 84 85 86 86 86 86 87 87 87 86
106 105 102 101 101 103 104 105 107 109 111 112 113 114 114 114 113 113 114 115 116 115 114 113 111 110 110 110 110 110 111 111 108 106 106 105 105 104 103 99 94 92 90 87 86 86 86 88 88 87 86 86 86 87 88 89 90 91 91 92 93 93 91
105 106 104 102 101 101 101 102 104 106 108 111 113 114 115 115 115 113 113 115 117 118 118 118 117 115 114 113 112 112 113 114 114 113 111 110 108 108 109 108 105 101 99 97 94 92 89 88 89 89 89 88 88 89 90 91 93 93 94 95 96 97 97

ECMWFFLT1_250_spd_108.txt.gz
Wind_Speed
29 29 30 28 26 24 22 19 18 16 13 11 8 6 5 4 3 1 2 4 4 4 3 3 3 3 5 7 8 10 12 13 15 16 16 17 18 20 21 22 23 23 24 24 24 24 25 26 27 28 28 29 29 29 28 28 28 28 27 26 25 23 21
33 31 31 30 28 26 24 22 20 18 16 14 11 8 6 5 4 3 2 3 4 4 4 4 4 3 3 4 5 6 7 10 11 13 15 16 17 18 20 21 22 23 23 24 24 24 24 25 25 26 26 27 27 27 27 27 26 26 26 25 24 23 22
35 33 31 30 29 28 26 24 22 20 19 17 14 11 9 7 6 5 4 3 3 4 4 5 6 6 5 4 3 3 4 5 7 9 11 13 14 16 18 20 21 22 22 23 24 24 24 24 24 25 25 25 25 25 25 25 24 24 24 24 23 23 22
34 33 31 29 30 29 27 26 24 23 21 19 17 14 12 10 8 8 8 7 6 5 4 5 5 6 5 5 5 4 3 4 4 5 7 9 11 13 16 18 19 20 21 22 22 23 23 24 24 24 24 25 24 24 24 23 23 22 22 22 21 21 21
35 35 32 29 30 31 30 28 27 25 23 21 19 17 15 14 12 11 11 11 11 9 8 7 6 5 5 5 4 4 4 6 5 3 4 5 7 10 12 15 17 18 19 20 21 21 21 22 23 23 23 23 23 23 23 22 21 21 20 19 19 19 19
35 35 34 31 31 32 31 29 28 27 26 24 21 19 19 18 16 15 14 14 14 13 12 11 10 9 8 6 4 3 4 7 6 4 3 3 4 5 7 10 13 15 16 17 18 19 19 20 20 21 21 22 22 22 21 21 20 19 18 17 17 17 17
37 37 36 35 34 34 32 30 29 29 28 26 23 21 20 20 18 17 16 15 16 16 15 15 14 14 13 11 9 8 7 7 6 5 4 3 2 3 4 6 8 11 13 14 15 16 17 17 17 18 19 19 19 20 19 19 19 18 16 15 15 15 15
38 38 38 37 37 35 32 30 29 29 30 29 27 23 21 22 21 19 18 18 18 18 18 18 18 17 17 16 15 14 13 12 9 7 6 4 2 2 3 4 4 5 8 10 12 13 14 15 15 15 15 16 16 17 17 17 17 16 15 14 13 12 12
38 37 37 36 36 35 33 31 30 30 31 31 29 27 24 25 24 23 22 22 22 22 22 21 21 20 20 20 20 19 17 16 14 11 9 7 5 5 4 2 2 3 4 6 8 10 10 11 13 13 13 13 13 14 15 15 15 15 14 14 13 11 10
39 36 36 34 33 34 33 33 32 31 32 32 31 30 29 28 27 26 26 25 24 25 25 24 24 24 23 22 22 22 21 20 18 16 14 12 10 9 7 6 4 4 3 4 5 7 7 8 9 10 11 11 10 11 11 12 12 13 12 12 12 11 10
40 36 36 35 34 33 34 35 36 35 35 35 34 33 32 31 29 29 28 27 27 28 27 27 27 28 26 25 25 24 24 24 22 20 18 16 15 13 12 10 8 7 6 5 5 5 6 6 7 8 9 9 8 8 8 9 9 10 10 10 10 9 8
43 38 37 36 36 37 38 38 40 40 39 38 37 36 34 33 32 30 29 30 30 31 30 30 30 31 30 30 29 28 26 26 25 24 23 21 19 18 16 14 13 11 10 8 8 7 6 6 7 7 8 8 8 7 6 6 7 7 7 7 6 7 6
46 41 38 37 37 39 40 40 40 40 40 40 39 37 36 35 33 31 29 30 32 33 33 33 33 33 33 33 34 32 30 29 29 28 26 25 24 22 20 19 18 16 14 12 11 10 9 9 8 8 9 9 9 8 6 5 4 4 4 4 4 4 3
49 44 41 40 39 41 43 44 43 41 40 40 39 38 38 36 32 31 30 30 31 34 35 37 38 38 37 37 37 36 34 32 31 30 28 27 25 23 22 21 21 20 18 17 16 15 13 12 11 11 11 10 10 9 8 7 6 4 2 2 2 3 2
51 47 44 42 42 43 44 45 45 45 42 40 39 39 39 37 34 34 35 33 33 35 36 39 42 43 42 38 37 38 38 35 33 32 30 28 26 24 23 23 22 21 20 20 20 18 17 15 15 14 13 12 12 11 10 10 9 7 6 5 5 5 6
54 51 46 44 45 46 46 46 46 47 45 42 41 41 40 40 39 39 40 39 39 40 40 41 42 43 45 43 38 39 40 37 34 33 32 30 29 28 27 26 25 24 23 23 23 21 20 19 18 17 15 14 14 13 13 13 13 12 10 9 8 8 8
57 54 50 48 48 49 48 47 46 47 46 45 44 44 45 45 44 44 45 45 45 44 44 45 44 42 45 46 43 41 41 38 35 34 33 32 32 31 32 31 30 28 27 25 24 23 22 22 21 20 18 17 16 16 16 16 16 16 15 14 13 12 12
60 57 54 52 50 50 49 48 46 46 46 46 47 47 48 48 47 47 49 49 49 49 47 48 48 44 43 45 45 44 42 39 38 38 36 34 33 33 33 33 31 29 26 24 22 23 23 23 23 22 21 21 20 20 19 19 19 19 19 18 18 17 17
63 61 56 52 50 49 49 50 49 48 48 48 49 50 51 51 50 49 50 51 52 53 52 51 49 46 44 44 46 47 45 42 41 42 41 38 35 34 34 34 32 29 27 25 24 24 24 25 25 26 26 25 24 23 23 23 23 23 22 22 22 22 21
66 64 58 52 51 48 45 48 51 51 51 51 51 53 54 54 52 51 52 53 54 56 56 55 51 49 47 46 46 48 48 46 43 44 44 42 39 38 38 37 35 34 33 29 26 26 28 29 29 29 28 27 26 27 27 27 28 28 27 26 25 25 25
68 68 63 55 53 50 44 44 48 52 54 54 54 54 54 54 55 55 55 53 54 57 59 58 57 54 51 50 50 50 50 49 47 46 45 44 42 40 40 39 38 38 38 34 30 31 33 35 35 34 32 31 32 31 30 30 31 31 31 30 28 27 28
68 71 69 61 55 51 45 44 48 51 53 57 59 58 55 53 54 57 58 56 56 58 60 60 60 59 56 54 54 53 51 50 50 51 51 48 45 42 41 41 39 38 39 38 36 37 39 41 42 41 39 38 38 36 34 34 35 32 31 31 30 29 29
69 72 73 68 61 55 49 49 52 53 53 57 61 64 64 62 59 58 58 58 58 60 61 61 60 59 57 54 55 57 57 54 52 54 55 52 48 45 44 44 43 41 41 42 42 43 44 44 46 46 45 44 43 40 37 38 38 35 31 31 30 30 31
72 74 75 73 68 63 57 54 56 58 57 57 60 66 69 71 69 65 61 60 61 62 63 63 62 60 58 55 53 56 62 64 61 58 56 53 50 48 48 49 49 48 48 48 48 48 47 48 49 50 51 50 47 44 41 39 39 37 35 33 32 33 35
77 78 77 75 71 68 64 61 60 62 64 62 61 64 68 71 73 72 70 68 69 68 67 66 66 66 66 64 60 59 62 66 67 65 63 60 57 54 53 54 53 53 53 53 52 52 51 51 52 53 54 54 52 48 44 41 39 39 38 37 36 37 39
82 83 83 80 75 72 70 67 63 64 69 70 68 67 68 70 72 75 75 74 73 72 72 71 70 70 70 71 72 70 67 67 67 68 69 69 67 64 62 60 58 56 55 55 55 55 55 54 55 56 57 57 55 52 48 44 43 43 42 41 42 43 43
88 89 88 85 81 78 76 71 66 66 70 74 75 74 74 74 75 76 77 77 75 73 73 73 73 73 73 73 75 76 76 74 72 71 70 71 71 71 69 66 62 60 59 59 60 61 60 60 61 62 62 60 59 57 54 52 51 49 47 46 46 45 44
92 93 92 89 87 85 82 77 74 71 71 76 80 81 79 80 81 80 80 79 77 75 74 75 75 75 76 77 77 78 78 78 78 77 74 73 73 73 72 70 68 66 65 65 65 66 66 66 67 68 67 66 63 61 60 59 57 55 54 53 51 48 45
94 96 96 94 93 91 89 85 81 77 72 74 82 86 85 84 84 84 85 83 81 78 77 78 79 80 80 81 81 81 79 79 80 80 78 76 75 74 74 73 72 72 71 71 70 70 71 71 71 71 71 71 69 65 63 63 62 62 61 60 58 55 52
99 100 101 99 96 95 94 92 89 84 77 73 77 84 89 90 88 87 87 87 87 85 82 80 81 83 84 84 84 83 82 80 80 80 79 77 76 76 76 77 77 77 76 77 76 75 75 75 76 75 74 74 74 71 68 67 67 67 66 65 64 63 61
103 102 104 104 101 98 98 98 97 94 88 81 77 78 83 89 93 93 92 90 90 89 88 86 83 83 83 84 85 85 83 82 81 80 79 77 77 77 77 78 79 80 79 79 79 79 78 78 79 79 79 78 78 76 74 73 73 71 69 67 68 69 68
103 101 103 105 105 102 100 100 102 102 100 95 89 84 82 83 88 94 97 97 94 92 91 90 88 86 84 84 85 85 85 84 83 82 82 81 80 79 77 75 74 75 77 78 78 78 79 79 80 80 80 81 80 79 78 77 76 74 72 70 70 71 71
101 100 100 102 104 104 101 99 100 103 105 105 102 98 93 89 87 89 94 99 101 99 96 94 92 91 89 88 88 87 87 87 87 86 85 84 83 82 80 77 73 70 71 73 75 76 77 78 78 79 79 80 79 77 77 77 78 77 76 74 72 73 73
97 99 100 101 103 104 104 102 100 100 102 105 107 107 105 102 98 94 93 95 99 103 103 100 97 96 95 95 95 93 92 91 91 90 89 88 86 85 84 83 81 76 72 70 70 72 73 74 76 77 78 80 79 78 77 77 78 78 78 77 76 76 76
97 98 99 101 102 104 106 108 107 105 103 103 105 108 109 110 109 107 103 100 99 101 103 104 103 102 101 101 101 100 99 97 96 96 95 94 93 91 89 88 87 86 83 79 76 74 73 73 73 75 77 79 81 82 82 81 81 80 80 80 80 80 80
102 101 101 101 102 104 105 108 110 111 111 110 109 108 109 109 111 112 112 111 108 105 105 106 106 106 106 106 105 104 104 103 102 102 101 100 99 99 98 97 95 93 91 89 87 85 83 80 79 78 77 78 79 81 83 83 84 83 83 83 83 84 85
107 106 106 106 106 106 107 108 109 111 113 114 115 114 113 112 112 112 113 114 115 114 113 112 111 111 110 109 108 106 104 103 102 101 100 100 99 99 99 100 100 100 98 96 94 93 92 90 89 87 86 84 83 82 82 82 83 84 84 84 85 86 87
109 109 108 108 109 109 109 110 111 112 113 114 116 116 117 117 116 115 115 115 116 117 118 118 119 118 117 115 114 112 110 109 108 107 106 105 104 103 103 102 102 102 103 103 102 101 99 98 97 96 95 94 92 90 87 86 85 85 86 87 87 88 88

ECMWFFLT1_250_spd_111.txt.gz
Wind_Speed
31 29 28 29 27 24 22 20 18 15 12 10 9 7 7 6 3 1 2 4 5 5 6 7 8 9 10 11 13 14 15 16 17 18 18 19 20 21 22 23 24 24 25 27 28 28 29 29 29 29 29 29 29 29 29 28 27 25 24 23 24 25 25
34 33 32 32 32 28 25 23 21 19 16 13 11 9 8 7 5 3 1 2 3 4 4 5 6 7 8 8 9 10 11 13 14 16 16 17 18 20 20 22 22 23 24 25 26 27 27 28 28 28 28 28 27 27 27 27 26 26 24 24 24 25 25
37 36 35 34 34 32 29 26 24 21 19 16 14 12 10 9 8 6 4 2 2 3 4 4 5 6 6 7 6 6 7 8 10 12 14 14 16 17 19 20 21 22 22 23 24 25 25 26 26 26 27 26 26 25 25 25 25 25 24 23 23 24 24
38 37 35 34 34 34 31 28 26 24 22 20 17 15 14 13 11 10 8 6 3 2 2 3 5 6 6 6 6 6 7 7 6 7 10 11 13 14 16 17 19 20 21 22 22 22 23 24 24 24 25 25 25 24 23 23 23 23 23 22 21 22 22
39 38 36 34 33 34 32 30 29 27 25 23 22 20 18 17 14 12 11 9 8 6 3 2 2 4 5 6 5 6 8 8 6 5 6 7 8 11 13 14 16 17 19 20 21 21 21 21 22 22 23 23 23 23 22 22 21 21 21 21 19 19 19
38 38 38 36 34 35 34 33 31 30 28 26 25 24 22 20 18 15 13 12 11 9 8 6 5 3 2 2 2 2 4 6 6 5 4 4 4 7 9 11 12 14 15 17 18 19 19 19 19 19 20 21 21 22 21 21 20 20 20 20 19 18 18
38 38 39 38 37 37 37 36 34 31 30 29 27 26 25 22 20 18 15 13 12 11 11 10 9 8 7 6 4 4 3 2 2 3 3 3 3 4 6 7 9 10 12 13 14 15 16 17 17 17 18 19 19 20 20 20 19 19 19 19 19 18 17
42 41 41 40 39 39 37 35 35 33 31 30 29 28 27 25 23 21 19 17 16 15 14 14 13 12 12 11 10 9 8 6 5 4 2 0 0 1 2 3 4 6 8 9 10 11 12 14 14 15 15 15 16 17 18 18 18 18 18 18 17 17 16
45 44 43 41 40 39 39 37 37 36 34 32 31 30 29 27 25 24 22 21 20 19 17 17 16 16 15 14 14 14 12 11 10 8 7 6 5 4 3 1 1 2 4 5 6 7 8 9 11 11 12 12 13 14 14 15 16 16 17 17 16 16 16
46 45 43 41 38 39 41 40 39 38 37 35 34 32 30 28 27 26 25 24 23 21 20 20 19 19 18 17 18 17 16 15 14 13 11 10 10 9 7 6 4 3 3 3 4 4 5 6 7 7 9 10 10 10 11 11 12 13 14 14 15 15 15
49 47 45 42 40 40 41 41 40 40 39 37 35 33 32 31 29 27 26 26 25 24 23 23 22 22 21 21 21 20 20 19 18 17 16 14 14 13 12 11 9 7 7 5 4 5 5 5 5 4 5 6 7 7 7 7 8 10 11 12 12 12 13
51 49 46 45 44 43 42 41 40 40 38 37 35 32 32 32 31 29 28 28 28 29 28 26 25 25 25 25 25 24 24 23 22 21 19 18 16 16 15 14 12 11 10 9 7 7 7 7 6 5 4 3 3 4 4 4 5 6 7 8 9 10 9
54 52 48 47 46 45 44 42 41 40 39 38 37 34 32 32 31 31 31 32 33 33 31 29 29 29 29 28 28 27 27 26 26 24 23 21 20 18 17 16 15 14 13 12 11 9 8 7 7 6 5 4 2 2 2 2 3 3 4 4 5 6 7
56 55 51 48 46 45 45 44 43 42 41 41 40 37 35 34 33 33 35 36 36 34 31 32 32 32 32 31 30 30 30 29 28 28 27 25 23 22 21 19 18 17 16 16 14 13 11 9 8 8 7 6 5 4 4 4 3 3 3 3 3 4 5
58 57 54 49 45 44 45 46 45 44 43 43 41 39 37 36 35 35 36 37 37 35 34 35 36 35 34 33 32 33 33 31 30 29 29 29 27 25 24 23 21 19 18 18 17 16 14 13 11 11 10 9 7 6 6 6 6 5 5 6 6 6 7
59 58 57 52 48 45 44 46 46 45 44 44 42 40 39 39 38 37 38 38 37 36 36 37 38 38 35 34 34 35 35 34 32 30 30 30 30 29 27 25 24 23 21 20 20 19 17 16 16 15 14 12 11 9 8 8 8 8 8 8 9 9 9
60 60 58 55 52 48 45 46 45 44 44 43 42 41 41 42 41 40 40 39 37 37 36 37 40 41 39 37 37 36 36 36 34 32 30 30 31 31 30 27 25 25 25 25 24 23 22 21 21 20 18 16 14 12 11 10 10 10 11 11 12 12 12
62 62 60 58 56 52 48 46 45 44 45 44 43 42 43 44 44 43 42 41 40 40 39 39 41 42 42 42 41 38 37 36 36 35 32 31 32 33 32 30 28 27 27 28 28 28 26 25 25 24 22 19 17 15 14 14 14 13 13 14 14 15 15
62 63 62 60 58 56 52 49 46 46 46 46 44 43 43 43 43 42 42 42 41 42 42 43 45 46 48 49 48 45 42 40 38 36 34 33 34 34 35 33 31 30 29 29 30 30 29 27 27 26 24 22 20 18 17 16 16 16 15 16 17 18 19
64 64 63 62 59 57 56 53 50 49 47 46 45 43 43 43 43 43 43 42 42 43 44 47 49 51 53 54 53 52 48 45 42 39 37 36 36 35 36 36 34 34 33 32 32 31 30 28 28 28 27 25 23 20 18 18 18 19 18 18 20 21 21
67 65 63 62 60 60 59 56 54 53 49 46 46 45 45 44 45 46 46 44 45 46 48 52 54 54 55 55 55 55 53 49 46 44 42 41 39 37 38 39 39 38 37 36 36 35 33 32 32 33 32 30 28 25 22 21 22 23 24 24 23 23 24
69 68 65 62 62 63 63 59 57 55 52 48 47 47 47 46 47 49 48 47 48 49 52 56 56 56 57 56 55 56 56 53 50 48 46 45 43 42 41 40 40 40 41 42 42 41 38 36 37 39 39 37 33 30 27 26 26 28 30 30 28 27 27
71 70 69 67 66 66 65 62 60 58 56 55 53 51 51 51 52 52 50 50 51 52 54 56 56 55 58 59 58 58 60 58 55 51 49 47 45 44 43 41 38 38 40 43 45 45 43 41 41 43 43 41 38 35 32 30 29 31 33 34 34 33 32
73 71 70 70 69 68 67 66 64 62 61 61 60 58 56 56 56 56 55 54 55 55 55 57 58 57 57 58 60 62 63 63 60 56 54 52 49 48 45 42 40 39 38 41 45 48 48 47 46 46 44 43 42 40 37 34 33 34 35 36 36 36 36
76 72 70 71 71 70 70 69 68 66 64 65 66 65 63 62 59 58 59 60 61 61 60 59 60 61 59 57 60 63 65 65 64 61 59 57 58 58 55 50 48 48 47 48 50 52 52 50 49 48 46 46 46 44 42 39 39 38 38 36 36 36 38
80 75 72 73 74 74 74 74 72 69 67 67 68 67 67 68 67 63 62 64 66 68 68 66 64 64 63 60 61 64 66 66 66 65 63 62 64 65 63 59 55 54 55 55 55 56 57 55 52 50 49 48 48 47 46 45 44 42 40 39 39 39 39
84 80 77 77 78 79 78 78 76 73 69 69 70 69 67 69 71 71 68 68 70 71 72 73 72 70 69 66 65 65 65 65 65 65 65 66 68 68 67 65 61 59 60 60 59 60 62 61 57 56 54 51 50 51 50 49 49 47 45 45 45 45 44
87 85 83 82 81 81 81 80 79 77 73 70 71 72 70 68 70 74 74 74 74 75 75 75 76 75 74 72 70 68 67 66 65 65 65 67 69 70 69 68 65 63 63 64 63 64 66 66 63 62 61 59 56 56 56 55 54 53 51 50 50 51 51
91 90 89 87 85 83 83 83 82 81 78 74 73 74 74 72 70 72 76 77 77 79 80 80 79 79 78 77 75 73 72 71 70 70 70 70 71 70 69 68 67 65 65 66 67 67 69 68 67 66 65 63 61 60 61 61 60 59 57 55 55 57 58
91 93 94 92 90 87 86 86 85 85 83 80 77 75 76 75 73 72 74 76 78 80 82 84 85 84 83 82 81 79 78 77 75 74 75 75 74 73 71 69 67 65 65 67 69 70 71 71 70 69 68 66 65 64 65 66 66 66 63 60 60 63 64
91 93 94 95 94 93 92 91 90 90 89 87 84 81 79 78 77 75 75 76 76 78 81 84 86 88 87 87 85 83 82 80 79 79 79 78 78 77 75 74 72 70 69 71 72 73 73 73 73 73 73 71 70 70 70 71 71 71 70 68 67 69 70
93 94 94 95 96 95 95 95 94 94 94 94 93 90 86 83 81 80 79 79 78 77 78 81 84 87 89 89 89 88 86 85 84 83 83 82 82 81 81 81 80 79 79 79 79 79 78 77 77 78 78 77 76 76 75 75 74 75 75 74 74 75 75
95 97 97 97 97 97 97 98 98 98 99 99 99 98 95 91 87 85 84 83 82 80 80 80 81 84 86 88 90 90 90 90 89 88 87 87 87 87 87 87 87 87 86 86 86 85 85 84 84 84 84 83 82 81 80 79 78 77 78 80 80 79 79
97 98 100 101 100 100 100 100 100 101 102 102 102 103 102 99 95 91 89 88 87 86 85 84 83 84 85 87 88 89 90 91 92 92 91 91 91 91 91 90 90 89 89 88 87 86 85 85 85 85 86 86 87 87 86 85 84 83 83 84 84 83 82
101 99 100 103 104 104 103 102 102 103 104 104 104 105 106 105 102 98 96 94 93 92 90 89 87 86 86 87 88 89 90 91 92 92 92 93 93 94 94 93 92 91 90 89 87 86 85 85 84 85 85 85 86 87 87 86 85 85 85 85 85 84 83
106 104 102 102 104 106 106 106 105 105 105 106 107 107 107 108 108 106 103 101 100 98 97 95 93 91 91 90 90 91 92 93 94 94 94 94 94 94 94 95 94 94 93 92 91 91 91 90 89 89 88 88 88 87 87 85 84 82 81 80 79 78 77
107 109 108 106 105 106 107 108 108 108 108 108 109 110 109 110 111 111 110 108 106 105 104 102 99 98 96 95 95 95 96 97 98 99 99 99 98 98 97 97 96 96 95 95 95 95 95 96 96 95 94 92 91 90 89 89 87 85 82 79 77 76 77
107 108 110 111 111 110 110 110 110 111 112 112 112 112 113 112 113 114 114 113 112 111 110 109 107 105 104 102 100 99 99 100 101 102 103 104 104 104 104 103 102 101 101 100 99 98 97 97 98 98 98 97 95 94 92 92 92 91 89 87 85 85 85

ECMWFFLT1_250_spd_114.txt.gz
Wind_Speed
30 28 27 25 24 22 20 19 18 16 14 12 10 10 10 8 6 7 9 10 11 12 12 13 13 14 15 15 16 17 18 19 20 21 21 21 22 23 24 25 26 27 28 30 31 32 32 31 30 28 26 25 24 23 24 24 23 22 22 23 24 25 26
33 32 30 29 28 26 23 22 21 19 17 15 13 11 10 9 7 6 7 9 11 11 11 11 11 11 11 12 13 14 15 16 17 19 20 20 21 22 22 24 25 25 26 27 28 30 31 31 30 28 27 25 24 23 23 24 23 22 22 22 23 24 25
36 35 34 33 32 29 26 25 23 21 20 18 16 14 12 10 9 7 7 7 9 10 11 11 11 10 10 10 10 11 12 13 15 16 17 18 19 20 21 22 23 24 24 25 25 27 28 30 30 29 27 25 24 23 22 23 23 22 21 22 22 23 24
37 37 36 34 34 31 29 27 26 24 23 21 19 17 15 14 11 9 7 6 7 9 10 11 11 11 11 10 10 10 10 11 12 13 14 15 16 18 19 20 21 21 22 23 23 24 25 27 28 28 27 26 24 22 21 21 21 21 21 20 20 21 22
38 38 37 34 33 33 31 30 29 27 25 23 21 20 18 16 14 12 9 7 6 6 8 10 11 11 11 12 12 12 11 10 10 10 11 12 13 15 16 17 18 19 20 21 21 22 23 24 25 26 26 25 24 22 20 19 19 19 19 19 19 19 19
39 39 38 35 34 34 33 32 30 28 26 25 23 22 20 18 16 14 12 10 7 6 5 6 7 8 9 9 9 9 10 10 9 9 9 9 11 12 13 14 15 16 17 18 19 20 20 21 22 23 23 24 23 22 21 19 18 18 18 18 17 17 17
40 40 40 37 35 35 34 33 31 29 28 27 25 24 23 20 17 15 13 11 10 8 7 5 5 5 4 4 4 4 4 5 6 7 7 7 8 9 10 11 11 12 13 14 16 17 17 18 18 19 20 20 21 21 21 19 18 17 17 16 16 16 15
42 42 41 39 38 37 36 35 34 32 30 29 28 27 25 22 19 17 15 14 12 11 10 8 7 7 6 5 4 3 2 1 1 2 4 5 5 6 6 7 8 9 10 11 12 13 13 14 15 15 16 17 17 18 19 19 18 17 16 15 15 14 14
46 44 42 41 40 39 39 38 37 36 34 32 32 30 28 26 24 22 19 18 16 14 12 11 10 9 8 8 8 7 7 6 5 3 1 0 1 1 2 4 5 6 7 8 8 9 10 10 11 12 12 12 13 14 16 16 17 17 16 15 14 13 12
49 47 45 44 44 43 42 40 38 37 36 34 33 32 31 29 27 26 24 23 21 18 16 16 14 13 12 11 11 10 10 10 8 7 6 5 4 2 1 1 2 3 3 4 5 5 6 7 7 8 9 9 9 10 11 13 14 15 15 15 14 13 12
51 50 50 48 47 46 45 43 40 39 37 36 35 35 33 31 30 28 27 26 24 23 21 20 18 17 16 15 14 14 13 13 11 10 10 9 8 7 5 4 3 3 3 3 3 3 3 4 4 4 5 5 6 6 7 8 9 10 11 13 13 12 11
55 53 53 52 50 48 47 44 41 39 39 38 38 37 36 34 33 31 30 28 26 25 23 21 20 19 18 18 17 16 16 16 15 14 13 12 12 11 10 8 7 7 6 6 6 5 4 3 3 2 1 1 1 2 3 3 4 4 5 7 8 9 9
58 56 55 54 52 49 48 45 42 40 41 40 40 40 39 37 35 34 32 30 28 27 25 24 23 22 22 21 20 19 18 18 18 17 17 16 15 15 14 13 12 11 10 9 9 8 8 6 5 4 4 3 2 2 2 1 1 0 0 1 3 5 5
58 59 57 55 54 52 49 46 44 42 42 42 42 42 41 40 38 36 35 33 30 29 28 27 26 26 25 24 23 22 22 21 20 20 20 20 19 18 18 17 16 15 14 12 12 12 12 11 9 8 7 6 5 5 5 5 5 4 3 3 2 1 1
54 58 60 58 55 53 52 49 46 44 43 43 44 44 43 42 40 38 37 35 33 31 30 29 29 28 28 27 27 26 26 25 23 23 23 23 23 22 21 20 19 19 18 16 15 14 14 14 13 12 10 9 8 8 8 8 7 7 6 6 5 5 4
47 50 56 61 59 56 54 52 49 47 45 43 43 44 44 43 42 41 39 36 35 34 33 32 32 31 31 31 31 30 29 28 27 26 26 26 26 25 24 23 22 22 22 20 18 17 17 17 17 15 14 12 12 11 11 11 10 10 10 9 8 8 7
47 47 48 55 61 59 55 54 51 49 47 45 43 43 44 44 43 42 39 37 36 36 36 35 35 34 34 34 34 34 33 31 30 29 27 27 27 28 28 27 26 24 23 22 21 20 20 20 20 19 18 17 17 16 16 15 14 13 13 12 10 9 8
56 52 46 48 57 61 57 54 53 50 48 47 45 44 44 44 44 42 41 39 39 38 38 38 38 37 37 37 37 37 37 35 33 31 30 28 27 28 29 29 28 27 25 23 22 23 23 23 23 23 23 22 22 21 20 20 19 18 17 15 13 10 9
64 58 50 46 52 59 58 54 53 51 48 46 45 43 43 44 43 42 41 40 40 40 40 41 42 41 41 40 39 39 39 37 35 34 33 31 29 28 28 29 29 30 29 28 26 26 26 26 26 26 26 25 24 24 23 23 23 23 21 19 16 14 11
71 66 59 52 52 57 59 56 53 51 49 46 44 44 43 42 41 40 39 38 38 40 41 43 44 44 44 43 41 41 41 40 39 38 37 35 34 33 31 30 29 30 31 33 33 30 29 29 29 28 27 26 25 25 25 25 25 25 24 22 20 17 15
72 71 68 62 59 59 59 57 54 52 50 47 45 43 42 40 39 39 38 38 38 39 40 42 42 43 44 43 41 40 41 42 42 42 42 40 38 37 36 33 33 33 34 36 36 34 32 31 31 31 30 29 29 29 29 28 27 26 27 26 24 22 20
73 71 69 67 64 62 61 58 56 54 51 49 47 45 40 37 37 37 37 37 38 36 37 40 41 40 40 42 41 39 40 43 44 43 42 42 40 40 40 37 36 37 37 37 36 36 36 35 34 34 33 32 31 31 32 32 31 29 29 30 28 26 24
77 72 69 67 64 63 62 60 58 56 53 50 49 48 43 39 38 40 39 38 39 37 35 38 42 43 43 44 45 43 42 46 46 42 40 41 41 41 42 42 42 42 42 41 39 38 40 40 39 38 38 36 34 33 34 35 36 35 35 35 34 31 28
80 75 70 66 62 61 62 62 61 60 57 53 52 52 49 45 44 46 45 45 45 44 41 41 42 44 46 47 48 47 46 48 49 48 46 45 44 43 43 45 47 45 44 45 43 41 42 42 42 43 43 42 40 38 38 38 40 40 40 39 38 37 34
81 78 73 68 64 61 61 61 61 62 62 59 57 57 54 51 50 51 51 52 52 52 52 52 50 49 51 52 51 50 49 50 53 56 55 53 52 52 52 52 52 49 46 47 47 46 46 45 44 45 46 46 44 43 42 43 44 45 44 43 41 41 40
83 81 77 73 69 65 62 58 57 61 65 65 63 62 59 55 54 55 56 57 57 57 58 60 60 58 58 59 58 54 51 51 55 59 60 57 57 59 58 57 56 55 53 53 52 51 50 49 48 49 49 49 48 45 45 46 46 47 49 50 49 47 45
85 84 81 76 72 69 66 61 60 63 66 66 66 65 64 61 59 60 62 62 63 63 63 63 64 64 63 63 63 60 57 56 58 60 61 60 59 60 60 59 59 60 59 59 57 55 54 54 54 54 54 53 52 50 50 50 50 50 52 53 54 53 51
85 85 84 79 75 72 70 68 68 69 68 67 68 68 68 67 67 66 67 67 67 68 68 68 67 67 66 65 65 64 64 64 64 64 64 63 63 64 64 64 63 62 61 61 59 58 59 61 59 59 59 58 56 55 56 56 56 57 57 56 57 57 56
82 85 85 82 79 76 73 72 72 73 73 72 71 71 71 71 72 72 71 71 71 71 71 71 72 72 72 71 69 68 67 67 68 68 68 68 68 68 68 68 68 66 64 63 62 62 63 64 63 63 65 64 61 60 61 62 62 62 62 61 60 60 60
76 82 85 84 82 80 78 76 73 73 75 77 76 74 72 73 75 77 77 76 75 75 74 74 75 76 77 77 76 74 71 69 69 69 70 70 70 70 69 70 71 70 68 66 65 65 66 67 67 67 69 69 67 67 67 67 67 66 66 66 65 63 63
72 77 82 85 86 84 83 82 80 77 77 78 79 78 76 75 76 79 81 81 80 79 78 78 78 77 78 78 79 78 77 74 72 71 71 71 71 72 71 71 72 73 73 72 71 70 69 69 70 70 71 72 73 72 72 71 70 69 70 70 69 68 67
79 75 78 84 87 88 87 87 86 85 82 80 81 81 81 79 79 80 83 84 84 83 82 83 82 81 80 80 80 80 80 79 77 75 75 75 76 77 77 77 76 77 78 77 76 74 73 72 73 72 72 73 73 73 73 73 73 72 72 73 73 72 70
90 84 79 81 86 89 91 90 90 90 88 86 85 84 84 83 82 82 84 86 87 87 86 86 86 86 85 84 83 83 83 83 82 81 81 82 82 83 84 84 83 82 81 81 80 79 78 77 77 76 75 75 75 75 75 75 76 75 74 74 75 74 73
95 94 88 83 84 87 91 93 94 93 92 90 88 88 87 87 86 86 86 88 90 91 91 91 90 90 89 89 88 87 87 87 87 87 87 87 88 88 89 89 89 88 87 86 86 86 85 83 82 80 79 79 79 79 80 80 79 79 77 76 76 76 76
93 96 96 92 87 86 89 93 95 96 95 94 92 91 90 89 89 89 89 90 91 93 94 95 95 94 93 93 92 92 91 91 91 91 90 90 91 92 92 92 92 92 92 92 91 90 89 87 86 85 84 83 83 83 83 83 82 81 80 80 79 79 79
94 95 97 97 95 92 90 91 94 96 97 97 97 96 94 93 92 93 93 94 94 95 96 97 98 99 98 97 96 95 95 95 95 95 94 93 93 94 94 94 93 93 93 93 94 93 93 92 91 90 89 88 87 87 86 86 85 84 84 83 83 83 83
98 97 97 98 99 98 96 94 94 96 98 98 98 99 99 98 97 97 97 98 99 99 99 99 100 100 101 101 100 99 98 98 98 98 98 98 97 97 97 96 95 94 94 94 94 95 95 94 94 94 93 92 91 90 90 90 90 90 89 89 89 90 91
102 101 101 100 100 101 101 100 98 97 98 99 100 101 102 103 103 102 102 102 103 103 103 102 102 102 102 102 103 103 102 101 101 101 101 102 102 102 102 102 101 100 99 99 98 98 98 98 98 98 97 96 95 94 93 93 94 94 95 95 95 96 96

ECMWFFLT1_250_spd_117.txt.gz
Wind_Speed
32 30 28 27 25 22 22 21 19 16 15 15 15 16 14 13 13 14 14 14 14 14 14 14 13 14 15 16 17 19 20 21 22 23 24 24 26 27 28 29 30 30 29 28 26 25 23 23 22 21 21 22 23 24 25 26 26 25 25 25 24 24 24
35 34 32 30 28 25 24 23 22 19 17 15 15 16 15 13 12 13 14 13 13 13 13 12 12 11 12 13 15 16 17 19 20 21 22 22 23 24 26 27 28 29 29 28 26 25 24 23 22 21 21 21 22 23 24 24 24 23 23 23 22 22 22
37 36 35 34 31 28 27 25 23 22 20 18 16 16 16 14 12 12 13 14 13 13 12 11 11 10 9 10 12 14 15 16 18 18 19 20 21 21 22 24 25 26 27 28 27 25 23 23 22 21 20 20 20 21 22 23 22 22 22 21 21 21 21
39 39 38 37 34 30 29 27 25 24 23 21 18 17 17 15 14 13 13 14 14 13 12 11 10 9 9 10 11 12 13 14 15 16 17 18 19 20 20 21 22 23 25 26 26 25 24 22 21 20 19 19 19 19 20 21 21 21 20 20 20 19 19
42 41 40 39 35 33 32 31 29 28 26 24 22 20 18 16 15 14 13 14 14 14 13 12 12 11 10 11 11 11 11 11 12 14 15 16 17 18 18 19 19 20 21 22 23 24 24 23 20 18 17 18 18 18 18 18 19 19 19 19 18 18 18
44 43 42 41 38 36 35 33 31 29 27 26 25 23 21 18 16 15 15 14 15 15 15 14 14 14 13 13 13 12 11 10 10 11 12 13 14 15 16 16 17 17 17 18 19 20 21 22 21 19 17 16 15 16 16 16 17 17 18 18 17 17 17
47 45 44 43 40 38 36 34 32 30 28 27 26 25 24 22 20 18 17 16 16 16 16 16 16 15 14 13 13 12 11 11 10 9 9 9 10 11 11 12 13 14 14 15 15 16 16 18 20 20 18 16 14 13 13 14 15 15 16 17 16 16 16
48 47 46 44 42 40 38 35 33 31 30 29 28 28 27 25 23 21 20 18 17 17 17 17 16 16 14 12 11 10 9 9 9 9 8 7 6 6 7 8 9 10 10 11 11 12 12 13 14 16 17 17 15 13 12 12 12 13 14 14 14 14 14
49 49 48 46 43 41 39 37 35 34 33 31 31 31 29 27 26 24 23 21 20 19 19 19 18 17 15 14 12 10 9 7 7 7 6 5 4 3 3 3 4 5 6 7 7 8 8 9 9 10 12 14 15 14 13 11 10 10 11 11 11 11 11
50 50 49 47 45 42 41 39 37 36 36 35 34 32 30 29 27 26 25 24 23 22 21 20 19 18 17 15 14 12 11 9 8 7 6 5 3 2 2 1 1 1 1 3 4 4 5 5 5 6 7 8 10 12 13 12 10 10 10 10 9 9 9
52 52 50 48 47 44 42 42 41 40 39 38 36 34 33 31 29 28 27 26 24 23 22 21 20 18 17 16 14 13 11 10 9 8 7 5 4 4 4 4 4 4 3 2 1 0 1 2 2 2 2 3 4 7 9 11 11 10 10 9 9 9 9
55 54 52 51 49 45 43 44 44 43 42 40 38 37 35 34 32 31 30 29 27 25 24 23 22 19 18 17 15 14 13 12 11 10 9 7 6 6 6 7 7 7 6 5 5 4 4 3 2 2 2 2 2 2 4 6 7 8 8 8 8 8 8
57 56 55 54 50 47 45 44 45 44 43 42 40 39 38 37 35 34 34 32 30 29 28 26 25 22 21 20 18 17 16 14 14 13 12 11 10 10 10 10 10 10 9 8 8 8 7 7 7 6 5 5 5 5 4 4 4 5 5 6 6 6 7
57 58 58 55 53 51 48 46 46 46 45 44 43 41 41 40 39 37 37 35 34 32 31 29 28 26 24 23 22 21 19 18 17 17 16 15 14 13 14 14 13 13 12 11 11 10 10 10 10 10 9 8 8 8 8 7 7 7 6 6 5 5 5
56 58 59 58 56 54 52 49 48 47 47 46 45 44 43 42 42 40 39 38 36 35 34 32 31 29 28 27 25 23 22 21 21 20 20 19 18 16 16 16 16 15 14 14 14 14 13 13 12 13 13 12 11 10 10 10 10 10 10 9 8 8 7
54 55 57 59 59 56 54 52 50 49 49 48 47 46 45 44 43 42 41 40 38 37 36 35 34 33 32 30 28 26 25 24 23 23 23 23 22 21 20 20 20 20 18 17 17 17 17 16 15 15 15 15 14 13 12 12 12 12 12 12 12 12 10
56 54 54 57 60 60 58 56 55 53 52 51 50 49 48 47 45 44 43 42 41 40 39 37 37 36 34 33 31 29 28 27 26 26 26 26 26 24 23 24 25 25 25 23 22 21 20 19 18 17 17 17 17 17 16 15 15 15 15 15 15 15 14
59 55 54 56 60 63 62 60 58 57 55 54 52 51 50 49 47 46 45 44 43 42 41 40 39 37 36 35 34 32 30 29 28 28 29 29 30 29 27 26 26 26 27 28 27 25 23 21 20 20 20 20 21 21 20 19 18 18 18 18 18 18 17
64 60 57 58 61 62 62 61 60 59 58 56 55 53 52 51 49 48 46 46 45 44 43 42 40 39 39 38 36 34 32 29 28 30 31 31 33 34 33 31 30 29 29 28 28 27 25 25 25 24 23 22 22 23 23 23 23 21 21 21 22 22 21
65 64 60 60 62 63 62 61 61 61 61 59 57 55 53 52 51 49 47 46 46 45 44 43 42 41 41 39 37 36 34 32 31 33 33 31 32 35 37 36 35 33 32 31 30 28 27 26 27 28 27 25 24 24 25 25 26 24 23 22 24 25 25
61 63 60 58 60 64 65 63 61 62 62 60 58 57 55 53 51 50 48 47 46 46 45 44 43 42 41 40 39 39 39 36 35 35 35 33 34 35 37 38 37 36 36 35 34 33 31 30 29 30 30 28 27 28 28 27 27 26 25 25 26 27 28
61 58 57 56 55 57 62 64 63 62 62 62 61 58 56 55 54 51 50 48 47 47 46 44 43 41 41 43 42 42 42 39 37 37 36 35 37 38 38 39 39 38 38 38 38 38 38 36 35 34 33 32 30 30 29 30 30 30 29 29 29 30 30
66 62 58 56 53 51 54 59 61 61 61 62 62 61 59 57 55 53 51 49 48 46 45 43 43 42 42 44 44 43 43 42 40 41 39 38 40 43 43 42 40 39 39 39 40 41 42 42 40 39 38 37 35 33 31 31 32 33 33 32 32 32 32
64 68 67 64 60 54 53 54 55 56 57 58 59 61 61 59 56 55 53 50 48 47 45 44 44 44 44 43 41 41 42 43 42 42 42 42 43 44 46 46 44 42 41 41 43 44 45 44 43 42 42 42 41 38 36 35 36 37 37 36 35 34 34
59 67 74 75 70 64 61 58 57 56 55 54 53 56 60 60 56 54 53 51 49 48 47 47 47 46 46 46 43 41 42 44 43 42 44 46 44 42 45 48 47 46 45 46 47 46 45 45 44 43 43 44 44 43 42 41 41 42 42 41 40 39 38
64 65 74 79 78 75 71 67 64 61 57 53 50 51 57 60 57 54 53 52 51 49 49 49 47 44 42 45 47 47 46 47 47 47 49 51 49 47 48 50 50 51 51 51 51 49 48 46 45 44 43 43 44 45 46 46 45 46 47 46 45 45 44
71 66 70 77 79 80 79 74 69 66 62 58 53 51 54 58 58 56 54 53 53 53 52 51 49 46 44 45 48 49 50 51 52 53 55 56 55 55 56 56 56 56 56 56 55 55 53 51 50 50 49 49 49 50 50 49 49 49 50 51 50 49 49
78 73 72 74 77 79 81 80 76 72 68 64 59 55 56 59 60 59 57 55 54 57 57 55 53 52 52 52 51 51 51 53 55 58 60 62 61 61 61 60 59 58 59 59 60 60 60 60 60 59 58 56 56 55 55 54 54 54 54 55 55 54 53
81 81 78 76 77 80 81 82 82 79 74 71 67 62 60 61 62 62 60 58 58 58 59 59 58 58 59 61 61 58 56 54 55 59 63 64 64 62 61 60 60 61 62 63 64 65 66 67 68 66 63 61 59 58 58 58 59 59 59 59 59 58 57
74 81 83 79 79 82 84 84 84 81 78 76 74 71 68 67 66 65 64 63 63 62 62 61 61 60 61 64 66 66 64 61 58 59 61 63 64 64 63 62 62 63 65 67 68 69 69 70 70 69 67 65 63 61 61 61 62 62 63 64 64 64 63
65 70 79 79 78 81 85 86 86 84 81 79 77 76 75 72 69 68 69 68 68 68 68 66 64 62 62 64 66 67 68 68 67 65 65 66 67 67 67 67 66 66 68 70 72 73 74 73 73 73 71 70 69 68 68 67 66 65 64 65 67 68 68
68 63 69 75 76 77 80 85 87 87 85 83 80 78 77 75 72 70 71 73 73 73 73 73 71 68 66 66 66 66 67 69 71 73 73 74 74 74 74 74 73 71 71 72 74 76 78 78 79 79 78 77 76 75 75 74 73 72 70 68 69 70 71
83 70 66 71 75 76 77 80 85 88 89 87 85 82 79 76 75 74 73 74 76 77 77 78 77 75 73 71 69 68 68 69 71 73 74 76 77 77 77 77 76 76 75 75 77 78 79 81 81 82 82 82 80 79 78 78 78 79 78 76 74 73 74
93 82 71 70 74 76 76 77 79 84 89 91 89 87 84 81 79 79 78 77 77 79 80 81 82 81 80 79 77 76 75 75 75 75 76 77 78 79 79 79 79 79 78 78 79 79 80 81 82 82 83 82 82 81 80 80 81 81 82 81 80 79 78
95 91 80 72 72 74 77 78 77 78 83 89 91 90 88 86 84 83 83 82 81 80 81 84 86 86 85 84 84 84 84 83 83 82 82 82 82 83 83 83 83 82 82 82 82 82 82 82 82 83 83 82 82 83 84 84 84 83 84 84 83 83 83
96 96 92 83 76 74 75 78 80 79 80 84 88 90 90 90 88 86 85 86 86 85 84 84 86 88 90 90 89 89 89 89 89 88 87 87 86 86 86 86 86 87 86 86 86 86 85 85 84 84 84 83 83 84 84 85 85 85 86 86 86 86 87
102 99 99 95 88 82 79 78 80 81 81 82 85 89 91 92 91 89 86 85 86 88 90 90 89 89 90 92 93 93 94 93 93 93 92 92 91 90 90 90 90 90 90 89 89 89 88 88 87 87 86 86 86 86 86 87 88 88 89 90 91 91 91
110 105 102 101 98 94 90 85 83 82 82 82 84 87 90 93 94 94 91 88 86 86 88 92 94 94 94 94 95 95 96 97 97 98 97 97 96 96 95 95 94 94 93 93 93 92 92 91 91 90 90 90 90 90 90 90 91 92 93 95 96 97 98

ECMWFFLT1_250_spd_120.txt.gz
Wind_Speed
32 31 30 29 27 24 21 20 20 20 20 20 20 19 19 18 16 15 15 14 13 13 13 13 15 16 18 18 19 20 20 21 22 23 24 25 26 25 24 23 22 22 22 23 24 25 26 26 26 26 26 25 25 24 24 24 24 24 25 25 26 27 28
36 35 34 33 30 27 25 23 22 22 21 21 21 20 20 19 18 17 16 15 14 13 12 11 12 13 15 16 17 18 19 20 21 21 22 23 24 25 25 23 22 22 21 21 22 23 24 25 25 24 24 24 23 23 22 22 22 22 22 23 23 24 25
40 38 37 36 34 31 29 26 25 23 22 22 22 21 20 20 20 18 18 17 15 14 13 11 11 11 12 14 15 16 17 19 20 20 21 21 23 24 24 24 23 22 21 20 20 21 22 23 23 22 22 22 21 21 21 20 20 20 20 20 21 21 22
44 42 40 38 36 33 31 29 27 26 24 24 23 22 21 21 21 20 20 19 17 16 15 13 12 11 11 12 13 14 15 17 18 19 20 20 21 21 22 23 23 22 21 19 19 18 19 20 21 20 20 20 19 19 19 19 19 19 19 19 19 19 19
47 45 42 39 37 35 34 32 31 29 27 25 25 24 23 21 20 21 21 21 20 18 17 15 14 13 13 13 13 13 14 15 16 17 18 18 19 19 20 20 21 21 21 20 18 17 16 17 17 18 18 18 18 17 17 17 17 17 17 17 17 17 17
49 47 44 42 40 39 38 36 34 32 29 27 26 26 25 23 21 21 22 22 21 20 19 18 16 15 16 15 14 13 13 14 14 15 15 15 16 16 17 17 18 19 19 19 18 17 15 14 14 15 16 16 16 16 15 15 15 15 15 15 16 16 15
52 49 47 46 44 43 41 38 36 34 31 29 28 27 27 26 23 23 23 23 23 22 20 19 18 17 18 17 16 15 14 14 14 14 13 13 13 14 14 14 15 15 16 16 16 16 15 14 12 12 12 13 14 14 14 13 13 13 14 14 14 14 14
55 53 51 49 47 45 42 40 38 35 33 31 30 29 28 27 26 25 24 23 23 23 21 20 20 19 19 18 17 16 15 15 14 13 12 11 11 11 11 11 11 12 12 12 13 13 13 13 11 10 10 10 11 11 12 12 12 12 12 12 12 12 12
57 55 53 51 49 47 44 41 39 37 35 33 32 31 29 28 27 26 25 23 23 22 21 21 21 20 19 19 18 17 16 15 13 12 11 10 9 9 8 8 8 8 8 8 9 9 9 10 9 9 8 7 8 9 10 10 11 11 11 11 11 11 11
58 55 54 52 50 48 45 43 41 38 37 36 34 32 30 29 28 26 26 25 23 22 21 22 22 21 20 19 17 16 15 13 13 12 11 9 8 7 7 7 6 6 5 5 5 5 6 6 6 6 6 6 6 6 7 8 9 9 10 10 10 10 10
60 56 55 54 52 49 47 45 43 41 40 39 37 35 33 30 29 27 27 25 24 24 23 23 23 22 21 19 17 16 15 13 13 12 11 10 9 7 7 7 6 6 5 4 3 2 2 2 2 3 3 4 4 4 4 5 5 7 7 8 8 9 9
61 57 55 56 54 51 49 48 46 45 43 42 40 38 36 33 31 29 28 27 26 25 26 25 25 24 23 21 19 17 16 15 14 13 12 11 11 10 9 9 8 7 7 6 5 4 3 3 2 2 2 2 3 4 3 3 3 3 4 4 5 6 6
62 58 57 57 55 53 52 50 49 47 45 44 42 40 39 36 34 33 31 30 29 28 28 27 26 26 25 23 22 20 18 17 16 15 14 14 13 12 12 11 10 9 9 9 9 8 8 7 7 6 6 5 5 5 5 5 4 4 4 4 4 4 4
64 62 60 58 56 55 54 52 51 51 48 47 45 43 42 40 38 37 36 35 34 32 32 31 29 28 27 25 23 21 20 19 18 17 16 16 15 14 13 13 12 12 11 11 11 11 11 10 10 10 10 9 9 8 8 8 8 7 7 6 6 6 6
65 64 62 59 58 57 56 55 54 53 52 49 48 46 45 44 42 41 40 39 38 37 35 34 32 30 29 28 26 23 22 21 21 20 19 18 17 16 15 14 14 13 13 13 14 14 13 12 12 12 12 12 12 12 11 11 11 10 10 10 10 10 9
66 65 63 61 60 59 58 57 56 55 54 52 50 49 48 47 46 44 43 41 40 39 38 36 35 33 32 30 28 26 25 25 24 23 21 21 20 20 19 18 17 16 15 15 15 14 14 14 13 14 14 14 15 16 16 16 15 14 13 13 13 13 13
67 66 64 62 62 62 60 59 58 57 56 54 52 50 50 49 48 46 45 43 42 41 40 39 38 36 35 33 32 31 30 29 28 26 25 25 25 25 24 22 21 20 18 18 17 17 17 17 16 16 16 17 17 18 19 19 18 17 17 16 16 16 16
68 67 66 64 64 64 62 61 59 58 58 57 54 53 52 52 51 49 47 46 44 43 42 41 40 39 38 37 36 35 34 32 31 29 29 29 29 29 27 25 24 23 21 21 21 22 23 22 21 20 19 20 21 21 22 22 22 21 19 19 18 19 19
69 67 66 66 66 65 64 63 62 60 59 59 58 56 55 54 54 52 50 49 47 47 45 44 43 42 41 40 39 38 37 35 34 33 33 33 32 31 30 27 25 24 24 23 24 25 24 24 24 24 24 24 24 25 25 24 24 24 23 22 22 21 22
70 67 66 65 64 65 65 64 64 63 61 61 61 58 57 56 56 54 53 51 50 49 48 47 45 44 44 42 41 40 40 39 38 37 37 36 34 34 33 31 29 27 27 27 27 27 27 27 27 28 28 27 26 27 27 26 26 26 27 26 26 25 24
70 70 68 63 60 62 64 63 64 65 63 63 63 61 58 57 56 56 55 53 52 50 49 48 47 46 46 45 44 43 43 42 40 40 40 39 37 37 36 35 33 31 30 29 29 29 30 31 32 33 33 31 29 28 28 29 29 29 29 30 29 28 26
69 72 74 69 63 64 65 64 65 68 67 67 66 64 61 58 57 56 55 54 53 52 50 50 49 49 48 48 47 46 44 43 42 42 42 41 41 40 39 39 38 36 35 34 32 32 32 33 35 36 36 35 33 32 31 32 33 33 33 33 32 31 29
69 71 76 75 69 67 68 67 66 68 69 69 68 66 64 62 59 58 56 55 55 54 53 52 51 51 50 50 49 48 46 45 45 44 44 44 44 43 42 42 41 40 39 38 36 34 34 35 37 38 38 38 38 37 37 36 36 36 36 35 35 35 33
70 69 74 78 73 69 69 69 69 69 70 71 70 68 66 65 63 61 58 56 56 55 55 55 54 53 52 51 51 50 48 46 46 46 45 44 44 45 45 43 42 42 42 40 39 39 39 40 41 40 39 40 41 41 41 41 41 41 40 39 38 37 36
73 69 71 77 78 73 68 68 70 71 72 71 70 69 69 66 65 64 61 58 58 57 57 56 56 55 53 52 52 51 49 48 48 48 47 45 45 47 47 46 46 47 46 44 43 45 46 46 46 45 44 42 42 42 43 44 45 45 45 44 42 41 40
76 71 70 74 78 75 68 65 66 69 72 73 72 71 70 68 66 65 63 60 60 59 59 58 57 56 55 53 52 50 49 49 50 49 48 48 47 45 44 46 47 48 49 49 48 49 51 50 50 51 51 50 48 46 46 46 47 47 48 47 47 46 46
80 74 69 71 75 73 67 63 63 66 70 74 75 74 71 69 68 67 64 63 62 62 61 60 59 57 57 56 53 52 51 50 49 49 49 49 48 44 41 42 44 45 48 50 50 50 51 52 53 54 55 55 54 51 50 50 49 49 48 48 48 48 48
84 78 70 69 72 72 67 63 62 64 66 69 73 75 73 72 71 70 69 67 66 65 64 64 61 59 59 58 54 54 54 51 47 47 50 51 50 48 46 44 45 48 50 52 52 51 51 52 56 57 57 57 56 53 52 52 52 51 50 50 50 50 49
86 84 77 72 72 73 68 62 61 62 63 63 66 69 71 71 70 70 69 69 69 69 67 66 64 62 62 61 58 57 58 56 51 49 51 54 53 52 51 49 50 54 56 57 56 55 54 56 59 61 60 58 56 54 54 55 56 56 55 55 54 54 52
84 87 84 79 77 76 71 64 61 62 62 62 61 60 62 64 66 66 66 66 67 68 68 68 67 65 65 64 63 62 62 61 58 56 56 59 58 56 55 55 54 56 60 63 62 60 60 61 63 65 66 64 63 61 60 60 61 61 60 60 60 60 59
82 86 88 87 85 82 77 69 64 63 63 63 63 61 58 57 58 61 63 63 64 64 65 66 66 66 66 66 66 65 64 63 63 62 62 64 63 60 59 60 61 64 67 68 67 65 66 67 69 70 71 71 70 69 66 66 66 66 65 64 64 65 65
82 84 88 90 89 88 85 79 74 72 69 68 68 66 64 60 57 58 61 63 64 63 63 63 63 63 64 65 66 67 67 66 66 66 66 67 68 65 62 62 64 67 70 71 70 70 70 72 73 74 75 75 75 73 71 70 71 72 70 69 68 69 69
85 84 86 90 92 92 89 85 82 80 78 76 75 73 71 70 67 64 64 66 67 66 64 63 62 63 64 64 63 64 66 67 69 70 70 70 71 70 67 65 66 67 68 70 71 72 74 75 77 77 78 79 79 78 76 76 77 77 76 75 74 74 74
86 86 85 88 92 94 91 86 81 78 76 78 80 80 78 77 76 74 72 71 72 72 69 66 64 65 66 67 65 62 63 64 66 70 72 74 75 74 73 72 71 71 71 71 72 73 75 77 79 81 81 82 83 83 81 80 79 79 79 79 79 79 78
88 88 87 87 89 93 95 91 84 76 72 72 76 80 82 83 81 80 80 78 77 77 75 73 70 68 68 69 70 68 66 65 64 65 68 71 74 77 78 77 77 77 77 77 77 77 77 77 78 80 82 84 86 86 84 81 80 79 79 80 81 82 83
90 89 89 88 87 90 95 97 93 85 79 75 75 76 80 83 84 84 84 84 83 82 81 80 78 75 72 71 72 72 72 72 71 69 69 70 71 73 76 78 78 80 81 82 83 83 83 82 81 82 83 84 85 86 84 83 82 82 83 84 85 86 87
94 91 90 90 90 91 94 98 99 97 93 88 84 80 79 80 83 84 85 85 87 88 88 87 85 83 80 78 76 76 76 77 77 77 77 77 77 76 76 76 77 79 81 83 84 86 86 86 86 85 85 86 86 87 87 88 88 89 90 91 91 91 91
100 97 95 93 93 93 95 97 99 100 100 100 97 93 88 84 83 84 84 85 86 87 90 91 91 90 88 86 84 83 83 83 82 82 82 83 84 84 83 83 82 82 82 82 83 85 86 88 89 89 90 90 91 92 92 94 95 95 95 96 96 96 97